<?xml version="1.0" encoding="UTF-8" standalone="no" ?>
<gpx xmlns="http://www.topografix.com/GPX/1/1" xmlns:xsi="http://www.w3.org/2001/XMLSchema-instance" xsi:schemaLocation="http://www.topografix.com/GPX/1/1 http://www.topografix.com/GPX/1/1/gpx.xsd" version="1.1" creator="VisuGPX - https://www.visugpx.com">
  <metadata>
    <name>Grand-Ballon 001</name>
    <desc><![CDATA[Trace par Carlito, Large/single en montée, Single en descente]]></desc>
  </metadata>
  <trk>
    <name><![CDATA[MTB: Grand ballon + neige]]></name>
    <trkseg>
      <trkpt lat="47.92069" lon="7.1707">
        <ele>412.3</ele>
        <time>2013-11-11T13:02:47Z</time>
      </trkpt>
      <trkpt lat="47.92068" lon="7.17082">
        <ele>412.9</ele>
        <time>2013-11-11T13:02:48Z</time>
      </trkpt>
      <trkpt lat="47.92076" lon="7.17098">
        <ele>410.3</ele>
        <time>2013-11-11T13:02:49Z</time>
      </trkpt>
      <trkpt lat="47.92085" lon="7.1712">
        <ele>406.7</ele>
        <time>2013-11-11T13:02:50Z</time>
      </trkpt>
      <trkpt lat="47.92087" lon="7.17125">
        <ele>405.8</ele>
        <time>2013-11-11T13:02:54Z</time>
      </trkpt>
      <trkpt lat="47.92087" lon="7.17129">
        <ele>406.1</ele>
        <time>2013-11-11T13:03:00Z</time>
      </trkpt>
      <trkpt lat="47.92087" lon="7.17123">
        <ele>405.8</ele>
        <time>2013-11-11T13:03:17Z</time>
      </trkpt>
      <trkpt lat="47.92088" lon="7.17119">
        <ele>405.3</ele>
        <time>2013-11-11T13:03:22Z</time>
      </trkpt>
      <trkpt lat="47.92088" lon="7.17115">
        <ele>405.3</ele>
        <time>2013-11-11T13:03:26Z</time>
      </trkpt>
      <trkpt lat="47.92091" lon="7.17116">
        <ele>404</ele>
        <time>2013-11-11T13:03:30Z</time>
      </trkpt>
      <trkpt lat="47.92092" lon="7.17121">
        <ele>403.3</ele>
        <time>2013-11-11T13:03:32Z</time>
      </trkpt>
      <trkpt lat="47.92094" lon="7.17126">
        <ele>402.8</ele>
        <time>2013-11-11T13:03:34Z</time>
      </trkpt>
      <trkpt lat="47.92095" lon="7.1713">
        <ele>402.3</ele>
        <time>2013-11-11T13:03:39Z</time>
      </trkpt>
      <trkpt lat="47.92098" lon="7.17135">
        <ele>401.3</ele>
        <time>2013-11-11T13:03:41Z</time>
      </trkpt>
      <trkpt lat="47.92099" lon="7.17139">
        <ele>401.1</ele>
        <time>2013-11-11T13:03:43Z</time>
      </trkpt>
      <trkpt lat="47.92097" lon="7.17143">
        <ele>402</ele>
        <time>2013-11-11T13:03:45Z</time>
      </trkpt>
      <trkpt lat="47.92093" lon="7.17141">
        <ele>403.7</ele>
        <time>2013-11-11T13:03:48Z</time>
      </trkpt>
      <trkpt lat="47.92091" lon="7.17135">
        <ele>404.6</ele>
        <time>2013-11-11T13:03:50Z</time>
      </trkpt>
      <trkpt lat="47.9209" lon="7.17131">
        <ele>404.9</ele>
        <time>2013-11-11T13:03:51Z</time>
      </trkpt>
      <trkpt lat="47.92089" lon="7.17127">
        <ele>405.1</ele>
        <time>2013-11-11T13:03:52Z</time>
      </trkpt>
      <trkpt lat="47.92088" lon="7.17122">
        <ele>405.4</ele>
        <time>2013-11-11T13:03:53Z</time>
      </trkpt>
      <trkpt lat="47.92087" lon="7.17119">
        <ele>405.6</ele>
        <time>2013-11-11T13:03:54Z</time>
      </trkpt>
      <trkpt lat="47.92086" lon="7.17115">
        <ele>406</ele>
        <time>2013-11-11T13:03:55Z</time>
      </trkpt>
      <trkpt lat="47.92085" lon="7.17111">
        <ele>406.3</ele>
        <time>2013-11-11T13:03:56Z</time>
      </trkpt>
      <trkpt lat="47.92084" lon="7.17107">
        <ele>406.6</ele>
        <time>2013-11-11T13:03:57Z</time>
      </trkpt>
      <trkpt lat="47.92084" lon="7.17102">
        <ele>406.8</ele>
        <time>2013-11-11T13:03:58Z</time>
      </trkpt>
      <trkpt lat="47.92083" lon="7.17098">
        <ele>407.2</ele>
        <time>2013-11-11T13:03:59Z</time>
      </trkpt>
      <trkpt lat="47.92081" lon="7.17094">
        <ele>407.6</ele>
        <time>2013-11-11T13:04:00Z</time>
      </trkpt>
      <trkpt lat="47.92079" lon="7.17089">
        <ele>408.6</ele>
        <time>2013-11-11T13:04:02Z</time>
      </trkpt>
      <trkpt lat="47.92076" lon="7.17084">
        <ele>409.7</ele>
        <time>2013-11-11T13:04:04Z</time>
      </trkpt>
      <trkpt lat="47.92071" lon="7.17074">
        <ele>411.6</ele>
        <time>2013-11-11T13:04:07Z</time>
      </trkpt>
      <trkpt lat="47.92069" lon="7.17071">
        <ele>412.3</ele>
        <time>2013-11-11T13:04:08Z</time>
      </trkpt>
      <trkpt lat="47.92067" lon="7.17067">
        <ele>413.1</ele>
        <time>2013-11-11T13:04:09Z</time>
      </trkpt>
      <trkpt lat="47.92064" lon="7.17064">
        <ele>413.9</ele>
        <time>2013-11-11T13:04:10Z</time>
      </trkpt>
      <trkpt lat="47.92061" lon="7.17059">
        <ele>415.1</ele>
        <time>2013-11-11T13:04:13Z</time>
      </trkpt>
      <trkpt lat="47.92059" lon="7.17054">
        <ele>415.6</ele>
        <time>2013-11-11T13:04:15Z</time>
      </trkpt>
      <trkpt lat="47.92057" lon="7.17049">
        <ele>416.2</ele>
        <time>2013-11-11T13:04:17Z</time>
      </trkpt>
      <trkpt lat="47.92055" lon="7.17045">
        <ele>416.9</ele>
        <time>2013-11-11T13:04:19Z</time>
      </trkpt>
      <trkpt lat="47.92052" lon="7.1704">
        <ele>417.7</ele>
        <time>2013-11-11T13:04:21Z</time>
      </trkpt>
      <trkpt lat="47.92049" lon="7.17035">
        <ele>418.7</ele>
        <time>2013-11-11T13:04:23Z</time>
      </trkpt>
      <trkpt lat="47.92044" lon="7.17029">
        <ele>420</ele>
        <time>2013-11-11T13:04:25Z</time>
      </trkpt>
      <trkpt lat="47.92042" lon="7.17027">
        <ele>420.6</ele>
        <time>2013-11-11T13:04:26Z</time>
      </trkpt>
      <trkpt lat="47.9204" lon="7.17024">
        <ele>421.3</ele>
        <time>2013-11-11T13:04:27Z</time>
      </trkpt>
      <trkpt lat="47.92038" lon="7.17021">
        <ele>421.8</ele>
        <time>2013-11-11T13:04:28Z</time>
      </trkpt>
      <trkpt lat="47.92035" lon="7.17016">
        <ele>422.4</ele>
        <time>2013-11-11T13:04:30Z</time>
      </trkpt>
      <trkpt lat="47.92033" lon="7.1701">
        <ele>422.7</ele>
        <time>2013-11-11T13:04:32Z</time>
      </trkpt>
      <trkpt lat="47.92032" lon="7.17007">
        <ele>422.9</ele>
        <time>2013-11-11T13:04:33Z</time>
      </trkpt>
      <trkpt lat="47.92031" lon="7.17003">
        <ele>423</ele>
        <time>2013-11-11T13:04:34Z</time>
      </trkpt>
      <trkpt lat="47.9203" lon="7.16999">
        <ele>423</ele>
        <time>2013-11-11T13:04:35Z</time>
      </trkpt>
      <trkpt lat="47.9203" lon="7.16994">
        <ele>422.8</ele>
        <time>2013-11-11T13:04:36Z</time>
      </trkpt>
      <trkpt lat="47.92029" lon="7.16989">
        <ele>422.5</ele>
        <time>2013-11-11T13:04:37Z</time>
      </trkpt>
      <trkpt lat="47.92029" lon="7.16984">
        <ele>422.2</ele>
        <time>2013-11-11T13:04:38Z</time>
      </trkpt>
      <trkpt lat="47.92029" lon="7.1698">
        <ele>422</ele>
        <time>2013-11-11T13:04:39Z</time>
      </trkpt>
      <trkpt lat="47.92028" lon="7.16974">
        <ele>421.8</ele>
        <time>2013-11-11T13:04:40Z</time>
      </trkpt>
      <trkpt lat="47.92028" lon="7.16965">
        <ele>421.4</ele>
        <time>2013-11-11T13:04:42Z</time>
      </trkpt>
      <trkpt lat="47.92027" lon="7.16959">
        <ele>421.2</ele>
        <time>2013-11-11T13:04:43Z</time>
      </trkpt>
      <trkpt lat="47.92027" lon="7.16954">
        <ele>421.2</ele>
        <time>2013-11-11T13:04:44Z</time>
      </trkpt>
      <trkpt lat="47.92027" lon="7.16949">
        <ele>421.4</ele>
        <time>2013-11-11T13:04:45Z</time>
      </trkpt>
      <trkpt lat="47.92027" lon="7.16945">
        <ele>421.7</ele>
        <time>2013-11-11T13:04:46Z</time>
      </trkpt>
      <trkpt lat="47.92026" lon="7.16938">
        <ele>422</ele>
        <time>2013-11-11T13:04:48Z</time>
      </trkpt>
      <trkpt lat="47.92026" lon="7.16932">
        <ele>422.2</ele>
        <time>2013-11-11T13:04:50Z</time>
      </trkpt>
      <trkpt lat="47.92025" lon="7.16927">
        <ele>422.8</ele>
        <time>2013-11-11T13:04:52Z</time>
      </trkpt>
      <trkpt lat="47.92024" lon="7.16921">
        <ele>423.3</ele>
        <time>2013-11-11T13:04:54Z</time>
      </trkpt>
      <trkpt lat="47.92024" lon="7.16915">
        <ele>423.4</ele>
        <time>2013-11-11T13:04:56Z</time>
      </trkpt>
      <trkpt lat="47.92024" lon="7.16909">
        <ele>423.6</ele>
        <time>2013-11-11T13:04:58Z</time>
      </trkpt>
      <trkpt lat="47.92025" lon="7.16904">
        <ele>423.4</ele>
        <time>2013-11-11T13:05:00Z</time>
      </trkpt>
      <trkpt lat="47.92025" lon="7.16898">
        <ele>423.4</ele>
        <time>2013-11-11T13:05:02Z</time>
      </trkpt>
      <trkpt lat="47.92024" lon="7.16893">
        <ele>424</ele>
        <time>2013-11-11T13:05:04Z</time>
      </trkpt>
      <trkpt lat="47.92021" lon="7.16886">
        <ele>425.4</ele>
        <time>2013-11-11T13:05:06Z</time>
      </trkpt>
      <trkpt lat="47.92019" lon="7.16879">
        <ele>426.6</ele>
        <time>2013-11-11T13:05:08Z</time>
      </trkpt>
      <trkpt lat="47.92018" lon="7.16875">
        <ele>427.2</ele>
        <time>2013-11-11T13:05:09Z</time>
      </trkpt>
      <trkpt lat="47.92018" lon="7.1687">
        <ele>426.9</ele>
        <time>2013-11-11T13:05:10Z</time>
      </trkpt>
      <trkpt lat="47.92017" lon="7.16863">
        <ele>426.7</ele>
        <time>2013-11-11T13:05:12Z</time>
      </trkpt>
      <trkpt lat="47.92014" lon="7.16853">
        <ele>427.1</ele>
        <time>2013-11-11T13:05:15Z</time>
      </trkpt>
      <trkpt lat="47.92013" lon="7.16849">
        <ele>427.4</ele>
        <time>2013-11-11T13:05:16Z</time>
      </trkpt>
      <trkpt lat="47.92011" lon="7.16846">
        <ele>427.7</ele>
        <time>2013-11-11T13:05:17Z</time>
      </trkpt>
      <trkpt lat="47.92008" lon="7.16839">
        <ele>428.8</ele>
        <time>2013-11-11T13:05:19Z</time>
      </trkpt>
      <trkpt lat="47.92006" lon="7.16835">
        <ele>429.5</ele>
        <time>2013-11-11T13:05:20Z</time>
      </trkpt>
      <trkpt lat="47.92003" lon="7.16832">
        <ele>430.4</ele>
        <time>2013-11-11T13:05:21Z</time>
      </trkpt>
      <trkpt lat="47.92" lon="7.16829">
        <ele>431.4</ele>
        <time>2013-11-11T13:05:22Z</time>
      </trkpt>
      <trkpt lat="47.91995" lon="7.16823">
        <ele>433.6</ele>
        <time>2013-11-11T13:05:24Z</time>
      </trkpt>
      <trkpt lat="47.91992" lon="7.16819">
        <ele>434.8</ele>
        <time>2013-11-11T13:05:25Z</time>
      </trkpt>
      <trkpt lat="47.91989" lon="7.16816">
        <ele>435.8</ele>
        <time>2013-11-11T13:05:26Z</time>
      </trkpt>
      <trkpt lat="47.91987" lon="7.16812">
        <ele>436.6</ele>
        <time>2013-11-11T13:05:27Z</time>
      </trkpt>
      <trkpt lat="47.91985" lon="7.16809">
        <ele>437.3</ele>
        <time>2013-11-11T13:05:28Z</time>
      </trkpt>
      <trkpt lat="47.91983" lon="7.16805">
        <ele>437.8</ele>
        <time>2013-11-11T13:05:29Z</time>
      </trkpt>
      <trkpt lat="47.91982" lon="7.16801">
        <ele>438</ele>
        <time>2013-11-11T13:05:30Z</time>
      </trkpt>
      <trkpt lat="47.91981" lon="7.16797">
        <ele>438.3</ele>
        <time>2013-11-11T13:05:31Z</time>
      </trkpt>
      <trkpt lat="47.91978" lon="7.16791">
        <ele>439</ele>
        <time>2013-11-11T13:05:33Z</time>
      </trkpt>
      <trkpt lat="47.91977" lon="7.16786">
        <ele>439</ele>
        <time>2013-11-11T13:05:35Z</time>
      </trkpt>
      <trkpt lat="47.91976" lon="7.16781">
        <ele>438.9</ele>
        <time>2013-11-11T13:05:37Z</time>
      </trkpt>
      <trkpt lat="47.91974" lon="7.16777">
        <ele>438.8</ele>
        <time>2013-11-11T13:05:39Z</time>
      </trkpt>
      <trkpt lat="47.91974" lon="7.16772">
        <ele>438.3</ele>
        <time>2013-11-11T13:05:42Z</time>
      </trkpt>
      <trkpt lat="47.91974" lon="7.16768">
        <ele>437.4</ele>
        <time>2013-11-11T13:05:44Z</time>
      </trkpt>
      <trkpt lat="47.91973" lon="7.16762">
        <ele>436.7</ele>
        <time>2013-11-11T13:05:47Z</time>
      </trkpt>
      <trkpt lat="47.91971" lon="7.16755">
        <ele>436.6</ele>
        <time>2013-11-11T13:05:49Z</time>
      </trkpt>
      <trkpt lat="47.9197" lon="7.1675">
        <ele>436.2</ele>
        <time>2013-11-11T13:05:50Z</time>
      </trkpt>
      <trkpt lat="47.91969" lon="7.16747">
        <ele>436</ele>
        <time>2013-11-11T13:05:51Z</time>
      </trkpt>
      <trkpt lat="47.91967" lon="7.1674">
        <ele>435.8</ele>
        <time>2013-11-11T13:05:53Z</time>
      </trkpt>
      <trkpt lat="47.91965" lon="7.16734">
        <ele>435.3</ele>
        <time>2013-11-11T13:05:55Z</time>
      </trkpt>
      <trkpt lat="47.91965" lon="7.16728">
        <ele>434.1</ele>
        <time>2013-11-11T13:05:57Z</time>
      </trkpt>
      <trkpt lat="47.91966" lon="7.16722">
        <ele>432.8</ele>
        <time>2013-11-11T13:05:59Z</time>
      </trkpt>
      <trkpt lat="47.91966" lon="7.16715">
        <ele>431.5</ele>
        <time>2013-11-11T13:06:01Z</time>
      </trkpt>
      <trkpt lat="47.91966" lon="7.16708">
        <ele>430.2</ele>
        <time>2013-11-11T13:06:03Z</time>
      </trkpt>
      <trkpt lat="47.91966" lon="7.16701">
        <ele>429.4</ele>
        <time>2013-11-11T13:06:05Z</time>
      </trkpt>
      <trkpt lat="47.91964" lon="7.16694">
        <ele>428.9</ele>
        <time>2013-11-11T13:06:07Z</time>
      </trkpt>
      <trkpt lat="47.91963" lon="7.1669">
        <ele>428.6</ele>
        <time>2013-11-11T13:06:08Z</time>
      </trkpt>
      <trkpt lat="47.91962" lon="7.16686">
        <ele>428.3</ele>
        <time>2013-11-11T13:06:09Z</time>
      </trkpt>
      <trkpt lat="47.91961" lon="7.16681">
        <ele>427.9</ele>
        <time>2013-11-11T13:06:10Z</time>
      </trkpt>
      <trkpt lat="47.91958" lon="7.16673">
        <ele>427.4</ele>
        <time>2013-11-11T13:06:12Z</time>
      </trkpt>
      <trkpt lat="47.91956" lon="7.16669">
        <ele>427.1</ele>
        <time>2013-11-11T13:06:13Z</time>
      </trkpt>
      <trkpt lat="47.91955" lon="7.16665">
        <ele>426.8</ele>
        <time>2013-11-11T13:06:14Z</time>
      </trkpt>
      <trkpt lat="47.91955" lon="7.16656">
        <ele>425.3</ele>
        <time>2013-11-11T13:06:17Z</time>
      </trkpt>
      <trkpt lat="47.91955" lon="7.16649">
        <ele>424.1</ele>
        <time>2013-11-11T13:06:18Z</time>
      </trkpt>
      <trkpt lat="47.91957" lon="7.16634">
        <ele>421</ele>
        <time>2013-11-11T13:06:19Z</time>
      </trkpt>
      <trkpt lat="47.91958" lon="7.16627">
        <ele>419.5</ele>
        <time>2013-11-11T13:06:20Z</time>
      </trkpt>
      <trkpt lat="47.91959" lon="7.16622">
        <ele>419.6</ele>
        <time>2013-11-11T13:06:21Z</time>
      </trkpt>
      <trkpt lat="47.91961" lon="7.16616">
        <ele>420.5</ele>
        <time>2013-11-11T13:06:22Z</time>
      </trkpt>
      <trkpt lat="47.91962" lon="7.16612">
        <ele>421.2</ele>
        <time>2013-11-11T13:06:23Z</time>
      </trkpt>
      <trkpt lat="47.91964" lon="7.16608">
        <ele>421.9</ele>
        <time>2013-11-11T13:06:24Z</time>
      </trkpt>
      <trkpt lat="47.91966" lon="7.16605">
        <ele>422.6</ele>
        <time>2013-11-11T13:06:25Z</time>
      </trkpt>
      <trkpt lat="47.91968" lon="7.16601">
        <ele>423.3</ele>
        <time>2013-11-11T13:06:26Z</time>
      </trkpt>
      <trkpt lat="47.9197" lon="7.16598">
        <ele>424</ele>
        <time>2013-11-11T13:06:27Z</time>
      </trkpt>
      <trkpt lat="47.91972" lon="7.16596">
        <ele>424.5</ele>
        <time>2013-11-11T13:06:28Z</time>
      </trkpt>
      <trkpt lat="47.91975" lon="7.16594">
        <ele>425</ele>
        <time>2013-11-11T13:06:29Z</time>
      </trkpt>
      <trkpt lat="47.91981" lon="7.16589">
        <ele>426.3</ele>
        <time>2013-11-11T13:06:32Z</time>
      </trkpt>
      <trkpt lat="47.91986" lon="7.16585">
        <ele>427.4</ele>
        <time>2013-11-11T13:06:34Z</time>
      </trkpt>
      <trkpt lat="47.91991" lon="7.16581">
        <ele>428.4</ele>
        <time>2013-11-11T13:06:36Z</time>
      </trkpt>
      <trkpt lat="47.91994" lon="7.1658">
        <ele>429</ele>
        <time>2013-11-11T13:06:38Z</time>
      </trkpt>
      <trkpt lat="47.91999" lon="7.1658">
        <ele>429.2</ele>
        <time>2013-11-11T13:06:40Z</time>
      </trkpt>
      <trkpt lat="47.92003" lon="7.1658">
        <ele>429.4</ele>
        <time>2013-11-11T13:06:42Z</time>
      </trkpt>
      <trkpt lat="47.92008" lon="7.1658">
        <ele>429.9</ele>
        <time>2013-11-11T13:06:44Z</time>
      </trkpt>
      <trkpt lat="47.92012" lon="7.16579">
        <ele>430.3</ele>
        <time>2013-11-11T13:06:46Z</time>
      </trkpt>
      <trkpt lat="47.92015" lon="7.16578">
        <ele>430.9</ele>
        <time>2013-11-11T13:06:48Z</time>
      </trkpt>
      <trkpt lat="47.92019" lon="7.16576">
        <ele>431.6</ele>
        <time>2013-11-11T13:06:50Z</time>
      </trkpt>
      <trkpt lat="47.92022" lon="7.16574">
        <ele>432.3</ele>
        <time>2013-11-11T13:06:52Z</time>
      </trkpt>
      <trkpt lat="47.92025" lon="7.16572">
        <ele>433.1</ele>
        <time>2013-11-11T13:06:54Z</time>
      </trkpt>
      <trkpt lat="47.92028" lon="7.16569">
        <ele>433.9</ele>
        <time>2013-11-11T13:06:56Z</time>
      </trkpt>
      <trkpt lat="47.92032" lon="7.16566">
        <ele>435.3</ele>
        <time>2013-11-11T13:06:58Z</time>
      </trkpt>
      <trkpt lat="47.92034" lon="7.16563">
        <ele>436.1</ele>
        <time>2013-11-11T13:06:59Z</time>
      </trkpt>
      <trkpt lat="47.92037" lon="7.16561">
        <ele>436.9</ele>
        <time>2013-11-11T13:07:00Z</time>
      </trkpt>
      <trkpt lat="47.9204" lon="7.16558">
        <ele>438.2</ele>
        <time>2013-11-11T13:07:02Z</time>
      </trkpt>
      <trkpt lat="47.92044" lon="7.16554">
        <ele>439.5</ele>
        <time>2013-11-11T13:07:04Z</time>
      </trkpt>
      <trkpt lat="47.92046" lon="7.16552">
        <ele>440.3</ele>
        <time>2013-11-11T13:07:06Z</time>
      </trkpt>
      <trkpt lat="47.92049" lon="7.16552">
        <ele>440.5</ele>
        <time>2013-11-11T13:07:08Z</time>
      </trkpt>
      <trkpt lat="47.92053" lon="7.16552">
        <ele>440.7</ele>
        <time>2013-11-11T13:07:10Z</time>
      </trkpt>
      <trkpt lat="47.92056" lon="7.16552">
        <ele>440.9</ele>
        <time>2013-11-11T13:07:12Z</time>
      </trkpt>
      <trkpt lat="47.92059" lon="7.16552">
        <ele>441.2</ele>
        <time>2013-11-11T13:07:15Z</time>
      </trkpt>
      <trkpt lat="47.92062" lon="7.16551">
        <ele>441.5</ele>
        <time>2013-11-11T13:07:17Z</time>
      </trkpt>
      <trkpt lat="47.92066" lon="7.16551">
        <ele>441.8</ele>
        <time>2013-11-11T13:07:19Z</time>
      </trkpt>
      <trkpt lat="47.9207" lon="7.16552">
        <ele>441.8</ele>
        <time>2013-11-11T13:07:21Z</time>
      </trkpt>
      <trkpt lat="47.92074" lon="7.16553">
        <ele>441.7</ele>
        <time>2013-11-11T13:07:23Z</time>
      </trkpt>
      <trkpt lat="47.92077" lon="7.16554">
        <ele>441.5</ele>
        <time>2013-11-11T13:07:25Z</time>
      </trkpt>
      <trkpt lat="47.9208" lon="7.16555">
        <ele>441.2</ele>
        <time>2013-11-11T13:07:27Z</time>
      </trkpt>
      <trkpt lat="47.92084" lon="7.16555">
        <ele>441.6</ele>
        <time>2013-11-11T13:07:30Z</time>
      </trkpt>
      <trkpt lat="47.92087" lon="7.16553">
        <ele>442.3</ele>
        <time>2013-11-11T13:07:32Z</time>
      </trkpt>
      <trkpt lat="47.92091" lon="7.16551">
        <ele>443.2</ele>
        <time>2013-11-11T13:07:34Z</time>
      </trkpt>
      <trkpt lat="47.92094" lon="7.16548">
        <ele>444.2</ele>
        <time>2013-11-11T13:07:36Z</time>
      </trkpt>
      <trkpt lat="47.92098" lon="7.16545">
        <ele>445.4</ele>
        <time>2013-11-11T13:07:38Z</time>
      </trkpt>
      <trkpt lat="47.92101" lon="7.1654">
        <ele>447.2</ele>
        <time>2013-11-11T13:07:40Z</time>
      </trkpt>
      <trkpt lat="47.92104" lon="7.16536">
        <ele>448.6</ele>
        <time>2013-11-11T13:07:41Z</time>
      </trkpt>
      <trkpt lat="47.92106" lon="7.16532">
        <ele>449.9</ele>
        <time>2013-11-11T13:07:42Z</time>
      </trkpt>
      <trkpt lat="47.92109" lon="7.16529">
        <ele>451</ele>
        <time>2013-11-11T13:07:43Z</time>
      </trkpt>
      <trkpt lat="47.92112" lon="7.16524">
        <ele>452.9</ele>
        <time>2013-11-11T13:07:45Z</time>
      </trkpt>
      <trkpt lat="47.92115" lon="7.16519">
        <ele>454.8</ele>
        <time>2013-11-11T13:07:47Z</time>
      </trkpt>
      <trkpt lat="47.92118" lon="7.16514">
        <ele>456.6</ele>
        <time>2013-11-11T13:07:49Z</time>
      </trkpt>
      <trkpt lat="47.92121" lon="7.16509">
        <ele>458.4</ele>
        <time>2013-11-11T13:07:51Z</time>
      </trkpt>
      <trkpt lat="47.92124" lon="7.16505">
        <ele>459.7</ele>
        <time>2013-11-11T13:07:53Z</time>
      </trkpt>
      <trkpt lat="47.92127" lon="7.165">
        <ele>461</ele>
        <time>2013-11-11T13:07:56Z</time>
      </trkpt>
      <trkpt lat="47.92132" lon="7.16493">
        <ele>462.5</ele>
        <time>2013-11-11T13:07:58Z</time>
      </trkpt>
      <trkpt lat="47.92135" lon="7.16488">
        <ele>463.5</ele>
        <time>2013-11-11T13:08:00Z</time>
      </trkpt>
      <trkpt lat="47.92138" lon="7.16482">
        <ele>464.6</ele>
        <time>2013-11-11T13:08:02Z</time>
      </trkpt>
      <trkpt lat="47.9214" lon="7.16479">
        <ele>465.2</ele>
        <time>2013-11-11T13:08:03Z</time>
      </trkpt>
      <trkpt lat="47.92143" lon="7.16473">
        <ele>466.2</ele>
        <time>2013-11-11T13:08:05Z</time>
      </trkpt>
      <trkpt lat="47.92146" lon="7.16469">
        <ele>466.9</ele>
        <time>2013-11-11T13:08:07Z</time>
      </trkpt>
      <trkpt lat="47.92149" lon="7.16468">
        <ele>466.7</ele>
        <time>2013-11-11T13:08:10Z</time>
      </trkpt>
      <trkpt lat="47.92153" lon="7.16467">
        <ele>466.2</ele>
        <time>2013-11-11T13:08:15Z</time>
      </trkpt>
      <trkpt lat="47.92155" lon="7.16467">
        <ele>465.6</ele>
        <time>2013-11-11T13:08:19Z</time>
      </trkpt>
      <trkpt lat="47.92154" lon="7.16474">
        <ele>463.7</ele>
        <time>2013-11-11T13:08:33Z</time>
      </trkpt>
      <trkpt lat="47.92152" lon="7.16475">
        <ele>463.8</ele>
        <time>2013-11-11T13:08:40Z</time>
      </trkpt>
      <trkpt lat="47.92155" lon="7.16476">
        <ele>462.8</ele>
        <time>2013-11-11T13:08:56Z</time>
      </trkpt>
      <trkpt lat="47.92159" lon="7.16474">
        <ele>462.8</ele>
        <time>2013-11-11T13:08:59Z</time>
      </trkpt>
      <trkpt lat="47.92161" lon="7.16475">
        <ele>461.7</ele>
        <time>2013-11-11T13:09:09Z</time>
      </trkpt>
      <trkpt lat="47.9216" lon="7.16471">
        <ele>463.3</ele>
        <time>2013-11-11T13:09:13Z</time>
      </trkpt>
      <trkpt lat="47.92158" lon="7.16466">
        <ele>465.3</ele>
        <time>2013-11-11T13:09:15Z</time>
      </trkpt>
      <trkpt lat="47.92155" lon="7.1646">
        <ele>467.9</ele>
        <time>2013-11-11T13:09:17Z</time>
      </trkpt>
      <trkpt lat="47.92152" lon="7.16454">
        <ele>469.6</ele>
        <time>2013-11-11T13:09:19Z</time>
      </trkpt>
      <trkpt lat="47.92152" lon="7.1645">
        <ele>470.6</ele>
        <time>2013-11-11T13:09:22Z</time>
      </trkpt>
      <trkpt lat="47.92196" lon="7.16372">
        <ele>473.5</ele>
        <time>2013-11-11T13:09:53Z</time>
      </trkpt>
      <trkpt lat="47.92197" lon="7.16364">
        <ele>474.6</ele>
        <time>2013-11-11T13:09:55Z</time>
      </trkpt>
      <trkpt lat="47.92199" lon="7.16358">
        <ele>475.5</ele>
        <time>2013-11-11T13:09:57Z</time>
      </trkpt>
      <trkpt lat="47.92199" lon="7.16352">
        <ele>476.5</ele>
        <time>2013-11-11T13:09:59Z</time>
      </trkpt>
      <trkpt lat="47.92199" lon="7.16347">
        <ele>477.6</ele>
        <time>2013-11-11T13:10:01Z</time>
      </trkpt>
      <trkpt lat="47.92199" lon="7.16342">
        <ele>478.6</ele>
        <time>2013-11-11T13:10:03Z</time>
      </trkpt>
      <trkpt lat="47.92199" lon="7.16335">
        <ele>479.9</ele>
        <time>2013-11-11T13:10:05Z</time>
      </trkpt>
      <trkpt lat="47.922" lon="7.16331">
        <ele>480.4</ele>
        <time>2013-11-11T13:10:06Z</time>
      </trkpt>
      <trkpt lat="47.92202" lon="7.16328">
        <ele>480.4</ele>
        <time>2013-11-11T13:10:08Z</time>
      </trkpt>
      <trkpt lat="47.92205" lon="7.16324">
        <ele>480.1</ele>
        <time>2013-11-11T13:10:10Z</time>
      </trkpt>
      <trkpt lat="47.92207" lon="7.1632">
        <ele>480.1</ele>
        <time>2013-11-11T13:10:12Z</time>
      </trkpt>
      <trkpt lat="47.92209" lon="7.16315">
        <ele>480.2</ele>
        <time>2013-11-11T13:10:14Z</time>
      </trkpt>
      <trkpt lat="47.92209" lon="7.1631">
        <ele>481.3</ele>
        <time>2013-11-11T13:10:16Z</time>
      </trkpt>
      <trkpt lat="47.92208" lon="7.16305">
        <ele>482.5</ele>
        <time>2013-11-11T13:10:18Z</time>
      </trkpt>
      <trkpt lat="47.92209" lon="7.16299">
        <ele>483.6</ele>
        <time>2013-11-11T13:10:20Z</time>
      </trkpt>
      <trkpt lat="47.92209" lon="7.16294">
        <ele>484.4</ele>
        <time>2013-11-11T13:10:22Z</time>
      </trkpt>
      <trkpt lat="47.92209" lon="7.16288">
        <ele>484.9</ele>
        <time>2013-11-11T13:10:26Z</time>
      </trkpt>
      <trkpt lat="47.92229" lon="7.16212">
        <ele>480.3</ele>
        <time>2013-11-11T13:10:46Z</time>
      </trkpt>
      <trkpt lat="47.92231" lon="7.16209">
        <ele>479.4</ele>
        <time>2013-11-11T13:10:47Z</time>
      </trkpt>
      <trkpt lat="47.92233" lon="7.16204">
        <ele>478.8</ele>
        <time>2013-11-11T13:10:50Z</time>
      </trkpt>
      <trkpt lat="47.92233" lon="7.16198">
        <ele>478.8</ele>
        <time>2013-11-11T13:10:51Z</time>
      </trkpt>
      <trkpt lat="47.92235" lon="7.16192">
        <ele>478.2</ele>
        <time>2013-11-11T13:10:53Z</time>
      </trkpt>
      <trkpt lat="47.92236" lon="7.16186">
        <ele>477.9</ele>
        <time>2013-11-11T13:10:55Z</time>
      </trkpt>
      <trkpt lat="47.92235" lon="7.16177">
        <ele>478.2</ele>
        <time>2013-11-11T13:10:58Z</time>
      </trkpt>
      <trkpt lat="47.92231" lon="7.16166">
        <ele>479.9</ele>
        <time>2013-11-11T13:11:01Z</time>
      </trkpt>
      <trkpt lat="47.92229" lon="7.16163">
        <ele>480.9</ele>
        <time>2013-11-11T13:11:02Z</time>
      </trkpt>
      <trkpt lat="47.92226" lon="7.16158">
        <ele>482.3</ele>
        <time>2013-11-11T13:11:05Z</time>
      </trkpt>
      <trkpt lat="47.92222" lon="7.16154">
        <ele>483.9</ele>
        <time>2013-11-11T13:11:06Z</time>
      </trkpt>
      <trkpt lat="47.92218" lon="7.16151">
        <ele>485.4</ele>
        <time>2013-11-11T13:11:08Z</time>
      </trkpt>
      <trkpt lat="47.92213" lon="7.16145">
        <ele>487.5</ele>
        <time>2013-11-11T13:11:11Z</time>
      </trkpt>
      <trkpt lat="47.9221" lon="7.1614">
        <ele>489</ele>
        <time>2013-11-11T13:11:13Z</time>
      </trkpt>
      <trkpt lat="47.92208" lon="7.16137">
        <ele>489.9</ele>
        <time>2013-11-11T13:11:14Z</time>
      </trkpt>
      <trkpt lat="47.92202" lon="7.16132">
        <ele>492.8</ele>
        <time>2013-11-11T13:11:16Z</time>
      </trkpt>
      <trkpt lat="47.92198" lon="7.16129">
        <ele>494.7</ele>
        <time>2013-11-11T13:11:17Z</time>
      </trkpt>
      <trkpt lat="47.92195" lon="7.16127">
        <ele>496.1</ele>
        <time>2013-11-11T13:11:18Z</time>
      </trkpt>
      <trkpt lat="47.92192" lon="7.16122">
        <ele>497.3</ele>
        <time>2013-11-11T13:11:20Z</time>
      </trkpt>
      <trkpt lat="47.9219" lon="7.16116">
        <ele>498.5</ele>
        <time>2013-11-11T13:11:22Z</time>
      </trkpt>
      <trkpt lat="47.92188" lon="7.16112">
        <ele>499.2</ele>
        <time>2013-11-11T13:11:24Z</time>
      </trkpt>
      <trkpt lat="47.92185" lon="7.16105">
        <ele>500.7</ele>
        <time>2013-11-11T13:11:26Z</time>
      </trkpt>
      <trkpt lat="47.92175" lon="7.16031">
        <ele>504.6</ele>
        <time>2013-11-11T13:12:03Z</time>
      </trkpt>
      <trkpt lat="47.92174" lon="7.16025">
        <ele>504.4</ele>
        <time>2013-11-11T13:12:05Z</time>
      </trkpt>
      <trkpt lat="47.92169" lon="7.15994">
        <ele>505</ele>
        <time>2013-11-11T13:12:26Z</time>
      </trkpt>
      <trkpt lat="47.92166" lon="7.15992">
        <ele>506.2</ele>
        <time>2013-11-11T13:12:27Z</time>
      </trkpt>
      <trkpt lat="47.92163" lon="7.15984">
        <ele>507.1</ele>
        <time>2013-11-11T13:12:30Z</time>
      </trkpt>
      <trkpt lat="47.92161" lon="7.15977">
        <ele>507.8</ele>
        <time>2013-11-11T13:12:32Z</time>
      </trkpt>
      <trkpt lat="47.92159" lon="7.15974">
        <ele>508.5</ele>
        <time>2013-11-11T13:12:33Z</time>
      </trkpt>
      <trkpt lat="47.92156" lon="7.1597">
        <ele>509.8</ele>
        <time>2013-11-11T13:12:34Z</time>
      </trkpt>
      <trkpt lat="47.92153" lon="7.15967">
        <ele>510.9</ele>
        <time>2013-11-11T13:12:35Z</time>
      </trkpt>
      <trkpt lat="47.92151" lon="7.15964">
        <ele>511.8</ele>
        <time>2013-11-11T13:12:36Z</time>
      </trkpt>
      <trkpt lat="47.92148" lon="7.1596">
        <ele>512.9</ele>
        <time>2013-11-11T13:12:37Z</time>
      </trkpt>
      <trkpt lat="47.92146" lon="7.15956">
        <ele>514.1</ele>
        <time>2013-11-11T13:12:38Z</time>
      </trkpt>
      <trkpt lat="47.92143" lon="7.15953">
        <ele>515.2</ele>
        <time>2013-11-11T13:12:39Z</time>
      </trkpt>
      <trkpt lat="47.92142" lon="7.1595">
        <ele>516</ele>
        <time>2013-11-11T13:12:41Z</time>
      </trkpt>
      <trkpt lat="47.92138" lon="7.15942">
        <ele>518.1</ele>
        <time>2013-11-11T13:12:43Z</time>
      </trkpt>
      <trkpt lat="47.92135" lon="7.15937">
        <ele>519.5</ele>
        <time>2013-11-11T13:12:45Z</time>
      </trkpt>
      <trkpt lat="47.92133" lon="7.15932">
        <ele>520.3</ele>
        <time>2013-11-11T13:12:48Z</time>
      </trkpt>
      <trkpt lat="47.92131" lon="7.15927">
        <ele>521.4</ele>
        <time>2013-11-11T13:12:49Z</time>
      </trkpt>
      <trkpt lat="47.92126" lon="7.15921">
        <ele>523.4</ele>
        <time>2013-11-11T13:12:51Z</time>
      </trkpt>
      <trkpt lat="47.92124" lon="7.15918">
        <ele>524.5</ele>
        <time>2013-11-11T13:12:52Z</time>
      </trkpt>
      <trkpt lat="47.92122" lon="7.15914">
        <ele>525.5</ele>
        <time>2013-11-11T13:12:53Z</time>
      </trkpt>
      <trkpt lat="47.92121" lon="7.15911">
        <ele>526.5</ele>
        <time>2013-11-11T13:12:54Z</time>
      </trkpt>
      <trkpt lat="47.92119" lon="7.15908">
        <ele>527.6</ele>
        <time>2013-11-11T13:12:55Z</time>
      </trkpt>
      <trkpt lat="47.92117" lon="7.15905">
        <ele>528.8</ele>
        <time>2013-11-11T13:12:56Z</time>
      </trkpt>
      <trkpt lat="47.92115" lon="7.15902">
        <ele>529.8</ele>
        <time>2013-11-11T13:12:57Z</time>
      </trkpt>
      <trkpt lat="47.9211" lon="7.159">
        <ele>532.5</ele>
        <time>2013-11-11T13:12:59Z</time>
      </trkpt>
      <trkpt lat="47.92109" lon="7.15881">
        <ele>533.2</ele>
        <time>2013-11-11T13:13:07Z</time>
      </trkpt>
      <trkpt lat="47.92115" lon="7.15878">
        <ele>529.9</ele>
        <time>2013-11-11T13:13:09Z</time>
      </trkpt>
      <trkpt lat="47.92121" lon="7.15874">
        <ele>526.3</ele>
        <time>2013-11-11T13:13:11Z</time>
      </trkpt>
      <trkpt lat="47.92118" lon="7.15871">
        <ele>528</ele>
        <time>2013-11-11T13:13:13Z</time>
      </trkpt>
      <trkpt lat="47.92116" lon="7.15866">
        <ele>528.9</ele>
        <time>2013-11-11T13:13:17Z</time>
      </trkpt>
      <trkpt lat="47.92117" lon="7.15861">
        <ele>528.8</ele>
        <time>2013-11-11T13:13:19Z</time>
      </trkpt>
      <trkpt lat="47.92116" lon="7.15856">
        <ele>529.3</ele>
        <time>2013-11-11T13:13:21Z</time>
      </trkpt>
      <trkpt lat="47.92115" lon="7.15851">
        <ele>529.5</ele>
        <time>2013-11-11T13:13:23Z</time>
      </trkpt>
      <trkpt lat="47.92115" lon="7.15846">
        <ele>529.6</ele>
        <time>2013-11-11T13:13:25Z</time>
      </trkpt>
      <trkpt lat="47.92112" lon="7.15842">
        <ele>531.2</ele>
        <time>2013-11-11T13:13:27Z</time>
      </trkpt>
      <trkpt lat="47.92108" lon="7.15838">
        <ele>533.2</ele>
        <time>2013-11-11T13:13:29Z</time>
      </trkpt>
      <trkpt lat="47.92105" lon="7.15835">
        <ele>534.8</ele>
        <time>2013-11-11T13:13:31Z</time>
      </trkpt>
      <trkpt lat="47.92103" lon="7.1583">
        <ele>536.1</ele>
        <time>2013-11-11T13:13:34Z</time>
      </trkpt>
      <trkpt lat="47.92101" lon="7.15826">
        <ele>536.8</ele>
        <time>2013-11-11T13:13:36Z</time>
      </trkpt>
      <trkpt lat="47.92101" lon="7.15819">
        <ele>536.7</ele>
        <time>2013-11-11T13:13:39Z</time>
      </trkpt>
      <trkpt lat="47.92104" lon="7.15815">
        <ele>535.1</ele>
        <time>2013-11-11T13:13:41Z</time>
      </trkpt>
      <trkpt lat="47.92107" lon="7.1581">
        <ele>533.9</ele>
        <time>2013-11-11T13:13:44Z</time>
      </trkpt>
      <trkpt lat="47.92108" lon="7.15806">
        <ele>533</ele>
        <time>2013-11-11T13:13:46Z</time>
      </trkpt>
      <trkpt lat="47.9211" lon="7.15802">
        <ele>532.1</ele>
        <time>2013-11-11T13:13:47Z</time>
      </trkpt>
      <trkpt lat="47.92112" lon="7.15795">
        <ele>531.5</ele>
        <time>2013-11-11T13:13:50Z</time>
      </trkpt>
      <trkpt lat="47.92114" lon="7.15791">
        <ele>530.4</ele>
        <time>2013-11-11T13:13:54Z</time>
      </trkpt>
      <trkpt lat="47.92115" lon="7.15785">
        <ele>528.7</ele>
        <time>2013-11-11T13:13:56Z</time>
      </trkpt>
      <trkpt lat="47.92114" lon="7.15778">
        <ele>528.1</ele>
        <time>2013-11-11T13:13:59Z</time>
      </trkpt>
      <trkpt lat="47.92111" lon="7.15775">
        <ele>529</ele>
        <time>2013-11-11T13:14:02Z</time>
      </trkpt>
      <trkpt lat="47.92108" lon="7.15774">
        <ele>530.3</ele>
        <time>2013-11-11T13:14:04Z</time>
      </trkpt>
      <trkpt lat="47.92104" lon="7.15772">
        <ele>532</ele>
        <time>2013-11-11T13:14:06Z</time>
      </trkpt>
      <trkpt lat="47.921" lon="7.15768">
        <ele>533.1</ele>
        <time>2013-11-11T13:14:08Z</time>
      </trkpt>
      <trkpt lat="47.92096" lon="7.15764">
        <ele>534.4</ele>
        <time>2013-11-11T13:14:10Z</time>
      </trkpt>
      <trkpt lat="47.92093" lon="7.15761">
        <ele>535.2</ele>
        <time>2013-11-11T13:14:11Z</time>
      </trkpt>
      <trkpt lat="47.92091" lon="7.15759">
        <ele>535.8</ele>
        <time>2013-11-11T13:14:12Z</time>
      </trkpt>
      <trkpt lat="47.92087" lon="7.15754">
        <ele>537</ele>
        <time>2013-11-11T13:14:14Z</time>
      </trkpt>
      <trkpt lat="47.92083" lon="7.15751">
        <ele>538.3</ele>
        <time>2013-11-11T13:14:16Z</time>
      </trkpt>
      <trkpt lat="47.9208" lon="7.1575">
        <ele>539.6</ele>
        <time>2013-11-11T13:14:19Z</time>
      </trkpt>
      <trkpt lat="47.92077" lon="7.15748">
        <ele>540.5</ele>
        <time>2013-11-11T13:14:20Z</time>
      </trkpt>
      <trkpt lat="47.92074" lon="7.15745">
        <ele>541.5</ele>
        <time>2013-11-11T13:14:22Z</time>
      </trkpt>
      <trkpt lat="47.9207" lon="7.15741">
        <ele>542.6</ele>
        <time>2013-11-11T13:14:24Z</time>
      </trkpt>
      <trkpt lat="47.92068" lon="7.15738">
        <ele>542.9</ele>
        <time>2013-11-11T13:14:25Z</time>
      </trkpt>
      <trkpt lat="47.92065" lon="7.15732">
        <ele>543.4</ele>
        <time>2013-11-11T13:14:27Z</time>
      </trkpt>
      <trkpt lat="47.92064" lon="7.15726">
        <ele>543</ele>
        <time>2013-11-11T13:14:29Z</time>
      </trkpt>
      <trkpt lat="47.9206" lon="7.15723">
        <ele>544.1</ele>
        <time>2013-11-11T13:14:31Z</time>
      </trkpt>
      <trkpt lat="47.92057" lon="7.15722">
        <ele>545.5</ele>
        <time>2013-11-11T13:14:33Z</time>
      </trkpt>
      <trkpt lat="47.92058" lon="7.15718">
        <ele>544.4</ele>
        <time>2013-11-11T13:14:36Z</time>
      </trkpt>
      <trkpt lat="47.9206" lon="7.15713">
        <ele>542.5</ele>
        <time>2013-11-11T13:14:39Z</time>
      </trkpt>
      <trkpt lat="47.92064" lon="7.15708">
        <ele>540</ele>
        <time>2013-11-11T13:14:42Z</time>
      </trkpt>
      <trkpt lat="47.92067" lon="7.15703">
        <ele>537.6</ele>
        <time>2013-11-11T13:14:43Z</time>
      </trkpt>
      <trkpt lat="47.9207" lon="7.15699">
        <ele>535.9</ele>
        <time>2013-11-11T13:14:45Z</time>
      </trkpt>
      <trkpt lat="47.92072" lon="7.15696">
        <ele>534.4</ele>
        <time>2013-11-11T13:14:48Z</time>
      </trkpt>
      <trkpt lat="47.92073" lon="7.1569">
        <ele>533.1</ele>
        <time>2013-11-11T13:14:50Z</time>
      </trkpt>
      <trkpt lat="47.92071" lon="7.15684">
        <ele>533</ele>
        <time>2013-11-11T13:14:51Z</time>
      </trkpt>
      <trkpt lat="47.92067" lon="7.1568">
        <ele>534</ele>
        <time>2013-11-11T13:14:53Z</time>
      </trkpt>
      <trkpt lat="47.92064" lon="7.15676">
        <ele>535</ele>
        <time>2013-11-11T13:14:55Z</time>
      </trkpt>
      <trkpt lat="47.92057" lon="7.15672">
        <ele>537.2</ele>
        <time>2013-11-11T13:14:58Z</time>
      </trkpt>
      <trkpt lat="47.92054" lon="7.15672">
        <ele>538.6</ele>
        <time>2013-11-11T13:14:59Z</time>
      </trkpt>
      <trkpt lat="47.9205" lon="7.1567">
        <ele>539.7</ele>
        <time>2013-11-11T13:15:04Z</time>
      </trkpt>
      <trkpt lat="47.92048" lon="7.15669">
        <ele>540.5</ele>
        <time>2013-11-11T13:15:09Z</time>
      </trkpt>
      <trkpt lat="47.92045" lon="7.15669">
        <ele>541.7</ele>
        <time>2013-11-11T13:15:13Z</time>
      </trkpt>
      <trkpt lat="47.92041" lon="7.15669">
        <ele>543.1</ele>
        <time>2013-11-11T13:15:15Z</time>
      </trkpt>
      <trkpt lat="47.92043" lon="7.15663">
        <ele>541.3</ele>
        <time>2013-11-11T13:15:22Z</time>
      </trkpt>
      <trkpt lat="47.92043" lon="7.15658">
        <ele>540.4</ele>
        <time>2013-11-11T13:15:27Z</time>
      </trkpt>
      <trkpt lat="47.92042" lon="7.15654">
        <ele>540</ele>
        <time>2013-11-11T13:15:28Z</time>
      </trkpt>
      <trkpt lat="47.92039" lon="7.15646">
        <ele>539.9</ele>
        <time>2013-11-11T13:15:31Z</time>
      </trkpt>
      <trkpt lat="47.92038" lon="7.15639">
        <ele>539.4</ele>
        <time>2013-11-11T13:15:35Z</time>
      </trkpt>
      <trkpt lat="47.92036" lon="7.15636">
        <ele>539.6</ele>
        <time>2013-11-11T13:15:38Z</time>
      </trkpt>
      <trkpt lat="47.92033" lon="7.15631">
        <ele>540.8</ele>
        <time>2013-11-11T13:15:40Z</time>
      </trkpt>
      <trkpt lat="47.9203" lon="7.15629">
        <ele>541.6</ele>
        <time>2013-11-11T13:15:42Z</time>
      </trkpt>
      <trkpt lat="47.92025" lon="7.15629">
        <ele>544.2</ele>
        <time>2013-11-11T13:15:45Z</time>
      </trkpt>
      <trkpt lat="47.92022" lon="7.1563">
        <ele>545.7</ele>
        <time>2013-11-11T13:15:47Z</time>
      </trkpt>
      <trkpt lat="47.92014" lon="7.15629">
        <ele>550.1</ele>
        <time>2013-11-11T13:15:54Z</time>
      </trkpt>
      <trkpt lat="47.91956" lon="7.15523">
        <ele>588.2</ele>
        <time>2013-11-11T13:16:37Z</time>
      </trkpt>
      <trkpt lat="47.91954" lon="7.1552">
        <ele>589.6</ele>
        <time>2013-11-11T13:16:41Z</time>
      </trkpt>
      <trkpt lat="47.91953" lon="7.15516">
        <ele>590.1</ele>
        <time>2013-11-11T13:16:44Z</time>
      </trkpt>
      <trkpt lat="47.91955" lon="7.15511">
        <ele>589.3</ele>
        <time>2013-11-11T13:16:45Z</time>
      </trkpt>
      <trkpt lat="47.91958" lon="7.15506">
        <ele>588.2</ele>
        <time>2013-11-11T13:16:47Z</time>
      </trkpt>
      <trkpt lat="47.91963" lon="7.155">
        <ele>586.4</ele>
        <time>2013-11-11T13:16:50Z</time>
      </trkpt>
      <trkpt lat="47.91966" lon="7.15497">
        <ele>584.9</ele>
        <time>2013-11-11T13:16:51Z</time>
      </trkpt>
      <trkpt lat="47.91969" lon="7.15494">
        <ele>583.8</ele>
        <time>2013-11-11T13:16:53Z</time>
      </trkpt>
      <trkpt lat="47.91973" lon="7.15489">
        <ele>582.3</ele>
        <time>2013-11-11T13:16:54Z</time>
      </trkpt>
      <trkpt lat="47.91979" lon="7.15484">
        <ele>579.8</ele>
        <time>2013-11-11T13:16:57Z</time>
      </trkpt>
      <trkpt lat="47.91982" lon="7.15482">
        <ele>578.8</ele>
        <time>2013-11-11T13:16:58Z</time>
      </trkpt>
      <trkpt lat="47.91986" lon="7.15479">
        <ele>576.9</ele>
        <time>2013-11-11T13:17:00Z</time>
      </trkpt>
      <trkpt lat="47.9199" lon="7.15476">
        <ele>575.5</ele>
        <time>2013-11-11T13:17:02Z</time>
      </trkpt>
      <trkpt lat="47.91996" lon="7.15471">
        <ele>573.5</ele>
        <time>2013-11-11T13:17:05Z</time>
      </trkpt>
      <trkpt lat="47.92" lon="7.15469">
        <ele>572</ele>
        <time>2013-11-11T13:17:07Z</time>
      </trkpt>
      <trkpt lat="47.92002" lon="7.15466">
        <ele>571.1</ele>
        <time>2013-11-11T13:17:09Z</time>
      </trkpt>
      <trkpt lat="47.92004" lon="7.15463">
        <ele>570.6</ele>
        <time>2013-11-11T13:17:11Z</time>
      </trkpt>
      <trkpt lat="47.92007" lon="7.15455">
        <ele>569.8</ele>
        <time>2013-11-11T13:17:15Z</time>
      </trkpt>
      <trkpt lat="47.92007" lon="7.15451">
        <ele>569.8</ele>
        <time>2013-11-11T13:17:16Z</time>
      </trkpt>
      <trkpt lat="47.92007" lon="7.15447">
        <ele>569.7</ele>
        <time>2013-11-11T13:17:17Z</time>
      </trkpt>
      <trkpt lat="47.92005" lon="7.1544">
        <ele>570.5</ele>
        <time>2013-11-11T13:17:19Z</time>
      </trkpt>
      <trkpt lat="47.92003" lon="7.15436">
        <ele>571.4</ele>
        <time>2013-11-11T13:17:21Z</time>
      </trkpt>
      <trkpt lat="47.91992" lon="7.15433">
        <ele>576</ele>
        <time>2013-11-11T13:17:23Z</time>
      </trkpt>
      <trkpt lat="47.91983" lon="7.15433">
        <ele>579.8</ele>
        <time>2013-11-11T13:17:25Z</time>
      </trkpt>
      <trkpt lat="47.91974" lon="7.15434">
        <ele>583.6</ele>
        <time>2013-11-11T13:17:33Z</time>
      </trkpt>
      <trkpt lat="47.91965" lon="7.15434">
        <ele>587.4</ele>
        <time>2013-11-11T13:17:35Z</time>
      </trkpt>
      <trkpt lat="47.91952" lon="7.15411">
        <ele>592.8</ele>
        <time>2013-11-11T13:17:50Z</time>
      </trkpt>
      <trkpt lat="47.91949" lon="7.15408">
        <ele>594.1</ele>
        <time>2013-11-11T13:17:53Z</time>
      </trkpt>
      <trkpt lat="47.91951" lon="7.15402">
        <ele>593.3</ele>
        <time>2013-11-11T13:17:57Z</time>
      </trkpt>
      <trkpt lat="47.91952" lon="7.15398">
        <ele>592.6</ele>
        <time>2013-11-11T13:18:02Z</time>
      </trkpt>
      <trkpt lat="47.9195" lon="7.15394">
        <ele>593.4</ele>
        <time>2013-11-11T13:18:05Z</time>
      </trkpt>
      <trkpt lat="47.91951" lon="7.1539">
        <ele>592.6</ele>
        <time>2013-11-11T13:18:06Z</time>
      </trkpt>
      <trkpt lat="47.91954" lon="7.15386">
        <ele>591.2</ele>
        <time>2013-11-11T13:18:08Z</time>
      </trkpt>
      <trkpt lat="47.91955" lon="7.15382">
        <ele>590.5</ele>
        <time>2013-11-11T13:18:10Z</time>
      </trkpt>
      <trkpt lat="47.91953" lon="7.15379">
        <ele>591.5</ele>
        <time>2013-11-11T13:18:14Z</time>
      </trkpt>
      <trkpt lat="47.91953" lon="7.15373">
        <ele>590.9</ele>
        <time>2013-11-11T13:18:18Z</time>
      </trkpt>
      <trkpt lat="47.91953" lon="7.15369">
        <ele>590.2</ele>
        <time>2013-11-11T13:18:21Z</time>
      </trkpt>
      <trkpt lat="47.91957" lon="7.15367">
        <ele>587.8</ele>
        <time>2013-11-11T13:18:24Z</time>
      </trkpt>
      <trkpt lat="47.91959" lon="7.15362">
        <ele>585.4</ele>
        <time>2013-11-11T13:18:27Z</time>
      </trkpt>
      <trkpt lat="47.91959" lon="7.15357">
        <ele>584.4</ele>
        <time>2013-11-11T13:18:33Z</time>
      </trkpt>
      <trkpt lat="47.91956" lon="7.15355">
        <ele>585.5</ele>
        <time>2013-11-11T13:18:36Z</time>
      </trkpt>
      <trkpt lat="47.91953" lon="7.15354">
        <ele>586.4</ele>
        <time>2013-11-11T13:18:38Z</time>
      </trkpt>
      <trkpt lat="47.91949" lon="7.1535">
        <ele>587.2</ele>
        <time>2013-11-11T13:18:41Z</time>
      </trkpt>
      <trkpt lat="47.91947" lon="7.15348">
        <ele>587.8</ele>
        <time>2013-11-11T13:18:43Z</time>
      </trkpt>
      <trkpt lat="47.91947" lon="7.15344">
        <ele>586.7</ele>
        <time>2013-11-11T13:18:48Z</time>
      </trkpt>
      <trkpt lat="47.9195" lon="7.15342">
        <ele>585.1</ele>
        <time>2013-11-11T13:18:50Z</time>
      </trkpt>
      <trkpt lat="47.91949" lon="7.15337">
        <ele>583.8</ele>
        <time>2013-11-11T13:18:54Z</time>
      </trkpt>
      <trkpt lat="47.91947" lon="7.15333">
        <ele>583.8</ele>
        <time>2013-11-11T13:18:58Z</time>
      </trkpt>
      <trkpt lat="47.91945" lon="7.15334">
        <ele>585.2</ele>
        <time>2013-11-11T13:19:02Z</time>
      </trkpt>
      <trkpt lat="47.91942" lon="7.15336">
        <ele>587.1</ele>
        <time>2013-11-11T13:19:06Z</time>
      </trkpt>
      <trkpt lat="47.91939" lon="7.15338">
        <ele>589</ele>
        <time>2013-11-11T13:19:09Z</time>
      </trkpt>
      <trkpt lat="47.91935" lon="7.15338">
        <ele>590.6</ele>
        <time>2013-11-11T13:19:12Z</time>
      </trkpt>
      <trkpt lat="47.91935" lon="7.15332">
        <ele>589</ele>
        <time>2013-11-11T13:19:16Z</time>
      </trkpt>
      <trkpt lat="47.91935" lon="7.15327">
        <ele>587.9</ele>
        <time>2013-11-11T13:19:18Z</time>
      </trkpt>
      <trkpt lat="47.91934" lon="7.15322">
        <ele>587.3</ele>
        <time>2013-11-11T13:19:20Z</time>
      </trkpt>
      <trkpt lat="47.91931" lon="7.15317">
        <ele>587.3</ele>
        <time>2013-11-11T13:19:22Z</time>
      </trkpt>
      <trkpt lat="47.91927" lon="7.15312">
        <ele>587.5</ele>
        <time>2013-11-11T13:19:24Z</time>
      </trkpt>
      <trkpt lat="47.91925" lon="7.15308">
        <ele>587.7</ele>
        <time>2013-11-11T13:19:25Z</time>
      </trkpt>
      <trkpt lat="47.91922" lon="7.15305">
        <ele>588.1</ele>
        <time>2013-11-11T13:19:26Z</time>
      </trkpt>
      <trkpt lat="47.91917" lon="7.15301">
        <ele>589.2</ele>
        <time>2013-11-11T13:19:28Z</time>
      </trkpt>
      <trkpt lat="47.91913" lon="7.15299">
        <ele>590.5</ele>
        <time>2013-11-11T13:19:30Z</time>
      </trkpt>
      <trkpt lat="47.9191" lon="7.15298">
        <ele>591.5</ele>
        <time>2013-11-11T13:19:31Z</time>
      </trkpt>
      <trkpt lat="47.91906" lon="7.15297">
        <ele>593.2</ele>
        <time>2013-11-11T13:19:33Z</time>
      </trkpt>
      <trkpt lat="47.91903" lon="7.15299">
        <ele>595</ele>
        <time>2013-11-11T13:19:38Z</time>
      </trkpt>
      <trkpt lat="47.91906" lon="7.15301">
        <ele>593.9</ele>
        <time>2013-11-11T13:19:42Z</time>
      </trkpt>
      <trkpt lat="47.91909" lon="7.15297">
        <ele>591.8</ele>
        <time>2013-11-11T13:19:45Z</time>
      </trkpt>
      <trkpt lat="47.91906" lon="7.15296">
        <ele>592.7</ele>
        <time>2013-11-11T13:19:49Z</time>
      </trkpt>
      <trkpt lat="47.91903" lon="7.15294">
        <ele>593.7</ele>
        <time>2013-11-11T13:19:52Z</time>
      </trkpt>
      <trkpt lat="47.91899" lon="7.15294">
        <ele>595.4</ele>
        <time>2013-11-11T13:19:55Z</time>
      </trkpt>
      <trkpt lat="47.91895" lon="7.15293">
        <ele>596.6</ele>
        <time>2013-11-11T13:19:57Z</time>
      </trkpt>
      <trkpt lat="47.91892" lon="7.15291">
        <ele>597.6</ele>
        <time>2013-11-11T13:19:58Z</time>
      </trkpt>
      <trkpt lat="47.91889" lon="7.1529">
        <ele>598.7</ele>
        <time>2013-11-11T13:19:59Z</time>
      </trkpt>
      <trkpt lat="47.91883" lon="7.15289">
        <ele>600.6</ele>
        <time>2013-11-11T13:20:01Z</time>
      </trkpt>
      <trkpt lat="47.9188" lon="7.15288">
        <ele>601.5</ele>
        <time>2013-11-11T13:20:02Z</time>
      </trkpt>
      <trkpt lat="47.91877" lon="7.15288">
        <ele>602.7</ele>
        <time>2013-11-11T13:20:03Z</time>
      </trkpt>
      <trkpt lat="47.91874" lon="7.15289">
        <ele>604.6</ele>
        <time>2013-11-11T13:20:05Z</time>
      </trkpt>
      <trkpt lat="47.9187" lon="7.15289">
        <ele>606.3</ele>
        <time>2013-11-11T13:20:07Z</time>
      </trkpt>
      <trkpt lat="47.91866" lon="7.15288">
        <ele>607.3</ele>
        <time>2013-11-11T13:20:09Z</time>
      </trkpt>
      <trkpt lat="47.91863" lon="7.15287">
        <ele>608.1</ele>
        <time>2013-11-11T13:20:11Z</time>
      </trkpt>
      <trkpt lat="47.9186" lon="7.15285">
        <ele>608.7</ele>
        <time>2013-11-11T13:20:13Z</time>
      </trkpt>
      <trkpt lat="47.91857" lon="7.15287">
        <ele>610.5</ele>
        <time>2013-11-11T13:20:16Z</time>
      </trkpt>
      <trkpt lat="47.91854" lon="7.15289">
        <ele>612</ele>
        <time>2013-11-11T13:20:18Z</time>
      </trkpt>
      <trkpt lat="47.91852" lon="7.1529">
        <ele>613.4</ele>
        <time>2013-11-11T13:20:20Z</time>
      </trkpt>
      <trkpt lat="47.91848" lon="7.15289">
        <ele>614.4</ele>
        <time>2013-11-11T13:20:23Z</time>
      </trkpt>
      <trkpt lat="47.91846" lon="7.15286">
        <ele>614.2</ele>
        <time>2013-11-11T13:20:25Z</time>
      </trkpt>
      <trkpt lat="47.91844" lon="7.15282">
        <ele>613.8</ele>
        <time>2013-11-11T13:20:27Z</time>
      </trkpt>
      <trkpt lat="47.91843" lon="7.15279">
        <ele>613.4</ele>
        <time>2013-11-11T13:20:29Z</time>
      </trkpt>
      <trkpt lat="47.9184" lon="7.15277">
        <ele>613.7</ele>
        <time>2013-11-11T13:20:31Z</time>
      </trkpt>
      <trkpt lat="47.91838" lon="7.15274">
        <ele>613.7</ele>
        <time>2013-11-11T13:20:33Z</time>
      </trkpt>
      <trkpt lat="47.91834" lon="7.15275">
        <ele>615.6</ele>
        <time>2013-11-11T13:20:36Z</time>
      </trkpt>
      <trkpt lat="47.9183" lon="7.15275">
        <ele>617.3</ele>
        <time>2013-11-11T13:20:39Z</time>
      </trkpt>
      <trkpt lat="47.91827" lon="7.15276">
        <ele>618.6</ele>
        <time>2013-11-11T13:20:41Z</time>
      </trkpt>
      <trkpt lat="47.91824" lon="7.15276">
        <ele>619.7</ele>
        <time>2013-11-11T13:20:44Z</time>
      </trkpt>
      <trkpt lat="47.91822" lon="7.15272">
        <ele>619.5</ele>
        <time>2013-11-11T13:20:46Z</time>
      </trkpt>
      <trkpt lat="47.91819" lon="7.1527">
        <ele>620</ele>
        <time>2013-11-11T13:20:48Z</time>
      </trkpt>
      <trkpt lat="47.91815" lon="7.15268">
        <ele>620.7</ele>
        <time>2013-11-11T13:20:50Z</time>
      </trkpt>
      <trkpt lat="47.91812" lon="7.15266">
        <ele>621.6</ele>
        <time>2013-11-11T13:20:52Z</time>
      </trkpt>
      <trkpt lat="47.91809" lon="7.15266">
        <ele>622.7</ele>
        <time>2013-11-11T13:20:54Z</time>
      </trkpt>
      <trkpt lat="47.91806" lon="7.15268">
        <ele>624.3</ele>
        <time>2013-11-11T13:20:59Z</time>
      </trkpt>
      <trkpt lat="47.91803" lon="7.15267">
        <ele>625.4</ele>
        <time>2013-11-11T13:21:02Z</time>
      </trkpt>
      <trkpt lat="47.91799" lon="7.15264">
        <ele>625.9</ele>
        <time>2013-11-11T13:21:04Z</time>
      </trkpt>
      <trkpt lat="47.91795" lon="7.15258">
        <ele>625.9</ele>
        <time>2013-11-11T13:21:06Z</time>
      </trkpt>
      <trkpt lat="47.91791" lon="7.15254">
        <ele>625.8</ele>
        <time>2013-11-11T13:21:08Z</time>
      </trkpt>
      <trkpt lat="47.91788" lon="7.15251">
        <ele>626.1</ele>
        <time>2013-11-11T13:21:11Z</time>
      </trkpt>
      <trkpt lat="47.91785" lon="7.15248">
        <ele>626.5</ele>
        <time>2013-11-11T13:21:12Z</time>
      </trkpt>
      <trkpt lat="47.91783" lon="7.15244">
        <ele>626.5</ele>
        <time>2013-11-11T13:21:14Z</time>
      </trkpt>
      <trkpt lat="47.91781" lon="7.15241">
        <ele>626.3</ele>
        <time>2013-11-11T13:21:16Z</time>
      </trkpt>
      <trkpt lat="47.91778" lon="7.15236">
        <ele>626.2</ele>
        <time>2013-11-11T13:21:18Z</time>
      </trkpt>
      <trkpt lat="47.91775" lon="7.15232">
        <ele>626</ele>
        <time>2013-11-11T13:21:19Z</time>
      </trkpt>
      <trkpt lat="47.91774" lon="7.15228">
        <ele>625.3</ele>
        <time>2013-11-11T13:21:22Z</time>
      </trkpt>
      <trkpt lat="47.9177" lon="7.15227">
        <ele>626.7</ele>
        <time>2013-11-11T13:21:25Z</time>
      </trkpt>
      <trkpt lat="47.91767" lon="7.15227">
        <ele>628.4</ele>
        <time>2013-11-11T13:21:27Z</time>
      </trkpt>
      <trkpt lat="47.91763" lon="7.15227">
        <ele>629.8</ele>
        <time>2013-11-11T13:21:29Z</time>
      </trkpt>
      <trkpt lat="47.9176" lon="7.15228">
        <ele>631.3</ele>
        <time>2013-11-11T13:21:32Z</time>
      </trkpt>
      <trkpt lat="47.91758" lon="7.1523">
        <ele>632.9</ele>
        <time>2013-11-11T13:21:33Z</time>
      </trkpt>
      <trkpt lat="47.91755" lon="7.15231">
        <ele>634.6</ele>
        <time>2013-11-11T13:21:38Z</time>
      </trkpt>
      <trkpt lat="47.91754" lon="7.15227">
        <ele>634</ele>
        <time>2013-11-11T13:21:47Z</time>
      </trkpt>
      <trkpt lat="47.91752" lon="7.15223">
        <ele>633.6</ele>
        <time>2013-11-11T13:21:49Z</time>
      </trkpt>
      <trkpt lat="47.9175" lon="7.15219">
        <ele>633.2</ele>
        <time>2013-11-11T13:21:51Z</time>
      </trkpt>
      <trkpt lat="47.91748" lon="7.15217">
        <ele>633.9</ele>
        <time>2013-11-11T13:21:53Z</time>
      </trkpt>
      <trkpt lat="47.91746" lon="7.15213">
        <ele>633.5</ele>
        <time>2013-11-11T13:21:54Z</time>
      </trkpt>
      <trkpt lat="47.91745" lon="7.15209">
        <ele>633.1</ele>
        <time>2013-11-11T13:21:55Z</time>
      </trkpt>
      <trkpt lat="47.91742" lon="7.152">
        <ele>631.7</ele>
        <time>2013-11-11T13:21:56Z</time>
      </trkpt>
      <trkpt lat="47.91736" lon="7.15178">
        <ele>628</ele>
        <time>2013-11-11T13:21:58Z</time>
      </trkpt>
      <trkpt lat="47.91732" lon="7.15176">
        <ele>629.2</ele>
        <time>2013-11-11T13:22:00Z</time>
      </trkpt>
      <trkpt lat="47.91729" lon="7.15175">
        <ele>630.4</ele>
        <time>2013-11-11T13:22:02Z</time>
      </trkpt>
      <trkpt lat="47.91725" lon="7.15173">
        <ele>631.4</ele>
        <time>2013-11-11T13:22:04Z</time>
      </trkpt>
      <trkpt lat="47.91722" lon="7.1517">
        <ele>631.8</ele>
        <time>2013-11-11T13:22:06Z</time>
      </trkpt>
      <trkpt lat="47.91719" lon="7.15167">
        <ele>632.1</ele>
        <time>2013-11-11T13:22:08Z</time>
      </trkpt>
      <trkpt lat="47.91716" lon="7.15165">
        <ele>632.7</ele>
        <time>2013-11-11T13:22:10Z</time>
      </trkpt>
      <trkpt lat="47.91712" lon="7.1516">
        <ele>633.1</ele>
        <time>2013-11-11T13:22:12Z</time>
      </trkpt>
      <trkpt lat="47.91708" lon="7.15156">
        <ele>633.6</ele>
        <time>2013-11-11T13:22:14Z</time>
      </trkpt>
      <trkpt lat="47.91704" lon="7.15154">
        <ele>634.5</ele>
        <time>2013-11-11T13:22:16Z</time>
      </trkpt>
      <trkpt lat="47.91701" lon="7.15153">
        <ele>635.6</ele>
        <time>2013-11-11T13:22:17Z</time>
      </trkpt>
      <trkpt lat="47.91697" lon="7.15151">
        <ele>636.9</ele>
        <time>2013-11-11T13:22:19Z</time>
      </trkpt>
      <trkpt lat="47.91694" lon="7.15154">
        <ele>639</ele>
        <time>2013-11-11T13:22:22Z</time>
      </trkpt>
      <trkpt lat="47.91693" lon="7.15159">
        <ele>641.1</ele>
        <time>2013-11-11T13:22:28Z</time>
      </trkpt>
      <trkpt lat="47.9169" lon="7.15161">
        <ele>643.1</ele>
        <time>2013-11-11T13:22:30Z</time>
      </trkpt>
      <trkpt lat="47.91687" lon="7.15161">
        <ele>644.3</ele>
        <time>2013-11-11T13:22:34Z</time>
      </trkpt>
      <trkpt lat="47.91676" lon="7.1514">
        <ele>643.2</ele>
        <time>2013-11-11T13:22:52Z</time>
      </trkpt>
      <trkpt lat="47.91674" lon="7.15136">
        <ele>642.8</ele>
        <time>2013-11-11T13:22:54Z</time>
      </trkpt>
      <trkpt lat="47.91671" lon="7.15128">
        <ele>641.8</ele>
        <time>2013-11-11T13:22:56Z</time>
      </trkpt>
      <trkpt lat="47.91669" lon="7.15124">
        <ele>641.8</ele>
        <time>2013-11-11T13:22:57Z</time>
      </trkpt>
      <trkpt lat="47.91665" lon="7.15117">
        <ele>641.6</ele>
        <time>2013-11-11T13:22:58Z</time>
      </trkpt>
      <trkpt lat="47.91662" lon="7.15112">
        <ele>641.9</ele>
        <time>2013-11-11T13:22:59Z</time>
      </trkpt>
      <trkpt lat="47.91658" lon="7.15109">
        <ele>642.6</ele>
        <time>2013-11-11T13:23:00Z</time>
      </trkpt>
      <trkpt lat="47.91655" lon="7.15106">
        <ele>643.5</ele>
        <time>2013-11-11T13:23:01Z</time>
      </trkpt>
      <trkpt lat="47.91651" lon="7.15104">
        <ele>644.7</ele>
        <time>2013-11-11T13:23:02Z</time>
      </trkpt>
      <trkpt lat="47.91648" lon="7.15103">
        <ele>645.8</ele>
        <time>2013-11-11T13:23:03Z</time>
      </trkpt>
      <trkpt lat="47.91642" lon="7.15099">
        <ele>647.1</ele>
        <time>2013-11-11T13:23:05Z</time>
      </trkpt>
      <trkpt lat="47.9164" lon="7.15096">
        <ele>647.6</ele>
        <time>2013-11-11T13:23:06Z</time>
      </trkpt>
      <trkpt lat="47.91636" lon="7.15092">
        <ele>647.9</ele>
        <time>2013-11-11T13:23:09Z</time>
      </trkpt>
      <trkpt lat="47.91634" lon="7.15087">
        <ele>647.5</ele>
        <time>2013-11-11T13:23:10Z</time>
      </trkpt>
      <trkpt lat="47.91635" lon="7.15082">
        <ele>645.9</ele>
        <time>2013-11-11T13:23:13Z</time>
      </trkpt>
      <trkpt lat="47.91636" lon="7.15076">
        <ele>644</ele>
        <time>2013-11-11T13:23:15Z</time>
      </trkpt>
      <trkpt lat="47.91637" lon="7.15072">
        <ele>642.2</ele>
        <time>2013-11-11T13:23:17Z</time>
      </trkpt>
      <trkpt lat="47.91638" lon="7.15068">
        <ele>640.6</ele>
        <time>2013-11-11T13:23:19Z</time>
      </trkpt>
      <trkpt lat="47.9164" lon="7.15063">
        <ele>638.7</ele>
        <time>2013-11-11T13:23:22Z</time>
      </trkpt>
      <trkpt lat="47.91638" lon="7.1506">
        <ele>638.7</ele>
        <time>2013-11-11T13:23:25Z</time>
      </trkpt>
      <trkpt lat="47.91635" lon="7.15058">
        <ele>639.6</ele>
        <time>2013-11-11T13:23:27Z</time>
      </trkpt>
      <trkpt lat="47.91632" lon="7.15056">
        <ele>640</ele>
        <time>2013-11-11T13:23:28Z</time>
      </trkpt>
      <trkpt lat="47.91628" lon="7.15057">
        <ele>642</ele>
        <time>2013-11-11T13:23:30Z</time>
      </trkpt>
      <trkpt lat="47.91624" lon="7.15059">
        <ele>644.2</ele>
        <time>2013-11-11T13:23:32Z</time>
      </trkpt>
      <trkpt lat="47.91621" lon="7.1506">
        <ele>645.9</ele>
        <time>2013-11-11T13:23:34Z</time>
      </trkpt>
      <trkpt lat="47.91617" lon="7.15061">
        <ele>647.3</ele>
        <time>2013-11-11T13:23:36Z</time>
      </trkpt>
      <trkpt lat="47.91614" lon="7.15062">
        <ele>648.8</ele>
        <time>2013-11-11T13:23:38Z</time>
      </trkpt>
      <trkpt lat="47.91611" lon="7.15062">
        <ele>650</ele>
        <time>2013-11-11T13:23:39Z</time>
      </trkpt>
      <trkpt lat="47.91608" lon="7.15063">
        <ele>651.6</ele>
        <time>2013-11-11T13:23:40Z</time>
      </trkpt>
      <trkpt lat="47.91603" lon="7.15066">
        <ele>654.1</ele>
        <time>2013-11-11T13:23:42Z</time>
      </trkpt>
      <trkpt lat="47.91598" lon="7.15067">
        <ele>656.4</ele>
        <time>2013-11-11T13:23:45Z</time>
      </trkpt>
      <trkpt lat="47.91595" lon="7.15064">
        <ele>656.5</ele>
        <time>2013-11-11T13:23:49Z</time>
      </trkpt>
      <trkpt lat="47.91592" lon="7.15062">
        <ele>657</ele>
        <time>2013-11-11T13:23:50Z</time>
      </trkpt>
      <trkpt lat="47.91589" lon="7.15059">
        <ele>657.4</ele>
        <time>2013-11-11T13:23:52Z</time>
      </trkpt>
      <trkpt lat="47.91586" lon="7.15057">
        <ele>658</ele>
        <time>2013-11-11T13:23:54Z</time>
      </trkpt>
      <trkpt lat="47.91586" lon="7.15064">
        <ele>660.1</ele>
        <time>2013-11-11T13:23:56Z</time>
      </trkpt>
      <trkpt lat="47.91584" lon="7.15068">
        <ele>661.8</ele>
        <time>2013-11-11T13:23:58Z</time>
      </trkpt>
      <trkpt lat="47.91582" lon="7.15072">
        <ele>663.7</ele>
        <time>2013-11-11T13:24:00Z</time>
      </trkpt>
      <trkpt lat="47.91579" lon="7.15073">
        <ele>665.1</ele>
        <time>2013-11-11T13:24:02Z</time>
      </trkpt>
      <trkpt lat="47.91575" lon="7.15074">
        <ele>666.9</ele>
        <time>2013-11-11T13:24:04Z</time>
      </trkpt>
      <trkpt lat="47.91573" lon="7.15077">
        <ele>668.8</ele>
        <time>2013-11-11T13:24:06Z</time>
      </trkpt>
      <trkpt lat="47.9157" lon="7.15076">
        <ele>669.6</ele>
        <time>2013-11-11T13:24:09Z</time>
      </trkpt>
      <trkpt lat="47.91567" lon="7.15072">
        <ele>669.5</ele>
        <time>2013-11-11T13:24:11Z</time>
      </trkpt>
      <trkpt lat="47.91566" lon="7.15069">
        <ele>669</ele>
        <time>2013-11-11T13:24:13Z</time>
      </trkpt>
      <trkpt lat="47.91564" lon="7.15064">
        <ele>668.3</ele>
        <time>2013-11-11T13:24:16Z</time>
      </trkpt>
      <trkpt lat="47.91551" lon="7.15061">
        <ele>672.4</ele>
        <time>2013-11-11T13:24:35Z</time>
      </trkpt>
      <trkpt lat="47.9155" lon="7.15058">
        <ele>671.8</ele>
        <time>2013-11-11T13:24:38Z</time>
      </trkpt>
      <trkpt lat="47.91548" lon="7.15055">
        <ele>671.7</ele>
        <time>2013-11-11T13:24:39Z</time>
      </trkpt>
      <trkpt lat="47.91544" lon="7.1505">
        <ele>671.9</ele>
        <time>2013-11-11T13:24:42Z</time>
      </trkpt>
      <trkpt lat="47.91538" lon="7.15044">
        <ele>672.2</ele>
        <time>2013-11-11T13:24:44Z</time>
      </trkpt>
      <trkpt lat="47.91533" lon="7.15037">
        <ele>672.8</ele>
        <time>2013-11-11T13:24:45Z</time>
      </trkpt>
      <trkpt lat="47.91531" lon="7.15034">
        <ele>673</ele>
        <time>2013-11-11T13:24:46Z</time>
      </trkpt>
      <trkpt lat="47.91528" lon="7.15031">
        <ele>673.1</ele>
        <time>2013-11-11T13:24:48Z</time>
      </trkpt>
      <trkpt lat="47.91524" lon="7.15025">
        <ele>673.7</ele>
        <time>2013-11-11T13:24:50Z</time>
      </trkpt>
      <trkpt lat="47.91511" lon="7.15011">
        <ele>675.8</ele>
        <time>2013-11-11T13:24:54Z</time>
      </trkpt>
      <trkpt lat="47.91507" lon="7.15007">
        <ele>676.6</ele>
        <time>2013-11-11T13:24:55Z</time>
      </trkpt>
      <trkpt lat="47.91503" lon="7.15003">
        <ele>677.4</ele>
        <time>2013-11-11T13:24:56Z</time>
      </trkpt>
      <trkpt lat="47.91499" lon="7.15">
        <ele>677.9</ele>
        <time>2013-11-11T13:24:57Z</time>
      </trkpt>
      <trkpt lat="47.91497" lon="7.14996">
        <ele>678.2</ele>
        <time>2013-11-11T13:24:58Z</time>
      </trkpt>
      <trkpt lat="47.91494" lon="7.14993">
        <ele>678.5</ele>
        <time>2013-11-11T13:24:59Z</time>
      </trkpt>
      <trkpt lat="47.91492" lon="7.14988">
        <ele>678.2</ele>
        <time>2013-11-11T13:25:01Z</time>
      </trkpt>
      <trkpt lat="47.9149" lon="7.14986">
        <ele>678.3</ele>
        <time>2013-11-11T13:25:04Z</time>
      </trkpt>
      <trkpt lat="47.91491" lon="7.1499">
        <ele>679.4</ele>
        <time>2013-11-11T13:25:06Z</time>
      </trkpt>
      <trkpt lat="47.91487" lon="7.14995">
        <ele>682.1</ele>
        <time>2013-11-11T13:25:08Z</time>
      </trkpt>
      <trkpt lat="47.91485" lon="7.14999">
        <ele>684.3</ele>
        <time>2013-11-11T13:25:09Z</time>
      </trkpt>
      <trkpt lat="47.91483" lon="7.15008">
        <ele>687.4</ele>
        <time>2013-11-11T13:25:10Z</time>
      </trkpt>
      <trkpt lat="47.91479" lon="7.1503">
        <ele>695.3</ele>
        <time>2013-11-11T13:25:12Z</time>
      </trkpt>
      <trkpt lat="47.91476" lon="7.15027">
        <ele>695.7</ele>
        <time>2013-11-11T13:25:18Z</time>
      </trkpt>
      <trkpt lat="47.91474" lon="7.15022">
        <ele>695.3</ele>
        <time>2013-11-11T13:25:21Z</time>
      </trkpt>
      <trkpt lat="47.91471" lon="7.15019">
        <ele>695.9</ele>
        <time>2013-11-11T13:25:25Z</time>
      </trkpt>
      <trkpt lat="47.91471" lon="7.15014">
        <ele>694.9</ele>
        <time>2013-11-11T13:25:27Z</time>
      </trkpt>
      <trkpt lat="47.9147" lon="7.15009">
        <ele>693.6</ele>
        <time>2013-11-11T13:25:30Z</time>
      </trkpt>
      <trkpt lat="47.91464" lon="7.15006">
        <ele>695.7</ele>
        <time>2013-11-11T13:25:34Z</time>
      </trkpt>
      <trkpt lat="47.91461" lon="7.15006">
        <ele>697.1</ele>
        <time>2013-11-11T13:25:35Z</time>
      </trkpt>
      <trkpt lat="47.91457" lon="7.15005">
        <ele>698.2</ele>
        <time>2013-11-11T13:25:36Z</time>
      </trkpt>
      <trkpt lat="47.91454" lon="7.15003">
        <ele>699.4</ele>
        <time>2013-11-11T13:25:37Z</time>
      </trkpt>
      <trkpt lat="47.91452" lon="7.15">
        <ele>700</ele>
        <time>2013-11-11T13:25:38Z</time>
      </trkpt>
      <trkpt lat="47.91449" lon="7.14996">
        <ele>700.4</ele>
        <time>2013-11-11T13:25:39Z</time>
      </trkpt>
      <trkpt lat="47.91447" lon="7.14992">
        <ele>700.3</ele>
        <time>2013-11-11T13:25:40Z</time>
      </trkpt>
      <trkpt lat="47.91437" lon="7.14924">
        <ele>691.9</ele>
        <time>2013-11-11T13:25:46Z</time>
      </trkpt>
      <trkpt lat="47.91438" lon="7.14915">
        <ele>690.3</ele>
        <time>2013-11-11T13:25:47Z</time>
      </trkpt>
      <trkpt lat="47.91437" lon="7.14907">
        <ele>689.3</ele>
        <time>2013-11-11T13:25:48Z</time>
      </trkpt>
      <trkpt lat="47.91436" lon="7.149">
        <ele>688.6</ele>
        <time>2013-11-11T13:25:49Z</time>
      </trkpt>
      <trkpt lat="47.91436" lon="7.14894">
        <ele>688</ele>
        <time>2013-11-11T13:25:50Z</time>
      </trkpt>
      <trkpt lat="47.91435" lon="7.14889">
        <ele>687.7</ele>
        <time>2013-11-11T13:25:51Z</time>
      </trkpt>
      <trkpt lat="47.91434" lon="7.14884">
        <ele>687.1</ele>
        <time>2013-11-11T13:25:52Z</time>
      </trkpt>
      <trkpt lat="47.91434" lon="7.14879">
        <ele>686.7</ele>
        <time>2013-11-11T13:25:53Z</time>
      </trkpt>
      <trkpt lat="47.91434" lon="7.14874">
        <ele>686</ele>
        <time>2013-11-11T13:25:54Z</time>
      </trkpt>
      <trkpt lat="47.91433" lon="7.1487">
        <ele>685.9</ele>
        <time>2013-11-11T13:25:55Z</time>
      </trkpt>
      <trkpt lat="47.91433" lon="7.14863">
        <ele>685.5</ele>
        <time>2013-11-11T13:25:57Z</time>
      </trkpt>
      <trkpt lat="47.91431" lon="7.14857">
        <ele>685.9</ele>
        <time>2013-11-11T13:25:59Z</time>
      </trkpt>
      <trkpt lat="47.91428" lon="7.14852">
        <ele>687.2</ele>
        <time>2013-11-11T13:26:01Z</time>
      </trkpt>
      <trkpt lat="47.91425" lon="7.14848">
        <ele>688.5</ele>
        <time>2013-11-11T13:26:03Z</time>
      </trkpt>
      <trkpt lat="47.91421" lon="7.14843">
        <ele>690.5</ele>
        <time>2013-11-11T13:26:06Z</time>
      </trkpt>
      <trkpt lat="47.91419" lon="7.14841">
        <ele>691.5</ele>
        <time>2013-11-11T13:26:07Z</time>
      </trkpt>
      <trkpt lat="47.91417" lon="7.14838">
        <ele>692.3</ele>
        <time>2013-11-11T13:26:08Z</time>
      </trkpt>
      <trkpt lat="47.91414" lon="7.14835">
        <ele>693.4</ele>
        <time>2013-11-11T13:26:09Z</time>
      </trkpt>
      <trkpt lat="47.91412" lon="7.1483">
        <ele>694.4</ele>
        <time>2013-11-11T13:26:11Z</time>
      </trkpt>
      <trkpt lat="47.91408" lon="7.14827">
        <ele>696.1</ele>
        <time>2013-11-11T13:26:13Z</time>
      </trkpt>
      <trkpt lat="47.91406" lon="7.14824">
        <ele>696.8</ele>
        <time>2013-11-11T13:26:15Z</time>
      </trkpt>
      <trkpt lat="47.91404" lon="7.1482">
        <ele>697.6</ele>
        <time>2013-11-11T13:26:18Z</time>
      </trkpt>
      <trkpt lat="47.91402" lon="7.14816">
        <ele>698.4</ele>
        <time>2013-11-11T13:26:19Z</time>
      </trkpt>
      <trkpt lat="47.914" lon="7.14811">
        <ele>699</ele>
        <time>2013-11-11T13:26:21Z</time>
      </trkpt>
      <trkpt lat="47.91398" lon="7.14806">
        <ele>699.4</ele>
        <time>2013-11-11T13:26:23Z</time>
      </trkpt>
      <trkpt lat="47.91397" lon="7.14802">
        <ele>699.9</ele>
        <time>2013-11-11T13:26:25Z</time>
      </trkpt>
      <trkpt lat="47.91394" lon="7.14798">
        <ele>701</ele>
        <time>2013-11-11T13:26:28Z</time>
      </trkpt>
      <trkpt lat="47.91391" lon="7.14795">
        <ele>702.2</ele>
        <time>2013-11-11T13:26:34Z</time>
      </trkpt>
      <trkpt lat="47.91387" lon="7.14789">
        <ele>704.5</ele>
        <time>2013-11-11T13:26:37Z</time>
      </trkpt>
      <trkpt lat="47.91383" lon="7.14785">
        <ele>706.8</ele>
        <time>2013-11-11T13:26:39Z</time>
      </trkpt>
      <trkpt lat="47.9138" lon="7.1478">
        <ele>709.2</ele>
        <time>2013-11-11T13:26:41Z</time>
      </trkpt>
      <trkpt lat="47.91376" lon="7.14774">
        <ele>711.7</ele>
        <time>2013-11-11T13:26:43Z</time>
      </trkpt>
      <trkpt lat="47.91374" lon="7.14771">
        <ele>713</ele>
        <time>2013-11-11T13:26:44Z</time>
      </trkpt>
      <trkpt lat="47.91372" lon="7.14768">
        <ele>714.3</ele>
        <time>2013-11-11T13:26:45Z</time>
      </trkpt>
      <trkpt lat="47.9137" lon="7.14764">
        <ele>715.9</ele>
        <time>2013-11-11T13:26:48Z</time>
      </trkpt>
      <trkpt lat="47.91356" lon="7.14609">
        <ele>749.2</ele>
        <time>2013-11-11T13:27:52Z</time>
      </trkpt>
      <trkpt lat="47.91353" lon="7.14604">
        <ele>751.7</ele>
        <time>2013-11-11T13:27:55Z</time>
      </trkpt>
      <trkpt lat="47.91406" lon="7.14539">
        <ele>747.1</ele>
        <time>2013-11-11T13:28:26Z</time>
      </trkpt>
      <trkpt lat="47.9141" lon="7.14538">
        <ele>746.8</ele>
        <time>2013-11-11T13:28:27Z</time>
      </trkpt>
      <trkpt lat="47.91442" lon="7.14525">
        <ele>744.1</ele>
        <time>2013-11-11T13:28:36Z</time>
      </trkpt>
      <trkpt lat="47.91445" lon="7.14519">
        <ele>745.5</ele>
        <time>2013-11-11T13:28:38Z</time>
      </trkpt>
      <trkpt lat="47.91448" lon="7.14516">
        <ele>746.4</ele>
        <time>2013-11-11T13:28:40Z</time>
      </trkpt>
      <trkpt lat="47.91451" lon="7.14513">
        <ele>746.9</ele>
        <time>2013-11-11T13:28:42Z</time>
      </trkpt>
      <trkpt lat="47.91452" lon="7.14509">
        <ele>748.3</ele>
        <time>2013-11-11T13:28:44Z</time>
      </trkpt>
      <trkpt lat="47.91454" lon="7.14502">
        <ele>750.8</ele>
        <time>2013-11-11T13:28:46Z</time>
      </trkpt>
      <trkpt lat="47.91455" lon="7.14498">
        <ele>752</ele>
        <time>2013-11-11T13:28:47Z</time>
      </trkpt>
      <trkpt lat="47.91456" lon="7.14493">
        <ele>754.3</ele>
        <time>2013-11-11T13:28:49Z</time>
      </trkpt>
      <trkpt lat="47.91456" lon="7.14488">
        <ele>756.4</ele>
        <time>2013-11-11T13:28:51Z</time>
      </trkpt>
      <trkpt lat="47.91457" lon="7.14482">
        <ele>758.4</ele>
        <time>2013-11-11T13:28:53Z</time>
      </trkpt>
      <trkpt lat="47.91459" lon="7.14478">
        <ele>759.8</ele>
        <time>2013-11-11T13:28:55Z</time>
      </trkpt>
      <trkpt lat="47.91462" lon="7.14472">
        <ele>761.6</ele>
        <time>2013-11-11T13:28:57Z</time>
      </trkpt>
      <trkpt lat="47.91464" lon="7.14467">
        <ele>763.2</ele>
        <time>2013-11-11T13:28:59Z</time>
      </trkpt>
      <trkpt lat="47.91466" lon="7.14464">
        <ele>763.9</ele>
        <time>2013-11-11T13:29:01Z</time>
      </trkpt>
      <trkpt lat="47.91468" lon="7.14461">
        <ele>764.7</ele>
        <time>2013-11-11T13:29:03Z</time>
      </trkpt>
      <trkpt lat="47.9147" lon="7.14458">
        <ele>765.5</ele>
        <time>2013-11-11T13:29:05Z</time>
      </trkpt>
      <trkpt lat="47.91473" lon="7.14456">
        <ele>765.3</ele>
        <time>2013-11-11T13:29:07Z</time>
      </trkpt>
      <trkpt lat="47.91477" lon="7.14456">
        <ele>764.4</ele>
        <time>2013-11-11T13:29:08Z</time>
      </trkpt>
      <trkpt lat="47.91481" lon="7.14456">
        <ele>763.6</ele>
        <time>2013-11-11T13:29:09Z</time>
      </trkpt>
      <trkpt lat="47.91488" lon="7.14455">
        <ele>762.4</ele>
        <time>2013-11-11T13:29:11Z</time>
      </trkpt>
      <trkpt lat="47.91492" lon="7.14453">
        <ele>761.9</ele>
        <time>2013-11-11T13:29:12Z</time>
      </trkpt>
      <trkpt lat="47.91495" lon="7.14452">
        <ele>761.5</ele>
        <time>2013-11-11T13:29:13Z</time>
      </trkpt>
      <trkpt lat="47.91498" lon="7.14451">
        <ele>761.3</ele>
        <time>2013-11-11T13:29:14Z</time>
      </trkpt>
      <trkpt lat="47.91502" lon="7.14448">
        <ele>761.1</ele>
        <time>2013-11-11T13:29:16Z</time>
      </trkpt>
      <trkpt lat="47.91506" lon="7.14446">
        <ele>761</ele>
        <time>2013-11-11T13:29:19Z</time>
      </trkpt>
      <trkpt lat="47.91508" lon="7.14443">
        <ele>761.6</ele>
        <time>2013-11-11T13:29:22Z</time>
      </trkpt>
      <trkpt lat="47.91511" lon="7.14439">
        <ele>762</ele>
        <time>2013-11-11T13:29:23Z</time>
      </trkpt>
      <trkpt lat="47.91515" lon="7.14436">
        <ele>762.2</ele>
        <time>2013-11-11T13:29:25Z</time>
      </trkpt>
      <trkpt lat="47.91518" lon="7.14433">
        <ele>762.4</ele>
        <time>2013-11-11T13:29:27Z</time>
      </trkpt>
      <trkpt lat="47.91521" lon="7.14431">
        <ele>762.7</ele>
        <time>2013-11-11T13:29:29Z</time>
      </trkpt>
      <trkpt lat="47.91523" lon="7.14428">
        <ele>763</ele>
        <time>2013-11-11T13:29:31Z</time>
      </trkpt>
      <trkpt lat="47.9156" lon="7.14434">
        <ele>752.9</ele>
        <time>2013-11-11T13:29:54Z</time>
      </trkpt>
      <trkpt lat="47.9162" lon="7.14394">
        <ele>750.1</ele>
        <time>2013-11-11T13:30:31Z</time>
      </trkpt>
      <trkpt lat="47.91623" lon="7.14388">
        <ele>751.1</ele>
        <time>2013-11-11T13:30:33Z</time>
      </trkpt>
      <trkpt lat="47.91675" lon="7.14345">
        <ele>742.6</ele>
        <time>2013-11-11T13:31:15Z</time>
      </trkpt>
      <trkpt lat="47.91678" lon="7.14343">
        <ele>741.9</ele>
        <time>2013-11-11T13:31:20Z</time>
      </trkpt>
      <trkpt lat="47.91681" lon="7.14341">
        <ele>741.2</ele>
        <time>2013-11-11T13:31:22Z</time>
      </trkpt>
      <trkpt lat="47.91683" lon="7.14338">
        <ele>740.6</ele>
        <time>2013-11-11T13:31:27Z</time>
      </trkpt>
      <trkpt lat="47.91687" lon="7.14334">
        <ele>739.8</ele>
        <time>2013-11-11T13:31:30Z</time>
      </trkpt>
      <trkpt lat="47.91689" lon="7.14332">
        <ele>739.2</ele>
        <time>2013-11-11T13:31:32Z</time>
      </trkpt>
      <trkpt lat="47.91691" lon="7.14329">
        <ele>738.5</ele>
        <time>2013-11-11T13:31:34Z</time>
      </trkpt>
      <trkpt lat="47.91693" lon="7.14326">
        <ele>738</ele>
        <time>2013-11-11T13:31:36Z</time>
      </trkpt>
      <trkpt lat="47.91695" lon="7.14322">
        <ele>737.4</ele>
        <time>2013-11-11T13:31:39Z</time>
      </trkpt>
      <trkpt lat="47.91696" lon="7.14318">
        <ele>737</ele>
        <time>2013-11-11T13:31:41Z</time>
      </trkpt>
      <trkpt lat="47.91698" lon="7.14314">
        <ele>736.4</ele>
        <time>2013-11-11T13:31:43Z</time>
      </trkpt>
      <trkpt lat="47.91701" lon="7.14312">
        <ele>735.7</ele>
        <time>2013-11-11T13:31:45Z</time>
      </trkpt>
      <trkpt lat="47.91703" lon="7.14315">
        <ele>735.4</ele>
        <time>2013-11-11T13:31:47Z</time>
      </trkpt>
      <trkpt lat="47.91705" lon="7.14318">
        <ele>735</ele>
        <time>2013-11-11T13:31:49Z</time>
      </trkpt>
      <trkpt lat="47.91708" lon="7.14319">
        <ele>734.3</ele>
        <time>2013-11-11T13:31:52Z</time>
      </trkpt>
      <trkpt lat="47.91705" lon="7.14317">
        <ele>734.9</ele>
        <time>2013-11-11T13:31:54Z</time>
      </trkpt>
      <trkpt lat="47.917" lon="7.14313">
        <ele>735.8</ele>
        <time>2013-11-11T13:31:56Z</time>
      </trkpt>
      <trkpt lat="47.91698" lon="7.1431">
        <ele>736.3</ele>
        <time>2013-11-11T13:31:57Z</time>
      </trkpt>
      <trkpt lat="47.91695" lon="7.14308">
        <ele>736.7</ele>
        <time>2013-11-11T13:31:58Z</time>
      </trkpt>
      <trkpt lat="47.91693" lon="7.14307">
        <ele>737.2</ele>
        <time>2013-11-11T13:31:59Z</time>
      </trkpt>
      <trkpt lat="47.91689" lon="7.14303">
        <ele>737.9</ele>
        <time>2013-11-11T13:32:01Z</time>
      </trkpt>
      <trkpt lat="47.91685" lon="7.14299">
        <ele>738.6</ele>
        <time>2013-11-11T13:32:03Z</time>
      </trkpt>
      <trkpt lat="47.91683" lon="7.14295">
        <ele>738.9</ele>
        <time>2013-11-11T13:32:05Z</time>
      </trkpt>
      <trkpt lat="47.91682" lon="7.14292">
        <ele>739</ele>
        <time>2013-11-11T13:32:07Z</time>
      </trkpt>
      <trkpt lat="47.91679" lon="7.14288">
        <ele>738.9</ele>
        <time>2013-11-11T13:32:09Z</time>
      </trkpt>
      <trkpt lat="47.91675" lon="7.14285">
        <ele>738.8</ele>
        <time>2013-11-11T13:32:11Z</time>
      </trkpt>
      <trkpt lat="47.91672" lon="7.14282">
        <ele>738.7</ele>
        <time>2013-11-11T13:32:15Z</time>
      </trkpt>
      <trkpt lat="47.91671" lon="7.14278">
        <ele>737.9</ele>
        <time>2013-11-11T13:32:18Z</time>
      </trkpt>
      <trkpt lat="47.91668" lon="7.14274">
        <ele>737.8</ele>
        <time>2013-11-11T13:32:20Z</time>
      </trkpt>
      <trkpt lat="47.91665" lon="7.14274">
        <ele>738.4</ele>
        <time>2013-11-11T13:32:22Z</time>
      </trkpt>
      <trkpt lat="47.9166" lon="7.14273">
        <ele>739.2</ele>
        <time>2013-11-11T13:32:25Z</time>
      </trkpt>
      <trkpt lat="47.91656" lon="7.14276">
        <ele>740.9</ele>
        <time>2013-11-11T13:32:27Z</time>
      </trkpt>
      <trkpt lat="47.91652" lon="7.14273">
        <ele>741.1</ele>
        <time>2013-11-11T13:32:29Z</time>
      </trkpt>
      <trkpt lat="47.91649" lon="7.14266">
        <ele>740.2</ele>
        <time>2013-11-11T13:32:31Z</time>
      </trkpt>
      <trkpt lat="47.91644" lon="7.14259">
        <ele>739.6</ele>
        <time>2013-11-11T13:32:34Z</time>
      </trkpt>
      <trkpt lat="47.9164" lon="7.14255">
        <ele>739.6</ele>
        <time>2013-11-11T13:32:37Z</time>
      </trkpt>
      <trkpt lat="47.91635" lon="7.14253">
        <ele>740.2</ele>
        <time>2013-11-11T13:32:38Z</time>
      </trkpt>
      <trkpt lat="47.91633" lon="7.14252">
        <ele>740.5</ele>
        <time>2013-11-11T13:32:39Z</time>
      </trkpt>
      <trkpt lat="47.91628" lon="7.1425">
        <ele>741.4</ele>
        <time>2013-11-11T13:32:41Z</time>
      </trkpt>
      <trkpt lat="47.91623" lon="7.1425">
        <ele>742.3</ele>
        <time>2013-11-11T13:32:43Z</time>
      </trkpt>
      <trkpt lat="47.91621" lon="7.14253">
        <ele>743.5</ele>
        <time>2013-11-11T13:32:45Z</time>
      </trkpt>
      <trkpt lat="47.91623" lon="7.14257">
        <ele>744.1</ele>
        <time>2013-11-11T13:32:46Z</time>
      </trkpt>
      <trkpt lat="47.91624" lon="7.1426">
        <ele>744.5</ele>
        <time>2013-11-11T13:32:48Z</time>
      </trkpt>
      <trkpt lat="47.91622" lon="7.14262">
        <ele>745.5</ele>
        <time>2013-11-11T13:32:54Z</time>
      </trkpt>
      <trkpt lat="47.91619" lon="7.14263">
        <ele>746.4</ele>
        <time>2013-11-11T13:32:56Z</time>
      </trkpt>
      <trkpt lat="47.91615" lon="7.14263">
        <ele>747</ele>
        <time>2013-11-11T13:32:59Z</time>
      </trkpt>
      <trkpt lat="47.91613" lon="7.14261">
        <ele>747.3</ele>
        <time>2013-11-11T13:33:01Z</time>
      </trkpt>
      <trkpt lat="47.91608" lon="7.1426">
        <ele>747.7</ele>
        <time>2013-11-11T13:33:03Z</time>
      </trkpt>
      <trkpt lat="47.91604" lon="7.14259">
        <ele>748.5</ele>
        <time>2013-11-11T13:33:05Z</time>
      </trkpt>
      <trkpt lat="47.91599" lon="7.14258">
        <ele>749.4</ele>
        <time>2013-11-11T13:33:07Z</time>
      </trkpt>
      <trkpt lat="47.91594" lon="7.14259">
        <ele>750.6</ele>
        <time>2013-11-11T13:33:09Z</time>
      </trkpt>
      <trkpt lat="47.91591" lon="7.1426">
        <ele>751.3</ele>
        <time>2013-11-11T13:33:10Z</time>
      </trkpt>
      <trkpt lat="47.91586" lon="7.14261">
        <ele>752.6</ele>
        <time>2013-11-11T13:33:12Z</time>
      </trkpt>
      <trkpt lat="47.91583" lon="7.14261">
        <ele>753.2</ele>
        <time>2013-11-11T13:33:13Z</time>
      </trkpt>
      <trkpt lat="47.91579" lon="7.14261">
        <ele>754.1</ele>
        <time>2013-11-11T13:33:15Z</time>
      </trkpt>
      <trkpt lat="47.91576" lon="7.1426">
        <ele>754.4</ele>
        <time>2013-11-11T13:33:17Z</time>
      </trkpt>
      <trkpt lat="47.91573" lon="7.14259">
        <ele>754.7</ele>
        <time>2013-11-11T13:33:19Z</time>
      </trkpt>
      <trkpt lat="47.9157" lon="7.14261">
        <ele>756.1</ele>
        <time>2013-11-11T13:33:22Z</time>
      </trkpt>
      <trkpt lat="47.91568" lon="7.14265">
        <ele>757.7</ele>
        <time>2013-11-11T13:33:25Z</time>
      </trkpt>
      <trkpt lat="47.91565" lon="7.14272">
        <ele>760.2</ele>
        <time>2013-11-11T13:33:29Z</time>
      </trkpt>
      <trkpt lat="47.91562" lon="7.14275">
        <ele>761.5</ele>
        <time>2013-11-11T13:33:31Z</time>
      </trkpt>
      <trkpt lat="47.91559" lon="7.14277">
        <ele>762.8</ele>
        <time>2013-11-11T13:33:33Z</time>
      </trkpt>
      <trkpt lat="47.91555" lon="7.14279">
        <ele>764.2</ele>
        <time>2013-11-11T13:33:35Z</time>
      </trkpt>
      <trkpt lat="47.91553" lon="7.14283">
        <ele>765.8</ele>
        <time>2013-11-11T13:33:40Z</time>
      </trkpt>
      <trkpt lat="47.91552" lon="7.14289">
        <ele>767.7</ele>
        <time>2013-11-11T13:33:43Z</time>
      </trkpt>
      <trkpt lat="47.91549" lon="7.14287">
        <ele>768</ele>
        <time>2013-11-11T13:33:49Z</time>
      </trkpt>
      <trkpt lat="47.91547" lon="7.14283">
        <ele>767.4</ele>
        <time>2013-11-11T13:33:52Z</time>
      </trkpt>
      <trkpt lat="47.91543" lon="7.14282">
        <ele>767.8</ele>
        <time>2013-11-11T13:33:55Z</time>
      </trkpt>
      <trkpt lat="47.91539" lon="7.14283">
        <ele>768.8</ele>
        <time>2013-11-11T13:33:57Z</time>
      </trkpt>
      <trkpt lat="47.91536" lon="7.14283">
        <ele>769.4</ele>
        <time>2013-11-11T13:34:00Z</time>
      </trkpt>
      <trkpt lat="47.91533" lon="7.14281">
        <ele>769.5</ele>
        <time>2013-11-11T13:34:02Z</time>
      </trkpt>
      <trkpt lat="47.91531" lon="7.14278">
        <ele>768.8</ele>
        <time>2013-11-11T13:34:04Z</time>
      </trkpt>
      <trkpt lat="47.91527" lon="7.14274">
        <ele>768.4</ele>
        <time>2013-11-11T13:34:08Z</time>
      </trkpt>
      <trkpt lat="47.91523" lon="7.14273">
        <ele>769</ele>
        <time>2013-11-11T13:34:12Z</time>
      </trkpt>
      <trkpt lat="47.9152" lon="7.14272">
        <ele>769.4</ele>
        <time>2013-11-11T13:34:14Z</time>
      </trkpt>
      <trkpt lat="47.91517" lon="7.1427">
        <ele>769.3</ele>
        <time>2013-11-11T13:34:16Z</time>
      </trkpt>
      <trkpt lat="47.91514" lon="7.14271">
        <ele>770.3</ele>
        <time>2013-11-11T13:34:18Z</time>
      </trkpt>
      <trkpt lat="47.91512" lon="7.14273">
        <ele>771.4</ele>
        <time>2013-11-11T13:34:20Z</time>
      </trkpt>
      <trkpt lat="47.91507" lon="7.14273">
        <ele>772</ele>
        <time>2013-11-11T13:34:22Z</time>
      </trkpt>
      <trkpt lat="47.91504" lon="7.14273">
        <ele>772.9</ele>
        <time>2013-11-11T13:34:24Z</time>
      </trkpt>
      <trkpt lat="47.91499" lon="7.14275">
        <ele>774.2</ele>
        <time>2013-11-11T13:34:27Z</time>
      </trkpt>
      <trkpt lat="47.91496" lon="7.14278">
        <ele>775.7</ele>
        <time>2013-11-11T13:34:30Z</time>
      </trkpt>
      <trkpt lat="47.91493" lon="7.14278">
        <ele>776.4</ele>
        <time>2013-11-11T13:34:33Z</time>
      </trkpt>
      <trkpt lat="47.9149" lon="7.14278">
        <ele>776.9</ele>
        <time>2013-11-11T13:34:35Z</time>
      </trkpt>
      <trkpt lat="47.91487" lon="7.14278">
        <ele>777.3</ele>
        <time>2013-11-11T13:34:37Z</time>
      </trkpt>
      <trkpt lat="47.91484" lon="7.14277">
        <ele>777.6</ele>
        <time>2013-11-11T13:34:39Z</time>
      </trkpt>
      <trkpt lat="47.91483" lon="7.14272">
        <ele>776.7</ele>
        <time>2013-11-11T13:34:42Z</time>
      </trkpt>
      <trkpt lat="47.9148" lon="7.14268">
        <ele>776.3</ele>
        <time>2013-11-11T13:34:45Z</time>
      </trkpt>
      <trkpt lat="47.91478" lon="7.14264">
        <ele>775.8</ele>
        <time>2013-11-11T13:34:47Z</time>
      </trkpt>
      <trkpt lat="47.91476" lon="7.14261">
        <ele>775.4</ele>
        <time>2013-11-11T13:34:49Z</time>
      </trkpt>
      <trkpt lat="47.91471" lon="7.14261">
        <ele>776.3</ele>
        <time>2013-11-11T13:34:52Z</time>
      </trkpt>
      <trkpt lat="47.91467" lon="7.14262">
        <ele>777.4</ele>
        <time>2013-11-11T13:34:54Z</time>
      </trkpt>
      <trkpt lat="47.91463" lon="7.14263">
        <ele>778.4</ele>
        <time>2013-11-11T13:34:56Z</time>
      </trkpt>
      <trkpt lat="47.9146" lon="7.14265">
        <ele>779.5</ele>
        <time>2013-11-11T13:34:59Z</time>
      </trkpt>
      <trkpt lat="47.91457" lon="7.14268">
        <ele>781.3</ele>
        <time>2013-11-11T13:35:02Z</time>
      </trkpt>
      <trkpt lat="47.91454" lon="7.14271">
        <ele>782.9</ele>
        <time>2013-11-11T13:35:04Z</time>
      </trkpt>
      <trkpt lat="47.91451" lon="7.14271">
        <ele>784</ele>
        <time>2013-11-11T13:35:06Z</time>
      </trkpt>
      <trkpt lat="47.91448" lon="7.14272">
        <ele>785.3</ele>
        <time>2013-11-11T13:35:09Z</time>
      </trkpt>
      <trkpt lat="47.91444" lon="7.14275">
        <ele>787.3</ele>
        <time>2013-11-11T13:35:12Z</time>
      </trkpt>
      <trkpt lat="47.91441" lon="7.14281">
        <ele>789.5</ele>
        <time>2013-11-11T13:35:14Z</time>
      </trkpt>
      <trkpt lat="47.91439" lon="7.14284">
        <ele>791.2</ele>
        <time>2013-11-11T13:35:16Z</time>
      </trkpt>
      <trkpt lat="47.91435" lon="7.14283">
        <ele>792.2</ele>
        <time>2013-11-11T13:35:18Z</time>
      </trkpt>
      <trkpt lat="47.91431" lon="7.14283">
        <ele>793.5</ele>
        <time>2013-11-11T13:35:20Z</time>
      </trkpt>
      <trkpt lat="47.91428" lon="7.14284">
        <ele>794.8</ele>
        <time>2013-11-11T13:35:22Z</time>
      </trkpt>
      <trkpt lat="47.91425" lon="7.14282">
        <ele>795.4</ele>
        <time>2013-11-11T13:35:24Z</time>
      </trkpt>
      <trkpt lat="47.91423" lon="7.14288">
        <ele>797.6</ele>
        <time>2013-11-11T13:35:26Z</time>
      </trkpt>
      <trkpt lat="47.9142" lon="7.14293">
        <ele>799.5</ele>
        <time>2013-11-11T13:35:28Z</time>
      </trkpt>
      <trkpt lat="47.91417" lon="7.14295">
        <ele>800.7</ele>
        <time>2013-11-11T13:35:30Z</time>
      </trkpt>
      <trkpt lat="47.91413" lon="7.14295">
        <ele>802</ele>
        <time>2013-11-11T13:35:33Z</time>
      </trkpt>
      <trkpt lat="47.91409" lon="7.14297">
        <ele>803.3</ele>
        <time>2013-11-11T13:35:34Z</time>
      </trkpt>
      <trkpt lat="47.91406" lon="7.14299">
        <ele>804.5</ele>
        <time>2013-11-11T13:35:36Z</time>
      </trkpt>
      <trkpt lat="47.91404" lon="7.14296">
        <ele>805.2</ele>
        <time>2013-11-11T13:35:42Z</time>
      </trkpt>
      <trkpt lat="47.91398" lon="7.14291">
        <ele>806.9</ele>
        <time>2013-11-11T13:35:46Z</time>
      </trkpt>
      <trkpt lat="47.91395" lon="7.14287">
        <ele>807.2</ele>
        <time>2013-11-11T13:35:48Z</time>
      </trkpt>
      <trkpt lat="47.91391" lon="7.14284">
        <ele>807.7</ele>
        <time>2013-11-11T13:35:50Z</time>
      </trkpt>
      <trkpt lat="47.91388" lon="7.14281">
        <ele>808.3</ele>
        <time>2013-11-11T13:35:52Z</time>
      </trkpt>
      <trkpt lat="47.91384" lon="7.14277">
        <ele>808.9</ele>
        <time>2013-11-11T13:35:54Z</time>
      </trkpt>
      <trkpt lat="47.91382" lon="7.14273">
        <ele>808.7</ele>
        <time>2013-11-11T13:35:55Z</time>
      </trkpt>
      <trkpt lat="47.91379" lon="7.1427">
        <ele>808.7</ele>
        <time>2013-11-11T13:35:56Z</time>
      </trkpt>
      <trkpt lat="47.91377" lon="7.14266">
        <ele>808.8</ele>
        <time>2013-11-11T13:35:57Z</time>
      </trkpt>
      <trkpt lat="47.91374" lon="7.14262">
        <ele>808.9</ele>
        <time>2013-11-11T13:35:59Z</time>
      </trkpt>
      <trkpt lat="47.9137" lon="7.14259">
        <ele>809.7</ele>
        <time>2013-11-11T13:36:01Z</time>
      </trkpt>
      <trkpt lat="47.91366" lon="7.14255">
        <ele>810.2</ele>
        <time>2013-11-11T13:36:03Z</time>
      </trkpt>
      <trkpt lat="47.91363" lon="7.14253">
        <ele>810.8</ele>
        <time>2013-11-11T13:36:04Z</time>
      </trkpt>
      <trkpt lat="47.9136" lon="7.14253">
        <ele>811.7</ele>
        <time>2013-11-11T13:36:05Z</time>
      </trkpt>
      <trkpt lat="47.91358" lon="7.1425">
        <ele>811.8</ele>
        <time>2013-11-11T13:36:06Z</time>
      </trkpt>
      <trkpt lat="47.91356" lon="7.14247">
        <ele>812</ele>
        <time>2013-11-11T13:36:07Z</time>
      </trkpt>
      <trkpt lat="47.91354" lon="7.14245">
        <ele>812.2</ele>
        <time>2013-11-11T13:36:08Z</time>
      </trkpt>
      <trkpt lat="47.91352" lon="7.14241">
        <ele>812</ele>
        <time>2013-11-11T13:36:09Z</time>
      </trkpt>
      <trkpt lat="47.91351" lon="7.14236">
        <ele>811.2</ele>
        <time>2013-11-11T13:36:10Z</time>
      </trkpt>
      <trkpt lat="47.91351" lon="7.1423">
        <ele>809.8</ele>
        <time>2013-11-11T13:36:12Z</time>
      </trkpt>
      <trkpt lat="47.91353" lon="7.14227">
        <ele>808.5</ele>
        <time>2013-11-11T13:36:14Z</time>
      </trkpt>
      <trkpt lat="47.91354" lon="7.14222">
        <ele>807.3</ele>
        <time>2013-11-11T13:36:17Z</time>
      </trkpt>
      <trkpt lat="47.91351" lon="7.14217">
        <ele>807.3</ele>
        <time>2013-11-11T13:36:19Z</time>
      </trkpt>
      <trkpt lat="47.91347" lon="7.14213">
        <ele>807.5</ele>
        <time>2013-11-11T13:36:21Z</time>
      </trkpt>
      <trkpt lat="47.91345" lon="7.14208">
        <ele>807.3</ele>
        <time>2013-11-11T13:36:22Z</time>
      </trkpt>
      <trkpt lat="47.91343" lon="7.14203">
        <ele>806.9</ele>
        <time>2013-11-11T13:36:23Z</time>
      </trkpt>
      <trkpt lat="47.91341" lon="7.142">
        <ele>806.7</ele>
        <time>2013-11-11T13:36:24Z</time>
      </trkpt>
      <trkpt lat="47.91337" lon="7.14198">
        <ele>807.4</ele>
        <time>2013-11-11T13:36:25Z</time>
      </trkpt>
      <trkpt lat="47.91335" lon="7.14196">
        <ele>807.6</ele>
        <time>2013-11-11T13:36:26Z</time>
      </trkpt>
      <trkpt lat="47.91332" lon="7.14193">
        <ele>807.5</ele>
        <time>2013-11-11T13:36:27Z</time>
      </trkpt>
      <trkpt lat="47.9133" lon="7.14191">
        <ele>807.8</ele>
        <time>2013-11-11T13:36:28Z</time>
      </trkpt>
      <trkpt lat="47.91327" lon="7.14188">
        <ele>808</ele>
        <time>2013-11-11T13:36:29Z</time>
      </trkpt>
      <trkpt lat="47.91325" lon="7.14186">
        <ele>808.2</ele>
        <time>2013-11-11T13:36:30Z</time>
      </trkpt>
      <trkpt lat="47.9132" lon="7.14184">
        <ele>809.3</ele>
        <time>2013-11-11T13:36:32Z</time>
      </trkpt>
      <trkpt lat="47.91318" lon="7.14182">
        <ele>809.6</ele>
        <time>2013-11-11T13:36:33Z</time>
      </trkpt>
      <trkpt lat="47.91314" lon="7.14178">
        <ele>809.9</ele>
        <time>2013-11-11T13:36:35Z</time>
      </trkpt>
      <trkpt lat="47.91311" lon="7.14174">
        <ele>809.8</ele>
        <time>2013-11-11T13:36:37Z</time>
      </trkpt>
      <trkpt lat="47.91312" lon="7.1417">
        <ele>808.4</ele>
        <time>2013-11-11T13:36:40Z</time>
      </trkpt>
      <trkpt lat="47.91312" lon="7.14165">
        <ele>806.8</ele>
        <time>2013-11-11T13:36:44Z</time>
      </trkpt>
      <trkpt lat="47.9131" lon="7.14168">
        <ele>808.4</ele>
        <time>2013-11-11T13:36:49Z</time>
      </trkpt>
      <trkpt lat="47.91306" lon="7.14165">
        <ele>809.1</ele>
        <time>2013-11-11T13:36:53Z</time>
      </trkpt>
      <trkpt lat="47.91303" lon="7.14166">
        <ele>810.6</ele>
        <time>2013-11-11T13:36:55Z</time>
      </trkpt>
      <trkpt lat="47.91299" lon="7.14169">
        <ele>812.4</ele>
        <time>2013-11-11T13:36:56Z</time>
      </trkpt>
      <trkpt lat="47.91296" lon="7.14171">
        <ele>814.2</ele>
        <time>2013-11-11T13:36:57Z</time>
      </trkpt>
      <trkpt lat="47.91293" lon="7.14174">
        <ele>816.1</ele>
        <time>2013-11-11T13:36:58Z</time>
      </trkpt>
      <trkpt lat="47.91289" lon="7.14173">
        <ele>816.9</ele>
        <time>2013-11-11T13:36:59Z</time>
      </trkpt>
      <trkpt lat="47.91286" lon="7.14172">
        <ele>817.5</ele>
        <time>2013-11-11T13:37:01Z</time>
      </trkpt>
      <trkpt lat="47.91284" lon="7.1417">
        <ele>817.3</ele>
        <time>2013-11-11T13:37:06Z</time>
      </trkpt>
      <trkpt lat="47.91281" lon="7.14165">
        <ele>816.8</ele>
        <time>2013-11-11T13:37:08Z</time>
      </trkpt>
      <trkpt lat="47.91279" lon="7.14162">
        <ele>816.6</ele>
        <time>2013-11-11T13:37:10Z</time>
      </trkpt>
      <trkpt lat="47.91276" lon="7.14159">
        <ele>816.4</ele>
        <time>2013-11-11T13:37:12Z</time>
      </trkpt>
      <trkpt lat="47.91273" lon="7.14157">
        <ele>816.6</ele>
        <time>2013-11-11T13:37:16Z</time>
      </trkpt>
      <trkpt lat="47.9127" lon="7.14154">
        <ele>816.4</ele>
        <time>2013-11-11T13:37:19Z</time>
      </trkpt>
      <trkpt lat="47.91268" lon="7.14149">
        <ele>815.8</ele>
        <time>2013-11-11T13:37:23Z</time>
      </trkpt>
      <trkpt lat="47.91266" lon="7.14145">
        <ele>815.1</ele>
        <time>2013-11-11T13:37:25Z</time>
      </trkpt>
      <trkpt lat="47.91263" lon="7.14143">
        <ele>815.2</ele>
        <time>2013-11-11T13:37:28Z</time>
      </trkpt>
      <trkpt lat="47.91259" lon="7.14141">
        <ele>815.9</ele>
        <time>2013-11-11T13:37:31Z</time>
      </trkpt>
      <trkpt lat="47.91256" lon="7.14141">
        <ele>816.4</ele>
        <time>2013-11-11T13:37:33Z</time>
      </trkpt>
      <trkpt lat="47.91253" lon="7.14144">
        <ele>818.1</ele>
        <time>2013-11-11T13:37:36Z</time>
      </trkpt>
      <trkpt lat="47.91251" lon="7.14147">
        <ele>819.5</ele>
        <time>2013-11-11T13:37:39Z</time>
      </trkpt>
      <trkpt lat="47.91248" lon="7.14149">
        <ele>820.8</ele>
        <time>2013-11-11T13:37:40Z</time>
      </trkpt>
      <trkpt lat="47.91245" lon="7.14149">
        <ele>821.6</ele>
        <time>2013-11-11T13:37:42Z</time>
      </trkpt>
      <trkpt lat="47.91241" lon="7.14149">
        <ele>822.5</ele>
        <time>2013-11-11T13:37:44Z</time>
      </trkpt>
      <trkpt lat="47.91236" lon="7.14146">
        <ele>823</ele>
        <time>2013-11-11T13:37:46Z</time>
      </trkpt>
      <trkpt lat="47.91232" lon="7.14144">
        <ele>823.5</ele>
        <time>2013-11-11T13:37:48Z</time>
      </trkpt>
      <trkpt lat="47.91229" lon="7.14143">
        <ele>824</ele>
        <time>2013-11-11T13:37:50Z</time>
      </trkpt>
      <trkpt lat="47.91225" lon="7.14145">
        <ele>825.6</ele>
        <time>2013-11-11T13:37:53Z</time>
      </trkpt>
      <trkpt lat="47.91221" lon="7.14146">
        <ele>826.7</ele>
        <time>2013-11-11T13:37:55Z</time>
      </trkpt>
      <trkpt lat="47.91217" lon="7.14148">
        <ele>828.6</ele>
        <time>2013-11-11T13:37:57Z</time>
      </trkpt>
      <trkpt lat="47.91212" lon="7.14152">
        <ele>830.9</ele>
        <time>2013-11-11T13:37:59Z</time>
      </trkpt>
      <trkpt lat="47.91209" lon="7.14154">
        <ele>832.1</ele>
        <time>2013-11-11T13:38:00Z</time>
      </trkpt>
      <trkpt lat="47.91207" lon="7.14156">
        <ele>833.2</ele>
        <time>2013-11-11T13:38:01Z</time>
      </trkpt>
      <trkpt lat="47.91204" lon="7.14159">
        <ele>834.3</ele>
        <time>2013-11-11T13:38:02Z</time>
      </trkpt>
      <trkpt lat="47.912" lon="7.1416">
        <ele>835.3</ele>
        <time>2013-11-11T13:38:04Z</time>
      </trkpt>
      <trkpt lat="47.91198" lon="7.14157">
        <ele>835</ele>
        <time>2013-11-11T13:38:06Z</time>
      </trkpt>
      <trkpt lat="47.91197" lon="7.14153">
        <ele>834</ele>
        <time>2013-11-11T13:38:08Z</time>
      </trkpt>
      <trkpt lat="47.91193" lon="7.1415">
        <ele>833.6</ele>
        <time>2013-11-11T13:38:11Z</time>
      </trkpt>
      <trkpt lat="47.91189" lon="7.1415">
        <ele>834.4</ele>
        <time>2013-11-11T13:38:14Z</time>
      </trkpt>
      <trkpt lat="47.91186" lon="7.14151">
        <ele>835</ele>
        <time>2013-11-11T13:38:16Z</time>
      </trkpt>
      <trkpt lat="47.91184" lon="7.14153">
        <ele>836.1</ele>
        <time>2013-11-11T13:38:18Z</time>
      </trkpt>
      <trkpt lat="47.91179" lon="7.14153">
        <ele>836.7</ele>
        <time>2013-11-11T13:38:20Z</time>
      </trkpt>
      <trkpt lat="47.91177" lon="7.1415">
        <ele>836.1</ele>
        <time>2013-11-11T13:38:23Z</time>
      </trkpt>
      <trkpt lat="47.91177" lon="7.14146">
        <ele>835</ele>
        <time>2013-11-11T13:38:25Z</time>
      </trkpt>
      <trkpt lat="47.91175" lon="7.1414">
        <ele>833.5</ele>
        <time>2013-11-11T13:38:27Z</time>
      </trkpt>
      <trkpt lat="47.91174" lon="7.14136">
        <ele>832.6</ele>
        <time>2013-11-11T13:38:29Z</time>
      </trkpt>
      <trkpt lat="47.91171" lon="7.14134">
        <ele>832.4</ele>
        <time>2013-11-11T13:38:31Z</time>
      </trkpt>
      <trkpt lat="47.91168" lon="7.14132">
        <ele>832.4</ele>
        <time>2013-11-11T13:38:33Z</time>
      </trkpt>
      <trkpt lat="47.91165" lon="7.14129">
        <ele>831.8</ele>
        <time>2013-11-11T13:38:35Z</time>
      </trkpt>
      <trkpt lat="47.91162" lon="7.14126">
        <ele>831.5</ele>
        <time>2013-11-11T13:38:37Z</time>
      </trkpt>
      <trkpt lat="47.9116" lon="7.14124">
        <ele>831.4</ele>
        <time>2013-11-11T13:38:46Z</time>
      </trkpt>
      <trkpt lat="47.91156" lon="7.14123">
        <ele>831.6</ele>
        <time>2013-11-11T13:38:49Z</time>
      </trkpt>
      <trkpt lat="47.91152" lon="7.14123">
        <ele>832.1</ele>
        <time>2013-11-11T13:38:50Z</time>
      </trkpt>
      <trkpt lat="47.91148" lon="7.14123">
        <ele>832.9</ele>
        <time>2013-11-11T13:38:52Z</time>
      </trkpt>
      <trkpt lat="47.91144" lon="7.14125">
        <ele>833.9</ele>
        <time>2013-11-11T13:38:54Z</time>
      </trkpt>
      <trkpt lat="47.9114" lon="7.14125">
        <ele>834.6</ele>
        <time>2013-11-11T13:38:56Z</time>
      </trkpt>
      <trkpt lat="47.91137" lon="7.14126">
        <ele>835.4</ele>
        <time>2013-11-11T13:38:58Z</time>
      </trkpt>
      <trkpt lat="47.91134" lon="7.14127">
        <ele>836.1</ele>
        <time>2013-11-11T13:39:00Z</time>
      </trkpt>
      <trkpt lat="47.9113" lon="7.14127">
        <ele>836.9</ele>
        <time>2013-11-11T13:39:02Z</time>
      </trkpt>
      <trkpt lat="47.91127" lon="7.14128">
        <ele>837.5</ele>
        <time>2013-11-11T13:39:03Z</time>
      </trkpt>
      <trkpt lat="47.91122" lon="7.14128">
        <ele>838.4</ele>
        <time>2013-11-11T13:39:05Z</time>
      </trkpt>
      <trkpt lat="47.91118" lon="7.14128">
        <ele>839.7</ele>
        <time>2013-11-11T13:39:07Z</time>
      </trkpt>
      <trkpt lat="47.91115" lon="7.14129">
        <ele>840.6</ele>
        <time>2013-11-11T13:39:09Z</time>
      </trkpt>
      <trkpt lat="47.91112" lon="7.14129">
        <ele>841.6</ele>
        <time>2013-11-11T13:39:11Z</time>
      </trkpt>
      <trkpt lat="47.91108" lon="7.1413">
        <ele>842.8</ele>
        <time>2013-11-11T13:39:14Z</time>
      </trkpt>
      <trkpt lat="47.91105" lon="7.1413">
        <ele>843.4</ele>
        <time>2013-11-11T13:39:16Z</time>
      </trkpt>
      <trkpt lat="47.91102" lon="7.14128">
        <ele>843.6</ele>
        <time>2013-11-11T13:39:18Z</time>
      </trkpt>
      <trkpt lat="47.911" lon="7.14125">
        <ele>843.2</ele>
        <time>2013-11-11T13:39:21Z</time>
      </trkpt>
      <trkpt lat="47.91101" lon="7.14129">
        <ele>844.1</ele>
        <time>2013-11-11T13:39:28Z</time>
      </trkpt>
      <trkpt lat="47.911" lon="7.14132">
        <ele>845.6</ele>
        <time>2013-11-11T13:39:30Z</time>
      </trkpt>
      <trkpt lat="47.91097" lon="7.14133">
        <ele>846.5</ele>
        <time>2013-11-11T13:39:32Z</time>
      </trkpt>
      <trkpt lat="47.91093" lon="7.14134">
        <ele>847.6</ele>
        <time>2013-11-11T13:39:34Z</time>
      </trkpt>
      <trkpt lat="47.91091" lon="7.14136">
        <ele>848.9</ele>
        <time>2013-11-11T13:39:38Z</time>
      </trkpt>
      <trkpt lat="47.91089" lon="7.14133">
        <ele>848.5</ele>
        <time>2013-11-11T13:39:49Z</time>
      </trkpt>
      <trkpt lat="47.91085" lon="7.14133">
        <ele>849.4</ele>
        <time>2013-11-11T13:39:50Z</time>
      </trkpt>
      <trkpt lat="47.91081" lon="7.14133">
        <ele>850.4</ele>
        <time>2013-11-11T13:39:51Z</time>
      </trkpt>
      <trkpt lat="47.91078" lon="7.14134">
        <ele>851.3</ele>
        <time>2013-11-11T13:39:52Z</time>
      </trkpt>
      <trkpt lat="47.91074" lon="7.14134">
        <ele>852.5</ele>
        <time>2013-11-11T13:39:54Z</time>
      </trkpt>
      <trkpt lat="47.9107" lon="7.14132">
        <ele>852.8</ele>
        <time>2013-11-11T13:39:56Z</time>
      </trkpt>
      <trkpt lat="47.91068" lon="7.1413">
        <ele>852.8</ele>
        <time>2013-11-11T13:39:58Z</time>
      </trkpt>
      <trkpt lat="47.91065" lon="7.14125">
        <ele>852</ele>
        <time>2013-11-11T13:40:01Z</time>
      </trkpt>
      <trkpt lat="47.91064" lon="7.14121">
        <ele>851.2</ele>
        <time>2013-11-11T13:40:02Z</time>
      </trkpt>
      <trkpt lat="47.91062" lon="7.14117">
        <ele>850.7</ele>
        <time>2013-11-11T13:40:03Z</time>
      </trkpt>
      <trkpt lat="47.91059" lon="7.14114">
        <ele>850.3</ele>
        <time>2013-11-11T13:40:04Z</time>
      </trkpt>
      <trkpt lat="47.91057" lon="7.1411">
        <ele>849.9</ele>
        <time>2013-11-11T13:40:05Z</time>
      </trkpt>
      <trkpt lat="47.91055" lon="7.14107">
        <ele>849.4</ele>
        <time>2013-11-11T13:40:06Z</time>
      </trkpt>
      <trkpt lat="47.91052" lon="7.14101">
        <ele>848.8</ele>
        <time>2013-11-11T13:40:08Z</time>
      </trkpt>
      <trkpt lat="47.91049" lon="7.14096">
        <ele>848.1</ele>
        <time>2013-11-11T13:40:10Z</time>
      </trkpt>
      <trkpt lat="47.91045" lon="7.14092">
        <ele>847.8</ele>
        <time>2013-11-11T13:40:12Z</time>
      </trkpt>
      <trkpt lat="47.91042" lon="7.14086">
        <ele>847.2</ele>
        <time>2013-11-11T13:40:14Z</time>
      </trkpt>
      <trkpt lat="47.9104" lon="7.14083">
        <ele>847</ele>
        <time>2013-11-11T13:40:15Z</time>
      </trkpt>
      <trkpt lat="47.91036" lon="7.14078">
        <ele>846.4</ele>
        <time>2013-11-11T13:40:17Z</time>
      </trkpt>
      <trkpt lat="47.91035" lon="7.14074">
        <ele>845.5</ele>
        <time>2013-11-11T13:40:18Z</time>
      </trkpt>
      <trkpt lat="47.91035" lon="7.14069">
        <ele>844.4</ele>
        <time>2013-11-11T13:40:20Z</time>
      </trkpt>
      <trkpt lat="47.91033" lon="7.14062">
        <ele>842.9</ele>
        <time>2013-11-11T13:40:21Z</time>
      </trkpt>
      <trkpt lat="47.9103" lon="7.14066">
        <ele>844.7</ele>
        <time>2013-11-11T13:40:26Z</time>
      </trkpt>
      <trkpt lat="47.91025" lon="7.14071">
        <ele>847.2</ele>
        <time>2013-11-11T13:40:28Z</time>
      </trkpt>
      <trkpt lat="47.91023" lon="7.14072">
        <ele>848.2</ele>
        <time>2013-11-11T13:40:29Z</time>
      </trkpt>
      <trkpt lat="47.91018" lon="7.14073">
        <ele>849.7</ele>
        <time>2013-11-11T13:40:32Z</time>
      </trkpt>
      <trkpt lat="47.91015" lon="7.14074">
        <ele>850.9</ele>
        <time>2013-11-11T13:40:33Z</time>
      </trkpt>
      <trkpt lat="47.91012" lon="7.14073">
        <ele>851.2</ele>
        <time>2013-11-11T13:40:35Z</time>
      </trkpt>
      <trkpt lat="47.91008" lon="7.14071">
        <ele>851.7</ele>
        <time>2013-11-11T13:40:37Z</time>
      </trkpt>
      <trkpt lat="47.91005" lon="7.14072">
        <ele>852.7</ele>
        <time>2013-11-11T13:40:40Z</time>
      </trkpt>
      <trkpt lat="47.91001" lon="7.14071">
        <ele>853.5</ele>
        <time>2013-11-11T13:40:42Z</time>
      </trkpt>
      <trkpt lat="47.90999" lon="7.14069">
        <ele>853.6</ele>
        <time>2013-11-11T13:40:44Z</time>
      </trkpt>
      <trkpt lat="47.90996" lon="7.14064">
        <ele>853.1</ele>
        <time>2013-11-11T13:40:46Z</time>
      </trkpt>
      <trkpt lat="47.90993" lon="7.1406">
        <ele>852.7</ele>
        <time>2013-11-11T13:40:48Z</time>
      </trkpt>
      <trkpt lat="47.90991" lon="7.14055">
        <ele>851.9</ele>
        <time>2013-11-11T13:40:51Z</time>
      </trkpt>
      <trkpt lat="47.90991" lon="7.1406">
        <ele>853.1</ele>
        <time>2013-11-11T13:40:57Z</time>
      </trkpt>
      <trkpt lat="47.90992" lon="7.14064">
        <ele>853.9</ele>
        <time>2013-11-11T13:41:04Z</time>
      </trkpt>
      <trkpt lat="47.90994" lon="7.1406">
        <ele>852.4</ele>
        <time>2013-11-11T13:41:07Z</time>
      </trkpt>
      <trkpt lat="47.90991" lon="7.14058">
        <ele>852.8</ele>
        <time>2013-11-11T13:41:12Z</time>
      </trkpt>
      <trkpt lat="47.9099" lon="7.14064">
        <ele>854.4</ele>
        <time>2013-11-11T13:41:14Z</time>
      </trkpt>
      <trkpt lat="47.90989" lon="7.14069">
        <ele>855.9</ele>
        <time>2013-11-11T13:41:16Z</time>
      </trkpt>
      <trkpt lat="47.90988" lon="7.14073">
        <ele>857.3</ele>
        <time>2013-11-11T13:41:18Z</time>
      </trkpt>
      <trkpt lat="47.90987" lon="7.14077">
        <ele>858.7</ele>
        <time>2013-11-11T13:41:20Z</time>
      </trkpt>
      <trkpt lat="47.90986" lon="7.14083">
        <ele>860.3</ele>
        <time>2013-11-11T13:41:22Z</time>
      </trkpt>
      <trkpt lat="47.90985" lon="7.14087">
        <ele>861.8</ele>
        <time>2013-11-11T13:41:24Z</time>
      </trkpt>
      <trkpt lat="47.90983" lon="7.14084">
        <ele>861.5</ele>
        <time>2013-11-11T13:41:27Z</time>
      </trkpt>
      <trkpt lat="47.90982" lon="7.14079">
        <ele>860.6</ele>
        <time>2013-11-11T13:41:33Z</time>
      </trkpt>
      <trkpt lat="47.90954" lon="7.14104">
        <ele>874.1</ele>
        <time>2013-11-11T13:41:48Z</time>
      </trkpt>
      <trkpt lat="47.90953" lon="7.141">
        <ele>873.4</ele>
        <time>2013-11-11T13:41:50Z</time>
      </trkpt>
      <trkpt lat="47.90953" lon="7.14096">
        <ele>872.4</ele>
        <time>2013-11-11T13:41:51Z</time>
      </trkpt>
      <trkpt lat="47.90952" lon="7.14088">
        <ele>870.7</ele>
        <time>2013-11-11T13:41:53Z</time>
      </trkpt>
      <trkpt lat="47.90951" lon="7.14081">
        <ele>869.4</ele>
        <time>2013-11-11T13:41:55Z</time>
      </trkpt>
      <trkpt lat="47.9095" lon="7.14077">
        <ele>868.7</ele>
        <time>2013-11-11T13:41:57Z</time>
      </trkpt>
      <trkpt lat="47.90954" lon="7.14079">
        <ele>867.9</ele>
        <time>2013-11-11T13:42:04Z</time>
      </trkpt>
      <trkpt lat="47.90957" lon="7.14073">
        <ele>865.3</ele>
        <time>2013-11-11T13:42:12Z</time>
      </trkpt>
      <trkpt lat="47.90955" lon="7.14067">
        <ele>864.4</ele>
        <time>2013-11-11T13:42:14Z</time>
      </trkpt>
      <trkpt lat="47.90952" lon="7.14063">
        <ele>864.5</ele>
        <time>2013-11-11T13:42:16Z</time>
      </trkpt>
      <trkpt lat="47.9095" lon="7.14061">
        <ele>864.9</ele>
        <time>2013-11-11T13:42:17Z</time>
      </trkpt>
      <trkpt lat="47.90946" lon="7.14058">
        <ele>865.7</ele>
        <time>2013-11-11T13:42:19Z</time>
      </trkpt>
      <trkpt lat="47.90943" lon="7.14056">
        <ele>866.3</ele>
        <time>2013-11-11T13:42:20Z</time>
      </trkpt>
      <trkpt lat="47.90939" lon="7.14053">
        <ele>867.1</ele>
        <time>2013-11-11T13:42:22Z</time>
      </trkpt>
      <trkpt lat="47.90935" lon="7.14048">
        <ele>867.4</ele>
        <time>2013-11-11T13:42:24Z</time>
      </trkpt>
      <trkpt lat="47.90931" lon="7.14046">
        <ele>868.3</ele>
        <time>2013-11-11T13:42:26Z</time>
      </trkpt>
      <trkpt lat="47.90927" lon="7.14047">
        <ele>870.3</ele>
        <time>2013-11-11T13:42:28Z</time>
      </trkpt>
      <trkpt lat="47.90924" lon="7.14047">
        <ele>871.5</ele>
        <time>2013-11-11T13:42:29Z</time>
      </trkpt>
      <trkpt lat="47.90921" lon="7.14048">
        <ele>872.8</ele>
        <time>2013-11-11T13:42:30Z</time>
      </trkpt>
      <trkpt lat="47.90918" lon="7.14049">
        <ele>874</ele>
        <time>2013-11-11T13:42:31Z</time>
      </trkpt>
      <trkpt lat="47.90915" lon="7.14048">
        <ele>874.9</ele>
        <time>2013-11-11T13:42:32Z</time>
      </trkpt>
      <trkpt lat="47.90912" lon="7.14046">
        <ele>875.6</ele>
        <time>2013-11-11T13:42:33Z</time>
      </trkpt>
      <trkpt lat="47.90909" lon="7.14044">
        <ele>876.2</ele>
        <time>2013-11-11T13:42:34Z</time>
      </trkpt>
      <trkpt lat="47.90905" lon="7.14041">
        <ele>877.4</ele>
        <time>2013-11-11T13:42:36Z</time>
      </trkpt>
      <trkpt lat="47.90902" lon="7.14038">
        <ele>877.7</ele>
        <time>2013-11-11T13:42:37Z</time>
      </trkpt>
      <trkpt lat="47.909" lon="7.14035">
        <ele>877.8</ele>
        <time>2013-11-11T13:42:38Z</time>
      </trkpt>
      <trkpt lat="47.90898" lon="7.14031">
        <ele>877.6</ele>
        <time>2013-11-11T13:42:39Z</time>
      </trkpt>
      <trkpt lat="47.90896" lon="7.14027">
        <ele>877.3</ele>
        <time>2013-11-11T13:42:40Z</time>
      </trkpt>
      <trkpt lat="47.90893" lon="7.14024">
        <ele>877.4</ele>
        <time>2013-11-11T13:42:41Z</time>
      </trkpt>
      <trkpt lat="47.90891" lon="7.14021">
        <ele>877.4</ele>
        <time>2013-11-11T13:42:42Z</time>
      </trkpt>
      <trkpt lat="47.90888" lon="7.14016">
        <ele>877.4</ele>
        <time>2013-11-11T13:42:44Z</time>
      </trkpt>
      <trkpt lat="47.90885" lon="7.14013">
        <ele>877.9</ele>
        <time>2013-11-11T13:42:46Z</time>
      </trkpt>
      <trkpt lat="47.90882" lon="7.14011">
        <ele>878.7</ele>
        <time>2013-11-11T13:42:48Z</time>
      </trkpt>
      <trkpt lat="47.90879" lon="7.14007">
        <ele>879</ele>
        <time>2013-11-11T13:42:51Z</time>
      </trkpt>
      <trkpt lat="47.90876" lon="7.14005">
        <ele>879.2</ele>
        <time>2013-11-11T13:42:52Z</time>
      </trkpt>
      <trkpt lat="47.90874" lon="7.14">
        <ele>878.9</ele>
        <time>2013-11-11T13:42:54Z</time>
      </trkpt>
      <trkpt lat="47.90872" lon="7.13997">
        <ele>878.9</ele>
        <time>2013-11-11T13:42:55Z</time>
      </trkpt>
      <trkpt lat="47.90868" lon="7.13991">
        <ele>879.2</ele>
        <time>2013-11-11T13:42:57Z</time>
      </trkpt>
      <trkpt lat="47.90865" lon="7.13988">
        <ele>879.4</ele>
        <time>2013-11-11T13:42:58Z</time>
      </trkpt>
      <trkpt lat="47.90863" lon="7.13985">
        <ele>879.9</ele>
        <time>2013-11-11T13:42:59Z</time>
      </trkpt>
      <trkpt lat="47.9086" lon="7.13983">
        <ele>880.6</ele>
        <time>2013-11-11T13:43:00Z</time>
      </trkpt>
      <trkpt lat="47.90856" lon="7.13981">
        <ele>881.8</ele>
        <time>2013-11-11T13:43:02Z</time>
      </trkpt>
      <trkpt lat="47.9085" lon="7.13975">
        <ele>883.2</ele>
        <time>2013-11-11T13:43:05Z</time>
      </trkpt>
      <trkpt lat="47.90845" lon="7.13972">
        <ele>884.6</ele>
        <time>2013-11-11T13:43:07Z</time>
      </trkpt>
      <trkpt lat="47.90839" lon="7.13967">
        <ele>886.7</ele>
        <time>2013-11-11T13:43:10Z</time>
      </trkpt>
      <trkpt lat="47.90835" lon="7.13964">
        <ele>888</ele>
        <time>2013-11-11T13:43:12Z</time>
      </trkpt>
      <trkpt lat="47.90831" lon="7.1396">
        <ele>889.4</ele>
        <time>2013-11-11T13:43:14Z</time>
      </trkpt>
      <trkpt lat="47.90827" lon="7.13955">
        <ele>890.9</ele>
        <time>2013-11-11T13:43:17Z</time>
      </trkpt>
      <trkpt lat="47.90823" lon="7.13952">
        <ele>892.5</ele>
        <time>2013-11-11T13:43:18Z</time>
      </trkpt>
      <trkpt lat="47.90817" lon="7.13953">
        <ele>895.3</ele>
        <time>2013-11-11T13:43:22Z</time>
      </trkpt>
      <trkpt lat="47.90813" lon="7.13954">
        <ele>897.2</ele>
        <time>2013-11-11T13:43:23Z</time>
      </trkpt>
      <trkpt lat="47.9081" lon="7.13954">
        <ele>898.7</ele>
        <time>2013-11-11T13:43:25Z</time>
      </trkpt>
      <trkpt lat="47.90808" lon="7.13953">
        <ele>899.7</ele>
        <time>2013-11-11T13:43:29Z</time>
      </trkpt>
      <trkpt lat="47.90805" lon="7.13949">
        <ele>900.5</ele>
        <time>2013-11-11T13:43:30Z</time>
      </trkpt>
      <trkpt lat="47.90803" lon="7.13943">
        <ele>901.2</ele>
        <time>2013-11-11T13:43:32Z</time>
      </trkpt>
      <trkpt lat="47.90801" lon="7.1394">
        <ele>902</ele>
        <time>2013-11-11T13:43:33Z</time>
      </trkpt>
      <trkpt lat="47.90798" lon="7.13937">
        <ele>902.8</ele>
        <time>2013-11-11T13:43:34Z</time>
      </trkpt>
      <trkpt lat="47.90794" lon="7.13932">
        <ele>904.5</ele>
        <time>2013-11-11T13:43:36Z</time>
      </trkpt>
      <trkpt lat="47.90791" lon="7.1393">
        <ele>905.7</ele>
        <time>2013-11-11T13:43:39Z</time>
      </trkpt>
      <trkpt lat="47.90788" lon="7.13927">
        <ele>906.8</ele>
        <time>2013-11-11T13:43:41Z</time>
      </trkpt>
      <trkpt lat="47.90784" lon="7.13929">
        <ele>908.1</ele>
        <time>2013-11-11T13:43:43Z</time>
      </trkpt>
      <trkpt lat="47.90782" lon="7.13928">
        <ele>909</ele>
        <time>2013-11-11T13:43:48Z</time>
      </trkpt>
      <trkpt lat="47.90781" lon="7.13923">
        <ele>909</ele>
        <time>2013-11-11T13:43:51Z</time>
      </trkpt>
      <trkpt lat="47.9078" lon="7.13919">
        <ele>909.1</ele>
        <time>2013-11-11T13:43:52Z</time>
      </trkpt>
      <trkpt lat="47.90779" lon="7.13913">
        <ele>909</ele>
        <time>2013-11-11T13:43:54Z</time>
      </trkpt>
      <trkpt lat="47.90778" lon="7.13907">
        <ele>908.9</ele>
        <time>2013-11-11T13:43:55Z</time>
      </trkpt>
      <trkpt lat="47.90777" lon="7.13901">
        <ele>908.9</ele>
        <time>2013-11-11T13:43:56Z</time>
      </trkpt>
      <trkpt lat="47.90776" lon="7.13895">
        <ele>909</ele>
        <time>2013-11-11T13:43:57Z</time>
      </trkpt>
      <trkpt lat="47.90774" lon="7.13888">
        <ele>909.4</ele>
        <time>2013-11-11T13:43:58Z</time>
      </trkpt>
      <trkpt lat="47.90772" lon="7.13881">
        <ele>909.7</ele>
        <time>2013-11-11T13:43:59Z</time>
      </trkpt>
      <trkpt lat="47.90771" lon="7.13875">
        <ele>910.2</ele>
        <time>2013-11-11T13:44:00Z</time>
      </trkpt>
      <trkpt lat="47.90769" lon="7.1387">
        <ele>910.4</ele>
        <time>2013-11-11T13:44:01Z</time>
      </trkpt>
      <trkpt lat="47.90768" lon="7.13865">
        <ele>910.6</ele>
        <time>2013-11-11T13:44:02Z</time>
      </trkpt>
      <trkpt lat="47.90767" lon="7.13861">
        <ele>910.9</ele>
        <time>2013-11-11T13:44:03Z</time>
      </trkpt>
      <trkpt lat="47.90766" lon="7.13857">
        <ele>911.2</ele>
        <time>2013-11-11T13:44:04Z</time>
      </trkpt>
      <trkpt lat="47.90764" lon="7.13853">
        <ele>911.6</ele>
        <time>2013-11-11T13:44:05Z</time>
      </trkpt>
      <trkpt lat="47.90763" lon="7.13848">
        <ele>912</ele>
        <time>2013-11-11T13:44:07Z</time>
      </trkpt>
      <trkpt lat="47.90764" lon="7.13844">
        <ele>911.4</ele>
        <time>2013-11-11T13:44:09Z</time>
      </trkpt>
      <trkpt lat="47.90764" lon="7.13839">
        <ele>910.8</ele>
        <time>2013-11-11T13:44:12Z</time>
      </trkpt>
      <trkpt lat="47.90767" lon="7.13834">
        <ele>909.5</ele>
        <time>2013-11-11T13:44:16Z</time>
      </trkpt>
      <trkpt lat="47.90773" lon="7.13827">
        <ele>906.4</ele>
        <time>2013-11-11T13:44:19Z</time>
      </trkpt>
      <trkpt lat="47.90775" lon="7.13823">
        <ele>905.4</ele>
        <time>2013-11-11T13:44:21Z</time>
      </trkpt>
      <trkpt lat="47.90775" lon="7.13819">
        <ele>905.1</ele>
        <time>2013-11-11T13:44:23Z</time>
      </trkpt>
      <trkpt lat="47.90777" lon="7.13815">
        <ele>904.1</ele>
        <time>2013-11-11T13:44:25Z</time>
      </trkpt>
      <trkpt lat="47.90781" lon="7.13812">
        <ele>902.5</ele>
        <time>2013-11-11T13:44:27Z</time>
      </trkpt>
      <trkpt lat="47.90783" lon="7.13808">
        <ele>901.4</ele>
        <time>2013-11-11T13:44:29Z</time>
      </trkpt>
      <trkpt lat="47.90782" lon="7.13803">
        <ele>901.5</ele>
        <time>2013-11-11T13:44:31Z</time>
      </trkpt>
      <trkpt lat="47.9078" lon="7.13799">
        <ele>902.4</ele>
        <time>2013-11-11T13:44:33Z</time>
      </trkpt>
      <trkpt lat="47.90778" lon="7.13796">
        <ele>902.9</ele>
        <time>2013-11-11T13:44:36Z</time>
      </trkpt>
      <trkpt lat="47.90776" lon="7.13791">
        <ele>903.3</ele>
        <time>2013-11-11T13:44:37Z</time>
      </trkpt>
      <trkpt lat="47.90776" lon="7.13785">
        <ele>903.1</ele>
        <time>2013-11-11T13:44:39Z</time>
      </trkpt>
      <trkpt lat="47.90775" lon="7.1378">
        <ele>902.8</ele>
        <time>2013-11-11T13:44:41Z</time>
      </trkpt>
      <trkpt lat="47.90775" lon="7.13775">
        <ele>902.4</ele>
        <time>2013-11-11T13:44:43Z</time>
      </trkpt>
      <trkpt lat="47.90774" lon="7.1377">
        <ele>902.4</ele>
        <time>2013-11-11T13:44:45Z</time>
      </trkpt>
      <trkpt lat="47.90773" lon="7.13766">
        <ele>902.5</ele>
        <time>2013-11-11T13:44:47Z</time>
      </trkpt>
      <trkpt lat="47.90771" lon="7.13761">
        <ele>902.8</ele>
        <time>2013-11-11T13:44:50Z</time>
      </trkpt>
      <trkpt lat="47.90768" lon="7.13757">
        <ele>903.9</ele>
        <time>2013-11-11T13:44:51Z</time>
      </trkpt>
      <trkpt lat="47.90765" lon="7.13754">
        <ele>904.8</ele>
        <time>2013-11-11T13:44:53Z</time>
      </trkpt>
      <trkpt lat="47.90761" lon="7.13751">
        <ele>906</ele>
        <time>2013-11-11T13:44:55Z</time>
      </trkpt>
      <trkpt lat="47.90756" lon="7.13747">
        <ele>907.5</ele>
        <time>2013-11-11T13:44:57Z</time>
      </trkpt>
      <trkpt lat="47.90754" lon="7.13745">
        <ele>908.1</ele>
        <time>2013-11-11T13:44:58Z</time>
      </trkpt>
      <trkpt lat="47.90749" lon="7.1374">
        <ele>909.3</ele>
        <time>2013-11-11T13:45:01Z</time>
      </trkpt>
      <trkpt lat="47.90746" lon="7.13736">
        <ele>910.2</ele>
        <time>2013-11-11T13:45:02Z</time>
      </trkpt>
      <trkpt lat="47.90743" lon="7.13732">
        <ele>910.9</ele>
        <time>2013-11-11T13:45:04Z</time>
      </trkpt>
      <trkpt lat="47.90741" lon="7.13729">
        <ele>911.3</ele>
        <time>2013-11-11T13:45:06Z</time>
      </trkpt>
      <trkpt lat="47.90739" lon="7.13724">
        <ele>911.5</ele>
        <time>2013-11-11T13:45:08Z</time>
      </trkpt>
      <trkpt lat="47.90738" lon="7.13718">
        <ele>911.4</ele>
        <time>2013-11-11T13:45:10Z</time>
      </trkpt>
      <trkpt lat="47.90737" lon="7.13712">
        <ele>911.2</ele>
        <time>2013-11-11T13:45:12Z</time>
      </trkpt>
      <trkpt lat="47.90735" lon="7.13707">
        <ele>911.4</ele>
        <time>2013-11-11T13:45:14Z</time>
      </trkpt>
      <trkpt lat="47.90734" lon="7.13702">
        <ele>911.9</ele>
        <time>2013-11-11T13:45:16Z</time>
      </trkpt>
      <trkpt lat="47.90734" lon="7.13696">
        <ele>912.4</ele>
        <time>2013-11-11T13:45:18Z</time>
      </trkpt>
      <trkpt lat="47.90733" lon="7.13691">
        <ele>912.7</ele>
        <time>2013-11-11T13:45:20Z</time>
      </trkpt>
      <trkpt lat="47.90734" lon="7.13684">
        <ele>912.7</ele>
        <time>2013-11-11T13:45:22Z</time>
      </trkpt>
      <trkpt lat="47.90734" lon="7.13679">
        <ele>912.9</ele>
        <time>2013-11-11T13:45:24Z</time>
      </trkpt>
      <trkpt lat="47.90733" lon="7.13675">
        <ele>913.5</ele>
        <time>2013-11-11T13:45:26Z</time>
      </trkpt>
      <trkpt lat="47.90731" lon="7.13672">
        <ele>914.2</ele>
        <time>2013-11-11T13:45:28Z</time>
      </trkpt>
      <trkpt lat="47.90729" lon="7.13667">
        <ele>914.9</ele>
        <time>2013-11-11T13:45:30Z</time>
      </trkpt>
      <trkpt lat="47.90728" lon="7.13663">
        <ele>915.2</ele>
        <time>2013-11-11T13:45:32Z</time>
      </trkpt>
      <trkpt lat="47.90728" lon="7.13658">
        <ele>915.5</ele>
        <time>2013-11-11T13:45:35Z</time>
      </trkpt>
      <trkpt lat="47.90728" lon="7.13653">
        <ele>915.7</ele>
        <time>2013-11-11T13:45:38Z</time>
      </trkpt>
      <trkpt lat="47.90729" lon="7.13649">
        <ele>915.6</ele>
        <time>2013-11-11T13:45:40Z</time>
      </trkpt>
      <trkpt lat="47.9073" lon="7.13643">
        <ele>915.5</ele>
        <time>2013-11-11T13:45:42Z</time>
      </trkpt>
      <trkpt lat="47.90731" lon="7.13638">
        <ele>915.4</ele>
        <time>2013-11-11T13:45:44Z</time>
      </trkpt>
      <trkpt lat="47.9073" lon="7.13634">
        <ele>915.6</ele>
        <time>2013-11-11T13:45:46Z</time>
      </trkpt>
      <trkpt lat="47.90731" lon="7.13629">
        <ele>915.6</ele>
        <time>2013-11-11T13:45:48Z</time>
      </trkpt>
      <trkpt lat="47.90733" lon="7.13622">
        <ele>915.7</ele>
        <time>2013-11-11T13:45:50Z</time>
      </trkpt>
      <trkpt lat="47.90734" lon="7.13617">
        <ele>916.6</ele>
        <time>2013-11-11T13:45:52Z</time>
      </trkpt>
      <trkpt lat="47.90735" lon="7.13612">
        <ele>917.6</ele>
        <time>2013-11-11T13:45:54Z</time>
      </trkpt>
      <trkpt lat="47.90736" lon="7.13608">
        <ele>918.4</ele>
        <time>2013-11-11T13:45:56Z</time>
      </trkpt>
      <trkpt lat="47.90734" lon="7.13602">
        <ele>920</ele>
        <time>2013-11-11T13:46:00Z</time>
      </trkpt>
      <trkpt lat="47.90733" lon="7.13598">
        <ele>921.4</ele>
        <time>2013-11-11T13:46:03Z</time>
      </trkpt>
      <trkpt lat="47.90733" lon="7.13593">
        <ele>922.6</ele>
        <time>2013-11-11T13:46:05Z</time>
      </trkpt>
      <trkpt lat="47.90734" lon="7.13587">
        <ele>923.5</ele>
        <time>2013-11-11T13:46:07Z</time>
      </trkpt>
      <trkpt lat="47.90736" lon="7.13583">
        <ele>924</ele>
        <time>2013-11-11T13:46:10Z</time>
      </trkpt>
      <trkpt lat="47.9074" lon="7.1358">
        <ele>923.5</ele>
        <time>2013-11-11T13:46:12Z</time>
      </trkpt>
      <trkpt lat="47.90743" lon="7.1358">
        <ele>923</ele>
        <time>2013-11-11T13:46:13Z</time>
      </trkpt>
      <trkpt lat="47.90756" lon="7.13576">
        <ele>921</ele>
        <time>2013-11-11T13:46:14Z</time>
      </trkpt>
      <trkpt lat="47.90768" lon="7.13572">
        <ele>919.1</ele>
        <time>2013-11-11T13:46:15Z</time>
      </trkpt>
      <trkpt lat="47.90771" lon="7.13569">
        <ele>919.1</ele>
        <time>2013-11-11T13:46:16Z</time>
      </trkpt>
      <trkpt lat="47.90776" lon="7.13566">
        <ele>918.9</ele>
        <time>2013-11-11T13:46:18Z</time>
      </trkpt>
      <trkpt lat="47.9078" lon="7.13563">
        <ele>918.8</ele>
        <time>2013-11-11T13:46:20Z</time>
      </trkpt>
      <trkpt lat="47.90784" lon="7.13559">
        <ele>918.9</ele>
        <time>2013-11-11T13:46:22Z</time>
      </trkpt>
      <trkpt lat="47.90785" lon="7.13553">
        <ele>920.3</ele>
        <time>2013-11-11T13:46:27Z</time>
      </trkpt>
      <trkpt lat="47.90788" lon="7.1355">
        <ele>920.3</ele>
        <time>2013-11-11T13:46:31Z</time>
      </trkpt>
      <trkpt lat="47.90791" lon="7.13549">
        <ele>920.1</ele>
        <time>2013-11-11T13:46:33Z</time>
      </trkpt>
      <trkpt lat="47.90794" lon="7.13546">
        <ele>920.2</ele>
        <time>2013-11-11T13:46:36Z</time>
      </trkpt>
      <trkpt lat="47.90796" lon="7.13543">
        <ele>920.6</ele>
        <time>2013-11-11T13:46:37Z</time>
      </trkpt>
      <trkpt lat="47.90799" lon="7.1354">
        <ele>920.7</ele>
        <time>2013-11-11T13:46:39Z</time>
      </trkpt>
      <trkpt lat="47.90797" lon="7.13536">
        <ele>921.9</ele>
        <time>2013-11-11T13:46:53Z</time>
      </trkpt>
      <trkpt lat="47.90799" lon="7.13531">
        <ele>922.6</ele>
        <time>2013-11-11T13:46:56Z</time>
      </trkpt>
      <trkpt lat="47.90801" lon="7.13528">
        <ele>922.6</ele>
        <time>2013-11-11T13:46:58Z</time>
      </trkpt>
      <trkpt lat="47.90805" lon="7.13524">
        <ele>922.4</ele>
        <time>2013-11-11T13:47:00Z</time>
      </trkpt>
      <trkpt lat="47.90807" lon="7.13521">
        <ele>922.6</ele>
        <time>2013-11-11T13:47:01Z</time>
      </trkpt>
      <trkpt lat="47.90809" lon="7.13518">
        <ele>922.7</ele>
        <time>2013-11-11T13:47:02Z</time>
      </trkpt>
      <trkpt lat="47.9081" lon="7.13513">
        <ele>923.5</ele>
        <time>2013-11-11T13:47:04Z</time>
      </trkpt>
      <trkpt lat="47.90813" lon="7.13508">
        <ele>923.9</ele>
        <time>2013-11-11T13:47:07Z</time>
      </trkpt>
      <trkpt lat="47.90814" lon="7.13503">
        <ele>924.5</ele>
        <time>2013-11-11T13:47:10Z</time>
      </trkpt>
      <trkpt lat="47.90815" lon="7.13498">
        <ele>925.1</ele>
        <time>2013-11-11T13:47:12Z</time>
      </trkpt>
      <trkpt lat="47.90817" lon="7.13494">
        <ele>925.6</ele>
        <time>2013-11-11T13:47:14Z</time>
      </trkpt>
      <trkpt lat="47.90818" lon="7.1349">
        <ele>926.2</ele>
        <time>2013-11-11T13:47:16Z</time>
      </trkpt>
      <trkpt lat="47.90817" lon="7.13484">
        <ele>927.3</ele>
        <time>2013-11-11T13:47:20Z</time>
      </trkpt>
      <trkpt lat="47.90818" lon="7.1348">
        <ele>928</ele>
        <time>2013-11-11T13:47:22Z</time>
      </trkpt>
      <trkpt lat="47.90818" lon="7.13474">
        <ele>929</ele>
        <time>2013-11-11T13:47:26Z</time>
      </trkpt>
      <trkpt lat="47.90818" lon="7.1347">
        <ele>930</ele>
        <time>2013-11-11T13:47:28Z</time>
      </trkpt>
      <trkpt lat="47.90821" lon="7.13465">
        <ele>930.1</ele>
        <time>2013-11-11T13:47:30Z</time>
      </trkpt>
      <trkpt lat="47.90823" lon="7.13458">
        <ele>930.5</ele>
        <time>2013-11-11T13:47:32Z</time>
      </trkpt>
      <trkpt lat="47.90826" lon="7.13453">
        <ele>930.1</ele>
        <time>2013-11-11T13:47:34Z</time>
      </trkpt>
      <trkpt lat="47.90829" lon="7.13449">
        <ele>929.8</ele>
        <time>2013-11-11T13:47:36Z</time>
      </trkpt>
      <trkpt lat="47.90831" lon="7.13442">
        <ele>929.9</ele>
        <time>2013-11-11T13:47:38Z</time>
      </trkpt>
      <trkpt lat="47.90831" lon="7.13438">
        <ele>930</ele>
        <time>2013-11-11T13:47:40Z</time>
      </trkpt>
      <trkpt lat="47.90832" lon="7.13435">
        <ele>930.2</ele>
        <time>2013-11-11T13:47:42Z</time>
      </trkpt>
      <trkpt lat="47.90833" lon="7.13431">
        <ele>930.3</ele>
        <time>2013-11-11T13:47:44Z</time>
      </trkpt>
      <trkpt lat="47.90833" lon="7.13428">
        <ele>930.4</ele>
        <time>2013-11-11T13:47:46Z</time>
      </trkpt>
      <trkpt lat="47.90834" lon="7.13425">
        <ele>930.6</ele>
        <time>2013-11-11T13:47:49Z</time>
      </trkpt>
      <trkpt lat="47.90835" lon="7.13421">
        <ele>930.7</ele>
        <time>2013-11-11T13:47:52Z</time>
      </trkpt>
      <trkpt lat="47.90835" lon="7.13418">
        <ele>930.8</ele>
        <time>2013-11-11T13:47:56Z</time>
      </trkpt>
      <trkpt lat="47.90836" lon="7.13414">
        <ele>931</ele>
        <time>2013-11-11T13:47:58Z</time>
      </trkpt>
      <trkpt lat="47.90836" lon="7.13411">
        <ele>931.1</ele>
        <time>2013-11-11T13:48:01Z</time>
      </trkpt>
      <trkpt lat="47.90838" lon="7.13401">
        <ele>931.4</ele>
        <time>2013-11-11T13:48:02Z</time>
      </trkpt>
      <trkpt lat="47.90835" lon="7.13394">
        <ele>933.1</ele>
        <time>2013-11-11T13:48:05Z</time>
      </trkpt>
      <trkpt lat="47.90831" lon="7.13388">
        <ele>934.9</ele>
        <time>2013-11-11T13:48:06Z</time>
      </trkpt>
      <trkpt lat="47.90829" lon="7.13383">
        <ele>936.2</ele>
        <time>2013-11-11T13:48:09Z</time>
      </trkpt>
      <trkpt lat="47.90828" lon="7.13378">
        <ele>937.2</ele>
        <time>2013-11-11T13:48:10Z</time>
      </trkpt>
      <trkpt lat="47.90827" lon="7.13373">
        <ele>938</ele>
        <time>2013-11-11T13:48:12Z</time>
      </trkpt>
      <trkpt lat="47.90825" lon="7.13369">
        <ele>938.8</ele>
        <time>2013-11-11T13:48:14Z</time>
      </trkpt>
      <trkpt lat="47.90824" lon="7.13364">
        <ele>939.8</ele>
        <time>2013-11-11T13:48:16Z</time>
      </trkpt>
      <trkpt lat="47.90822" lon="7.1336">
        <ele>940.6</ele>
        <time>2013-11-11T13:48:18Z</time>
      </trkpt>
      <trkpt lat="47.90821" lon="7.13356">
        <ele>941.3</ele>
        <time>2013-11-11T13:48:20Z</time>
      </trkpt>
      <trkpt lat="47.9082" lon="7.13352">
        <ele>941.9</ele>
        <time>2013-11-11T13:48:22Z</time>
      </trkpt>
      <trkpt lat="47.90821" lon="7.13347">
        <ele>942</ele>
        <time>2013-11-11T13:48:25Z</time>
      </trkpt>
      <trkpt lat="47.90822" lon="7.13341">
        <ele>942.2</ele>
        <time>2013-11-11T13:48:28Z</time>
      </trkpt>
      <trkpt lat="47.90822" lon="7.13337">
        <ele>942.3</ele>
        <time>2013-11-11T13:48:31Z</time>
      </trkpt>
      <trkpt lat="47.90824" lon="7.13332">
        <ele>942.2</ele>
        <time>2013-11-11T13:48:35Z</time>
      </trkpt>
      <trkpt lat="47.90824" lon="7.13326">
        <ele>942.7</ele>
        <time>2013-11-11T13:48:37Z</time>
      </trkpt>
      <trkpt lat="47.90823" lon="7.1332">
        <ele>943.3</ele>
        <time>2013-11-11T13:48:39Z</time>
      </trkpt>
      <trkpt lat="47.90821" lon="7.13315">
        <ele>944.3</ele>
        <time>2013-11-11T13:48:41Z</time>
      </trkpt>
      <trkpt lat="47.90822" lon="7.1331">
        <ele>944.5</ele>
        <time>2013-11-11T13:48:44Z</time>
      </trkpt>
      <trkpt lat="47.90822" lon="7.13305">
        <ele>944.9</ele>
        <time>2013-11-11T13:48:47Z</time>
      </trkpt>
      <trkpt lat="47.90823" lon="7.133">
        <ele>944.9</ele>
        <time>2013-11-11T13:48:50Z</time>
      </trkpt>
      <trkpt lat="47.90825" lon="7.13295">
        <ele>944.9</ele>
        <time>2013-11-11T13:48:52Z</time>
      </trkpt>
      <trkpt lat="47.90826" lon="7.1329">
        <ele>944.8</ele>
        <time>2013-11-11T13:48:54Z</time>
      </trkpt>
      <trkpt lat="47.90826" lon="7.13286">
        <ele>945.1</ele>
        <time>2013-11-11T13:48:56Z</time>
      </trkpt>
      <trkpt lat="47.90825" lon="7.1328">
        <ele>946</ele>
        <time>2013-11-11T13:48:59Z</time>
      </trkpt>
      <trkpt lat="47.90824" lon="7.13275">
        <ele>947</ele>
        <time>2013-11-11T13:49:02Z</time>
      </trkpt>
      <trkpt lat="47.90822" lon="7.13272">
        <ele>947.8</ele>
        <time>2013-11-11T13:49:05Z</time>
      </trkpt>
      <trkpt lat="47.90819" lon="7.13268">
        <ele>948.8</ele>
        <time>2013-11-11T13:49:08Z</time>
      </trkpt>
      <trkpt lat="47.90819" lon="7.13264">
        <ele>949.2</ele>
        <time>2013-11-11T13:49:10Z</time>
      </trkpt>
      <trkpt lat="47.90818" lon="7.13259">
        <ele>950</ele>
        <time>2013-11-11T13:49:13Z</time>
      </trkpt>
      <trkpt lat="47.90816" lon="7.13256">
        <ele>950.8</ele>
        <time>2013-11-11T13:49:15Z</time>
      </trkpt>
      <trkpt lat="47.90812" lon="7.13253">
        <ele>952</ele>
        <time>2013-11-11T13:49:17Z</time>
      </trkpt>
      <trkpt lat="47.90812" lon="7.13247">
        <ele>952.6</ele>
        <time>2013-11-11T13:49:19Z</time>
      </trkpt>
      <trkpt lat="47.90812" lon="7.13242">
        <ele>953</ele>
        <time>2013-11-11T13:49:21Z</time>
      </trkpt>
      <trkpt lat="47.90812" lon="7.13236">
        <ele>953.5</ele>
        <time>2013-11-11T13:49:23Z</time>
      </trkpt>
      <trkpt lat="47.90812" lon="7.13232">
        <ele>953.8</ele>
        <time>2013-11-11T13:49:25Z</time>
      </trkpt>
      <trkpt lat="47.90808" lon="7.13231">
        <ele>954.7</ele>
        <time>2013-11-11T13:49:28Z</time>
      </trkpt>
      <trkpt lat="47.90803" lon="7.1323">
        <ele>956</ele>
        <time>2013-11-11T13:49:31Z</time>
      </trkpt>
      <trkpt lat="47.908" lon="7.13228">
        <ele>956.8</ele>
        <time>2013-11-11T13:49:34Z</time>
      </trkpt>
      <trkpt lat="47.90797" lon="7.13229">
        <ele>957.4</ele>
        <time>2013-11-11T13:49:45Z</time>
      </trkpt>
      <trkpt lat="47.90793" lon="7.13231">
        <ele>958.4</ele>
        <time>2013-11-11T13:49:49Z</time>
      </trkpt>
      <trkpt lat="47.90794" lon="7.13225">
        <ele>958.5</ele>
        <time>2013-11-11T13:49:53Z</time>
      </trkpt>
      <trkpt lat="47.90793" lon="7.1322">
        <ele>959</ele>
        <time>2013-11-11T13:49:55Z</time>
      </trkpt>
      <trkpt lat="47.9079" lon="7.13216">
        <ele>959.7</ele>
        <time>2013-11-11T13:49:57Z</time>
      </trkpt>
      <trkpt lat="47.90788" lon="7.13212">
        <ele>960.1</ele>
        <time>2013-11-11T13:49:59Z</time>
      </trkpt>
      <trkpt lat="47.90787" lon="7.13207">
        <ele>960.4</ele>
        <time>2013-11-11T13:50:02Z</time>
      </trkpt>
      <trkpt lat="47.90788" lon="7.13203">
        <ele>960.5</ele>
        <time>2013-11-11T13:50:04Z</time>
      </trkpt>
      <trkpt lat="47.9079" lon="7.13199">
        <ele>960.6</ele>
        <time>2013-11-11T13:50:06Z</time>
      </trkpt>
      <trkpt lat="47.90792" lon="7.13195">
        <ele>960.6</ele>
        <time>2013-11-11T13:50:08Z</time>
      </trkpt>
      <trkpt lat="47.90794" lon="7.13191">
        <ele>960.4</ele>
        <time>2013-11-11T13:50:10Z</time>
      </trkpt>
      <trkpt lat="47.90794" lon="7.13187">
        <ele>960.5</ele>
        <time>2013-11-11T13:50:12Z</time>
      </trkpt>
      <trkpt lat="47.90795" lon="7.13182">
        <ele>960.6</ele>
        <time>2013-11-11T13:50:15Z</time>
      </trkpt>
      <trkpt lat="47.90796" lon="7.13178">
        <ele>960.5</ele>
        <time>2013-11-11T13:50:18Z</time>
      </trkpt>
      <trkpt lat="47.90798" lon="7.13174">
        <ele>960.4</ele>
        <time>2013-11-11T13:50:21Z</time>
      </trkpt>
      <trkpt lat="47.90799" lon="7.1317">
        <ele>960.6</ele>
        <time>2013-11-11T13:50:25Z</time>
      </trkpt>
      <trkpt lat="47.90797" lon="7.13166">
        <ele>961.1</ele>
        <time>2013-11-11T13:50:29Z</time>
      </trkpt>
      <trkpt lat="47.90794" lon="7.13163">
        <ele>961.7</ele>
        <time>2013-11-11T13:50:32Z</time>
      </trkpt>
      <trkpt lat="47.90794" lon="7.13159">
        <ele>962</ele>
        <time>2013-11-11T13:50:36Z</time>
      </trkpt>
      <trkpt lat="47.90795" lon="7.13154">
        <ele>962.1</ele>
        <time>2013-11-11T13:50:39Z</time>
      </trkpt>
      <trkpt lat="47.90794" lon="7.13149">
        <ele>962.4</ele>
        <time>2013-11-11T13:50:43Z</time>
      </trkpt>
      <trkpt lat="47.90797" lon="7.13147">
        <ele>962.1</ele>
        <time>2013-11-11T13:50:45Z</time>
      </trkpt>
      <trkpt lat="47.90795" lon="7.13142">
        <ele>962.6</ele>
        <time>2013-11-11T13:50:58Z</time>
      </trkpt>
      <trkpt lat="47.90792" lon="7.1314">
        <ele>963.2</ele>
        <time>2013-11-11T13:51:01Z</time>
      </trkpt>
      <trkpt lat="47.9079" lon="7.13137">
        <ele>963.4</ele>
        <time>2013-11-11T13:51:05Z</time>
      </trkpt>
      <trkpt lat="47.9079" lon="7.13133">
        <ele>963.6</ele>
        <time>2013-11-11T13:51:17Z</time>
      </trkpt>
      <trkpt lat="47.9079" lon="7.13127">
        <ele>963.8</ele>
        <time>2013-11-11T13:51:19Z</time>
      </trkpt>
      <trkpt lat="47.90787" lon="7.13122">
        <ele>963.9</ele>
        <time>2013-11-11T13:51:22Z</time>
      </trkpt>
      <trkpt lat="47.90785" lon="7.1312">
        <ele>964</ele>
        <time>2013-11-11T13:51:26Z</time>
      </trkpt>
      <trkpt lat="47.90786" lon="7.13115">
        <ele>964.2</ele>
        <time>2013-11-11T13:51:30Z</time>
      </trkpt>
      <trkpt lat="47.90786" lon="7.1311">
        <ele>964.5</ele>
        <time>2013-11-11T13:51:34Z</time>
      </trkpt>
      <trkpt lat="47.90784" lon="7.13106">
        <ele>964.6</ele>
        <time>2013-11-11T13:51:42Z</time>
      </trkpt>
      <trkpt lat="47.90781" lon="7.13103">
        <ele>964.5</ele>
        <time>2013-11-11T13:51:44Z</time>
      </trkpt>
      <trkpt lat="47.90781" lon="7.13097">
        <ele>964.7</ele>
        <time>2013-11-11T13:51:47Z</time>
      </trkpt>
      <trkpt lat="47.90782" lon="7.13093">
        <ele>965.1</ele>
        <time>2013-11-11T13:51:49Z</time>
      </trkpt>
      <trkpt lat="47.90784" lon="7.13089">
        <ele>965.4</ele>
        <time>2013-11-11T13:51:51Z</time>
      </trkpt>
      <trkpt lat="47.90784" lon="7.13084">
        <ele>965.7</ele>
        <time>2013-11-11T13:51:54Z</time>
      </trkpt>
      <trkpt lat="47.90782" lon="7.1308">
        <ele>965.7</ele>
        <time>2013-11-11T13:51:57Z</time>
      </trkpt>
      <trkpt lat="47.90782" lon="7.13076">
        <ele>965.9</ele>
        <time>2013-11-11T13:51:59Z</time>
      </trkpt>
      <trkpt lat="47.90784" lon="7.13071">
        <ele>966.3</ele>
        <time>2013-11-11T13:52:02Z</time>
      </trkpt>
      <trkpt lat="47.90786" lon="7.13068">
        <ele>966.8</ele>
        <time>2013-11-11T13:52:06Z</time>
      </trkpt>
      <trkpt lat="47.90787" lon="7.13064">
        <ele>967.1</ele>
        <time>2013-11-11T13:52:08Z</time>
      </trkpt>
      <trkpt lat="47.90789" lon="7.13059">
        <ele>967.6</ele>
        <time>2013-11-11T13:52:10Z</time>
      </trkpt>
      <trkpt lat="47.90789" lon="7.13052">
        <ele>968</ele>
        <time>2013-11-11T13:52:13Z</time>
      </trkpt>
      <trkpt lat="47.9079" lon="7.13047">
        <ele>968.4</ele>
        <time>2013-11-11T13:52:15Z</time>
      </trkpt>
      <trkpt lat="47.90791" lon="7.13042">
        <ele>968.9</ele>
        <time>2013-11-11T13:52:17Z</time>
      </trkpt>
      <trkpt lat="47.90792" lon="7.13037">
        <ele>968.7</ele>
        <time>2013-11-11T13:52:19Z</time>
      </trkpt>
      <trkpt lat="47.90793" lon="7.13033">
        <ele>968.5</ele>
        <time>2013-11-11T13:52:21Z</time>
      </trkpt>
      <trkpt lat="47.90795" lon="7.13028">
        <ele>968.2</ele>
        <time>2013-11-11T13:52:23Z</time>
      </trkpt>
      <trkpt lat="47.90796" lon="7.13023">
        <ele>967.9</ele>
        <time>2013-11-11T13:52:25Z</time>
      </trkpt>
      <trkpt lat="47.90797" lon="7.13017">
        <ele>967.7</ele>
        <time>2013-11-11T13:52:27Z</time>
      </trkpt>
      <trkpt lat="47.90799" lon="7.13012">
        <ele>967.4</ele>
        <time>2013-11-11T13:52:29Z</time>
      </trkpt>
      <trkpt lat="47.908" lon="7.13007">
        <ele>967.2</ele>
        <time>2013-11-11T13:52:31Z</time>
      </trkpt>
      <trkpt lat="47.90799" lon="7.13002">
        <ele>966.9</ele>
        <time>2013-11-11T13:52:33Z</time>
      </trkpt>
      <trkpt lat="47.90798" lon="7.12997">
        <ele>966.6</ele>
        <time>2013-11-11T13:52:35Z</time>
      </trkpt>
      <trkpt lat="47.90795" lon="7.12994">
        <ele>966.3</ele>
        <time>2013-11-11T13:52:38Z</time>
      </trkpt>
      <trkpt lat="47.90793" lon="7.1299">
        <ele>966</ele>
        <time>2013-11-11T13:52:44Z</time>
      </trkpt>
      <trkpt lat="47.9079" lon="7.12989">
        <ele>965.7</ele>
        <time>2013-11-11T13:52:47Z</time>
      </trkpt>
      <trkpt lat="47.9079" lon="7.12985">
        <ele>965.4</ele>
        <time>2013-11-11T13:52:50Z</time>
      </trkpt>
      <trkpt lat="47.90791" lon="7.12979">
        <ele>965.2</ele>
        <time>2013-11-11T13:52:52Z</time>
      </trkpt>
      <trkpt lat="47.90793" lon="7.12974">
        <ele>965</ele>
        <time>2013-11-11T13:52:54Z</time>
      </trkpt>
      <trkpt lat="47.90794" lon="7.12969">
        <ele>964.8</ele>
        <time>2013-11-11T13:52:56Z</time>
      </trkpt>
      <trkpt lat="47.90795" lon="7.12962">
        <ele>964.5</ele>
        <time>2013-11-11T13:52:59Z</time>
      </trkpt>
      <trkpt lat="47.90797" lon="7.12958">
        <ele>964.6</ele>
        <time>2013-11-11T13:53:00Z</time>
      </trkpt>
      <trkpt lat="47.908" lon="7.12954">
        <ele>964.9</ele>
        <time>2013-11-11T13:53:01Z</time>
      </trkpt>
      <trkpt lat="47.90802" lon="7.12951">
        <ele>965.3</ele>
        <time>2013-11-11T13:53:02Z</time>
      </trkpt>
      <trkpt lat="47.90806" lon="7.12945">
        <ele>965.9</ele>
        <time>2013-11-11T13:53:04Z</time>
      </trkpt>
      <trkpt lat="47.90809" lon="7.1294">
        <ele>966.5</ele>
        <time>2013-11-11T13:53:06Z</time>
      </trkpt>
      <trkpt lat="47.90812" lon="7.12935">
        <ele>967</ele>
        <time>2013-11-11T13:53:08Z</time>
      </trkpt>
      <trkpt lat="47.90813" lon="7.12928">
        <ele>967.4</ele>
        <time>2013-11-11T13:53:10Z</time>
      </trkpt>
      <trkpt lat="47.90813" lon="7.12924">
        <ele>967.6</ele>
        <time>2013-11-11T13:53:11Z</time>
      </trkpt>
      <trkpt lat="47.90813" lon="7.12919">
        <ele>967.8</ele>
        <time>2013-11-11T13:53:12Z</time>
      </trkpt>
      <trkpt lat="47.90812" lon="7.12914">
        <ele>968</ele>
        <time>2013-11-11T13:53:13Z</time>
      </trkpt>
      <trkpt lat="47.90812" lon="7.1291">
        <ele>968.1</ele>
        <time>2013-11-11T13:53:14Z</time>
      </trkpt>
      <trkpt lat="47.90812" lon="7.12905">
        <ele>968.3</ele>
        <time>2013-11-11T13:53:15Z</time>
      </trkpt>
      <trkpt lat="47.90811" lon="7.12899">
        <ele>968.5</ele>
        <time>2013-11-11T13:53:17Z</time>
      </trkpt>
      <trkpt lat="47.9081" lon="7.12892">
        <ele>968.7</ele>
        <time>2013-11-11T13:53:19Z</time>
      </trkpt>
      <trkpt lat="47.9081" lon="7.12886">
        <ele>968.9</ele>
        <time>2013-11-11T13:53:21Z</time>
      </trkpt>
      <trkpt lat="47.9081" lon="7.12878">
        <ele>969.4</ele>
        <time>2013-11-11T13:53:24Z</time>
      </trkpt>
      <trkpt lat="47.90812" lon="7.12874">
        <ele>970</ele>
        <time>2013-11-11T13:53:26Z</time>
      </trkpt>
      <trkpt lat="47.90816" lon="7.12868">
        <ele>971.6</ele>
        <time>2013-11-11T13:53:28Z</time>
      </trkpt>
      <trkpt lat="47.90818" lon="7.12865">
        <ele>972.5</ele>
        <time>2013-11-11T13:53:29Z</time>
      </trkpt>
      <trkpt lat="47.90821" lon="7.1286">
        <ele>973.7</ele>
        <time>2013-11-11T13:53:31Z</time>
      </trkpt>
      <trkpt lat="47.90824" lon="7.12862">
        <ele>973.7</ele>
        <time>2013-11-11T13:53:36Z</time>
      </trkpt>
      <trkpt lat="47.90821" lon="7.12868">
        <ele>972.2</ele>
        <time>2013-11-11T13:53:41Z</time>
      </trkpt>
      <trkpt lat="47.90818" lon="7.1287">
        <ele>971.5</ele>
        <time>2013-11-11T13:53:44Z</time>
      </trkpt>
      <trkpt lat="47.9082" lon="7.12866">
        <ele>972.6</ele>
        <time>2013-11-11T13:53:54Z</time>
      </trkpt>
      <trkpt lat="47.90821" lon="7.12862">
        <ele>973.5</ele>
        <time>2013-11-11T13:53:55Z</time>
      </trkpt>
      <trkpt lat="47.90824" lon="7.12856">
        <ele>975</ele>
        <time>2013-11-11T13:53:57Z</time>
      </trkpt>
      <trkpt lat="47.90827" lon="7.12853">
        <ele>976</ele>
        <time>2013-11-11T13:53:58Z</time>
      </trkpt>
      <trkpt lat="47.90831" lon="7.1285">
        <ele>977</ele>
        <time>2013-11-11T13:54:00Z</time>
      </trkpt>
      <trkpt lat="47.90882" lon="7.1277">
        <ele>1000</ele>
        <time>2013-11-11T13:56:36Z</time>
      </trkpt>
      <trkpt lat="47.90938" lon="7.1285">
        <ele>988.2</ele>
        <time>2013-11-11T13:57:28Z</time>
      </trkpt>
      <trkpt lat="47.90941" lon="7.12849">
        <ele>988.7</ele>
        <time>2013-11-11T13:57:31Z</time>
      </trkpt>
      <trkpt lat="47.90944" lon="7.12844">
        <ele>990.2</ele>
        <time>2013-11-11T13:57:32Z</time>
      </trkpt>
      <trkpt lat="47.90957" lon="7.12826">
        <ele>996.3</ele>
        <time>2013-11-11T13:57:40Z</time>
      </trkpt>
      <trkpt lat="47.90959" lon="7.12824">
        <ele>997.2</ele>
        <time>2013-11-11T13:57:41Z</time>
      </trkpt>
      <trkpt lat="47.90965" lon="7.12814">
        <ele>999.9</ele>
        <time>2013-11-11T13:57:44Z</time>
      </trkpt>
      <trkpt lat="47.90968" lon="7.12809">
        <ele>1001.3</ele>
        <time>2013-11-11T13:57:45Z</time>
      </trkpt>
      <trkpt lat="47.90973" lon="7.12801">
        <ele>1003.4</ele>
        <time>2013-11-11T13:57:47Z</time>
      </trkpt>
      <trkpt lat="47.90976" lon="7.12796">
        <ele>1004.8</ele>
        <time>2013-11-11T13:57:48Z</time>
      </trkpt>
      <trkpt lat="47.90979" lon="7.12792">
        <ele>1005.9</ele>
        <time>2013-11-11T13:57:49Z</time>
      </trkpt>
      <trkpt lat="47.90982" lon="7.12787">
        <ele>1007.2</ele>
        <time>2013-11-11T13:57:51Z</time>
      </trkpt>
      <trkpt lat="47.90986" lon="7.12778">
        <ele>1009.5</ele>
        <time>2013-11-11T13:57:52Z</time>
      </trkpt>
      <trkpt lat="47.90988" lon="7.12775">
        <ele>1010.4</ele>
        <time>2013-11-11T13:57:53Z</time>
      </trkpt>
      <trkpt lat="47.90989" lon="7.12771">
        <ele>1011.4</ele>
        <time>2013-11-11T13:57:55Z</time>
      </trkpt>
      <trkpt lat="47.90991" lon="7.12766">
        <ele>1012.7</ele>
        <time>2013-11-11T13:57:56Z</time>
      </trkpt>
      <trkpt lat="47.90995" lon="7.12763">
        <ele>1013.7</ele>
        <time>2013-11-11T13:58:00Z</time>
      </trkpt>
      <trkpt lat="47.91" lon="7.12762">
        <ele>1014.1</ele>
        <time>2013-11-11T13:58:04Z</time>
      </trkpt>
      <trkpt lat="47.91003" lon="7.1276">
        <ele>1014.5</ele>
        <time>2013-11-11T13:58:07Z</time>
      </trkpt>
      <trkpt lat="47.91006" lon="7.12762">
        <ele>1014.1</ele>
        <time>2013-11-11T13:58:09Z</time>
      </trkpt>
      <trkpt lat="47.91009" lon="7.12766">
        <ele>1013.2</ele>
        <time>2013-11-11T13:58:13Z</time>
      </trkpt>
      <trkpt lat="47.91013" lon="7.12766">
        <ele>1013.2</ele>
        <time>2013-11-11T13:58:16Z</time>
      </trkpt>
      <trkpt lat="47.91015" lon="7.12759">
        <ele>1015.2</ele>
        <time>2013-11-11T13:58:20Z</time>
      </trkpt>
      <trkpt lat="47.91021" lon="7.12756">
        <ele>1016.2</ele>
        <time>2013-11-11T13:58:24Z</time>
      </trkpt>
      <trkpt lat="47.91025" lon="7.12757">
        <ele>1016.1</ele>
        <time>2013-11-11T13:58:27Z</time>
      </trkpt>
      <trkpt lat="47.91029" lon="7.12757">
        <ele>1016.1</ele>
        <time>2013-11-11T13:58:28Z</time>
      </trkpt>
      <trkpt lat="47.91033" lon="7.12756">
        <ele>1016.4</ele>
        <time>2013-11-11T13:58:31Z</time>
      </trkpt>
      <trkpt lat="47.91036" lon="7.12756">
        <ele>1016.5</ele>
        <time>2013-11-11T13:58:33Z</time>
      </trkpt>
      <trkpt lat="47.91039" lon="7.12754">
        <ele>1017.3</ele>
        <time>2013-11-11T13:58:35Z</time>
      </trkpt>
      <trkpt lat="47.91044" lon="7.12749">
        <ele>1018.8</ele>
        <time>2013-11-11T13:58:37Z</time>
      </trkpt>
      <trkpt lat="47.91048" lon="7.12744">
        <ele>1020.6</ele>
        <time>2013-11-11T13:58:39Z</time>
      </trkpt>
      <trkpt lat="47.91051" lon="7.12738">
        <ele>1022.6</ele>
        <time>2013-11-11T13:58:40Z</time>
      </trkpt>
      <trkpt lat="47.91052" lon="7.12733">
        <ele>1024.1</ele>
        <time>2013-11-11T13:58:43Z</time>
      </trkpt>
      <trkpt lat="47.91055" lon="7.12731">
        <ele>1024.9</ele>
        <time>2013-11-11T13:58:45Z</time>
      </trkpt>
      <trkpt lat="47.9106" lon="7.12732">
        <ele>1024.9</ele>
        <time>2013-11-11T13:58:49Z</time>
      </trkpt>
      <trkpt lat="47.91063" lon="7.12734">
        <ele>1024.2</ele>
        <time>2013-11-11T13:58:52Z</time>
      </trkpt>
      <trkpt lat="47.91067" lon="7.12739">
        <ele>1022.8</ele>
        <time>2013-11-11T13:58:56Z</time>
      </trkpt>
      <trkpt lat="47.9107" lon="7.1274">
        <ele>1022.8</ele>
        <time>2013-11-11T13:58:59Z</time>
      </trkpt>
      <trkpt lat="47.91072" lon="7.12737">
        <ele>1023.8</ele>
        <time>2013-11-11T13:59:02Z</time>
      </trkpt>
      <trkpt lat="47.91075" lon="7.12736">
        <ele>1024.3</ele>
        <time>2013-11-11T13:59:05Z</time>
      </trkpt>
      <trkpt lat="47.91079" lon="7.12731">
        <ele>1026.1</ele>
        <time>2013-11-11T13:59:08Z</time>
      </trkpt>
      <trkpt lat="47.91081" lon="7.12725">
        <ele>1027.8</ele>
        <time>2013-11-11T13:59:11Z</time>
      </trkpt>
      <trkpt lat="47.91083" lon="7.12723">
        <ele>1028.8</ele>
        <time>2013-11-11T13:59:13Z</time>
      </trkpt>
      <trkpt lat="47.91086" lon="7.12718">
        <ele>1030.5</ele>
        <time>2013-11-11T13:59:16Z</time>
      </trkpt>
      <trkpt lat="47.91088" lon="7.12715">
        <ele>1031.6</ele>
        <time>2013-11-11T13:59:17Z</time>
      </trkpt>
      <trkpt lat="47.9109" lon="7.12709">
        <ele>1033.7</ele>
        <time>2013-11-11T13:59:19Z</time>
      </trkpt>
      <trkpt lat="47.91093" lon="7.12704">
        <ele>1035.2</ele>
        <time>2013-11-11T13:59:20Z</time>
      </trkpt>
      <trkpt lat="47.91095" lon="7.12699">
        <ele>1036.5</ele>
        <time>2013-11-11T13:59:23Z</time>
      </trkpt>
      <trkpt lat="47.91094" lon="7.12694">
        <ele>1037.6</ele>
        <time>2013-11-11T13:59:24Z</time>
      </trkpt>
      <trkpt lat="47.91098" lon="7.12687">
        <ele>1039.6</ele>
        <time>2013-11-11T13:59:28Z</time>
      </trkpt>
      <trkpt lat="47.911" lon="7.12686">
        <ele>1040.1</ele>
        <time>2013-11-11T13:59:36Z</time>
      </trkpt>
      <trkpt lat="47.91103" lon="7.12685">
        <ele>1040.6</ele>
        <time>2013-11-11T13:59:43Z</time>
      </trkpt>
      <trkpt lat="47.91106" lon="7.12684">
        <ele>1041.1</ele>
        <time>2013-11-11T13:59:47Z</time>
      </trkpt>
      <trkpt lat="47.91109" lon="7.12682">
        <ele>1041.7</ele>
        <time>2013-11-11T13:59:48Z</time>
      </trkpt>
      <trkpt lat="47.91113" lon="7.1268">
        <ele>1042.4</ele>
        <time>2013-11-11T13:59:49Z</time>
      </trkpt>
      <trkpt lat="47.91116" lon="7.12679">
        <ele>1042.9</ele>
        <time>2013-11-11T13:59:51Z</time>
      </trkpt>
      <trkpt lat="47.91119" lon="7.12679">
        <ele>1043.3</ele>
        <time>2013-11-11T13:59:52Z</time>
      </trkpt>
      <trkpt lat="47.91124" lon="7.12678">
        <ele>1043.8</ele>
        <time>2013-11-11T13:59:53Z</time>
      </trkpt>
      <trkpt lat="47.91127" lon="7.12678">
        <ele>1044.1</ele>
        <time>2013-11-11T13:59:55Z</time>
      </trkpt>
      <trkpt lat="47.91131" lon="7.12678">
        <ele>1044.4</ele>
        <time>2013-11-11T13:59:56Z</time>
      </trkpt>
      <trkpt lat="47.91135" lon="7.12679">
        <ele>1044.6</ele>
        <time>2013-11-11T13:59:59Z</time>
      </trkpt>
      <trkpt lat="47.91138" lon="7.12677">
        <ele>1045.1</ele>
        <time>2013-11-11T14:00:00Z</time>
      </trkpt>
      <trkpt lat="47.91142" lon="7.12674">
        <ele>1046.3</ele>
        <time>2013-11-11T14:00:03Z</time>
      </trkpt>
      <trkpt lat="47.91147" lon="7.1267">
        <ele>1047.6</ele>
        <time>2013-11-11T14:00:04Z</time>
      </trkpt>
      <trkpt lat="47.91153" lon="7.12666">
        <ele>1049.1</ele>
        <time>2013-11-11T14:00:07Z</time>
      </trkpt>
      <trkpt lat="47.91156" lon="7.12666">
        <ele>1049.5</ele>
        <time>2013-11-11T14:00:08Z</time>
      </trkpt>
      <trkpt lat="47.9116" lon="7.12663">
        <ele>1050.5</ele>
        <time>2013-11-11T14:00:10Z</time>
      </trkpt>
      <trkpt lat="47.91163" lon="7.12664">
        <ele>1050.5</ele>
        <time>2013-11-11T14:00:12Z</time>
      </trkpt>
      <trkpt lat="47.91164" lon="7.12667">
        <ele>1049.7</ele>
        <time>2013-11-11T14:00:13Z</time>
      </trkpt>
      <trkpt lat="47.9117" lon="7.12669">
        <ele>1049.7</ele>
        <time>2013-11-11T14:00:17Z</time>
      </trkpt>
      <trkpt lat="47.91173" lon="7.12666">
        <ele>1050.7</ele>
        <time>2013-11-11T14:00:21Z</time>
      </trkpt>
      <trkpt lat="47.91176" lon="7.12663">
        <ele>1051.6</ele>
        <time>2013-11-11T14:00:24Z</time>
      </trkpt>
      <trkpt lat="47.91179" lon="7.12661">
        <ele>1052.6</ele>
        <time>2013-11-11T14:00:27Z</time>
      </trkpt>
      <trkpt lat="47.91182" lon="7.12658">
        <ele>1053.6</ele>
        <time>2013-11-11T14:00:29Z</time>
      </trkpt>
      <trkpt lat="47.91185" lon="7.12655">
        <ele>1054.6</ele>
        <time>2013-11-11T14:00:32Z</time>
      </trkpt>
      <trkpt lat="47.91188" lon="7.12652">
        <ele>1055.6</ele>
        <time>2013-11-11T14:00:36Z</time>
      </trkpt>
      <trkpt lat="47.91191" lon="7.1265">
        <ele>1056.5</ele>
        <time>2013-11-11T14:00:39Z</time>
      </trkpt>
      <trkpt lat="47.91195" lon="7.12646">
        <ele>1057.9</ele>
        <time>2013-11-11T14:00:40Z</time>
      </trkpt>
      <trkpt lat="47.91197" lon="7.12643">
        <ele>1059</ele>
        <time>2013-11-11T14:00:41Z</time>
      </trkpt>
      <trkpt lat="47.91201" lon="7.12639">
        <ele>1060.5</ele>
        <time>2013-11-11T14:00:43Z</time>
      </trkpt>
      <trkpt lat="47.91204" lon="7.12634">
        <ele>1061.9</ele>
        <time>2013-11-11T14:00:45Z</time>
      </trkpt>
      <trkpt lat="47.91207" lon="7.12629">
        <ele>1063.7</ele>
        <time>2013-11-11T14:00:48Z</time>
      </trkpt>
      <trkpt lat="47.91209" lon="7.12626">
        <ele>1064.6</ele>
        <time>2013-11-11T14:00:51Z</time>
      </trkpt>
      <trkpt lat="47.91212" lon="7.12623">
        <ele>1065.1</ele>
        <time>2013-11-11T14:00:52Z</time>
      </trkpt>
      <trkpt lat="47.91215" lon="7.12621">
        <ele>1065.3</ele>
        <time>2013-11-11T14:00:55Z</time>
      </trkpt>
      <trkpt lat="47.91218" lon="7.1262">
        <ele>1065.4</ele>
        <time>2013-11-11T14:00:56Z</time>
      </trkpt>
      <trkpt lat="47.91221" lon="7.12618">
        <ele>1065.4</ele>
        <time>2013-11-11T14:00:59Z</time>
      </trkpt>
      <trkpt lat="47.91225" lon="7.12615">
        <ele>1065.8</ele>
        <time>2013-11-11T14:01:01Z</time>
      </trkpt>
      <trkpt lat="47.91227" lon="7.12612">
        <ele>1066.3</ele>
        <time>2013-11-11T14:01:04Z</time>
      </trkpt>
      <trkpt lat="47.91228" lon="7.12606">
        <ele>1067.5</ele>
        <time>2013-11-11T14:01:08Z</time>
      </trkpt>
      <trkpt lat="47.91232" lon="7.126">
        <ele>1068.6</ele>
        <time>2013-11-11T14:01:12Z</time>
      </trkpt>
      <trkpt lat="47.91236" lon="7.12597">
        <ele>1069.1</ele>
        <time>2013-11-11T14:01:15Z</time>
      </trkpt>
      <trkpt lat="47.91239" lon="7.12593">
        <ele>1069.5</ele>
        <time>2013-11-11T14:01:16Z</time>
      </trkpt>
      <trkpt lat="47.91242" lon="7.12589">
        <ele>1070.2</ele>
        <time>2013-11-11T14:01:19Z</time>
      </trkpt>
      <trkpt lat="47.91244" lon="7.12586">
        <ele>1070.9</ele>
        <time>2013-11-11T14:01:20Z</time>
      </trkpt>
      <trkpt lat="47.91247" lon="7.12582">
        <ele>1071.5</ele>
        <time>2013-11-11T14:01:23Z</time>
      </trkpt>
      <trkpt lat="47.91249" lon="7.12579">
        <ele>1072</ele>
        <time>2013-11-11T14:01:24Z</time>
      </trkpt>
      <trkpt lat="47.91252" lon="7.12576">
        <ele>1072.5</ele>
        <time>2013-11-11T14:01:27Z</time>
      </trkpt>
      <trkpt lat="47.91255" lon="7.12573">
        <ele>1072.9</ele>
        <time>2013-11-11T14:01:28Z</time>
      </trkpt>
      <trkpt lat="47.9126" lon="7.1257">
        <ele>1073.4</ele>
        <time>2013-11-11T14:01:32Z</time>
      </trkpt>
      <trkpt lat="47.91262" lon="7.12565">
        <ele>1074.3</ele>
        <time>2013-11-11T14:01:36Z</time>
      </trkpt>
      <trkpt lat="47.91263" lon="7.1256">
        <ele>1075.5</ele>
        <time>2013-11-11T14:01:43Z</time>
      </trkpt>
      <trkpt lat="47.91266" lon="7.12554">
        <ele>1076.7</ele>
        <time>2013-11-11T14:01:47Z</time>
      </trkpt>
      <trkpt lat="47.91268" lon="7.1255">
        <ele>1077.5</ele>
        <time>2013-11-11T14:01:48Z</time>
      </trkpt>
      <trkpt lat="47.9127" lon="7.12543">
        <ele>1078.9</ele>
        <time>2013-11-11T14:01:51Z</time>
      </trkpt>
      <trkpt lat="47.91272" lon="7.12537">
        <ele>1080.3</ele>
        <time>2013-11-11T14:01:53Z</time>
      </trkpt>
      <trkpt lat="47.91274" lon="7.12531">
        <ele>1081.8</ele>
        <time>2013-11-11T14:01:55Z</time>
      </trkpt>
      <trkpt lat="47.91277" lon="7.12525">
        <ele>1083</ele>
        <time>2013-11-11T14:01:56Z</time>
      </trkpt>
      <trkpt lat="47.91279" lon="7.1252">
        <ele>1084.2</ele>
        <time>2013-11-11T14:01:58Z</time>
      </trkpt>
      <trkpt lat="47.9128" lon="7.12514">
        <ele>1085.6</ele>
        <time>2013-11-11T14:02:00Z</time>
      </trkpt>
      <trkpt lat="47.91281" lon="7.12508">
        <ele>1087</ele>
        <time>2013-11-11T14:02:02Z</time>
      </trkpt>
      <trkpt lat="47.91285" lon="7.12504">
        <ele>1087.8</ele>
        <time>2013-11-11T14:02:06Z</time>
      </trkpt>
      <trkpt lat="47.91291" lon="7.12498">
        <ele>1089</ele>
        <time>2013-11-11T14:02:09Z</time>
      </trkpt>
      <trkpt lat="47.91294" lon="7.12496">
        <ele>1088.9</ele>
        <time>2013-11-11T14:02:12Z</time>
      </trkpt>
      <trkpt lat="47.91298" lon="7.12493">
        <ele>1088.9</ele>
        <time>2013-11-11T14:02:14Z</time>
      </trkpt>
      <trkpt lat="47.91301" lon="7.12492">
        <ele>1088.5</ele>
        <time>2013-11-11T14:02:17Z</time>
      </trkpt>
      <trkpt lat="47.91303" lon="7.12488">
        <ele>1088.8</ele>
        <time>2013-11-11T14:02:19Z</time>
      </trkpt>
      <trkpt lat="47.91307" lon="7.12484">
        <ele>1088.8</ele>
        <time>2013-11-11T14:02:21Z</time>
      </trkpt>
      <trkpt lat="47.91311" lon="7.12479">
        <ele>1089.4</ele>
        <time>2013-11-11T14:02:24Z</time>
      </trkpt>
      <trkpt lat="47.91313" lon="7.12475">
        <ele>1090.2</ele>
        <time>2013-11-11T14:02:27Z</time>
      </trkpt>
      <trkpt lat="47.91315" lon="7.12468">
        <ele>1091.5</ele>
        <time>2013-11-11T14:02:28Z</time>
      </trkpt>
      <trkpt lat="47.91316" lon="7.12463">
        <ele>1092.7</ele>
        <time>2013-11-11T14:02:31Z</time>
      </trkpt>
      <trkpt lat="47.91316" lon="7.12458">
        <ele>1093.8</ele>
        <time>2013-11-11T14:02:33Z</time>
      </trkpt>
      <trkpt lat="47.91317" lon="7.12454">
        <ele>1094.2</ele>
        <time>2013-11-11T14:02:40Z</time>
      </trkpt>
      <trkpt lat="47.9132" lon="7.12452">
        <ele>1093.9</ele>
        <time>2013-11-11T14:02:43Z</time>
      </trkpt>
      <trkpt lat="47.91323" lon="7.12449">
        <ele>1093.9</ele>
        <time>2013-11-11T14:02:45Z</time>
      </trkpt>
      <trkpt lat="47.91324" lon="7.12445">
        <ele>1094.2</ele>
        <time>2013-11-11T14:02:48Z</time>
      </trkpt>
      <trkpt lat="47.91322" lon="7.12442">
        <ele>1095.2</ele>
        <time>2013-11-11T14:02:51Z</time>
      </trkpt>
      <trkpt lat="47.91319" lon="7.12442">
        <ele>1096</ele>
        <time>2013-11-11T14:02:52Z</time>
      </trkpt>
      <trkpt lat="47.91321" lon="7.12438">
        <ele>1096.2</ele>
        <time>2013-11-11T14:02:56Z</time>
      </trkpt>
      <trkpt lat="47.91324" lon="7.12436">
        <ele>1095.7</ele>
        <time>2013-11-11T14:02:59Z</time>
      </trkpt>
      <trkpt lat="47.91327" lon="7.12434">
        <ele>1095.5</ele>
        <time>2013-11-11T14:03:00Z</time>
      </trkpt>
      <trkpt lat="47.91332" lon="7.12428">
        <ele>1095.7</ele>
        <time>2013-11-11T14:03:03Z</time>
      </trkpt>
      <trkpt lat="47.91334" lon="7.12425">
        <ele>1095.8</ele>
        <time>2013-11-11T14:03:04Z</time>
      </trkpt>
      <trkpt lat="47.91337" lon="7.12421">
        <ele>1096.1</ele>
        <time>2013-11-11T14:03:07Z</time>
      </trkpt>
      <trkpt lat="47.9134" lon="7.12416">
        <ele>1096.5</ele>
        <time>2013-11-11T14:03:08Z</time>
      </trkpt>
      <trkpt lat="47.91342" lon="7.1241">
        <ele>1097.2</ele>
        <time>2013-11-11T14:03:11Z</time>
      </trkpt>
      <trkpt lat="47.91344" lon="7.12407">
        <ele>1097.5</ele>
        <time>2013-11-11T14:03:12Z</time>
      </trkpt>
      <trkpt lat="47.91343" lon="7.124">
        <ele>1099</ele>
        <time>2013-11-11T14:03:14Z</time>
      </trkpt>
      <trkpt lat="47.91342" lon="7.12397">
        <ele>1099.6</ele>
        <time>2013-11-11T14:03:17Z</time>
      </trkpt>
      <trkpt lat="47.91342" lon="7.12394">
        <ele>1100.2</ele>
        <time>2013-11-11T14:03:28Z</time>
      </trkpt>
      <trkpt lat="47.91342" lon="7.12391">
        <ele>1100.8</ele>
        <time>2013-11-11T14:03:33Z</time>
      </trkpt>
      <trkpt lat="47.91341" lon="7.12389">
        <ele>1101.3</ele>
        <time>2013-11-11T14:03:35Z</time>
      </trkpt>
      <trkpt lat="47.9134" lon="7.12383">
        <ele>1102.6</ele>
        <time>2013-11-11T14:03:36Z</time>
      </trkpt>
      <trkpt lat="47.91342" lon="7.12379">
        <ele>1103.1</ele>
        <time>2013-11-11T14:03:37Z</time>
      </trkpt>
      <trkpt lat="47.91344" lon="7.12371">
        <ele>1104</ele>
        <time>2013-11-11T14:03:39Z</time>
      </trkpt>
      <trkpt lat="47.91345" lon="7.12367">
        <ele>1104.5</ele>
        <time>2013-11-11T14:03:40Z</time>
      </trkpt>
      <trkpt lat="47.91348" lon="7.12359">
        <ele>1105.2</ele>
        <time>2013-11-11T14:03:43Z</time>
      </trkpt>
      <trkpt lat="47.91352" lon="7.12352">
        <ele>1105.7</ele>
        <time>2013-11-11T14:03:44Z</time>
      </trkpt>
      <trkpt lat="47.91356" lon="7.12348">
        <ele>1105.8</ele>
        <time>2013-11-11T14:03:47Z</time>
      </trkpt>
      <trkpt lat="47.91359" lon="7.12344">
        <ele>1105.9</ele>
        <time>2013-11-11T14:03:48Z</time>
      </trkpt>
      <trkpt lat="47.91362" lon="7.12342">
        <ele>1105.9</ele>
        <time>2013-11-11T14:03:51Z</time>
      </trkpt>
      <trkpt lat="47.91364" lon="7.12338">
        <ele>1106.1</ele>
        <time>2013-11-11T14:03:55Z</time>
      </trkpt>
      <trkpt lat="47.91366" lon="7.12334">
        <ele>1106.6</ele>
        <time>2013-11-11T14:03:56Z</time>
      </trkpt>
      <trkpt lat="47.91367" lon="7.1233">
        <ele>1107</ele>
        <time>2013-11-11T14:03:59Z</time>
      </trkpt>
      <trkpt lat="47.9137" lon="7.12326">
        <ele>1107.3</ele>
        <time>2013-11-11T14:04:00Z</time>
      </trkpt>
      <trkpt lat="47.91372" lon="7.12322">
        <ele>1107.7</ele>
        <time>2013-11-11T14:04:03Z</time>
      </trkpt>
      <trkpt lat="47.91374" lon="7.12317">
        <ele>1108.1</ele>
        <time>2013-11-11T14:04:04Z</time>
      </trkpt>
      <trkpt lat="47.91376" lon="7.12314">
        <ele>1108.4</ele>
        <time>2013-11-11T14:04:05Z</time>
      </trkpt>
      <trkpt lat="47.91379" lon="7.12306">
        <ele>1108.9</ele>
        <time>2013-11-11T14:04:08Z</time>
      </trkpt>
      <trkpt lat="47.91383" lon="7.12301">
        <ele>1109</ele>
        <time>2013-11-11T14:04:11Z</time>
      </trkpt>
      <trkpt lat="47.91385" lon="7.12298">
        <ele>1108.9</ele>
        <time>2013-11-11T14:04:13Z</time>
      </trkpt>
      <trkpt lat="47.91388" lon="7.12295">
        <ele>1108.9</ele>
        <time>2013-11-11T14:04:17Z</time>
      </trkpt>
      <trkpt lat="47.91391" lon="7.12292">
        <ele>1108.8</ele>
        <time>2013-11-11T14:04:20Z</time>
      </trkpt>
      <trkpt lat="47.91393" lon="7.12289">
        <ele>1108.8</ele>
        <time>2013-11-11T14:04:21Z</time>
      </trkpt>
      <trkpt lat="47.91399" lon="7.12283">
        <ele>1108.9</ele>
        <time>2013-11-11T14:04:24Z</time>
      </trkpt>
      <trkpt lat="47.91402" lon="7.1228">
        <ele>1109.2</ele>
        <time>2013-11-11T14:04:25Z</time>
      </trkpt>
      <trkpt lat="47.91406" lon="7.12274">
        <ele>1109.7</ele>
        <time>2013-11-11T14:04:27Z</time>
      </trkpt>
      <trkpt lat="47.91408" lon="7.1227">
        <ele>1110.1</ele>
        <time>2013-11-11T14:04:28Z</time>
      </trkpt>
      <trkpt lat="47.9141" lon="7.12265">
        <ele>1110.7</ele>
        <time>2013-11-11T14:04:31Z</time>
      </trkpt>
      <trkpt lat="47.91412" lon="7.12261">
        <ele>1111.2</ele>
        <time>2013-11-11T14:04:37Z</time>
      </trkpt>
      <trkpt lat="47.91414" lon="7.12259">
        <ele>1111.3</ele>
        <time>2013-11-11T14:04:40Z</time>
      </trkpt>
      <trkpt lat="47.91418" lon="7.12257">
        <ele>1110.9</ele>
        <time>2013-11-11T14:04:44Z</time>
      </trkpt>
      <trkpt lat="47.9142" lon="7.12251">
        <ele>1111.8</ele>
        <time>2013-11-11T14:04:49Z</time>
      </trkpt>
      <trkpt lat="47.91422" lon="7.12246">
        <ele>1112.8</ele>
        <time>2013-11-11T14:04:52Z</time>
      </trkpt>
      <trkpt lat="47.91424" lon="7.12242">
        <ele>1113.1</ele>
        <time>2013-11-11T14:04:55Z</time>
      </trkpt>
      <trkpt lat="47.91427" lon="7.1224">
        <ele>1113.3</ele>
        <time>2013-11-11T14:04:57Z</time>
      </trkpt>
      <trkpt lat="47.91427" lon="7.12235">
        <ele>1114.3</ele>
        <time>2013-11-11T14:05:05Z</time>
      </trkpt>
      <trkpt lat="47.91428" lon="7.12231">
        <ele>1114.9</ele>
        <time>2013-11-11T14:05:09Z</time>
      </trkpt>
      <trkpt lat="47.91427" lon="7.12226">
        <ele>1116.2</ele>
        <time>2013-11-11T14:05:11Z</time>
      </trkpt>
      <trkpt lat="47.91427" lon="7.1222">
        <ele>1117.5</ele>
        <time>2013-11-11T14:05:14Z</time>
      </trkpt>
      <trkpt lat="47.91428" lon="7.12212">
        <ele>1119.3</ele>
        <time>2013-11-11T14:05:16Z</time>
      </trkpt>
      <trkpt lat="47.91429" lon="7.12204">
        <ele>1120.8</ele>
        <time>2013-11-11T14:05:18Z</time>
      </trkpt>
      <trkpt lat="47.91429" lon="7.122">
        <ele>1121.5</ele>
        <time>2013-11-11T14:05:19Z</time>
      </trkpt>
      <trkpt lat="47.9143" lon="7.12195">
        <ele>1122.3</ele>
        <time>2013-11-11T14:05:20Z</time>
      </trkpt>
      <trkpt lat="47.91432" lon="7.12188">
        <ele>1123.2</ele>
        <time>2013-11-11T14:05:22Z</time>
      </trkpt>
      <trkpt lat="47.91434" lon="7.12183">
        <ele>1123.9</ele>
        <time>2013-11-11T14:05:24Z</time>
      </trkpt>
      <trkpt lat="47.91436" lon="7.12178">
        <ele>1124.6</ele>
        <time>2013-11-11T14:05:27Z</time>
      </trkpt>
      <trkpt lat="47.91438" lon="7.12173">
        <ele>1125.2</ele>
        <time>2013-11-11T14:05:28Z</time>
      </trkpt>
      <trkpt lat="47.9144" lon="7.1217">
        <ele>1125.4</ele>
        <time>2013-11-11T14:05:31Z</time>
      </trkpt>
      <trkpt lat="47.91442" lon="7.12167">
        <ele>1125.3</ele>
        <time>2013-11-11T14:05:33Z</time>
      </trkpt>
      <trkpt lat="47.91448" lon="7.12164">
        <ele>1125</ele>
        <time>2013-11-11T14:05:36Z</time>
      </trkpt>
      <trkpt lat="47.91452" lon="7.12163">
        <ele>1124.5</ele>
        <time>2013-11-11T14:05:39Z</time>
      </trkpt>
      <trkpt lat="47.91455" lon="7.1216">
        <ele>1124.3</ele>
        <time>2013-11-11T14:05:43Z</time>
      </trkpt>
      <trkpt lat="47.91457" lon="7.12158">
        <ele>1124.3</ele>
        <time>2013-11-11T14:05:47Z</time>
      </trkpt>
      <trkpt lat="47.91459" lon="7.12154">
        <ele>1124.7</ele>
        <time>2013-11-11T14:05:48Z</time>
      </trkpt>
      <trkpt lat="47.91462" lon="7.12147">
        <ele>1125.1</ele>
        <time>2013-11-11T14:05:52Z</time>
      </trkpt>
      <trkpt lat="47.91464" lon="7.12143">
        <ele>1125.4</ele>
        <time>2013-11-11T14:05:55Z</time>
      </trkpt>
      <trkpt lat="47.91467" lon="7.12141">
        <ele>1125.1</ele>
        <time>2013-11-11T14:06:00Z</time>
      </trkpt>
      <trkpt lat="47.91471" lon="7.12138">
        <ele>1124.4</ele>
        <time>2013-11-11T14:06:03Z</time>
      </trkpt>
      <trkpt lat="47.91474" lon="7.12134">
        <ele>1124.5</ele>
        <time>2013-11-11T14:06:07Z</time>
      </trkpt>
      <trkpt lat="47.91475" lon="7.12129">
        <ele>1125.1</ele>
        <time>2013-11-11T14:06:09Z</time>
      </trkpt>
      <trkpt lat="47.91475" lon="7.12123">
        <ele>1126</ele>
        <time>2013-11-11T14:06:14Z</time>
      </trkpt>
      <trkpt lat="47.91476" lon="7.12116">
        <ele>1126.9</ele>
        <time>2013-11-11T14:06:16Z</time>
      </trkpt>
      <trkpt lat="47.91476" lon="7.12109">
        <ele>1127.7</ele>
        <time>2013-11-11T14:06:20Z</time>
      </trkpt>
      <trkpt lat="47.91478" lon="7.12106">
        <ele>1127.7</ele>
        <time>2013-11-11T14:06:23Z</time>
      </trkpt>
      <trkpt lat="47.91475" lon="7.12102">
        <ele>1128.9</ele>
        <time>2013-11-11T14:06:27Z</time>
      </trkpt>
      <trkpt lat="47.91477" lon="7.12099">
        <ele>1128.8</ele>
        <time>2013-11-11T14:06:34Z</time>
      </trkpt>
      <trkpt lat="47.91478" lon="7.12092">
        <ele>1129.4</ele>
        <time>2013-11-11T14:06:36Z</time>
      </trkpt>
      <trkpt lat="47.9148" lon="7.12083">
        <ele>1130.1</ele>
        <time>2013-11-11T14:06:39Z</time>
      </trkpt>
      <trkpt lat="47.91481" lon="7.12078">
        <ele>1130.3</ele>
        <time>2013-11-11T14:06:40Z</time>
      </trkpt>
      <trkpt lat="47.91484" lon="7.12073">
        <ele>1130.4</ele>
        <time>2013-11-11T14:06:43Z</time>
      </trkpt>
      <trkpt lat="47.91487" lon="7.12064">
        <ele>1130.7</ele>
        <time>2013-11-11T14:06:45Z</time>
      </trkpt>
      <trkpt lat="47.91491" lon="7.12054">
        <ele>1130.6</ele>
        <time>2013-11-11T14:06:47Z</time>
      </trkpt>
      <trkpt lat="47.91494" lon="7.12046">
        <ele>1130.7</ele>
        <time>2013-11-11T14:06:48Z</time>
      </trkpt>
      <trkpt lat="47.91495" lon="7.12036">
        <ele>1130.9</ele>
        <time>2013-11-11T14:06:51Z</time>
      </trkpt>
      <trkpt lat="47.91496" lon="7.12032">
        <ele>1130.8</ele>
        <time>2013-11-11T14:06:53Z</time>
      </trkpt>
      <trkpt lat="47.91495" lon="7.12025">
        <ele>1130.9</ele>
        <time>2013-11-11T14:06:56Z</time>
      </trkpt>
      <trkpt lat="47.91494" lon="7.1202">
        <ele>1131.4</ele>
        <time>2013-11-11T14:07:00Z</time>
      </trkpt>
      <trkpt lat="47.91493" lon="7.12014">
        <ele>1131.5</ele>
        <time>2013-11-11T14:07:10Z</time>
      </trkpt>
      <trkpt lat="47.91492" lon="7.12008">
        <ele>1131.9</ele>
        <time>2013-11-11T14:07:12Z</time>
      </trkpt>
      <trkpt lat="47.91491" lon="7.12002">
        <ele>1132.3</ele>
        <time>2013-11-11T14:07:15Z</time>
      </trkpt>
      <trkpt lat="47.91489" lon="7.11995">
        <ele>1133</ele>
        <time>2013-11-11T14:07:18Z</time>
      </trkpt>
      <trkpt lat="47.91488" lon="7.11985">
        <ele>1133.4</ele>
        <time>2013-11-11T14:07:20Z</time>
      </trkpt>
      <trkpt lat="47.91487" lon="7.11978">
        <ele>1133.7</ele>
        <time>2013-11-11T14:07:23Z</time>
      </trkpt>
      <trkpt lat="47.91486" lon="7.11973">
        <ele>1134.1</ele>
        <time>2013-11-11T14:07:24Z</time>
      </trkpt>
      <trkpt lat="47.91486" lon="7.11968">
        <ele>1134.4</ele>
        <time>2013-11-11T14:07:27Z</time>
      </trkpt>
      <trkpt lat="47.91485" lon="7.11963">
        <ele>1134.8</ele>
        <time>2013-11-11T14:07:28Z</time>
      </trkpt>
      <trkpt lat="47.91483" lon="7.11958">
        <ele>1135.7</ele>
        <time>2013-11-11T14:07:31Z</time>
      </trkpt>
      <trkpt lat="47.91479" lon="7.11952">
        <ele>1136.9</ele>
        <time>2013-11-11T14:07:34Z</time>
      </trkpt>
      <trkpt lat="47.91476" lon="7.11947">
        <ele>1138</ele>
        <time>2013-11-11T14:07:36Z</time>
      </trkpt>
      <trkpt lat="47.91473" lon="7.11945">
        <ele>1139.4</ele>
        <time>2013-11-11T14:07:39Z</time>
      </trkpt>
      <trkpt lat="47.9147" lon="7.11942">
        <ele>1140.5</ele>
        <time>2013-11-11T14:07:40Z</time>
      </trkpt>
      <trkpt lat="47.91467" lon="7.11938">
        <ele>1141.3</ele>
        <time>2013-11-11T14:07:43Z</time>
      </trkpt>
      <trkpt lat="47.91465" lon="7.11934">
        <ele>1142</ele>
        <time>2013-11-11T14:07:44Z</time>
      </trkpt>
      <trkpt lat="47.91463" lon="7.1193">
        <ele>1142.7</ele>
        <time>2013-11-11T14:07:47Z</time>
      </trkpt>
      <trkpt lat="47.91461" lon="7.11926">
        <ele>1143.5</ele>
        <time>2013-11-11T14:07:49Z</time>
      </trkpt>
      <trkpt lat="47.9146" lon="7.11922">
        <ele>1144.1</ele>
        <time>2013-11-11T14:07:51Z</time>
      </trkpt>
      <trkpt lat="47.91459" lon="7.11918">
        <ele>1144.3</ele>
        <time>2013-11-11T14:07:52Z</time>
      </trkpt>
      <trkpt lat="47.91457" lon="7.11912">
        <ele>1144.7</ele>
        <time>2013-11-11T14:07:56Z</time>
      </trkpt>
      <trkpt lat="47.91455" lon="7.1191">
        <ele>1145.7</ele>
        <time>2013-11-11T14:07:57Z</time>
      </trkpt>
      <trkpt lat="47.91452" lon="7.11909">
        <ele>1146.8</ele>
        <time>2013-11-11T14:08:00Z</time>
      </trkpt>
      <trkpt lat="47.91449" lon="7.11905">
        <ele>1148.3</ele>
        <time>2013-11-11T14:08:03Z</time>
      </trkpt>
      <trkpt lat="47.91446" lon="7.11901">
        <ele>1149.1</ele>
        <time>2013-11-11T14:08:04Z</time>
      </trkpt>
      <trkpt lat="47.91445" lon="7.11896">
        <ele>1149.4</ele>
        <time>2013-11-11T14:08:09Z</time>
      </trkpt>
      <trkpt lat="47.91445" lon="7.11889">
        <ele>1149.6</ele>
        <time>2013-11-11T14:08:12Z</time>
      </trkpt>
      <trkpt lat="47.91443" lon="7.11885">
        <ele>1150</ele>
        <time>2013-11-11T14:08:14Z</time>
      </trkpt>
      <trkpt lat="47.91442" lon="7.11879">
        <ele>1150.3</ele>
        <time>2013-11-11T14:08:18Z</time>
      </trkpt>
      <trkpt lat="47.9144" lon="7.11871">
        <ele>1150.7</ele>
        <time>2013-11-11T14:08:21Z</time>
      </trkpt>
      <trkpt lat="47.91437" lon="7.11864">
        <ele>1151.7</ele>
        <time>2013-11-11T14:08:24Z</time>
      </trkpt>
      <trkpt lat="47.91435" lon="7.11861">
        <ele>1152.3</ele>
        <time>2013-11-11T14:08:26Z</time>
      </trkpt>
      <trkpt lat="47.91434" lon="7.11857">
        <ele>1152.6</ele>
        <time>2013-11-11T14:08:29Z</time>
      </trkpt>
      <trkpt lat="47.91432" lon="7.11853">
        <ele>1152.9</ele>
        <time>2013-11-11T14:08:31Z</time>
      </trkpt>
      <trkpt lat="47.91429" lon="7.11851">
        <ele>1154</ele>
        <time>2013-11-11T14:08:32Z</time>
      </trkpt>
      <trkpt lat="47.91426" lon="7.11848">
        <ele>1155.2</ele>
        <time>2013-11-11T14:08:35Z</time>
      </trkpt>
      <trkpt lat="47.91423" lon="7.11845">
        <ele>1156.5</ele>
        <time>2013-11-11T14:08:37Z</time>
      </trkpt>
      <trkpt lat="47.9142" lon="7.11843">
        <ele>1157.5</ele>
        <time>2013-11-11T14:08:40Z</time>
      </trkpt>
      <trkpt lat="47.91419" lon="7.11835">
        <ele>1157.4</ele>
        <time>2013-11-11T14:08:44Z</time>
      </trkpt>
      <trkpt lat="47.91419" lon="7.1183">
        <ele>1157.1</ele>
        <time>2013-11-11T14:08:47Z</time>
      </trkpt>
      <trkpt lat="47.91418" lon="7.11825">
        <ele>1157.1</ele>
        <time>2013-11-11T14:08:48Z</time>
      </trkpt>
      <trkpt lat="47.91417" lon="7.11821">
        <ele>1157.1</ele>
        <time>2013-11-11T14:08:52Z</time>
      </trkpt>
      <trkpt lat="47.91415" lon="7.11815">
        <ele>1157.7</ele>
        <time>2013-11-11T14:08:56Z</time>
      </trkpt>
      <trkpt lat="47.91413" lon="7.1181">
        <ele>1158.1</ele>
        <time>2013-11-11T14:08:59Z</time>
      </trkpt>
      <trkpt lat="47.91411" lon="7.11804">
        <ele>1158.6</ele>
        <time>2013-11-11T14:09:01Z</time>
      </trkpt>
      <trkpt lat="47.91409" lon="7.11801">
        <ele>1159.4</ele>
        <time>2013-11-11T14:09:05Z</time>
      </trkpt>
      <trkpt lat="47.91404" lon="7.11797">
        <ele>1161</ele>
        <time>2013-11-11T14:09:08Z</time>
      </trkpt>
      <trkpt lat="47.91403" lon="7.11793">
        <ele>1161.4</ele>
        <time>2013-11-11T14:09:11Z</time>
      </trkpt>
      <trkpt lat="47.91401" lon="7.11789">
        <ele>1162.2</ele>
        <time>2013-11-11T14:09:13Z</time>
      </trkpt>
      <trkpt lat="47.91399" lon="7.11785">
        <ele>1163.5</ele>
        <time>2013-11-11T14:09:17Z</time>
      </trkpt>
      <trkpt lat="47.91396" lon="7.11784">
        <ele>1164.8</ele>
        <time>2013-11-11T14:09:21Z</time>
      </trkpt>
      <trkpt lat="47.91395" lon="7.1178">
        <ele>1165.3</ele>
        <time>2013-11-11T14:09:28Z</time>
      </trkpt>
      <trkpt lat="47.91391" lon="7.11776">
        <ele>1167.4</ele>
        <time>2013-11-11T14:09:34Z</time>
      </trkpt>
      <trkpt lat="47.91388" lon="7.11774">
        <ele>1168.7</ele>
        <time>2013-11-11T14:09:37Z</time>
      </trkpt>
      <trkpt lat="47.91385" lon="7.11768">
        <ele>1170.3</ele>
        <time>2013-11-11T14:09:40Z</time>
      </trkpt>
      <trkpt lat="47.91382" lon="7.11763">
        <ele>1171.8</ele>
        <time>2013-11-11T14:09:44Z</time>
      </trkpt>
      <trkpt lat="47.91384" lon="7.11761">
        <ele>1170.8</ele>
        <time>2013-11-11T14:09:50Z</time>
      </trkpt>
      <trkpt lat="47.91386" lon="7.11756">
        <ele>1170.5</ele>
        <time>2013-11-11T14:09:54Z</time>
      </trkpt>
      <trkpt lat="47.91383" lon="7.11749">
        <ele>1172.1</ele>
        <time>2013-11-11T14:09:58Z</time>
      </trkpt>
      <trkpt lat="47.91378" lon="7.11747">
        <ele>1174.1</ele>
        <time>2013-11-11T14:10:00Z</time>
      </trkpt>
      <trkpt lat="47.91374" lon="7.11745">
        <ele>1176.1</ele>
        <time>2013-11-11T14:10:02Z</time>
      </trkpt>
      <trkpt lat="47.91371" lon="7.11742">
        <ele>1177.4</ele>
        <time>2013-11-11T14:10:04Z</time>
      </trkpt>
      <trkpt lat="47.91369" lon="7.11738">
        <ele>1178.2</ele>
        <time>2013-11-11T14:10:07Z</time>
      </trkpt>
      <trkpt lat="47.91369" lon="7.11733">
        <ele>1178.3</ele>
        <time>2013-11-11T14:10:10Z</time>
      </trkpt>
      <trkpt lat="47.91371" lon="7.11728">
        <ele>1178</ele>
        <time>2013-11-11T14:10:14Z</time>
      </trkpt>
      <trkpt lat="47.91369" lon="7.11721">
        <ele>1178.7</ele>
        <time>2013-11-11T14:10:16Z</time>
      </trkpt>
      <trkpt lat="47.91368" lon="7.11718">
        <ele>1179.6</ele>
        <time>2013-11-11T14:10:18Z</time>
      </trkpt>
      <trkpt lat="47.91365" lon="7.11717">
        <ele>1180.7</ele>
        <time>2013-11-11T14:10:22Z</time>
      </trkpt>
      <trkpt lat="47.91362" lon="7.11716">
        <ele>1181.9</ele>
        <time>2013-11-11T14:10:30Z</time>
      </trkpt>
      <trkpt lat="47.9136" lon="7.11714">
        <ele>1182.9</ele>
        <time>2013-11-11T14:10:33Z</time>
      </trkpt>
      <trkpt lat="47.91356" lon="7.11713">
        <ele>1184.4</ele>
        <time>2013-11-11T14:10:37Z</time>
      </trkpt>
      <trkpt lat="47.91352" lon="7.1171">
        <ele>1186</ele>
        <time>2013-11-11T14:10:41Z</time>
      </trkpt>
      <trkpt lat="47.91351" lon="7.11705">
        <ele>1187</ele>
        <time>2013-11-11T14:10:44Z</time>
      </trkpt>
      <trkpt lat="47.91352" lon="7.11699">
        <ele>1187</ele>
        <time>2013-11-11T14:10:47Z</time>
      </trkpt>
      <trkpt lat="47.91352" lon="7.11695">
        <ele>1187.2</ele>
        <time>2013-11-11T14:10:49Z</time>
      </trkpt>
      <trkpt lat="47.91352" lon="7.11691">
        <ele>1187.6</ele>
        <time>2013-11-11T14:10:51Z</time>
      </trkpt>
      <trkpt lat="47.91353" lon="7.11686">
        <ele>1187.8</ele>
        <time>2013-11-11T14:10:53Z</time>
      </trkpt>
      <trkpt lat="47.91354" lon="7.11681">
        <ele>1187.8</ele>
        <time>2013-11-11T14:10:55Z</time>
      </trkpt>
      <trkpt lat="47.91356" lon="7.11677">
        <ele>1187.4</ele>
        <time>2013-11-11T14:10:57Z</time>
      </trkpt>
      <trkpt lat="47.91353" lon="7.11676">
        <ele>1188.6</ele>
        <time>2013-11-11T14:11:10Z</time>
      </trkpt>
      <trkpt lat="47.91352" lon="7.1167">
        <ele>1189.5</ele>
        <time>2013-11-11T14:11:20Z</time>
      </trkpt>
      <trkpt lat="47.91352" lon="7.11665">
        <ele>1190</ele>
        <time>2013-11-11T14:11:22Z</time>
      </trkpt>
      <trkpt lat="47.91349" lon="7.11661">
        <ele>1191.1</ele>
        <time>2013-11-11T14:11:25Z</time>
      </trkpt>
      <trkpt lat="47.91348" lon="7.11658">
        <ele>1192.1</ele>
        <time>2013-11-11T14:11:28Z</time>
      </trkpt>
      <trkpt lat="47.9135" lon="7.11653">
        <ele>1191.5</ele>
        <time>2013-11-11T14:11:31Z</time>
      </trkpt>
      <trkpt lat="47.9135" lon="7.11648">
        <ele>1192</ele>
        <time>2013-11-11T14:11:33Z</time>
      </trkpt>
      <trkpt lat="47.91351" lon="7.11642">
        <ele>1192.3</ele>
        <time>2013-11-11T14:11:35Z</time>
      </trkpt>
      <trkpt lat="47.91352" lon="7.11638">
        <ele>1192.2</ele>
        <time>2013-11-11T14:11:38Z</time>
      </trkpt>
      <trkpt lat="47.91354" lon="7.11634">
        <ele>1192</ele>
        <time>2013-11-11T14:11:42Z</time>
      </trkpt>
      <trkpt lat="47.91355" lon="7.11631">
        <ele>1191.7</ele>
        <time>2013-11-11T14:11:49Z</time>
      </trkpt>
      <trkpt lat="47.91351" lon="7.11626">
        <ele>1193.5</ele>
        <time>2013-11-11T14:11:54Z</time>
      </trkpt>
      <trkpt lat="47.91352" lon="7.11622">
        <ele>1193.3</ele>
        <time>2013-11-11T14:11:57Z</time>
      </trkpt>
      <trkpt lat="47.91353" lon="7.11618">
        <ele>1192.7</ele>
        <time>2013-11-11T14:11:59Z</time>
      </trkpt>
      <trkpt lat="47.91355" lon="7.11614">
        <ele>1192</ele>
        <time>2013-11-11T14:12:01Z</time>
      </trkpt>
      <trkpt lat="47.91355" lon="7.11609">
        <ele>1191.8</ele>
        <time>2013-11-11T14:12:04Z</time>
      </trkpt>
      <trkpt lat="47.91355" lon="7.11603">
        <ele>1191.8</ele>
        <time>2013-11-11T14:12:07Z</time>
      </trkpt>
      <trkpt lat="47.91355" lon="7.11598">
        <ele>1191.6</ele>
        <time>2013-11-11T14:12:10Z</time>
      </trkpt>
      <trkpt lat="47.91355" lon="7.11592">
        <ele>1191.5</ele>
        <time>2013-11-11T14:12:13Z</time>
      </trkpt>
      <trkpt lat="47.91356" lon="7.11588">
        <ele>1191</ele>
        <time>2013-11-11T14:12:16Z</time>
      </trkpt>
      <trkpt lat="47.91353" lon="7.11586">
        <ele>1192</ele>
        <time>2013-11-11T14:12:22Z</time>
      </trkpt>
      <trkpt lat="47.91352" lon="7.11582">
        <ele>1192.2</ele>
        <time>2013-11-11T14:12:27Z</time>
      </trkpt>
      <trkpt lat="47.91353" lon="7.11577">
        <ele>1191.7</ele>
        <time>2013-11-11T14:12:30Z</time>
      </trkpt>
      <trkpt lat="47.91356" lon="7.11574">
        <ele>1190.5</ele>
        <time>2013-11-11T14:12:34Z</time>
      </trkpt>
      <trkpt lat="47.91359" lon="7.11572">
        <ele>1189.5</ele>
        <time>2013-11-11T14:12:37Z</time>
      </trkpt>
      <trkpt lat="47.91362" lon="7.1157">
        <ele>1188.4</ele>
        <time>2013-11-11T14:12:39Z</time>
      </trkpt>
      <trkpt lat="47.91364" lon="7.11567">
        <ele>1187.4</ele>
        <time>2013-11-11T14:12:41Z</time>
      </trkpt>
      <trkpt lat="47.91367" lon="7.11564">
        <ele>1186.5</ele>
        <time>2013-11-11T14:12:43Z</time>
      </trkpt>
      <trkpt lat="47.91369" lon="7.11559">
        <ele>1185.6</ele>
        <time>2013-11-11T14:12:45Z</time>
      </trkpt>
      <trkpt lat="47.9137" lon="7.11552">
        <ele>1185</ele>
        <time>2013-11-11T14:12:47Z</time>
      </trkpt>
      <trkpt lat="47.91371" lon="7.11548">
        <ele>1184.7</ele>
        <time>2013-11-11T14:12:48Z</time>
      </trkpt>
      <trkpt lat="47.91371" lon="7.11544">
        <ele>1184.4</ele>
        <time>2013-11-11T14:12:49Z</time>
      </trkpt>
      <trkpt lat="47.91372" lon="7.11538">
        <ele>1183.6</ele>
        <time>2013-11-11T14:12:51Z</time>
      </trkpt>
      <trkpt lat="47.91373" lon="7.11534">
        <ele>1182.7</ele>
        <time>2013-11-11T14:12:53Z</time>
      </trkpt>
      <trkpt lat="47.91373" lon="7.11529">
        <ele>1182</ele>
        <time>2013-11-11T14:12:55Z</time>
      </trkpt>
      <trkpt lat="47.91374" lon="7.11524">
        <ele>1181.1</ele>
        <time>2013-11-11T14:12:58Z</time>
      </trkpt>
      <trkpt lat="47.91373" lon="7.11519">
        <ele>1180.6</ele>
        <time>2013-11-11T14:13:01Z</time>
      </trkpt>
      <trkpt lat="47.91372" lon="7.11515">
        <ele>1180.7</ele>
        <time>2013-11-11T14:13:03Z</time>
      </trkpt>
      <trkpt lat="47.91369" lon="7.11512">
        <ele>1181.2</ele>
        <time>2013-11-11T14:13:05Z</time>
      </trkpt>
      <trkpt lat="47.91366" lon="7.11509">
        <ele>1181.6</ele>
        <time>2013-11-11T14:13:07Z</time>
      </trkpt>
      <trkpt lat="47.91364" lon="7.11505">
        <ele>1181.8</ele>
        <time>2013-11-11T14:13:10Z</time>
      </trkpt>
      <trkpt lat="47.91362" lon="7.115">
        <ele>1182</ele>
        <time>2013-11-11T14:13:13Z</time>
      </trkpt>
      <trkpt lat="47.9136" lon="7.11497">
        <ele>1182.3</ele>
        <time>2013-11-11T14:13:15Z</time>
      </trkpt>
      <trkpt lat="47.91357" lon="7.11493">
        <ele>1182.6</ele>
        <time>2013-11-11T14:13:18Z</time>
      </trkpt>
      <trkpt lat="47.91354" lon="7.1149">
        <ele>1183.2</ele>
        <time>2013-11-11T14:13:21Z</time>
      </trkpt>
      <trkpt lat="47.9135" lon="7.11487">
        <ele>1184.2</ele>
        <time>2013-11-11T14:13:24Z</time>
      </trkpt>
      <trkpt lat="47.91346" lon="7.11485">
        <ele>1185.3</ele>
        <time>2013-11-11T14:13:26Z</time>
      </trkpt>
      <trkpt lat="47.91343" lon="7.11481">
        <ele>1185.5</ele>
        <time>2013-11-11T14:13:28Z</time>
      </trkpt>
      <trkpt lat="47.91342" lon="7.11476">
        <ele>1185.4</ele>
        <time>2013-11-11T14:13:30Z</time>
      </trkpt>
      <trkpt lat="47.91341" lon="7.11471">
        <ele>1184.9</ele>
        <time>2013-11-11T14:13:32Z</time>
      </trkpt>
      <trkpt lat="47.91341" lon="7.11465">
        <ele>1184.1</ele>
        <time>2013-11-11T14:13:34Z</time>
      </trkpt>
      <trkpt lat="47.9134" lon="7.1146">
        <ele>1183.6</ele>
        <time>2013-11-11T14:13:36Z</time>
      </trkpt>
      <trkpt lat="47.91339" lon="7.11455">
        <ele>1183.1</ele>
        <time>2013-11-11T14:13:38Z</time>
      </trkpt>
      <trkpt lat="47.91336" lon="7.11452">
        <ele>1183.4</ele>
        <time>2013-11-11T14:13:42Z</time>
      </trkpt>
      <trkpt lat="47.91333" lon="7.1145">
        <ele>1184.1</ele>
        <time>2013-11-11T14:13:45Z</time>
      </trkpt>
      <trkpt lat="47.9133" lon="7.11449">
        <ele>1184.8</ele>
        <time>2013-11-11T14:13:47Z</time>
      </trkpt>
      <trkpt lat="47.91326" lon="7.11448">
        <ele>1185.7</ele>
        <time>2013-11-11T14:13:49Z</time>
      </trkpt>
      <trkpt lat="47.91323" lon="7.11447">
        <ele>1186.6</ele>
        <time>2013-11-11T14:13:51Z</time>
      </trkpt>
      <trkpt lat="47.9132" lon="7.11447">
        <ele>1187.5</ele>
        <time>2013-11-11T14:13:54Z</time>
      </trkpt>
      <trkpt lat="47.91317" lon="7.11447">
        <ele>1188.5</ele>
        <time>2013-11-11T14:13:58Z</time>
      </trkpt>
      <trkpt lat="47.91314" lon="7.11446">
        <ele>1189.2</ele>
        <time>2013-11-11T14:14:02Z</time>
      </trkpt>
      <trkpt lat="47.91312" lon="7.11442">
        <ele>1189.3</ele>
        <time>2013-11-11T14:14:05Z</time>
      </trkpt>
      <trkpt lat="47.91309" lon="7.1144">
        <ele>1189.6</ele>
        <time>2013-11-11T14:14:08Z</time>
      </trkpt>
      <trkpt lat="47.91306" lon="7.11439">
        <ele>1190.4</ele>
        <time>2013-11-11T14:14:12Z</time>
      </trkpt>
      <trkpt lat="47.91303" lon="7.11435">
        <ele>1190.9</ele>
        <time>2013-11-11T14:14:15Z</time>
      </trkpt>
      <trkpt lat="47.913" lon="7.11433">
        <ele>1191.5</ele>
        <time>2013-11-11T14:14:16Z</time>
      </trkpt>
      <trkpt lat="47.91297" lon="7.11431">
        <ele>1192</ele>
        <time>2013-11-11T14:14:19Z</time>
      </trkpt>
      <trkpt lat="47.91294" lon="7.11428">
        <ele>1192.3</ele>
        <time>2013-11-11T14:14:20Z</time>
      </trkpt>
      <trkpt lat="47.91292" lon="7.11424">
        <ele>1192.2</ele>
        <time>2013-11-11T14:14:24Z</time>
      </trkpt>
      <trkpt lat="47.91292" lon="7.1142">
        <ele>1191.7</ele>
        <time>2013-11-11T14:14:30Z</time>
      </trkpt>
      <trkpt lat="47.91292" lon="7.11414">
        <ele>1190.5</ele>
        <time>2013-11-11T14:14:35Z</time>
      </trkpt>
      <trkpt lat="47.91291" lon="7.1141">
        <ele>1189.9</ele>
        <time>2013-11-11T14:14:41Z</time>
      </trkpt>
      <trkpt lat="47.91289" lon="7.11407">
        <ele>1190</ele>
        <time>2013-11-11T14:14:43Z</time>
      </trkpt>
      <trkpt lat="47.91286" lon="7.11405">
        <ele>1190.3</ele>
        <time>2013-11-11T14:14:45Z</time>
      </trkpt>
      <trkpt lat="47.91283" lon="7.11399">
        <ele>1190.5</ele>
        <time>2013-11-11T14:14:49Z</time>
      </trkpt>
      <trkpt lat="47.9128" lon="7.11397">
        <ele>1190.9</ele>
        <time>2013-11-11T14:14:52Z</time>
      </trkpt>
      <trkpt lat="47.91277" lon="7.11396">
        <ele>1191.8</ele>
        <time>2013-11-11T14:14:54Z</time>
      </trkpt>
      <trkpt lat="47.91273" lon="7.11396">
        <ele>1192.9</ele>
        <time>2013-11-11T14:14:56Z</time>
      </trkpt>
      <trkpt lat="47.91269" lon="7.11395">
        <ele>1193.9</ele>
        <time>2013-11-11T14:14:58Z</time>
      </trkpt>
      <trkpt lat="47.91266" lon="7.11394">
        <ele>1194.6</ele>
        <time>2013-11-11T14:15:01Z</time>
      </trkpt>
      <trkpt lat="47.91264" lon="7.1139">
        <ele>1194.3</ele>
        <time>2013-11-11T14:15:06Z</time>
      </trkpt>
      <trkpt lat="47.91265" lon="7.11385">
        <ele>1193.2</ele>
        <time>2013-11-11T14:15:10Z</time>
      </trkpt>
      <trkpt lat="47.91263" lon="7.11383">
        <ele>1193.4</ele>
        <time>2013-11-11T14:15:14Z</time>
      </trkpt>
      <trkpt lat="47.9126" lon="7.1138">
        <ele>1193.9</ele>
        <time>2013-11-11T14:15:17Z</time>
      </trkpt>
      <trkpt lat="47.91257" lon="7.11378">
        <ele>1194.3</ele>
        <time>2013-11-11T14:15:19Z</time>
      </trkpt>
      <trkpt lat="47.91254" lon="7.11377">
        <ele>1195.1</ele>
        <time>2013-11-11T14:15:21Z</time>
      </trkpt>
      <trkpt lat="47.91251" lon="7.11377">
        <ele>1196.1</ele>
        <time>2013-11-11T14:15:23Z</time>
      </trkpt>
      <trkpt lat="47.91247" lon="7.11375">
        <ele>1196.8</ele>
        <time>2013-11-11T14:15:26Z</time>
      </trkpt>
      <trkpt lat="47.91245" lon="7.11372">
        <ele>1197.1</ele>
        <time>2013-11-11T14:15:30Z</time>
      </trkpt>
      <trkpt lat="47.91244" lon="7.11367">
        <ele>1196.5</ele>
        <time>2013-11-11T14:15:33Z</time>
      </trkpt>
      <trkpt lat="47.91245" lon="7.11362">
        <ele>1195.5</ele>
        <time>2013-11-11T14:15:39Z</time>
      </trkpt>
      <trkpt lat="47.91239" lon="7.11364">
        <ele>1197.5</ele>
        <time>2013-11-11T14:15:53Z</time>
      </trkpt>
      <trkpt lat="47.91242" lon="7.11367">
        <ele>1197.2</ele>
        <time>2013-11-11T14:15:57Z</time>
      </trkpt>
      <trkpt lat="47.91244" lon="7.1137">
        <ele>1196.9</ele>
        <time>2013-11-11T14:15:59Z</time>
      </trkpt>
      <trkpt lat="47.91249" lon="7.11373">
        <ele>1196</ele>
        <time>2013-11-11T14:16:02Z</time>
      </trkpt>
      <trkpt lat="47.91252" lon="7.11371">
        <ele>1194.8</ele>
        <time>2013-11-11T14:16:04Z</time>
      </trkpt>
      <trkpt lat="47.91251" lon="7.11362">
        <ele>1193.3</ele>
        <time>2013-11-11T14:16:08Z</time>
      </trkpt>
      <trkpt lat="47.91247" lon="7.11362">
        <ele>1194.7</ele>
        <time>2013-11-11T14:16:29Z</time>
      </trkpt>
      <trkpt lat="47.91244" lon="7.11361">
        <ele>1195.4</ele>
        <time>2013-11-11T14:16:31Z</time>
      </trkpt>
      <trkpt lat="47.91242" lon="7.1136">
        <ele>1196.2</ele>
        <time>2013-11-11T14:16:33Z</time>
      </trkpt>
      <trkpt lat="47.91239" lon="7.11357">
        <ele>1196.5</ele>
        <time>2013-11-11T14:16:35Z</time>
      </trkpt>
      <trkpt lat="47.91237" lon="7.11355">
        <ele>1196.9</ele>
        <time>2013-11-11T14:16:37Z</time>
      </trkpt>
      <trkpt lat="47.91235" lon="7.11353">
        <ele>1197.3</ele>
        <time>2013-11-11T14:16:40Z</time>
      </trkpt>
      <trkpt lat="47.91238" lon="7.11355">
        <ele>1196.6</ele>
        <time>2013-11-11T14:17:19Z</time>
      </trkpt>
      <trkpt lat="47.91239" lon="7.11359">
        <ele>1196.8</ele>
        <time>2013-11-11T14:17:21Z</time>
      </trkpt>
      <trkpt lat="47.91242" lon="7.11362">
        <ele>1196.5</ele>
        <time>2013-11-11T14:17:23Z</time>
      </trkpt>
      <trkpt lat="47.91247" lon="7.11365">
        <ele>1195.4</ele>
        <time>2013-11-11T14:17:31Z</time>
      </trkpt>
      <trkpt lat="47.91249" lon="7.11366">
        <ele>1194.7</ele>
        <time>2013-11-11T14:17:33Z</time>
      </trkpt>
      <trkpt lat="47.91252" lon="7.11367">
        <ele>1193.8</ele>
        <time>2013-11-11T14:17:36Z</time>
      </trkpt>
      <trkpt lat="47.91249" lon="7.11368">
        <ele>1195</ele>
        <time>2013-11-11T14:17:44Z</time>
      </trkpt>
      <trkpt lat="47.91246" lon="7.11366">
        <ele>1195.6</ele>
        <time>2013-11-11T14:17:48Z</time>
      </trkpt>
      <trkpt lat="47.91248" lon="7.11362">
        <ele>1194.4</ele>
        <time>2013-11-11T14:17:52Z</time>
      </trkpt>
      <trkpt lat="47.91249" lon="7.11356">
        <ele>1193.1</ele>
        <time>2013-11-11T14:17:55Z</time>
      </trkpt>
      <trkpt lat="47.91247" lon="7.11354">
        <ele>1193.3</ele>
        <time>2013-11-11T14:17:58Z</time>
      </trkpt>
      <trkpt lat="47.91244" lon="7.11354">
        <ele>1194.4</ele>
        <time>2013-11-11T14:18:01Z</time>
      </trkpt>
      <trkpt lat="47.91241" lon="7.11357">
        <ele>1195.7</ele>
        <time>2013-11-11T14:18:08Z</time>
      </trkpt>
      <trkpt lat="47.91238" lon="7.11357">
        <ele>1196.8</ele>
        <time>2013-11-11T14:18:12Z</time>
      </trkpt>
      <trkpt lat="47.91235" lon="7.11355">
        <ele>1197.6</ele>
        <time>2013-11-11T14:18:14Z</time>
      </trkpt>
      <trkpt lat="47.91232" lon="7.11354">
        <ele>1198.5</ele>
        <time>2013-11-11T14:18:16Z</time>
      </trkpt>
      <trkpt lat="47.91228" lon="7.11353">
        <ele>1199.5</ele>
        <time>2013-11-11T14:18:18Z</time>
      </trkpt>
      <trkpt lat="47.91224" lon="7.11352">
        <ele>1200.4</ele>
        <time>2013-11-11T14:18:20Z</time>
      </trkpt>
      <trkpt lat="47.91222" lon="7.1135">
        <ele>1201</ele>
        <time>2013-11-11T14:18:22Z</time>
      </trkpt>
      <trkpt lat="47.91219" lon="7.11346">
        <ele>1201.4</ele>
        <time>2013-11-11T14:18:25Z</time>
      </trkpt>
      <trkpt lat="47.91218" lon="7.11342">
        <ele>1201.1</ele>
        <time>2013-11-11T14:18:28Z</time>
      </trkpt>
      <trkpt lat="47.91215" lon="7.11338">
        <ele>1201.5</ele>
        <time>2013-11-11T14:18:33Z</time>
      </trkpt>
      <trkpt lat="47.91212" lon="7.11338">
        <ele>1202.5</ele>
        <time>2013-11-11T14:18:36Z</time>
      </trkpt>
      <trkpt lat="47.91207" lon="7.11338">
        <ele>1204</ele>
        <time>2013-11-11T14:18:39Z</time>
      </trkpt>
      <trkpt lat="47.91204" lon="7.11339">
        <ele>1204.9</ele>
        <time>2013-11-11T14:18:41Z</time>
      </trkpt>
      <trkpt lat="47.91201" lon="7.11338">
        <ele>1205.6</ele>
        <time>2013-11-11T14:18:44Z</time>
      </trkpt>
      <trkpt lat="47.912" lon="7.11334">
        <ele>1205.5</ele>
        <time>2013-11-11T14:18:48Z</time>
      </trkpt>
      <trkpt lat="47.91197" lon="7.11331">
        <ele>1205.9</ele>
        <time>2013-11-11T14:18:51Z</time>
      </trkpt>
      <trkpt lat="47.91194" lon="7.11327">
        <ele>1206.2</ele>
        <time>2013-11-11T14:18:53Z</time>
      </trkpt>
      <trkpt lat="47.91191" lon="7.11325">
        <ele>1206.8</ele>
        <time>2013-11-11T14:18:55Z</time>
      </trkpt>
      <trkpt lat="47.91187" lon="7.11323">
        <ele>1207.6</ele>
        <time>2013-11-11T14:18:57Z</time>
      </trkpt>
      <trkpt lat="47.91184" lon="7.11322">
        <ele>1208.4</ele>
        <time>2013-11-11T14:18:59Z</time>
      </trkpt>
      <trkpt lat="47.91181" lon="7.1132">
        <ele>1209</ele>
        <time>2013-11-11T14:19:01Z</time>
      </trkpt>
      <trkpt lat="47.9118" lon="7.11316">
        <ele>1208.9</ele>
        <time>2013-11-11T14:19:04Z</time>
      </trkpt>
      <trkpt lat="47.91178" lon="7.11312">
        <ele>1209</ele>
        <time>2013-11-11T14:19:07Z</time>
      </trkpt>
      <trkpt lat="47.91175" lon="7.11309">
        <ele>1209.6</ele>
        <time>2013-11-11T14:19:10Z</time>
      </trkpt>
      <trkpt lat="47.91172" lon="7.11307">
        <ele>1210</ele>
        <time>2013-11-11T14:19:12Z</time>
      </trkpt>
      <trkpt lat="47.91169" lon="7.11304">
        <ele>1210.6</ele>
        <time>2013-11-11T14:19:15Z</time>
      </trkpt>
      <trkpt lat="47.91166" lon="7.11302">
        <ele>1211.4</ele>
        <time>2013-11-11T14:19:18Z</time>
      </trkpt>
      <trkpt lat="47.91163" lon="7.113">
        <ele>1212.2</ele>
        <time>2013-11-11T14:19:21Z</time>
      </trkpt>
      <trkpt lat="47.9116" lon="7.11299">
        <ele>1212.9</ele>
        <time>2013-11-11T14:19:23Z</time>
      </trkpt>
      <trkpt lat="47.91157" lon="7.11297">
        <ele>1213.6</ele>
        <time>2013-11-11T14:19:25Z</time>
      </trkpt>
      <trkpt lat="47.91154" lon="7.11296">
        <ele>1214.5</ele>
        <time>2013-11-11T14:19:28Z</time>
      </trkpt>
      <trkpt lat="47.91151" lon="7.11295">
        <ele>1215.2</ele>
        <time>2013-11-11T14:19:31Z</time>
      </trkpt>
      <trkpt lat="47.91149" lon="7.11291">
        <ele>1215.6</ele>
        <time>2013-11-11T14:19:35Z</time>
      </trkpt>
      <trkpt lat="47.91145" lon="7.11288">
        <ele>1216.6</ele>
        <time>2013-11-11T14:19:38Z</time>
      </trkpt>
      <trkpt lat="47.91142" lon="7.11286">
        <ele>1217.4</ele>
        <time>2013-11-11T14:19:40Z</time>
      </trkpt>
      <trkpt lat="47.9114" lon="7.11283">
        <ele>1217.9</ele>
        <time>2013-11-11T14:19:43Z</time>
      </trkpt>
      <trkpt lat="47.91141" lon="7.11279">
        <ele>1217.4</ele>
        <time>2013-11-11T14:19:49Z</time>
      </trkpt>
      <trkpt lat="47.91138" lon="7.11276">
        <ele>1218</ele>
        <time>2013-11-11T14:19:51Z</time>
      </trkpt>
      <trkpt lat="47.91135" lon="7.11273">
        <ele>1218.9</ele>
        <time>2013-11-11T14:19:53Z</time>
      </trkpt>
      <trkpt lat="47.91132" lon="7.11272">
        <ele>1219.7</ele>
        <time>2013-11-11T14:19:55Z</time>
      </trkpt>
      <trkpt lat="47.91129" lon="7.1127">
        <ele>1220.6</ele>
        <time>2013-11-11T14:20:04Z</time>
      </trkpt>
      <trkpt lat="47.91128" lon="7.11266">
        <ele>1220.8</ele>
        <time>2013-11-11T14:20:07Z</time>
      </trkpt>
      <trkpt lat="47.91126" lon="7.11261">
        <ele>1221.2</ele>
        <time>2013-11-11T14:20:10Z</time>
      </trkpt>
      <trkpt lat="47.91125" lon="7.11257">
        <ele>1221.2</ele>
        <time>2013-11-11T14:20:13Z</time>
      </trkpt>
      <trkpt lat="47.91126" lon="7.11252">
        <ele>1220.9</ele>
        <time>2013-11-11T14:20:15Z</time>
      </trkpt>
      <trkpt lat="47.91124" lon="7.11246">
        <ele>1221</ele>
        <time>2013-11-11T14:20:17Z</time>
      </trkpt>
      <trkpt lat="47.91121" lon="7.11241">
        <ele>1221.5</ele>
        <time>2013-11-11T14:20:19Z</time>
      </trkpt>
      <trkpt lat="47.91118" lon="7.11236">
        <ele>1222.2</ele>
        <time>2013-11-11T14:20:21Z</time>
      </trkpt>
      <trkpt lat="47.91114" lon="7.11231">
        <ele>1222.9</ele>
        <time>2013-11-11T14:20:23Z</time>
      </trkpt>
      <trkpt lat="47.91111" lon="7.11226">
        <ele>1223.5</ele>
        <time>2013-11-11T14:20:25Z</time>
      </trkpt>
      <trkpt lat="47.91108" lon="7.11222">
        <ele>1224.2</ele>
        <time>2013-11-11T14:20:27Z</time>
      </trkpt>
      <trkpt lat="47.91106" lon="7.11218">
        <ele>1224.7</ele>
        <time>2013-11-11T14:20:29Z</time>
      </trkpt>
      <trkpt lat="47.91104" lon="7.11213">
        <ele>1225.1</ele>
        <time>2013-11-11T14:20:31Z</time>
      </trkpt>
      <trkpt lat="47.91102" lon="7.11209">
        <ele>1225.7</ele>
        <time>2013-11-11T14:20:33Z</time>
      </trkpt>
      <trkpt lat="47.91099" lon="7.11206">
        <ele>1226.5</ele>
        <time>2013-11-11T14:20:35Z</time>
      </trkpt>
      <trkpt lat="47.91098" lon="7.11202">
        <ele>1227.1</ele>
        <time>2013-11-11T14:20:38Z</time>
      </trkpt>
      <trkpt lat="47.91096" lon="7.11198">
        <ele>1227.8</ele>
        <time>2013-11-11T14:20:42Z</time>
      </trkpt>
      <trkpt lat="47.91096" lon="7.11192">
        <ele>1228</ele>
        <time>2013-11-11T14:20:45Z</time>
      </trkpt>
      <trkpt lat="47.91096" lon="7.11186">
        <ele>1228.4</ele>
        <time>2013-11-11T14:20:48Z</time>
      </trkpt>
      <trkpt lat="47.91096" lon="7.11181">
        <ele>1228.7</ele>
        <time>2013-11-11T14:20:50Z</time>
      </trkpt>
      <trkpt lat="47.91095" lon="7.11175">
        <ele>1229.2</ele>
        <time>2013-11-11T14:20:52Z</time>
      </trkpt>
      <trkpt lat="47.91094" lon="7.11169">
        <ele>1229.6</ele>
        <time>2013-11-11T14:20:54Z</time>
      </trkpt>
      <trkpt lat="47.91094" lon="7.11164">
        <ele>1229.9</ele>
        <time>2013-11-11T14:20:57Z</time>
      </trkpt>
      <trkpt lat="47.91093" lon="7.1116">
        <ele>1230.6</ele>
        <time>2013-11-11T14:21:00Z</time>
      </trkpt>
      <trkpt lat="47.91091" lon="7.11154">
        <ele>1231.2</ele>
        <time>2013-11-11T14:21:02Z</time>
      </trkpt>
      <trkpt lat="47.91091" lon="7.11149">
        <ele>1231.5</ele>
        <time>2013-11-11T14:21:04Z</time>
      </trkpt>
      <trkpt lat="47.9109" lon="7.11143">
        <ele>1232.1</ele>
        <time>2013-11-11T14:21:06Z</time>
      </trkpt>
      <trkpt lat="47.9109" lon="7.11138">
        <ele>1232.2</ele>
        <time>2013-11-11T14:21:08Z</time>
      </trkpt>
      <trkpt lat="47.91091" lon="7.11133">
        <ele>1232.2</ele>
        <time>2013-11-11T14:21:10Z</time>
      </trkpt>
      <trkpt lat="47.91091" lon="7.11128">
        <ele>1232.5</ele>
        <time>2013-11-11T14:21:12Z</time>
      </trkpt>
      <trkpt lat="47.91091" lon="7.11123">
        <ele>1232.9</ele>
        <time>2013-11-11T14:21:14Z</time>
      </trkpt>
      <trkpt lat="47.91091" lon="7.11119">
        <ele>1233.1</ele>
        <time>2013-11-11T14:21:16Z</time>
      </trkpt>
      <trkpt lat="47.91092" lon="7.11114">
        <ele>1233.1</ele>
        <time>2013-11-11T14:21:19Z</time>
      </trkpt>
      <trkpt lat="47.91093" lon="7.11108">
        <ele>1233.4</ele>
        <time>2013-11-11T14:21:22Z</time>
      </trkpt>
      <trkpt lat="47.91092" lon="7.11103">
        <ele>1234.1</ele>
        <time>2013-11-11T14:21:24Z</time>
      </trkpt>
      <trkpt lat="47.91091" lon="7.11097">
        <ele>1234.7</ele>
        <time>2013-11-11T14:21:26Z</time>
      </trkpt>
      <trkpt lat="47.91091" lon="7.11091">
        <ele>1235.2</ele>
        <time>2013-11-11T14:21:28Z</time>
      </trkpt>
      <trkpt lat="47.91092" lon="7.11086">
        <ele>1235.4</ele>
        <time>2013-11-11T14:21:30Z</time>
      </trkpt>
      <trkpt lat="47.91092" lon="7.11079">
        <ele>1235.9</ele>
        <time>2013-11-11T14:21:32Z</time>
      </trkpt>
      <trkpt lat="47.91092" lon="7.11074">
        <ele>1236.2</ele>
        <time>2013-11-11T14:21:34Z</time>
      </trkpt>
      <trkpt lat="47.91092" lon="7.1107">
        <ele>1236.6</ele>
        <time>2013-11-11T14:21:36Z</time>
      </trkpt>
      <trkpt lat="47.91092" lon="7.11065">
        <ele>1236.9</ele>
        <time>2013-11-11T14:21:38Z</time>
      </trkpt>
      <trkpt lat="47.91092" lon="7.11061">
        <ele>1237.1</ele>
        <time>2013-11-11T14:21:40Z</time>
      </trkpt>
      <trkpt lat="47.91093" lon="7.11057">
        <ele>1237.4</ele>
        <time>2013-11-11T14:21:42Z</time>
      </trkpt>
      <trkpt lat="47.91093" lon="7.11051">
        <ele>1237.6</ele>
        <time>2013-11-11T14:21:44Z</time>
      </trkpt>
      <trkpt lat="47.91093" lon="7.11044">
        <ele>1238.1</ele>
        <time>2013-11-11T14:21:46Z</time>
      </trkpt>
      <trkpt lat="47.91092" lon="7.11038">
        <ele>1239</ele>
        <time>2013-11-11T14:21:48Z</time>
      </trkpt>
      <trkpt lat="47.91091" lon="7.11031">
        <ele>1239.7</ele>
        <time>2013-11-11T14:21:50Z</time>
      </trkpt>
      <trkpt lat="47.9109" lon="7.11026">
        <ele>1240.5</ele>
        <time>2013-11-11T14:21:52Z</time>
      </trkpt>
      <trkpt lat="47.9109" lon="7.11021">
        <ele>1241.1</ele>
        <time>2013-11-11T14:21:54Z</time>
      </trkpt>
      <trkpt lat="47.91089" lon="7.11016">
        <ele>1241.7</ele>
        <time>2013-11-11T14:21:56Z</time>
      </trkpt>
      <trkpt lat="47.91089" lon="7.11012">
        <ele>1242.1</ele>
        <time>2013-11-11T14:22:00Z</time>
      </trkpt>
      <trkpt lat="47.91088" lon="7.11007">
        <ele>1242.7</ele>
        <time>2013-11-11T14:22:04Z</time>
      </trkpt>
      <trkpt lat="47.91087" lon="7.11002">
        <ele>1243.5</ele>
        <time>2013-11-11T14:22:07Z</time>
      </trkpt>
      <trkpt lat="47.91087" lon="7.10997">
        <ele>1243.9</ele>
        <time>2013-11-11T14:22:10Z</time>
      </trkpt>
      <trkpt lat="47.91089" lon="7.10993">
        <ele>1243.8</ele>
        <time>2013-11-11T14:22:14Z</time>
      </trkpt>
      <trkpt lat="47.91089" lon="7.10988">
        <ele>1244.1</ele>
        <time>2013-11-11T14:22:17Z</time>
      </trkpt>
      <trkpt lat="47.91089" lon="7.10982">
        <ele>1244.4</ele>
        <time>2013-11-11T14:22:20Z</time>
      </trkpt>
      <trkpt lat="47.9109" lon="7.10977">
        <ele>1244.6</ele>
        <time>2013-11-11T14:22:22Z</time>
      </trkpt>
      <trkpt lat="47.9109" lon="7.10973">
        <ele>1244.8</ele>
        <time>2013-11-11T14:22:24Z</time>
      </trkpt>
      <trkpt lat="47.9109" lon="7.10967">
        <ele>1245.2</ele>
        <time>2013-11-11T14:22:27Z</time>
      </trkpt>
      <trkpt lat="47.9109" lon="7.10962">
        <ele>1245.8</ele>
        <time>2013-11-11T14:22:29Z</time>
      </trkpt>
      <trkpt lat="47.91089" lon="7.10958">
        <ele>1246.3</ele>
        <time>2013-11-11T14:22:31Z</time>
      </trkpt>
      <trkpt lat="47.91089" lon="7.10953">
        <ele>1246.7</ele>
        <time>2013-11-11T14:22:33Z</time>
      </trkpt>
      <trkpt lat="47.9109" lon="7.10947">
        <ele>1246.9</ele>
        <time>2013-11-11T14:22:35Z</time>
      </trkpt>
      <trkpt lat="47.91091" lon="7.10942">
        <ele>1246.9</ele>
        <time>2013-11-11T14:22:37Z</time>
      </trkpt>
      <trkpt lat="47.91092" lon="7.10937">
        <ele>1246.9</ele>
        <time>2013-11-11T14:22:39Z</time>
      </trkpt>
      <trkpt lat="47.91092" lon="7.10933">
        <ele>1247</ele>
        <time>2013-11-11T14:22:41Z</time>
      </trkpt>
      <trkpt lat="47.91092" lon="7.10929">
        <ele>1247.6</ele>
        <time>2013-11-11T14:22:44Z</time>
      </trkpt>
      <trkpt lat="47.9109" lon="7.10923">
        <ele>1248.6</ele>
        <time>2013-11-11T14:22:47Z</time>
      </trkpt>
      <trkpt lat="47.91089" lon="7.10918">
        <ele>1249.3</ele>
        <time>2013-11-11T14:22:49Z</time>
      </trkpt>
      <trkpt lat="47.91089" lon="7.10914">
        <ele>1249.8</ele>
        <time>2013-11-11T14:22:51Z</time>
      </trkpt>
      <trkpt lat="47.91089" lon="7.10909">
        <ele>1250.1</ele>
        <time>2013-11-11T14:22:55Z</time>
      </trkpt>
      <trkpt lat="47.9109" lon="7.10902">
        <ele>1250.2</ele>
        <time>2013-11-11T14:22:58Z</time>
      </trkpt>
      <trkpt lat="47.91091" lon="7.10897">
        <ele>1250.4</ele>
        <time>2013-11-11T14:23:00Z</time>
      </trkpt>
      <trkpt lat="47.91091" lon="7.10891">
        <ele>1250.8</ele>
        <time>2013-11-11T14:23:02Z</time>
      </trkpt>
      <trkpt lat="47.91091" lon="7.10885">
        <ele>1251</ele>
        <time>2013-11-11T14:23:04Z</time>
      </trkpt>
      <trkpt lat="47.91092" lon="7.10879">
        <ele>1251.3</ele>
        <time>2013-11-11T14:23:06Z</time>
      </trkpt>
      <trkpt lat="47.91093" lon="7.10874">
        <ele>1251.4</ele>
        <time>2013-11-11T14:23:08Z</time>
      </trkpt>
      <trkpt lat="47.91093" lon="7.10868">
        <ele>1251.6</ele>
        <time>2013-11-11T14:23:10Z</time>
      </trkpt>
      <trkpt lat="47.91095" lon="7.10864">
        <ele>1251.3</ele>
        <time>2013-11-11T14:23:14Z</time>
      </trkpt>
      <trkpt lat="47.91099" lon="7.1086">
        <ele>1250.5</ele>
        <time>2013-11-11T14:23:18Z</time>
      </trkpt>
      <trkpt lat="47.91102" lon="7.10855">
        <ele>1249.9</ele>
        <time>2013-11-11T14:23:20Z</time>
      </trkpt>
      <trkpt lat="47.91105" lon="7.10849">
        <ele>1249.3</ele>
        <time>2013-11-11T14:23:22Z</time>
      </trkpt>
      <trkpt lat="47.91106" lon="7.10846">
        <ele>1249.3</ele>
        <time>2013-11-11T14:23:23Z</time>
      </trkpt>
      <trkpt lat="47.91108" lon="7.10839">
        <ele>1249.2</ele>
        <time>2013-11-11T14:23:25Z</time>
      </trkpt>
      <trkpt lat="47.9111" lon="7.10833">
        <ele>1248.9</ele>
        <time>2013-11-11T14:23:27Z</time>
      </trkpt>
      <trkpt lat="47.9111" lon="7.10827">
        <ele>1249.4</ele>
        <time>2013-11-11T14:23:29Z</time>
      </trkpt>
      <trkpt lat="47.91108" lon="7.10823">
        <ele>1250.4</ele>
        <time>2013-11-11T14:23:31Z</time>
      </trkpt>
      <trkpt lat="47.91107" lon="7.10819">
        <ele>1251.2</ele>
        <time>2013-11-11T14:23:35Z</time>
      </trkpt>
      <trkpt lat="47.91107" lon="7.10813">
        <ele>1251.9</ele>
        <time>2013-11-11T14:23:38Z</time>
      </trkpt>
      <trkpt lat="47.91108" lon="7.10806">
        <ele>1252.1</ele>
        <time>2013-11-11T14:23:40Z</time>
      </trkpt>
      <trkpt lat="47.9111" lon="7.108">
        <ele>1252.1</ele>
        <time>2013-11-11T14:23:42Z</time>
      </trkpt>
      <trkpt lat="47.9111" lon="7.10793">
        <ele>1252.5</ele>
        <time>2013-11-11T14:23:44Z</time>
      </trkpt>
      <trkpt lat="47.91111" lon="7.10787">
        <ele>1253</ele>
        <time>2013-11-11T14:23:46Z</time>
      </trkpt>
      <trkpt lat="47.91112" lon="7.10782">
        <ele>1253.6</ele>
        <time>2013-11-11T14:23:48Z</time>
      </trkpt>
      <trkpt lat="47.91112" lon="7.10778">
        <ele>1254.1</ele>
        <time>2013-11-11T14:23:50Z</time>
      </trkpt>
      <trkpt lat="47.91112" lon="7.10772">
        <ele>1254.8</ele>
        <time>2013-11-11T14:23:53Z</time>
      </trkpt>
      <trkpt lat="47.91114" lon="7.10767">
        <ele>1255</ele>
        <time>2013-11-11T14:23:55Z</time>
      </trkpt>
      <trkpt lat="47.91115" lon="7.10763">
        <ele>1255.3</ele>
        <time>2013-11-11T14:23:57Z</time>
      </trkpt>
      <trkpt lat="47.91117" lon="7.10758">
        <ele>1255.6</ele>
        <time>2013-11-11T14:23:59Z</time>
      </trkpt>
      <trkpt lat="47.91119" lon="7.10753">
        <ele>1255.9</ele>
        <time>2013-11-11T14:24:01Z</time>
      </trkpt>
      <trkpt lat="47.9112" lon="7.10748">
        <ele>1256.3</ele>
        <time>2013-11-11T14:24:03Z</time>
      </trkpt>
      <trkpt lat="47.91121" lon="7.10744">
        <ele>1256.4</ele>
        <time>2013-11-11T14:24:05Z</time>
      </trkpt>
      <trkpt lat="47.91123" lon="7.1074">
        <ele>1256.5</ele>
        <time>2013-11-11T14:24:07Z</time>
      </trkpt>
      <trkpt lat="47.91124" lon="7.10736">
        <ele>1257</ele>
        <time>2013-11-11T14:24:09Z</time>
      </trkpt>
      <trkpt lat="47.91125" lon="7.10731">
        <ele>1257.6</ele>
        <time>2013-11-11T14:24:11Z</time>
      </trkpt>
      <trkpt lat="47.91124" lon="7.10725">
        <ele>1258.8</ele>
        <time>2013-11-11T14:24:13Z</time>
      </trkpt>
      <trkpt lat="47.91123" lon="7.10718">
        <ele>1260.1</ele>
        <time>2013-11-11T14:24:15Z</time>
      </trkpt>
      <trkpt lat="47.91123" lon="7.10711">
        <ele>1261</ele>
        <time>2013-11-11T14:24:17Z</time>
      </trkpt>
      <trkpt lat="47.91125" lon="7.10706">
        <ele>1261.3</ele>
        <time>2013-11-11T14:24:19Z</time>
      </trkpt>
      <trkpt lat="47.91128" lon="7.10701">
        <ele>1261.1</ele>
        <time>2013-11-11T14:24:21Z</time>
      </trkpt>
      <trkpt lat="47.91131" lon="7.10699">
        <ele>1260.7</ele>
        <time>2013-11-11T14:24:23Z</time>
      </trkpt>
      <trkpt lat="47.91133" lon="7.10698">
        <ele>1260.1</ele>
        <time>2013-11-11T14:24:25Z</time>
      </trkpt>
      <trkpt lat="47.91136" lon="7.10695">
        <ele>1259.7</ele>
        <time>2013-11-11T14:24:28Z</time>
      </trkpt>
      <trkpt lat="47.91139" lon="7.10691">
        <ele>1259.5</ele>
        <time>2013-11-11T14:24:31Z</time>
      </trkpt>
      <trkpt lat="47.91141" lon="7.10688">
        <ele>1259.4</ele>
        <time>2013-11-11T14:24:34Z</time>
      </trkpt>
      <trkpt lat="47.91143" lon="7.10686">
        <ele>1259</ele>
        <time>2013-11-11T14:24:37Z</time>
      </trkpt>
      <trkpt lat="47.91146" lon="7.10684">
        <ele>1258.4</ele>
        <time>2013-11-11T14:24:40Z</time>
      </trkpt>
      <trkpt lat="47.91147" lon="7.1068">
        <ele>1258.6</ele>
        <time>2013-11-11T14:24:43Z</time>
      </trkpt>
      <trkpt lat="47.91148" lon="7.10677">
        <ele>1258.6</ele>
        <time>2013-11-11T14:24:45Z</time>
      </trkpt>
      <trkpt lat="47.9115" lon="7.10673">
        <ele>1258.7</ele>
        <time>2013-11-11T14:24:47Z</time>
      </trkpt>
      <trkpt lat="47.91151" lon="7.10669">
        <ele>1259</ele>
        <time>2013-11-11T14:24:49Z</time>
      </trkpt>
      <trkpt lat="47.91153" lon="7.10664">
        <ele>1258.9</ele>
        <time>2013-11-11T14:24:52Z</time>
      </trkpt>
      <trkpt lat="47.91155" lon="7.1066">
        <ele>1258.9</ele>
        <time>2013-11-11T14:24:55Z</time>
      </trkpt>
      <trkpt lat="47.91156" lon="7.10656">
        <ele>1259.1</ele>
        <time>2013-11-11T14:24:58Z</time>
      </trkpt>
      <trkpt lat="47.91156" lon="7.10652">
        <ele>1259.7</ele>
        <time>2013-11-11T14:25:02Z</time>
      </trkpt>
      <trkpt lat="47.91155" lon="7.10647">
        <ele>1260.4</ele>
        <time>2013-11-11T14:25:08Z</time>
      </trkpt>
      <trkpt lat="47.91157" lon="7.10643">
        <ele>1260.5</ele>
        <time>2013-11-11T14:25:12Z</time>
      </trkpt>
      <trkpt lat="47.91158" lon="7.10639">
        <ele>1260.7</ele>
        <time>2013-11-11T14:25:17Z</time>
      </trkpt>
      <trkpt lat="47.91158" lon="7.10634">
        <ele>1261.3</ele>
        <time>2013-11-11T14:25:21Z</time>
      </trkpt>
      <trkpt lat="47.91159" lon="7.10629">
        <ele>1261.6</ele>
        <time>2013-11-11T14:25:24Z</time>
      </trkpt>
      <trkpt lat="47.91158" lon="7.10622">
        <ele>1262.4</ele>
        <time>2013-11-11T14:25:29Z</time>
      </trkpt>
      <trkpt lat="47.91158" lon="7.10617">
        <ele>1262.2</ele>
        <time>2013-11-11T14:25:32Z</time>
      </trkpt>
      <trkpt lat="47.91159" lon="7.10613">
        <ele>1261.9</ele>
        <time>2013-11-11T14:25:37Z</time>
      </trkpt>
      <trkpt lat="47.91162" lon="7.10609">
        <ele>1261.2</ele>
        <time>2013-11-11T14:25:40Z</time>
      </trkpt>
      <trkpt lat="47.91165" lon="7.10606">
        <ele>1260.4</ele>
        <time>2013-11-11T14:25:44Z</time>
      </trkpt>
      <trkpt lat="47.91166" lon="7.10599">
        <ele>1260.1</ele>
        <time>2013-11-11T14:25:49Z</time>
      </trkpt>
      <trkpt lat="47.91166" lon="7.10595">
        <ele>1260.1</ele>
        <time>2013-11-11T14:25:52Z</time>
      </trkpt>
      <trkpt lat="47.91167" lon="7.10588">
        <ele>1260</ele>
        <time>2013-11-11T14:25:55Z</time>
      </trkpt>
      <trkpt lat="47.91168" lon="7.10584">
        <ele>1259.6</ele>
        <time>2013-11-11T14:25:57Z</time>
      </trkpt>
      <trkpt lat="47.9117" lon="7.10581">
        <ele>1259.2</ele>
        <time>2013-11-11T14:26:00Z</time>
      </trkpt>
      <trkpt lat="47.9117" lon="7.10576">
        <ele>1259.3</ele>
        <time>2013-11-11T14:26:07Z</time>
      </trkpt>
      <trkpt lat="47.91172" lon="7.10572">
        <ele>1258.9</ele>
        <time>2013-11-11T14:26:12Z</time>
      </trkpt>
      <trkpt lat="47.91171" lon="7.10568">
        <ele>1259.1</ele>
        <time>2013-11-11T14:26:17Z</time>
      </trkpt>
      <trkpt lat="47.91169" lon="7.10565">
        <ele>1259.6</ele>
        <time>2013-11-11T14:26:20Z</time>
      </trkpt>
      <trkpt lat="47.91166" lon="7.10561">
        <ele>1260.1</ele>
        <time>2013-11-11T14:26:23Z</time>
      </trkpt>
      <trkpt lat="47.91163" lon="7.10558">
        <ele>1260.6</ele>
        <time>2013-11-11T14:26:26Z</time>
      </trkpt>
      <trkpt lat="47.91161" lon="7.10555">
        <ele>1261.1</ele>
        <time>2013-11-11T14:26:29Z</time>
      </trkpt>
      <trkpt lat="47.91158" lon="7.10553">
        <ele>1261.6</ele>
        <time>2013-11-11T14:26:49Z</time>
      </trkpt>
      <trkpt lat="47.9116" lon="7.10555">
        <ele>1261.2</ele>
        <time>2013-11-11T14:27:00Z</time>
      </trkpt>
      <trkpt lat="47.91163" lon="7.10553">
        <ele>1260.8</ele>
        <time>2013-11-11T14:27:03Z</time>
      </trkpt>
      <trkpt lat="47.91164" lon="7.10548">
        <ele>1260.4</ele>
        <time>2013-11-11T14:27:17Z</time>
      </trkpt>
      <trkpt lat="47.91165" lon="7.10544">
        <ele>1260.4</ele>
        <time>2013-11-11T14:27:31Z</time>
      </trkpt>
      <trkpt lat="47.91162" lon="7.10542">
        <ele>1260.8</ele>
        <time>2013-11-11T14:27:37Z</time>
      </trkpt>
      <trkpt lat="47.9116" lon="7.1055">
        <ele>1261.1</ele>
        <time>2013-11-11T14:27:46Z</time>
      </trkpt>
      <trkpt lat="47.91159" lon="7.10553">
        <ele>1261.4</ele>
        <time>2013-11-11T14:27:49Z</time>
      </trkpt>
      <trkpt lat="47.91159" lon="7.10559">
        <ele>1261.4</ele>
        <time>2013-11-11T14:27:54Z</time>
      </trkpt>
      <trkpt lat="47.91161" lon="7.10563">
        <ele>1261.1</ele>
        <time>2013-11-11T14:27:58Z</time>
      </trkpt>
      <trkpt lat="47.91159" lon="7.10562">
        <ele>1261.6</ele>
        <time>2013-11-11T14:28:04Z</time>
      </trkpt>
      <trkpt lat="47.91157" lon="7.10558">
        <ele>1261.9</ele>
        <time>2013-11-11T14:28:06Z</time>
      </trkpt>
      <trkpt lat="47.91154" lon="7.10554">
        <ele>1262.3</ele>
        <time>2013-11-11T14:28:09Z</time>
      </trkpt>
      <trkpt lat="47.91152" lon="7.10551">
        <ele>1262.7</ele>
        <time>2013-11-11T14:28:12Z</time>
      </trkpt>
      <trkpt lat="47.91149" lon="7.10547">
        <ele>1263</ele>
        <time>2013-11-11T14:28:15Z</time>
      </trkpt>
      <trkpt lat="47.91147" lon="7.10543">
        <ele>1263.3</ele>
        <time>2013-11-11T14:28:19Z</time>
      </trkpt>
      <trkpt lat="47.91144" lon="7.1054">
        <ele>1263.6</ele>
        <time>2013-11-11T14:28:22Z</time>
      </trkpt>
      <trkpt lat="47.91141" lon="7.10537">
        <ele>1263.9</ele>
        <time>2013-11-11T14:28:25Z</time>
      </trkpt>
      <trkpt lat="47.91138" lon="7.10535">
        <ele>1264.1</ele>
        <time>2013-11-11T14:28:27Z</time>
      </trkpt>
      <trkpt lat="47.91136" lon="7.10532">
        <ele>1264.3</ele>
        <time>2013-11-11T14:28:31Z</time>
      </trkpt>
      <trkpt lat="47.91133" lon="7.1053">
        <ele>1264.4</ele>
        <time>2013-11-11T14:28:38Z</time>
      </trkpt>
      <trkpt lat="47.9113" lon="7.10527">
        <ele>1264.6</ele>
        <time>2013-11-11T14:28:43Z</time>
      </trkpt>
      <trkpt lat="47.91128" lon="7.10525">
        <ele>1264.6</ele>
        <time>2013-11-11T14:28:46Z</time>
      </trkpt>
      <trkpt lat="47.91127" lon="7.1052">
        <ele>1264.4</ele>
        <time>2013-11-11T14:28:50Z</time>
      </trkpt>
      <trkpt lat="47.91129" lon="7.10517">
        <ele>1263.7</ele>
        <time>2013-11-11T14:28:52Z</time>
      </trkpt>
      <trkpt lat="47.91125" lon="7.10518">
        <ele>1264.4</ele>
        <time>2013-11-11T14:28:58Z</time>
      </trkpt>
      <trkpt lat="47.91122" lon="7.10517">
        <ele>1264.8</ele>
        <time>2013-11-11T14:29:00Z</time>
      </trkpt>
      <trkpt lat="47.91125" lon="7.10516">
        <ele>1264.2</ele>
        <time>2013-11-11T14:29:08Z</time>
      </trkpt>
      <trkpt lat="47.91123" lon="7.10519">
        <ele>1265</ele>
        <time>2013-11-11T14:29:24Z</time>
      </trkpt>
      <trkpt lat="47.91119" lon="7.1052">
        <ele>1265.7</ele>
        <time>2013-11-11T14:29:26Z</time>
      </trkpt>
      <trkpt lat="47.91115" lon="7.10519">
        <ele>1266.3</ele>
        <time>2013-11-11T14:29:28Z</time>
      </trkpt>
      <trkpt lat="47.91111" lon="7.10518">
        <ele>1266.9</ele>
        <time>2013-11-11T14:29:30Z</time>
      </trkpt>
      <trkpt lat="47.91106" lon="7.10515">
        <ele>1267.4</ele>
        <time>2013-11-11T14:29:32Z</time>
      </trkpt>
      <trkpt lat="47.91103" lon="7.10513">
        <ele>1267.7</ele>
        <time>2013-11-11T14:29:34Z</time>
      </trkpt>
      <trkpt lat="47.911" lon="7.10511">
        <ele>1268</ele>
        <time>2013-11-11T14:29:36Z</time>
      </trkpt>
      <trkpt lat="47.91099" lon="7.10516">
        <ele>1268.8</ele>
        <time>2013-11-11T14:30:10Z</time>
      </trkpt>
      <trkpt lat="47.91097" lon="7.10519">
        <ele>1269.5</ele>
        <time>2013-11-11T14:30:12Z</time>
      </trkpt>
      <trkpt lat="47.91093" lon="7.10517">
        <ele>1269.9</ele>
        <time>2013-11-11T14:30:15Z</time>
      </trkpt>
      <trkpt lat="47.91091" lon="7.10516">
        <ele>1270.2</ele>
        <time>2013-11-11T14:30:17Z</time>
      </trkpt>
      <trkpt lat="47.91087" lon="7.10513">
        <ele>1270.3</ele>
        <time>2013-11-11T14:30:19Z</time>
      </trkpt>
      <trkpt lat="47.91085" lon="7.10509">
        <ele>1270.3</ele>
        <time>2013-11-11T14:30:21Z</time>
      </trkpt>
      <trkpt lat="47.91082" lon="7.10506">
        <ele>1270.3</ele>
        <time>2013-11-11T14:30:23Z</time>
      </trkpt>
      <trkpt lat="47.91079" lon="7.10502">
        <ele>1270.2</ele>
        <time>2013-11-11T14:30:25Z</time>
      </trkpt>
      <trkpt lat="47.91078" lon="7.10498">
        <ele>1270</ele>
        <time>2013-11-11T14:30:28Z</time>
      </trkpt>
      <trkpt lat="47.91075" lon="7.10495">
        <ele>1269.8</ele>
        <time>2013-11-11T14:30:31Z</time>
      </trkpt>
      <trkpt lat="47.91073" lon="7.10493">
        <ele>1270</ele>
        <time>2013-11-11T14:30:34Z</time>
      </trkpt>
      <trkpt lat="47.91069" lon="7.10491">
        <ele>1270.2</ele>
        <time>2013-11-11T14:30:37Z</time>
      </trkpt>
      <trkpt lat="47.91066" lon="7.10489">
        <ele>1270.4</ele>
        <time>2013-11-11T14:30:39Z</time>
      </trkpt>
      <trkpt lat="47.91063" lon="7.10488">
        <ele>1270.8</ele>
        <time>2013-11-11T14:30:42Z</time>
      </trkpt>
      <trkpt lat="47.91061" lon="7.10491">
        <ele>1271.5</ele>
        <time>2013-11-11T14:30:45Z</time>
      </trkpt>
      <trkpt lat="47.91058" lon="7.10495">
        <ele>1272.6</ele>
        <time>2013-11-11T14:30:48Z</time>
      </trkpt>
      <trkpt lat="47.91055" lon="7.10496">
        <ele>1273.2</ele>
        <time>2013-11-11T14:30:50Z</time>
      </trkpt>
      <trkpt lat="47.91052" lon="7.10495">
        <ele>1273.6</ele>
        <time>2013-11-11T14:30:53Z</time>
      </trkpt>
      <trkpt lat="47.91049" lon="7.10493">
        <ele>1273.7</ele>
        <time>2013-11-11T14:30:56Z</time>
      </trkpt>
      <trkpt lat="47.91047" lon="7.10491">
        <ele>1273.7</ele>
        <time>2013-11-11T14:30:59Z</time>
      </trkpt>
      <trkpt lat="47.91044" lon="7.10489">
        <ele>1273.7</ele>
        <time>2013-11-11T14:31:03Z</time>
      </trkpt>
      <trkpt lat="47.91042" lon="7.10489">
        <ele>1274.1</ele>
        <time>2013-11-11T14:31:07Z</time>
      </trkpt>
      <trkpt lat="47.91039" lon="7.10486">
        <ele>1274.1</ele>
        <time>2013-11-11T14:31:10Z</time>
      </trkpt>
      <trkpt lat="47.91035" lon="7.10486">
        <ele>1274.6</ele>
        <time>2013-11-11T14:31:13Z</time>
      </trkpt>
      <trkpt lat="47.91032" lon="7.10487">
        <ele>1275.4</ele>
        <time>2013-11-11T14:31:16Z</time>
      </trkpt>
      <trkpt lat="47.91029" lon="7.10489">
        <ele>1276</ele>
        <time>2013-11-11T14:31:19Z</time>
      </trkpt>
      <trkpt lat="47.91026" lon="7.1049">
        <ele>1276.6</ele>
        <time>2013-11-11T14:31:23Z</time>
      </trkpt>
      <trkpt lat="47.91024" lon="7.10488">
        <ele>1276.7</ele>
        <time>2013-11-11T14:31:26Z</time>
      </trkpt>
      <trkpt lat="47.9102" lon="7.10487">
        <ele>1277.1</ele>
        <time>2013-11-11T14:31:29Z</time>
      </trkpt>
      <trkpt lat="47.91017" lon="7.10486">
        <ele>1277.4</ele>
        <time>2013-11-11T14:31:32Z</time>
      </trkpt>
      <trkpt lat="47.91014" lon="7.10484">
        <ele>1277.6</ele>
        <time>2013-11-11T14:31:35Z</time>
      </trkpt>
      <trkpt lat="47.91011" lon="7.10482">
        <ele>1277.7</ele>
        <time>2013-11-11T14:31:38Z</time>
      </trkpt>
      <trkpt lat="47.91009" lon="7.1048">
        <ele>1277.6</ele>
        <time>2013-11-11T14:31:42Z</time>
      </trkpt>
      <trkpt lat="47.91006" lon="7.1048">
        <ele>1278.2</ele>
        <time>2013-11-11T14:31:45Z</time>
      </trkpt>
      <trkpt lat="47.91003" lon="7.10478">
        <ele>1278.1</ele>
        <time>2013-11-11T14:31:47Z</time>
      </trkpt>
      <trkpt lat="47.91003" lon="7.10473">
        <ele>1277.5</ele>
        <time>2013-11-11T14:31:50Z</time>
      </trkpt>
      <trkpt lat="47.90999" lon="7.10473">
        <ele>1277.9</ele>
        <time>2013-11-11T14:31:55Z</time>
      </trkpt>
      <trkpt lat="47.90996" lon="7.10473">
        <ele>1278.5</ele>
        <time>2013-11-11T14:31:58Z</time>
      </trkpt>
      <trkpt lat="47.90993" lon="7.10475">
        <ele>1279.3</ele>
        <time>2013-11-11T14:32:00Z</time>
      </trkpt>
      <trkpt lat="47.9099" lon="7.10476">
        <ele>1279.9</ele>
        <time>2013-11-11T14:32:02Z</time>
      </trkpt>
      <trkpt lat="47.90986" lon="7.10476">
        <ele>1280.4</ele>
        <time>2013-11-11T14:32:05Z</time>
      </trkpt>
      <trkpt lat="47.90984" lon="7.10472">
        <ele>1280.2</ele>
        <time>2013-11-11T14:32:08Z</time>
      </trkpt>
      <trkpt lat="47.9098" lon="7.10471">
        <ele>1280.6</ele>
        <time>2013-11-11T14:32:14Z</time>
      </trkpt>
      <trkpt lat="47.90978" lon="7.10473">
        <ele>1281.4</ele>
        <time>2013-11-11T14:32:17Z</time>
      </trkpt>
      <trkpt lat="47.90975" lon="7.10477">
        <ele>1282.4</ele>
        <time>2013-11-11T14:32:20Z</time>
      </trkpt>
      <trkpt lat="47.90972" lon="7.10478">
        <ele>1282.9</ele>
        <time>2013-11-11T14:32:23Z</time>
      </trkpt>
      <trkpt lat="47.90969" lon="7.10479">
        <ele>1283.6</ele>
        <time>2013-11-11T14:32:26Z</time>
      </trkpt>
      <trkpt lat="47.90966" lon="7.10481">
        <ele>1284.4</ele>
        <time>2013-11-11T14:32:30Z</time>
      </trkpt>
      <trkpt lat="47.90963" lon="7.10481">
        <ele>1284.8</ele>
        <time>2013-11-11T14:32:36Z</time>
      </trkpt>
      <trkpt lat="47.9096" lon="7.1048">
        <ele>1285.1</ele>
        <time>2013-11-11T14:32:39Z</time>
      </trkpt>
      <trkpt lat="47.90957" lon="7.10479">
        <ele>1285.6</ele>
        <time>2013-11-11T14:32:42Z</time>
      </trkpt>
      <trkpt lat="47.90954" lon="7.1048">
        <ele>1286.1</ele>
        <time>2013-11-11T14:32:45Z</time>
      </trkpt>
      <trkpt lat="47.9095" lon="7.10482">
        <ele>1287.1</ele>
        <time>2013-11-11T14:32:48Z</time>
      </trkpt>
      <trkpt lat="47.90947" lon="7.10483">
        <ele>1287.8</ele>
        <time>2013-11-11T14:32:51Z</time>
      </trkpt>
      <trkpt lat="47.90944" lon="7.10482">
        <ele>1288.2</ele>
        <time>2013-11-11T14:32:54Z</time>
      </trkpt>
      <trkpt lat="47.90941" lon="7.10482">
        <ele>1288.7</ele>
        <time>2013-11-11T14:32:58Z</time>
      </trkpt>
      <trkpt lat="47.90938" lon="7.10484">
        <ele>1289.5</ele>
        <time>2013-11-11T14:33:02Z</time>
      </trkpt>
      <trkpt lat="47.90935" lon="7.10486">
        <ele>1290.3</ele>
        <time>2013-11-11T14:33:06Z</time>
      </trkpt>
      <trkpt lat="47.90932" lon="7.10485">
        <ele>1290.7</ele>
        <time>2013-11-11T14:33:10Z</time>
      </trkpt>
      <trkpt lat="47.9093" lon="7.10483">
        <ele>1290.8</ele>
        <time>2013-11-11T14:33:14Z</time>
      </trkpt>
      <trkpt lat="47.90927" lon="7.10482">
        <ele>1291.1</ele>
        <time>2013-11-11T14:33:17Z</time>
      </trkpt>
      <trkpt lat="47.90923" lon="7.10482">
        <ele>1291.6</ele>
        <time>2013-11-11T14:33:21Z</time>
      </trkpt>
      <trkpt lat="47.90921" lon="7.10483">
        <ele>1292.3</ele>
        <time>2013-11-11T14:33:24Z</time>
      </trkpt>
      <trkpt lat="47.90917" lon="7.10483">
        <ele>1292.9</ele>
        <time>2013-11-11T14:33:27Z</time>
      </trkpt>
      <trkpt lat="47.90914" lon="7.10483">
        <ele>1293.5</ele>
        <time>2013-11-11T14:33:30Z</time>
      </trkpt>
      <trkpt lat="47.90911" lon="7.10482">
        <ele>1293.9</ele>
        <time>2013-11-11T14:33:33Z</time>
      </trkpt>
      <trkpt lat="47.90908" lon="7.10481">
        <ele>1294.3</ele>
        <time>2013-11-11T14:33:36Z</time>
      </trkpt>
      <trkpt lat="47.90905" lon="7.10479">
        <ele>1294.4</ele>
        <time>2013-11-11T14:33:38Z</time>
      </trkpt>
      <trkpt lat="47.90903" lon="7.10476">
        <ele>1294.2</ele>
        <time>2013-11-11T14:33:40Z</time>
      </trkpt>
      <trkpt lat="47.90899" lon="7.10476">
        <ele>1294.8</ele>
        <time>2013-11-11T14:33:44Z</time>
      </trkpt>
      <trkpt lat="47.90896" lon="7.10478">
        <ele>1295.7</ele>
        <time>2013-11-11T14:33:48Z</time>
      </trkpt>
      <trkpt lat="47.90894" lon="7.10481">
        <ele>1296.6</ele>
        <time>2013-11-11T14:33:52Z</time>
      </trkpt>
      <trkpt lat="47.90892" lon="7.10484">
        <ele>1297.4</ele>
        <time>2013-11-11T14:33:54Z</time>
      </trkpt>
      <trkpt lat="47.90888" lon="7.10485">
        <ele>1298.3</ele>
        <time>2013-11-11T14:33:57Z</time>
      </trkpt>
      <trkpt lat="47.90885" lon="7.10486">
        <ele>1298.9</ele>
        <time>2013-11-11T14:34:00Z</time>
      </trkpt>
      <trkpt lat="47.90881" lon="7.10486">
        <ele>1299.5</ele>
        <time>2013-11-11T14:34:03Z</time>
      </trkpt>
      <trkpt lat="47.90878" lon="7.10487">
        <ele>1300.3</ele>
        <time>2013-11-11T14:34:06Z</time>
      </trkpt>
      <trkpt lat="47.90874" lon="7.10488">
        <ele>1301</ele>
        <time>2013-11-11T14:34:10Z</time>
      </trkpt>
      <trkpt lat="47.90871" lon="7.10488">
        <ele>1301.5</ele>
        <time>2013-11-11T14:34:13Z</time>
      </trkpt>
      <trkpt lat="47.90868" lon="7.10486">
        <ele>1301.7</ele>
        <time>2013-11-11T14:34:16Z</time>
      </trkpt>
      <trkpt lat="47.90865" lon="7.10485">
        <ele>1302</ele>
        <time>2013-11-11T14:34:19Z</time>
      </trkpt>
      <trkpt lat="47.90861" lon="7.10484">
        <ele>1302.5</ele>
        <time>2013-11-11T14:34:22Z</time>
      </trkpt>
      <trkpt lat="47.90857" lon="7.10484">
        <ele>1303.1</ele>
        <time>2013-11-11T14:34:25Z</time>
      </trkpt>
      <trkpt lat="47.90854" lon="7.10483">
        <ele>1303.5</ele>
        <time>2013-11-11T14:34:28Z</time>
      </trkpt>
      <trkpt lat="47.9085" lon="7.10481">
        <ele>1303.7</ele>
        <time>2013-11-11T14:34:31Z</time>
      </trkpt>
      <trkpt lat="47.90847" lon="7.10478">
        <ele>1303.7</ele>
        <time>2013-11-11T14:34:34Z</time>
      </trkpt>
      <trkpt lat="47.90845" lon="7.10476">
        <ele>1303.8</ele>
        <time>2013-11-11T14:34:37Z</time>
      </trkpt>
      <trkpt lat="47.90842" lon="7.10473">
        <ele>1303.9</ele>
        <time>2013-11-11T14:34:40Z</time>
      </trkpt>
      <trkpt lat="47.90839" lon="7.10474">
        <ele>1304.4</ele>
        <time>2013-11-11T14:34:43Z</time>
      </trkpt>
      <trkpt lat="47.90835" lon="7.10471">
        <ele>1304.5</ele>
        <time>2013-11-11T14:34:46Z</time>
      </trkpt>
      <trkpt lat="47.90833" lon="7.10469">
        <ele>1304.6</ele>
        <time>2013-11-11T14:34:49Z</time>
      </trkpt>
      <trkpt lat="47.9083" lon="7.10467">
        <ele>1304.8</ele>
        <time>2013-11-11T14:34:52Z</time>
      </trkpt>
      <trkpt lat="47.90826" lon="7.10466">
        <ele>1305.2</ele>
        <time>2013-11-11T14:34:55Z</time>
      </trkpt>
      <trkpt lat="47.90823" lon="7.10465">
        <ele>1305.7</ele>
        <time>2013-11-11T14:34:58Z</time>
      </trkpt>
      <trkpt lat="47.90821" lon="7.10469">
        <ele>1306.5</ele>
        <time>2013-11-11T14:35:03Z</time>
      </trkpt>
      <trkpt lat="47.90818" lon="7.1047">
        <ele>1307.2</ele>
        <time>2013-11-11T14:35:06Z</time>
      </trkpt>
      <trkpt lat="47.90814" lon="7.10468">
        <ele>1307.5</ele>
        <time>2013-11-11T14:35:08Z</time>
      </trkpt>
      <trkpt lat="47.90811" lon="7.10466">
        <ele>1307.9</ele>
        <time>2013-11-11T14:35:10Z</time>
      </trkpt>
      <trkpt lat="47.90808" lon="7.10465">
        <ele>1308.2</ele>
        <time>2013-11-11T14:35:12Z</time>
      </trkpt>
      <trkpt lat="47.90805" lon="7.10464">
        <ele>1308.5</ele>
        <time>2013-11-11T14:35:15Z</time>
      </trkpt>
      <trkpt lat="47.90801" lon="7.10462">
        <ele>1308.9</ele>
        <time>2013-11-11T14:35:18Z</time>
      </trkpt>
      <trkpt lat="47.90798" lon="7.10462">
        <ele>1309.5</ele>
        <time>2013-11-11T14:35:21Z</time>
      </trkpt>
      <trkpt lat="47.90794" lon="7.10461">
        <ele>1309.9</ele>
        <time>2013-11-11T14:35:23Z</time>
      </trkpt>
      <trkpt lat="47.90791" lon="7.10459">
        <ele>1310.2</ele>
        <time>2013-11-11T14:35:25Z</time>
      </trkpt>
      <trkpt lat="47.90788" lon="7.10458">
        <ele>1310.2</ele>
        <time>2013-11-11T14:35:27Z</time>
      </trkpt>
      <trkpt lat="47.90785" lon="7.10457">
        <ele>1310.3</ele>
        <time>2013-11-11T14:35:30Z</time>
      </trkpt>
      <trkpt lat="47.90782" lon="7.10457">
        <ele>1310.7</ele>
        <time>2013-11-11T14:35:34Z</time>
      </trkpt>
      <trkpt lat="47.90779" lon="7.10458">
        <ele>1311.1</ele>
        <time>2013-11-11T14:35:37Z</time>
      </trkpt>
      <trkpt lat="47.90776" lon="7.10458">
        <ele>1311.4</ele>
        <time>2013-11-11T14:35:40Z</time>
      </trkpt>
      <trkpt lat="47.90774" lon="7.10455">
        <ele>1311.2</ele>
        <time>2013-11-11T14:35:44Z</time>
      </trkpt>
      <trkpt lat="47.90771" lon="7.10452">
        <ele>1310.9</ele>
        <time>2013-11-11T14:35:47Z</time>
      </trkpt>
      <trkpt lat="47.90768" lon="7.10448">
        <ele>1310.6</ele>
        <time>2013-11-11T14:35:50Z</time>
      </trkpt>
      <trkpt lat="47.90765" lon="7.10446">
        <ele>1310.5</ele>
        <time>2013-11-11T14:35:54Z</time>
      </trkpt>
      <trkpt lat="47.90763" lon="7.10445">
        <ele>1310.6</ele>
        <time>2013-11-11T14:35:57Z</time>
      </trkpt>
      <trkpt lat="47.90759" lon="7.10442">
        <ele>1310.6</ele>
        <time>2013-11-11T14:36:00Z</time>
      </trkpt>
      <trkpt lat="47.90756" lon="7.10441">
        <ele>1310.7</ele>
        <time>2013-11-11T14:36:02Z</time>
      </trkpt>
      <trkpt lat="47.90754" lon="7.10439">
        <ele>1310.7</ele>
        <time>2013-11-11T14:36:04Z</time>
      </trkpt>
      <trkpt lat="47.90751" lon="7.10437">
        <ele>1310.8</ele>
        <time>2013-11-11T14:36:07Z</time>
      </trkpt>
      <trkpt lat="47.90748" lon="7.10436">
        <ele>1310.9</ele>
        <time>2013-11-11T14:36:10Z</time>
      </trkpt>
      <trkpt lat="47.90745" lon="7.10435">
        <ele>1311.1</ele>
        <time>2013-11-11T14:36:14Z</time>
      </trkpt>
      <trkpt lat="47.90742" lon="7.10433">
        <ele>1311.1</ele>
        <time>2013-11-11T14:36:17Z</time>
      </trkpt>
      <trkpt lat="47.90739" lon="7.1043">
        <ele>1311.1</ele>
        <time>2013-11-11T14:36:20Z</time>
      </trkpt>
      <trkpt lat="47.90738" lon="7.10426">
        <ele>1310.7</ele>
        <time>2013-11-11T14:36:23Z</time>
      </trkpt>
      <trkpt lat="47.90737" lon="7.10422">
        <ele>1310.3</ele>
        <time>2013-11-11T14:36:26Z</time>
      </trkpt>
      <trkpt lat="47.90735" lon="7.10419">
        <ele>1310.2</ele>
        <time>2013-11-11T14:36:29Z</time>
      </trkpt>
      <trkpt lat="47.90731" lon="7.10418">
        <ele>1310.5</ele>
        <time>2013-11-11T14:36:33Z</time>
      </trkpt>
      <trkpt lat="47.90727" lon="7.10419">
        <ele>1311.1</ele>
        <time>2013-11-11T14:36:36Z</time>
      </trkpt>
      <trkpt lat="47.90724" lon="7.10419">
        <ele>1311.6</ele>
        <time>2013-11-11T14:36:38Z</time>
      </trkpt>
      <trkpt lat="47.90721" lon="7.1042">
        <ele>1312.1</ele>
        <time>2013-11-11T14:36:40Z</time>
      </trkpt>
      <trkpt lat="47.90718" lon="7.1042">
        <ele>1312.5</ele>
        <time>2013-11-11T14:36:43Z</time>
      </trkpt>
      <trkpt lat="47.90715" lon="7.10417">
        <ele>1312.6</ele>
        <time>2013-11-11T14:36:46Z</time>
      </trkpt>
      <trkpt lat="47.90713" lon="7.10413">
        <ele>1312.5</ele>
        <time>2013-11-11T14:36:48Z</time>
      </trkpt>
      <trkpt lat="47.9071" lon="7.1041">
        <ele>1312.5</ele>
        <time>2013-11-11T14:36:50Z</time>
      </trkpt>
      <trkpt lat="47.90708" lon="7.10408">
        <ele>1312.6</ele>
        <time>2013-11-11T14:36:53Z</time>
      </trkpt>
      <trkpt lat="47.90704" lon="7.10408">
        <ele>1313.1</ele>
        <time>2013-11-11T14:36:56Z</time>
      </trkpt>
      <trkpt lat="47.90701" lon="7.10408">
        <ele>1313.4</ele>
        <time>2013-11-11T14:36:58Z</time>
      </trkpt>
      <trkpt lat="47.90698" lon="7.10407">
        <ele>1313.7</ele>
        <time>2013-11-11T14:37:00Z</time>
      </trkpt>
      <trkpt lat="47.90695" lon="7.10407">
        <ele>1314.2</ele>
        <time>2013-11-11T14:37:03Z</time>
      </trkpt>
      <trkpt lat="47.90692" lon="7.10409">
        <ele>1314.7</ele>
        <time>2013-11-11T14:37:06Z</time>
      </trkpt>
      <trkpt lat="47.90689" lon="7.10409">
        <ele>1315.1</ele>
        <time>2013-11-11T14:37:09Z</time>
      </trkpt>
      <trkpt lat="47.90686" lon="7.10411">
        <ele>1315.6</ele>
        <time>2013-11-11T14:37:18Z</time>
      </trkpt>
      <trkpt lat="47.90683" lon="7.10411">
        <ele>1316</ele>
        <time>2013-11-11T14:37:31Z</time>
      </trkpt>
      <trkpt lat="47.9068" lon="7.1041">
        <ele>1316.2</ele>
        <time>2013-11-11T14:37:34Z</time>
      </trkpt>
      <trkpt lat="47.90678" lon="7.10408">
        <ele>1316.4</ele>
        <time>2013-11-11T14:37:40Z</time>
      </trkpt>
      <trkpt lat="47.90674" lon="7.10411">
        <ele>1317.1</ele>
        <time>2013-11-11T14:37:43Z</time>
      </trkpt>
      <trkpt lat="47.90671" lon="7.10413">
        <ele>1317.7</ele>
        <time>2013-11-11T14:37:45Z</time>
      </trkpt>
      <trkpt lat="47.90667" lon="7.10414">
        <ele>1318.3</ele>
        <time>2013-11-11T14:37:47Z</time>
      </trkpt>
      <trkpt lat="47.90664" lon="7.10416">
        <ele>1318.8</ele>
        <time>2013-11-11T14:37:49Z</time>
      </trkpt>
      <trkpt lat="47.9066" lon="7.10417">
        <ele>1319.4</ele>
        <time>2013-11-11T14:37:52Z</time>
      </trkpt>
      <trkpt lat="47.90658" lon="7.10419">
        <ele>1319.8</ele>
        <time>2013-11-11T14:37:54Z</time>
      </trkpt>
      <trkpt lat="47.90655" lon="7.10423">
        <ele>1320.4</ele>
        <time>2013-11-11T14:37:56Z</time>
      </trkpt>
      <trkpt lat="47.90651" lon="7.1042">
        <ele>1320.6</ele>
        <time>2013-11-11T14:37:59Z</time>
      </trkpt>
      <trkpt lat="47.90648" lon="7.10415">
        <ele>1320.7</ele>
        <time>2013-11-11T14:38:01Z</time>
      </trkpt>
      <trkpt lat="47.90645" lon="7.10411">
        <ele>1320.7</ele>
        <time>2013-11-11T14:38:03Z</time>
      </trkpt>
      <trkpt lat="47.90641" lon="7.10407">
        <ele>1320.9</ele>
        <time>2013-11-11T14:38:05Z</time>
      </trkpt>
      <trkpt lat="47.90637" lon="7.10405">
        <ele>1321.3</ele>
        <time>2013-11-11T14:38:07Z</time>
      </trkpt>
      <trkpt lat="47.90633" lon="7.10404">
        <ele>1321.7</ele>
        <time>2013-11-11T14:38:10Z</time>
      </trkpt>
      <trkpt lat="47.9063" lon="7.10404">
        <ele>1322.2</ele>
        <time>2013-11-11T14:38:12Z</time>
      </trkpt>
      <trkpt lat="47.90625" lon="7.10402">
        <ele>1322.6</ele>
        <time>2013-11-11T14:38:14Z</time>
      </trkpt>
      <trkpt lat="47.90621" lon="7.104">
        <ele>1323.1</ele>
        <time>2013-11-11T14:38:16Z</time>
      </trkpt>
      <trkpt lat="47.90618" lon="7.10399">
        <ele>1323.4</ele>
        <time>2013-11-11T14:38:17Z</time>
      </trkpt>
      <trkpt lat="47.90615" lon="7.10398">
        <ele>1323.7</ele>
        <time>2013-11-11T14:38:18Z</time>
      </trkpt>
      <trkpt lat="47.90612" lon="7.10397">
        <ele>1324.1</ele>
        <time>2013-11-11T14:38:19Z</time>
      </trkpt>
      <trkpt lat="47.90609" lon="7.10396">
        <ele>1324.4</ele>
        <time>2013-11-11T14:38:20Z</time>
      </trkpt>
      <trkpt lat="47.90604" lon="7.10392">
        <ele>1324.8</ele>
        <time>2013-11-11T14:38:22Z</time>
      </trkpt>
      <trkpt lat="47.906" lon="7.10389">
        <ele>1325.2</ele>
        <time>2013-11-11T14:38:24Z</time>
      </trkpt>
      <trkpt lat="47.90596" lon="7.10385">
        <ele>1325.6</ele>
        <time>2013-11-11T14:38:26Z</time>
      </trkpt>
      <trkpt lat="47.90592" lon="7.10381">
        <ele>1326</ele>
        <time>2013-11-11T14:38:28Z</time>
      </trkpt>
      <trkpt lat="47.90588" lon="7.10378">
        <ele>1326.5</ele>
        <time>2013-11-11T14:38:30Z</time>
      </trkpt>
      <trkpt lat="47.90583" lon="7.10375">
        <ele>1327</ele>
        <time>2013-11-11T14:38:32Z</time>
      </trkpt>
      <trkpt lat="47.90578" lon="7.10372">
        <ele>1327.6</ele>
        <time>2013-11-11T14:38:34Z</time>
      </trkpt>
      <trkpt lat="47.90574" lon="7.10369">
        <ele>1328.1</ele>
        <time>2013-11-11T14:38:36Z</time>
      </trkpt>
      <trkpt lat="47.9057" lon="7.10366">
        <ele>1328.5</ele>
        <time>2013-11-11T14:38:38Z</time>
      </trkpt>
      <trkpt lat="47.90565" lon="7.10362">
        <ele>1329</ele>
        <time>2013-11-11T14:38:40Z</time>
      </trkpt>
      <trkpt lat="47.90561" lon="7.10359">
        <ele>1329.6</ele>
        <time>2013-11-11T14:38:42Z</time>
      </trkpt>
      <trkpt lat="47.90557" lon="7.10356">
        <ele>1330.1</ele>
        <time>2013-11-11T14:38:44Z</time>
      </trkpt>
      <trkpt lat="47.90552" lon="7.10354">
        <ele>1330.8</ele>
        <time>2013-11-11T14:38:46Z</time>
      </trkpt>
      <trkpt lat="47.9055" lon="7.10352">
        <ele>1331.1</ele>
        <time>2013-11-11T14:38:47Z</time>
      </trkpt>
      <trkpt lat="47.90547" lon="7.1035">
        <ele>1331.5</ele>
        <time>2013-11-11T14:38:48Z</time>
      </trkpt>
      <trkpt lat="47.90545" lon="7.10348">
        <ele>1331.8</ele>
        <time>2013-11-11T14:38:49Z</time>
      </trkpt>
      <trkpt lat="47.90543" lon="7.10346">
        <ele>1332.1</ele>
        <time>2013-11-11T14:38:50Z</time>
      </trkpt>
      <trkpt lat="47.9054" lon="7.10343">
        <ele>1332.4</ele>
        <time>2013-11-11T14:38:51Z</time>
      </trkpt>
      <trkpt lat="47.90538" lon="7.1034">
        <ele>1332.6</ele>
        <time>2013-11-11T14:38:52Z</time>
      </trkpt>
      <trkpt lat="47.90536" lon="7.10337">
        <ele>1332.8</ele>
        <time>2013-11-11T14:38:53Z</time>
      </trkpt>
      <trkpt lat="47.90534" lon="7.10334">
        <ele>1332.9</ele>
        <time>2013-11-11T14:38:54Z</time>
      </trkpt>
      <trkpt lat="47.90532" lon="7.1033">
        <ele>1333.1</ele>
        <time>2013-11-11T14:38:55Z</time>
      </trkpt>
      <trkpt lat="47.9053" lon="7.10327">
        <ele>1333.4</ele>
        <time>2013-11-11T14:38:56Z</time>
      </trkpt>
      <trkpt lat="47.90526" lon="7.10321">
        <ele>1334</ele>
        <time>2013-11-11T14:38:58Z</time>
      </trkpt>
      <trkpt lat="47.90523" lon="7.10316">
        <ele>1334.5</ele>
        <time>2013-11-11T14:39:00Z</time>
      </trkpt>
      <trkpt lat="47.9052" lon="7.10311">
        <ele>1335.1</ele>
        <time>2013-11-11T14:39:02Z</time>
      </trkpt>
      <trkpt lat="47.90516" lon="7.10305">
        <ele>1335.8</ele>
        <time>2013-11-11T14:39:04Z</time>
      </trkpt>
      <trkpt lat="47.90513" lon="7.103">
        <ele>1336.5</ele>
        <time>2013-11-11T14:39:06Z</time>
      </trkpt>
      <trkpt lat="47.9051" lon="7.10295">
        <ele>1337.3</ele>
        <time>2013-11-11T14:39:08Z</time>
      </trkpt>
      <trkpt lat="47.90506" lon="7.10291">
        <ele>1338.3</ele>
        <time>2013-11-11T14:39:10Z</time>
      </trkpt>
      <trkpt lat="47.90503" lon="7.10291">
        <ele>1338.9</ele>
        <time>2013-11-11T14:39:11Z</time>
      </trkpt>
      <trkpt lat="47.90501" lon="7.1029">
        <ele>1339.5</ele>
        <time>2013-11-11T14:39:12Z</time>
      </trkpt>
      <trkpt lat="47.90496" lon="7.1029">
        <ele>1340.4</ele>
        <time>2013-11-11T14:39:14Z</time>
      </trkpt>
      <trkpt lat="47.90493" lon="7.10291">
        <ele>1341</ele>
        <time>2013-11-11T14:39:16Z</time>
      </trkpt>
      <trkpt lat="47.90489" lon="7.10294">
        <ele>1341.6</ele>
        <time>2013-11-11T14:39:19Z</time>
      </trkpt>
      <trkpt lat="47.90485" lon="7.10296">
        <ele>1342.2</ele>
        <time>2013-11-11T14:39:21Z</time>
      </trkpt>
      <trkpt lat="47.90481" lon="7.10299">
        <ele>1342.7</ele>
        <time>2013-11-11T14:39:23Z</time>
      </trkpt>
      <trkpt lat="47.90476" lon="7.10304">
        <ele>1343</ele>
        <time>2013-11-11T14:39:25Z</time>
      </trkpt>
      <trkpt lat="47.90473" lon="7.10309">
        <ele>1343.1</ele>
        <time>2013-11-11T14:39:27Z</time>
      </trkpt>
      <trkpt lat="47.9047" lon="7.10312">
        <ele>1343.2</ele>
        <time>2013-11-11T14:39:29Z</time>
      </trkpt>
      <trkpt lat="47.90467" lon="7.10316">
        <ele>1343.3</ele>
        <time>2013-11-11T14:39:31Z</time>
      </trkpt>
      <trkpt lat="47.90463" lon="7.1032">
        <ele>1343.3</ele>
        <time>2013-11-11T14:39:33Z</time>
      </trkpt>
      <trkpt lat="47.90458" lon="7.10324">
        <ele>1343.4</ele>
        <time>2013-11-11T14:39:35Z</time>
      </trkpt>
      <trkpt lat="47.90456" lon="7.10325">
        <ele>1343.3</ele>
        <time>2013-11-11T14:39:36Z</time>
      </trkpt>
      <trkpt lat="47.90451" lon="7.10328">
        <ele>1343.1</ele>
        <time>2013-11-11T14:39:38Z</time>
      </trkpt>
      <trkpt lat="47.90446" lon="7.1033">
        <ele>1343</ele>
        <time>2013-11-11T14:39:40Z</time>
      </trkpt>
      <trkpt lat="47.90441" lon="7.1033">
        <ele>1343.1</ele>
        <time>2013-11-11T14:39:42Z</time>
      </trkpt>
      <trkpt lat="47.90437" lon="7.1033">
        <ele>1343.2</ele>
        <time>2013-11-11T14:39:44Z</time>
      </trkpt>
      <trkpt lat="47.90434" lon="7.1033">
        <ele>1343.4</ele>
        <time>2013-11-11T14:39:46Z</time>
      </trkpt>
      <trkpt lat="47.90431" lon="7.10331">
        <ele>1343.4</ele>
        <time>2013-11-11T14:39:48Z</time>
      </trkpt>
      <trkpt lat="47.90433" lon="7.1033">
        <ele>1343.5</ele>
        <time>2013-11-11T14:39:55Z</time>
      </trkpt>
      <trkpt lat="47.90433" lon="7.10335">
        <ele>1342.7</ele>
        <time>2013-11-11T14:40:00Z</time>
      </trkpt>
      <trkpt lat="47.90433" lon="7.10328">
        <ele>1343.8</ele>
        <time>2013-11-11T14:40:10Z</time>
      </trkpt>
      <trkpt lat="47.90434" lon="7.1032">
        <ele>1344.9</ele>
        <time>2013-11-11T14:40:12Z</time>
      </trkpt>
      <trkpt lat="47.90436" lon="7.10315">
        <ele>1345.7</ele>
        <time>2013-11-11T14:40:14Z</time>
      </trkpt>
      <trkpt lat="47.90437" lon="7.10311">
        <ele>1346.3</ele>
        <time>2013-11-11T14:40:16Z</time>
      </trkpt>
      <trkpt lat="47.90437" lon="7.10307">
        <ele>1347</ele>
        <time>2013-11-11T14:40:18Z</time>
      </trkpt>
      <trkpt lat="47.90437" lon="7.10302">
        <ele>1347.6</ele>
        <time>2013-11-11T14:40:20Z</time>
      </trkpt>
      <trkpt lat="47.90436" lon="7.10297">
        <ele>1348.5</ele>
        <time>2013-11-11T14:40:23Z</time>
      </trkpt>
      <trkpt lat="47.90436" lon="7.10292">
        <ele>1349.3</ele>
        <time>2013-11-11T14:40:26Z</time>
      </trkpt>
      <trkpt lat="47.90435" lon="7.10287">
        <ele>1350.2</ele>
        <time>2013-11-11T14:40:29Z</time>
      </trkpt>
      <trkpt lat="47.90432" lon="7.10284">
        <ele>1351</ele>
        <time>2013-11-11T14:40:32Z</time>
      </trkpt>
      <trkpt lat="47.90431" lon="7.10279">
        <ele>1351.9</ele>
        <time>2013-11-11T14:40:36Z</time>
      </trkpt>
      <trkpt lat="47.90429" lon="7.10276">
        <ele>1352.7</ele>
        <time>2013-11-11T14:40:39Z</time>
      </trkpt>
      <trkpt lat="47.90429" lon="7.10271">
        <ele>1353.6</ele>
        <time>2013-11-11T14:40:42Z</time>
      </trkpt>
      <trkpt lat="47.90429" lon="7.10267">
        <ele>1354.3</ele>
        <time>2013-11-11T14:40:44Z</time>
      </trkpt>
      <trkpt lat="47.90427" lon="7.10263">
        <ele>1355.1</ele>
        <time>2013-11-11T14:40:46Z</time>
      </trkpt>
      <trkpt lat="47.90425" lon="7.1026">
        <ele>1356.1</ele>
        <time>2013-11-11T14:40:48Z</time>
      </trkpt>
      <trkpt lat="47.90423" lon="7.10256">
        <ele>1357</ele>
        <time>2013-11-11T14:40:50Z</time>
      </trkpt>
      <trkpt lat="47.90421" lon="7.10253">
        <ele>1357.9</ele>
        <time>2013-11-11T14:40:53Z</time>
      </trkpt>
      <trkpt lat="47.90418" lon="7.10249">
        <ele>1359.1</ele>
        <time>2013-11-11T14:40:56Z</time>
      </trkpt>
      <trkpt lat="47.90416" lon="7.10245">
        <ele>1360.4</ele>
        <time>2013-11-11T14:40:59Z</time>
      </trkpt>
      <trkpt lat="47.90414" lon="7.1024">
        <ele>1361.8</ele>
        <time>2013-11-11T14:41:02Z</time>
      </trkpt>
      <trkpt lat="47.90414" lon="7.10235">
        <ele>1362.9</ele>
        <time>2013-11-11T14:41:04Z</time>
      </trkpt>
      <trkpt lat="47.90414" lon="7.1023">
        <ele>1364.1</ele>
        <time>2013-11-11T14:41:06Z</time>
      </trkpt>
      <trkpt lat="47.90412" lon="7.10226">
        <ele>1365.2</ele>
        <time>2013-11-11T14:41:08Z</time>
      </trkpt>
      <trkpt lat="47.9041" lon="7.10224">
        <ele>1366.4</ele>
        <time>2013-11-11T14:41:11Z</time>
      </trkpt>
      <trkpt lat="47.90407" lon="7.10223">
        <ele>1367.2</ele>
        <time>2013-11-11T14:41:14Z</time>
      </trkpt>
      <trkpt lat="47.90403" lon="7.10223">
        <ele>1367.9</ele>
        <time>2013-11-11T14:41:17Z</time>
      </trkpt>
      <trkpt lat="47.90401" lon="7.10224">
        <ele>1368.4</ele>
        <time>2013-11-11T14:41:19Z</time>
      </trkpt>
      <trkpt lat="47.90398" lon="7.10224">
        <ele>1369</ele>
        <time>2013-11-11T14:41:21Z</time>
      </trkpt>
      <trkpt lat="47.90395" lon="7.10226">
        <ele>1369.1</ele>
        <time>2013-11-11T14:41:24Z</time>
      </trkpt>
      <trkpt lat="47.90392" lon="7.10226">
        <ele>1369.7</ele>
        <time>2013-11-11T14:41:30Z</time>
      </trkpt>
      <trkpt lat="47.90389" lon="7.10224">
        <ele>1371</ele>
        <time>2013-11-11T14:41:34Z</time>
      </trkpt>
      <trkpt lat="47.90386" lon="7.10225">
        <ele>1371.5</ele>
        <time>2013-11-11T14:41:37Z</time>
      </trkpt>
      <trkpt lat="47.90386" lon="7.10231">
        <ele>1369.7</ele>
        <time>2013-11-11T14:41:42Z</time>
      </trkpt>
      <trkpt lat="47.90383" lon="7.10234">
        <ele>1369.4</ele>
        <time>2013-11-11T14:41:45Z</time>
      </trkpt>
      <trkpt lat="47.9038" lon="7.10235">
        <ele>1369.5</ele>
        <time>2013-11-11T14:41:47Z</time>
      </trkpt>
      <trkpt lat="47.90377" lon="7.10237">
        <ele>1369.5</ele>
        <time>2013-11-11T14:41:49Z</time>
      </trkpt>
      <trkpt lat="47.90374" lon="7.10237">
        <ele>1370</ele>
        <time>2013-11-11T14:41:51Z</time>
      </trkpt>
      <trkpt lat="47.90372" lon="7.10236">
        <ele>1370</ele>
        <time>2013-11-11T14:41:53Z</time>
      </trkpt>
      <trkpt lat="47.90368" lon="7.10235">
        <ele>1370</ele>
        <time>2013-11-11T14:41:56Z</time>
      </trkpt>
      <trkpt lat="47.90365" lon="7.10234">
        <ele>1369.8</ele>
        <time>2013-11-11T14:41:59Z</time>
      </trkpt>
      <trkpt lat="47.90361" lon="7.10235">
        <ele>1369.2</ele>
        <time>2013-11-11T14:42:02Z</time>
      </trkpt>
      <trkpt lat="47.90357" lon="7.10235">
        <ele>1368.7</ele>
        <time>2013-11-11T14:42:05Z</time>
      </trkpt>
      <trkpt lat="47.90354" lon="7.10234">
        <ele>1368.7</ele>
        <time>2013-11-11T14:42:07Z</time>
      </trkpt>
      <trkpt lat="47.90351" lon="7.10232">
        <ele>1369</ele>
        <time>2013-11-11T14:42:10Z</time>
      </trkpt>
      <trkpt lat="47.90348" lon="7.1023">
        <ele>1369.2</ele>
        <time>2013-11-11T14:42:13Z</time>
      </trkpt>
      <trkpt lat="47.90345" lon="7.1023">
        <ele>1368.7</ele>
        <time>2013-11-11T14:42:17Z</time>
      </trkpt>
      <trkpt lat="47.90341" lon="7.10228">
        <ele>1368.9</ele>
        <time>2013-11-11T14:42:21Z</time>
      </trkpt>
      <trkpt lat="47.90339" lon="7.10227">
        <ele>1369</ele>
        <time>2013-11-11T14:42:24Z</time>
      </trkpt>
      <trkpt lat="47.90335" lon="7.10226">
        <ele>1369</ele>
        <time>2013-11-11T14:42:27Z</time>
      </trkpt>
      <trkpt lat="47.90333" lon="7.10224">
        <ele>1369.1</ele>
        <time>2013-11-11T14:42:30Z</time>
      </trkpt>
      <trkpt lat="47.90329" lon="7.10222">
        <ele>1369.3</ele>
        <time>2013-11-11T14:42:33Z</time>
      </trkpt>
      <trkpt lat="47.90327" lon="7.10219">
        <ele>1369.6</ele>
        <time>2013-11-11T14:42:36Z</time>
      </trkpt>
      <trkpt lat="47.90324" lon="7.10217">
        <ele>1369.8</ele>
        <time>2013-11-11T14:42:40Z</time>
      </trkpt>
      <trkpt lat="47.90321" lon="7.10214">
        <ele>1370.2</ele>
        <time>2013-11-11T14:42:43Z</time>
      </trkpt>
      <trkpt lat="47.90318" lon="7.10212">
        <ele>1370.4</ele>
        <time>2013-11-11T14:42:46Z</time>
      </trkpt>
      <trkpt lat="47.90314" lon="7.10211">
        <ele>1370.3</ele>
        <time>2013-11-11T14:42:50Z</time>
      </trkpt>
      <trkpt lat="47.90311" lon="7.10211">
        <ele>1369.9</ele>
        <time>2013-11-11T14:42:55Z</time>
      </trkpt>
      <trkpt lat="47.90308" lon="7.10209">
        <ele>1370</ele>
        <time>2013-11-11T14:42:58Z</time>
      </trkpt>
      <trkpt lat="47.90306" lon="7.10206">
        <ele>1370.5</ele>
        <time>2013-11-11T14:43:01Z</time>
      </trkpt>
      <trkpt lat="47.90304" lon="7.10201">
        <ele>1371.1</ele>
        <time>2013-11-11T14:43:04Z</time>
      </trkpt>
      <trkpt lat="47.903" lon="7.10201">
        <ele>1370.7</ele>
        <time>2013-11-11T14:43:08Z</time>
      </trkpt>
      <trkpt lat="47.90297" lon="7.102">
        <ele>1370.5</ele>
        <time>2013-11-11T14:43:11Z</time>
      </trkpt>
      <trkpt lat="47.90294" lon="7.10199">
        <ele>1370.4</ele>
        <time>2013-11-11T14:43:14Z</time>
      </trkpt>
      <trkpt lat="47.90291" lon="7.10196">
        <ele>1370.8</ele>
        <time>2013-11-11T14:43:19Z</time>
      </trkpt>
      <trkpt lat="47.90287" lon="7.10196">
        <ele>1370.2</ele>
        <time>2013-11-11T14:43:22Z</time>
      </trkpt>
      <trkpt lat="47.90284" lon="7.10195">
        <ele>1369.9</ele>
        <time>2013-11-11T14:43:24Z</time>
      </trkpt>
      <trkpt lat="47.90281" lon="7.10192">
        <ele>1370</ele>
        <time>2013-11-11T14:43:27Z</time>
      </trkpt>
      <trkpt lat="47.90279" lon="7.10189">
        <ele>1370.5</ele>
        <time>2013-11-11T14:43:32Z</time>
      </trkpt>
      <trkpt lat="47.90278" lon="7.10184">
        <ele>1371.3</ele>
        <time>2013-11-11T14:43:36Z</time>
      </trkpt>
      <trkpt lat="47.90275" lon="7.10181">
        <ele>1371.7</ele>
        <time>2013-11-11T14:43:39Z</time>
      </trkpt>
      <trkpt lat="47.90273" lon="7.10178">
        <ele>1371.8</ele>
        <time>2013-11-11T14:43:41Z</time>
      </trkpt>
      <trkpt lat="47.9027" lon="7.10176">
        <ele>1371.9</ele>
        <time>2013-11-11T14:43:43Z</time>
      </trkpt>
      <trkpt lat="47.90267" lon="7.10174">
        <ele>1371.8</ele>
        <time>2013-11-11T14:43:45Z</time>
      </trkpt>
      <trkpt lat="47.90263" lon="7.10173">
        <ele>1371.4</ele>
        <time>2013-11-11T14:43:47Z</time>
      </trkpt>
      <trkpt lat="47.9026" lon="7.10171">
        <ele>1371.4</ele>
        <time>2013-11-11T14:43:49Z</time>
      </trkpt>
      <trkpt lat="47.90257" lon="7.10168">
        <ele>1371.5</ele>
        <time>2013-11-11T14:43:52Z</time>
      </trkpt>
      <trkpt lat="47.90255" lon="7.10164">
        <ele>1372.2</ele>
        <time>2013-11-11T14:43:55Z</time>
      </trkpt>
      <trkpt lat="47.90253" lon="7.10158">
        <ele>1373.1</ele>
        <time>2013-11-11T14:43:58Z</time>
      </trkpt>
      <trkpt lat="47.90252" lon="7.10154">
        <ele>1373.8</ele>
        <time>2013-11-11T14:44:00Z</time>
      </trkpt>
      <trkpt lat="47.90252" lon="7.10149">
        <ele>1375</ele>
        <time>2013-11-11T14:44:03Z</time>
      </trkpt>
      <trkpt lat="47.90252" lon="7.10144">
        <ele>1376</ele>
        <time>2013-11-11T14:44:07Z</time>
      </trkpt>
      <trkpt lat="47.90252" lon="7.1014">
        <ele>1377.1</ele>
        <time>2013-11-11T14:44:11Z</time>
      </trkpt>
      <trkpt lat="47.90252" lon="7.10135">
        <ele>1378</ele>
        <time>2013-11-11T14:44:14Z</time>
      </trkpt>
      <trkpt lat="47.90252" lon="7.10131">
        <ele>1379</ele>
        <time>2013-11-11T14:44:17Z</time>
      </trkpt>
      <trkpt lat="47.90251" lon="7.10126">
        <ele>1380</ele>
        <time>2013-11-11T14:44:20Z</time>
      </trkpt>
      <trkpt lat="47.90251" lon="7.10122">
        <ele>1380.9</ele>
        <time>2013-11-11T14:44:23Z</time>
      </trkpt>
      <trkpt lat="47.90249" lon="7.10118">
        <ele>1381.5</ele>
        <time>2013-11-11T14:44:26Z</time>
      </trkpt>
      <trkpt lat="47.90247" lon="7.10114">
        <ele>1382.2</ele>
        <time>2013-11-11T14:44:30Z</time>
      </trkpt>
      <trkpt lat="47.90245" lon="7.10112">
        <ele>1382.5</ele>
        <time>2013-11-11T14:44:32Z</time>
      </trkpt>
      <trkpt lat="47.90243" lon="7.10109">
        <ele>1382.8</ele>
        <time>2013-11-11T14:44:36Z</time>
      </trkpt>
      <trkpt lat="47.9024" lon="7.10106">
        <ele>1383.1</ele>
        <time>2013-11-11T14:44:40Z</time>
      </trkpt>
      <trkpt lat="47.9024" lon="7.10101">
        <ele>1384.4</ele>
        <time>2013-11-11T14:44:44Z</time>
      </trkpt>
      <trkpt lat="47.90239" lon="7.10097">
        <ele>1385</ele>
        <time>2013-11-11T14:44:49Z</time>
      </trkpt>
      <trkpt lat="47.90237" lon="7.10093">
        <ele>1385.8</ele>
        <time>2013-11-11T14:44:56Z</time>
      </trkpt>
      <trkpt lat="47.90235" lon="7.10091">
        <ele>1386.1</ele>
        <time>2013-11-11T14:44:59Z</time>
      </trkpt>
      <trkpt lat="47.90233" lon="7.10088">
        <ele>1386.6</ele>
        <time>2013-11-11T14:45:02Z</time>
      </trkpt>
      <trkpt lat="47.90231" lon="7.10084">
        <ele>1387.4</ele>
        <time>2013-11-11T14:45:05Z</time>
      </trkpt>
      <trkpt lat="47.90229" lon="7.1008">
        <ele>1387.9</ele>
        <time>2013-11-11T14:45:08Z</time>
      </trkpt>
      <trkpt lat="47.90226" lon="7.10076">
        <ele>1388.7</ele>
        <time>2013-11-11T14:45:11Z</time>
      </trkpt>
      <trkpt lat="47.90224" lon="7.10072">
        <ele>1389.5</ele>
        <time>2013-11-11T14:45:14Z</time>
      </trkpt>
      <trkpt lat="47.90222" lon="7.10068">
        <ele>1390.2</ele>
        <time>2013-11-11T14:45:17Z</time>
      </trkpt>
      <trkpt lat="47.90219" lon="7.10064">
        <ele>1391.1</ele>
        <time>2013-11-11T14:45:20Z</time>
      </trkpt>
      <trkpt lat="47.90217" lon="7.10061">
        <ele>1391.6</ele>
        <time>2013-11-11T14:45:22Z</time>
      </trkpt>
      <trkpt lat="47.90214" lon="7.10059">
        <ele>1391.8</ele>
        <time>2013-11-11T14:45:24Z</time>
      </trkpt>
      <trkpt lat="47.90211" lon="7.10058">
        <ele>1391.9</ele>
        <time>2013-11-11T14:45:27Z</time>
      </trkpt>
      <trkpt lat="47.90208" lon="7.10056">
        <ele>1392.1</ele>
        <time>2013-11-11T14:45:31Z</time>
      </trkpt>
      <trkpt lat="47.90204" lon="7.10055">
        <ele>1392.3</ele>
        <time>2013-11-11T14:45:34Z</time>
      </trkpt>
      <trkpt lat="47.90201" lon="7.10055">
        <ele>1392.2</ele>
        <time>2013-11-11T14:45:37Z</time>
      </trkpt>
      <trkpt lat="47.90198" lon="7.10052">
        <ele>1392.8</ele>
        <time>2013-11-11T14:45:40Z</time>
      </trkpt>
      <trkpt lat="47.90196" lon="7.10048">
        <ele>1393.9</ele>
        <time>2013-11-11T14:45:43Z</time>
      </trkpt>
      <trkpt lat="47.90194" lon="7.10044">
        <ele>1394.9</ele>
        <time>2013-11-11T14:45:47Z</time>
      </trkpt>
      <trkpt lat="47.90191" lon="7.10041">
        <ele>1395.7</ele>
        <time>2013-11-11T14:45:50Z</time>
      </trkpt>
      <trkpt lat="47.90188" lon="7.10038">
        <ele>1396.2</ele>
        <time>2013-11-11T14:45:53Z</time>
      </trkpt>
      <trkpt lat="47.90185" lon="7.10036">
        <ele>1396.5</ele>
        <time>2013-11-11T14:45:56Z</time>
      </trkpt>
      <trkpt lat="47.90184" lon="7.10032">
        <ele>1397.1</ele>
        <time>2013-11-11T14:45:59Z</time>
      </trkpt>
      <trkpt lat="47.90181" lon="7.10029">
        <ele>1397.7</ele>
        <time>2013-11-11T14:46:02Z</time>
      </trkpt>
      <trkpt lat="47.90178" lon="7.10028">
        <ele>1397.7</ele>
        <time>2013-11-11T14:46:05Z</time>
      </trkpt>
      <trkpt lat="47.90175" lon="7.10027">
        <ele>1397.9</ele>
        <time>2013-11-11T14:46:07Z</time>
      </trkpt>
      <trkpt lat="47.90172" lon="7.10026">
        <ele>1398.1</ele>
        <time>2013-11-11T14:46:10Z</time>
      </trkpt>
      <trkpt lat="47.9017" lon="7.10022">
        <ele>1398.8</ele>
        <time>2013-11-11T14:46:13Z</time>
      </trkpt>
      <trkpt lat="47.90168" lon="7.1002">
        <ele>1399.2</ele>
        <time>2013-11-11T14:46:15Z</time>
      </trkpt>
      <trkpt lat="47.90165" lon="7.10017">
        <ele>1399.7</ele>
        <time>2013-11-11T14:46:17Z</time>
      </trkpt>
      <trkpt lat="47.90163" lon="7.10013">
        <ele>1400.5</ele>
        <time>2013-11-11T14:46:20Z</time>
      </trkpt>
      <trkpt lat="47.90162" lon="7.10009">
        <ele>1401.4</ele>
        <time>2013-11-11T14:46:24Z</time>
      </trkpt>
      <trkpt lat="47.9016" lon="7.10006">
        <ele>1401.9</ele>
        <time>2013-11-11T14:46:28Z</time>
      </trkpt>
      <trkpt lat="47.90156" lon="7.10003">
        <ele>1402.5</ele>
        <time>2013-11-11T14:46:31Z</time>
      </trkpt>
      <trkpt lat="47.90153" lon="7.10001">
        <ele>1402.9</ele>
        <time>2013-11-11T14:46:34Z</time>
      </trkpt>
      <trkpt lat="47.9015" lon="7.1">
        <ele>1403.3</ele>
        <time>2013-11-11T14:46:37Z</time>
      </trkpt>
      <trkpt lat="47.90147" lon="7.09999">
        <ele>1403.4</ele>
        <time>2013-11-11T14:46:40Z</time>
      </trkpt>
      <trkpt lat="47.90145" lon="7.09994">
        <ele>1404.5</ele>
        <time>2013-11-11T14:46:45Z</time>
      </trkpt>
      <trkpt lat="47.90144" lon="7.09989">
        <ele>1405.6</ele>
        <time>2013-11-11T14:46:47Z</time>
      </trkpt>
      <trkpt lat="47.90143" lon="7.09984">
        <ele>1406.7</ele>
        <time>2013-11-11T14:46:50Z</time>
      </trkpt>
      <trkpt lat="47.90141" lon="7.0998">
        <ele>1407.7</ele>
        <time>2013-11-11T14:46:53Z</time>
      </trkpt>
      <trkpt lat="47.90138" lon="7.09977">
        <ele>1408.3</ele>
        <time>2013-11-11T14:46:55Z</time>
      </trkpt>
      <trkpt lat="47.90136" lon="7.09975">
        <ele>1408.9</ele>
        <time>2013-11-11T14:46:57Z</time>
      </trkpt>
      <trkpt lat="47.90133" lon="7.09973">
        <ele>1409.3</ele>
        <time>2013-11-11T14:46:59Z</time>
      </trkpt>
      <trkpt lat="47.9013" lon="7.09973">
        <ele>1409.4</ele>
        <time>2013-11-11T14:47:02Z</time>
      </trkpt>
      <trkpt lat="47.90127" lon="7.09975">
        <ele>1409.1</ele>
        <time>2013-11-11T14:47:04Z</time>
      </trkpt>
      <trkpt lat="47.90124" lon="7.09977">
        <ele>1408.5</ele>
        <time>2013-11-11T14:47:06Z</time>
      </trkpt>
      <trkpt lat="47.9012" lon="7.09978">
        <ele>1407.8</ele>
        <time>2013-11-11T14:47:09Z</time>
      </trkpt>
      <trkpt lat="47.90118" lon="7.09976">
        <ele>1407.7</ele>
        <time>2013-11-11T14:47:12Z</time>
      </trkpt>
      <trkpt lat="47.90114" lon="7.09975">
        <ele>1407.5</ele>
        <time>2013-11-11T14:47:16Z</time>
      </trkpt>
      <trkpt lat="47.90111" lon="7.09974">
        <ele>1407.2</ele>
        <time>2013-11-11T14:47:19Z</time>
      </trkpt>
      <trkpt lat="47.90108" lon="7.09972">
        <ele>1407</ele>
        <time>2013-11-11T14:47:22Z</time>
      </trkpt>
      <trkpt lat="47.90105" lon="7.0997">
        <ele>1407.2</ele>
        <time>2013-11-11T14:47:25Z</time>
      </trkpt>
      <trkpt lat="47.90102" lon="7.09968">
        <ele>1407</ele>
        <time>2013-11-11T14:47:29Z</time>
      </trkpt>
      <trkpt lat="47.901" lon="7.09964">
        <ele>1407.5</ele>
        <time>2013-11-11T14:47:33Z</time>
      </trkpt>
      <trkpt lat="47.90101" lon="7.09959">
        <ele>1408.5</ele>
        <time>2013-11-11T14:47:35Z</time>
      </trkpt>
      <trkpt lat="47.90099" lon="7.09956">
        <ele>1408.1</ele>
        <time>2013-11-11T14:47:40Z</time>
      </trkpt>
      <trkpt lat="47.90094" lon="7.09954">
        <ele>1407.3</ele>
        <time>2013-11-11T14:47:42Z</time>
      </trkpt>
      <trkpt lat="47.90092" lon="7.09953">
        <ele>1406.8</ele>
        <time>2013-11-11T14:47:43Z</time>
      </trkpt>
      <trkpt lat="47.90089" lon="7.09951">
        <ele>1406.2</ele>
        <time>2013-11-11T14:47:44Z</time>
      </trkpt>
      <trkpt lat="47.90085" lon="7.0995">
        <ele>1405.3</ele>
        <time>2013-11-11T14:47:46Z</time>
      </trkpt>
      <trkpt lat="47.90081" lon="7.09951">
        <ele>1404.7</ele>
        <time>2013-11-11T14:47:49Z</time>
      </trkpt>
      <trkpt lat="47.90079" lon="7.09952">
        <ele>1404.2</ele>
        <time>2013-11-11T14:47:52Z</time>
      </trkpt>
      <trkpt lat="47.90076" lon="7.09954">
        <ele>1403.8</ele>
        <time>2013-11-11T14:47:56Z</time>
      </trkpt>
      <trkpt lat="47.90073" lon="7.09955">
        <ele>1403.4</ele>
        <time>2013-11-11T14:48:00Z</time>
      </trkpt>
      <trkpt lat="47.9007" lon="7.09953">
        <ele>1402.8</ele>
        <time>2013-11-11T14:48:02Z</time>
      </trkpt>
      <trkpt lat="47.90067" lon="7.09952">
        <ele>1402.2</ele>
        <time>2013-11-11T14:48:04Z</time>
      </trkpt>
      <trkpt lat="47.90064" lon="7.0995">
        <ele>1401.4</ele>
        <time>2013-11-11T14:48:07Z</time>
      </trkpt>
      <trkpt lat="47.90062" lon="7.09945">
        <ele>1400.6</ele>
        <time>2013-11-11T14:48:10Z</time>
      </trkpt>
      <trkpt lat="47.9006" lon="7.09941">
        <ele>1399.9</ele>
        <time>2013-11-11T14:48:13Z</time>
      </trkpt>
      <trkpt lat="47.90057" lon="7.0994">
        <ele>1399.1</ele>
        <time>2013-11-11T14:48:16Z</time>
      </trkpt>
      <trkpt lat="47.90054" lon="7.09937">
        <ele>1398.4</ele>
        <time>2013-11-11T14:48:19Z</time>
      </trkpt>
      <trkpt lat="47.90053" lon="7.09933">
        <ele>1397.6</ele>
        <time>2013-11-11T14:48:25Z</time>
      </trkpt>
      <trkpt lat="47.9005" lon="7.09931">
        <ele>1396.7</ele>
        <time>2013-11-11T14:48:28Z</time>
      </trkpt>
      <trkpt lat="47.90047" lon="7.09929">
        <ele>1396</ele>
        <time>2013-11-11T14:48:30Z</time>
      </trkpt>
      <trkpt lat="47.90044" lon="7.09925">
        <ele>1394.9</ele>
        <time>2013-11-11T14:48:33Z</time>
      </trkpt>
      <trkpt lat="47.90041" lon="7.09922">
        <ele>1393.7</ele>
        <time>2013-11-11T14:48:36Z</time>
      </trkpt>
      <trkpt lat="47.90037" lon="7.09921">
        <ele>1392.4</ele>
        <time>2013-11-11T14:48:39Z</time>
      </trkpt>
      <trkpt lat="47.90033" lon="7.09921">
        <ele>1391.2</ele>
        <time>2013-11-11T14:48:42Z</time>
      </trkpt>
      <trkpt lat="47.9003" lon="7.09921">
        <ele>1390.1</ele>
        <time>2013-11-11T14:48:45Z</time>
      </trkpt>
      <trkpt lat="47.90027" lon="7.0992">
        <ele>1389.2</ele>
        <time>2013-11-11T14:48:48Z</time>
      </trkpt>
      <trkpt lat="47.90024" lon="7.09919">
        <ele>1388.2</ele>
        <time>2013-11-11T14:48:51Z</time>
      </trkpt>
      <trkpt lat="47.90021" lon="7.09916">
        <ele>1386.8</ele>
        <time>2013-11-11T14:48:55Z</time>
      </trkpt>
      <trkpt lat="47.90019" lon="7.09913">
        <ele>1385.6</ele>
        <time>2013-11-11T14:48:58Z</time>
      </trkpt>
      <trkpt lat="47.90016" lon="7.0991">
        <ele>1384.5</ele>
        <time>2013-11-11T14:49:00Z</time>
      </trkpt>
      <trkpt lat="47.90015" lon="7.09906">
        <ele>1383.6</ele>
        <time>2013-11-11T14:49:04Z</time>
      </trkpt>
      <trkpt lat="47.90017" lon="7.09902">
        <ele>1383.8</ele>
        <time>2013-11-11T14:49:08Z</time>
      </trkpt>
      <trkpt lat="47.90015" lon="7.09898">
        <ele>1382.5</ele>
        <time>2013-11-11T14:49:16Z</time>
      </trkpt>
      <trkpt lat="47.90017" lon="7.09902">
        <ele>1383.7</ele>
        <time>2013-11-11T14:49:19Z</time>
      </trkpt>
      <trkpt lat="47.90022" lon="7.09906">
        <ele>1385.9</ele>
        <time>2013-11-11T14:49:23Z</time>
      </trkpt>
      <trkpt lat="47.90027" lon="7.0991">
        <ele>1388.1</ele>
        <time>2013-11-11T14:49:26Z</time>
      </trkpt>
      <trkpt lat="47.90032" lon="7.09915">
        <ele>1390.2</ele>
        <time>2013-11-11T14:49:28Z</time>
      </trkpt>
      <trkpt lat="47.90038" lon="7.09919">
        <ele>1392.4</ele>
        <time>2013-11-11T14:49:31Z</time>
      </trkpt>
      <trkpt lat="47.90043" lon="7.09923">
        <ele>1394.4</ele>
        <time>2013-11-11T14:49:43Z</time>
      </trkpt>
      <trkpt lat="47.90048" lon="7.09927">
        <ele>1396</ele>
        <time>2013-11-11T14:49:47Z</time>
      </trkpt>
      <trkpt lat="47.90053" lon="7.09931">
        <ele>1397.5</ele>
        <time>2013-11-11T14:59:12Z</time>
      </trkpt>
      <trkpt lat="47.9006" lon="7.09937">
        <ele>1399.5</ele>
        <time>2013-11-11T14:59:13Z</time>
      </trkpt>
      <trkpt lat="47.90053" lon="7.09929">
        <ele>1397.3</ele>
        <time>2013-11-11T14:59:14Z</time>
      </trkpt>
      <trkpt lat="47.90034" lon="7.09922">
        <ele>1391.6</ele>
        <time>2013-11-11T14:59:15Z</time>
      </trkpt>
      <trkpt lat="47.90015" lon="7.09915">
        <ele>1384.5</ele>
        <time>2013-11-11T14:59:16Z</time>
      </trkpt>
      <trkpt lat="47.90037" lon="7.0992">
        <ele>1392.2</ele>
        <time>2013-11-11T14:59:18Z</time>
      </trkpt>
      <trkpt lat="47.90041" lon="7.09916">
        <ele>1393.2</ele>
        <time>2013-11-11T14:59:19Z</time>
      </trkpt>
      <trkpt lat="47.90038" lon="7.09918">
        <ele>1392.3</ele>
        <time>2013-11-11T14:59:23Z</time>
      </trkpt>
      <trkpt lat="47.90039" lon="7.09922">
        <ele>1393.3</ele>
        <time>2013-11-11T14:59:32Z</time>
      </trkpt>
      <trkpt lat="47.90041" lon="7.09928">
        <ele>1394.6</ele>
        <time>2013-11-11T14:59:35Z</time>
      </trkpt>
      <trkpt lat="47.90045" lon="7.09932">
        <ele>1395.9</ele>
        <time>2013-11-11T14:59:37Z</time>
      </trkpt>
      <trkpt lat="47.90048" lon="7.09935">
        <ele>1396.7</ele>
        <time>2013-11-11T14:59:38Z</time>
      </trkpt>
      <trkpt lat="47.90053" lon="7.0994">
        <ele>1398.4</ele>
        <time>2013-11-11T14:59:40Z</time>
      </trkpt>
      <trkpt lat="47.90057" lon="7.09943">
        <ele>1399.4</ele>
        <time>2013-11-11T14:59:41Z</time>
      </trkpt>
      <trkpt lat="47.90061" lon="7.09946">
        <ele>1400.4</ele>
        <time>2013-11-11T14:59:42Z</time>
      </trkpt>
      <trkpt lat="47.90065" lon="7.09949">
        <ele>1401.4</ele>
        <time>2013-11-11T14:59:43Z</time>
      </trkpt>
      <trkpt lat="47.90072" lon="7.09952">
        <ele>1403</ele>
        <time>2013-11-11T14:59:44Z</time>
      </trkpt>
      <trkpt lat="47.90075" lon="7.09956">
        <ele>1403.8</ele>
        <time>2013-11-11T14:59:45Z</time>
      </trkpt>
      <trkpt lat="47.90078" lon="7.0996">
        <ele>1404.2</ele>
        <time>2013-11-11T14:59:46Z</time>
      </trkpt>
      <trkpt lat="47.90082" lon="7.09963">
        <ele>1404.5</ele>
        <time>2013-11-11T14:59:47Z</time>
      </trkpt>
      <trkpt lat="47.90087" lon="7.09965">
        <ele>1404.9</ele>
        <time>2013-11-11T14:59:48Z</time>
      </trkpt>
      <trkpt lat="47.90092" lon="7.09967">
        <ele>1405.5</ele>
        <time>2013-11-11T14:59:49Z</time>
      </trkpt>
      <trkpt lat="47.90097" lon="7.09969">
        <ele>1405.9</ele>
        <time>2013-11-11T14:59:50Z</time>
      </trkpt>
      <trkpt lat="47.90103" lon="7.09972">
        <ele>1406.3</ele>
        <time>2013-11-11T14:59:51Z</time>
      </trkpt>
      <trkpt lat="47.90109" lon="7.09975">
        <ele>1406.5</ele>
        <time>2013-11-11T14:59:52Z</time>
      </trkpt>
      <trkpt lat="47.90114" lon="7.09977">
        <ele>1407.1</ele>
        <time>2013-11-11T14:59:53Z</time>
      </trkpt>
      <trkpt lat="47.90119" lon="7.09979">
        <ele>1407.3</ele>
        <time>2013-11-11T14:59:54Z</time>
      </trkpt>
      <trkpt lat="47.90125" lon="7.09985">
        <ele>1406.9</ele>
        <time>2013-11-11T14:59:55Z</time>
      </trkpt>
      <trkpt lat="47.90131" lon="7.09988">
        <ele>1406</ele>
        <time>2013-11-11T14:59:56Z</time>
      </trkpt>
      <trkpt lat="47.90137" lon="7.09992">
        <ele>1405.1</ele>
        <time>2013-11-11T14:59:57Z</time>
      </trkpt>
      <trkpt lat="47.90142" lon="7.09995">
        <ele>1404.4</ele>
        <time>2013-11-11T14:59:58Z</time>
      </trkpt>
      <trkpt lat="47.90147" lon="7.09997">
        <ele>1403.8</ele>
        <time>2013-11-11T14:59:59Z</time>
      </trkpt>
      <trkpt lat="47.90153" lon="7.09999">
        <ele>1403.3</ele>
        <time>2013-11-11T15:00:00Z</time>
      </trkpt>
      <trkpt lat="47.90158" lon="7.10002">
        <ele>1402.7</ele>
        <time>2013-11-11T15:00:01Z</time>
      </trkpt>
      <trkpt lat="47.90162" lon="7.10005">
        <ele>1402.1</ele>
        <time>2013-11-11T15:00:02Z</time>
      </trkpt>
      <trkpt lat="47.90167" lon="7.10008">
        <ele>1401.4</ele>
        <time>2013-11-11T15:00:03Z</time>
      </trkpt>
      <trkpt lat="47.9017" lon="7.10012">
        <ele>1400.7</ele>
        <time>2013-11-11T15:00:04Z</time>
      </trkpt>
      <trkpt lat="47.90174" lon="7.10018">
        <ele>1399.6</ele>
        <time>2013-11-11T15:00:05Z</time>
      </trkpt>
      <trkpt lat="47.90179" lon="7.1002">
        <ele>1399.3</ele>
        <time>2013-11-11T15:00:06Z</time>
      </trkpt>
      <trkpt lat="47.90184" lon="7.10025">
        <ele>1398.5</ele>
        <time>2013-11-11T15:00:07Z</time>
      </trkpt>
      <trkpt lat="47.90192" lon="7.10033">
        <ele>1397.1</ele>
        <time>2013-11-11T15:00:08Z</time>
      </trkpt>
      <trkpt lat="47.90197" lon="7.1004">
        <ele>1396.1</ele>
        <time>2013-11-11T15:00:09Z</time>
      </trkpt>
      <trkpt lat="47.90204" lon="7.10046">
        <ele>1394.6</ele>
        <time>2013-11-11T15:00:10Z</time>
      </trkpt>
      <trkpt lat="47.90208" lon="7.10051">
        <ele>1393.4</ele>
        <time>2013-11-11T15:00:11Z</time>
      </trkpt>
      <trkpt lat="47.90214" lon="7.10058">
        <ele>1392.1</ele>
        <time>2013-11-11T15:00:12Z</time>
      </trkpt>
      <trkpt lat="47.90219" lon="7.10065">
        <ele>1390.8</ele>
        <time>2013-11-11T15:00:13Z</time>
      </trkpt>
      <trkpt lat="47.90224" lon="7.10074">
        <ele>1389.1</ele>
        <time>2013-11-11T15:00:14Z</time>
      </trkpt>
      <trkpt lat="47.9023" lon="7.10081">
        <ele>1387.9</ele>
        <time>2013-11-11T15:00:15Z</time>
      </trkpt>
      <trkpt lat="47.90234" lon="7.10085">
        <ele>1387.4</ele>
        <time>2013-11-11T15:00:16Z</time>
      </trkpt>
      <trkpt lat="47.90238" lon="7.1009">
        <ele>1386.8</ele>
        <time>2013-11-11T15:00:17Z</time>
      </trkpt>
      <trkpt lat="47.90242" lon="7.10095">
        <ele>1386.1</ele>
        <time>2013-11-11T15:00:18Z</time>
      </trkpt>
      <trkpt lat="47.90246" lon="7.101">
        <ele>1385.4</ele>
        <time>2013-11-11T15:00:19Z</time>
      </trkpt>
      <trkpt lat="47.90251" lon="7.10107">
        <ele>1384.5</ele>
        <time>2013-11-11T15:00:20Z</time>
      </trkpt>
      <trkpt lat="47.90255" lon="7.10112">
        <ele>1383.9</ele>
        <time>2013-11-11T15:00:21Z</time>
      </trkpt>
      <trkpt lat="47.90259" lon="7.10117">
        <ele>1383.4</ele>
        <time>2013-11-11T15:00:22Z</time>
      </trkpt>
      <trkpt lat="47.90262" lon="7.10119">
        <ele>1383.3</ele>
        <time>2013-11-11T15:00:23Z</time>
      </trkpt>
      <trkpt lat="47.90264" lon="7.10124">
        <ele>1382.6</ele>
        <time>2013-11-11T15:00:24Z</time>
      </trkpt>
      <trkpt lat="47.90267" lon="7.10128">
        <ele>1382.2</ele>
        <time>2013-11-11T15:00:25Z</time>
      </trkpt>
      <trkpt lat="47.90267" lon="7.10138">
        <ele>1379.9</ele>
        <time>2013-11-11T15:00:26Z</time>
      </trkpt>
      <trkpt lat="47.90269" lon="7.10148">
        <ele>1378.2</ele>
        <time>2013-11-11T15:00:27Z</time>
      </trkpt>
      <trkpt lat="47.9027" lon="7.10155">
        <ele>1376.6</ele>
        <time>2013-11-11T15:00:28Z</time>
      </trkpt>
      <trkpt lat="47.90272" lon="7.10162">
        <ele>1375.5</ele>
        <time>2013-11-11T15:00:29Z</time>
      </trkpt>
      <trkpt lat="47.90275" lon="7.10169">
        <ele>1374.4</ele>
        <time>2013-11-11T15:00:30Z</time>
      </trkpt>
      <trkpt lat="47.90281" lon="7.10174">
        <ele>1373.9</ele>
        <time>2013-11-11T15:00:31Z</time>
      </trkpt>
      <trkpt lat="47.90284" lon="7.10179">
        <ele>1373.5</ele>
        <time>2013-11-11T15:00:32Z</time>
      </trkpt>
      <trkpt lat="47.90289" lon="7.10185">
        <ele>1372.9</ele>
        <time>2013-11-11T15:00:33Z</time>
      </trkpt>
      <trkpt lat="47.90292" lon="7.1019">
        <ele>1372.2</ele>
        <time>2013-11-11T15:00:34Z</time>
      </trkpt>
      <trkpt lat="47.90296" lon="7.10197">
        <ele>1371.3</ele>
        <time>2013-11-11T15:00:35Z</time>
      </trkpt>
      <trkpt lat="47.90302" lon="7.10199">
        <ele>1371.3</ele>
        <time>2013-11-11T15:00:36Z</time>
      </trkpt>
      <trkpt lat="47.90306" lon="7.10206">
        <ele>1370.4</ele>
        <time>2013-11-11T15:00:37Z</time>
      </trkpt>
      <trkpt lat="47.90312" lon="7.10212">
        <ele>1369.7</ele>
        <time>2013-11-11T15:00:38Z</time>
      </trkpt>
      <trkpt lat="47.90318" lon="7.10216">
        <ele>1369.5</ele>
        <time>2013-11-11T15:00:39Z</time>
      </trkpt>
      <trkpt lat="47.90325" lon="7.10222">
        <ele>1368.8</ele>
        <time>2013-11-11T15:00:40Z</time>
      </trkpt>
      <trkpt lat="47.90332" lon="7.10224">
        <ele>1368.9</ele>
        <time>2013-11-11T15:00:41Z</time>
      </trkpt>
      <trkpt lat="47.90339" lon="7.10226">
        <ele>1369.1</ele>
        <time>2013-11-11T15:00:42Z</time>
      </trkpt>
      <trkpt lat="47.90344" lon="7.1023">
        <ele>1368.8</ele>
        <time>2013-11-11T15:00:43Z</time>
      </trkpt>
      <trkpt lat="47.9035" lon="7.10231">
        <ele>1369</ele>
        <time>2013-11-11T15:00:44Z</time>
      </trkpt>
      <trkpt lat="47.90355" lon="7.10232">
        <ele>1369.5</ele>
        <time>2013-11-11T15:00:45Z</time>
      </trkpt>
      <trkpt lat="47.9036" lon="7.10232">
        <ele>1369.8</ele>
        <time>2013-11-11T15:00:46Z</time>
      </trkpt>
      <trkpt lat="47.90364" lon="7.1023">
        <ele>1370.9</ele>
        <time>2013-11-11T15:00:47Z</time>
      </trkpt>
      <trkpt lat="47.90369" lon="7.1023">
        <ele>1371.7</ele>
        <time>2013-11-11T15:00:48Z</time>
      </trkpt>
      <trkpt lat="47.90374" lon="7.10228">
        <ele>1372.6</ele>
        <time>2013-11-11T15:00:49Z</time>
      </trkpt>
      <trkpt lat="47.90378" lon="7.10227">
        <ele>1372.4</ele>
        <time>2013-11-11T15:00:50Z</time>
      </trkpt>
      <trkpt lat="47.90383" lon="7.10226">
        <ele>1371.7</ele>
        <time>2013-11-11T15:00:51Z</time>
      </trkpt>
      <trkpt lat="47.90386" lon="7.10225">
        <ele>1371.4</ele>
        <time>2013-11-11T15:00:52Z</time>
      </trkpt>
      <trkpt lat="47.90389" lon="7.10223">
        <ele>1371.2</ele>
        <time>2013-11-11T15:00:53Z</time>
      </trkpt>
      <trkpt lat="47.90392" lon="7.10222">
        <ele>1370.8</ele>
        <time>2013-11-11T15:00:54Z</time>
      </trkpt>
      <trkpt lat="47.904" lon="7.1023">
        <ele>1367.1</ele>
        <time>2013-11-11T15:00:55Z</time>
      </trkpt>
      <trkpt lat="47.90404" lon="7.10235">
        <ele>1365</ele>
        <time>2013-11-11T15:00:56Z</time>
      </trkpt>
      <trkpt lat="47.90409" lon="7.10236">
        <ele>1363.9</ele>
        <time>2013-11-11T15:00:57Z</time>
      </trkpt>
      <trkpt lat="47.90413" lon="7.10237">
        <ele>1362.7</ele>
        <time>2013-11-11T15:00:58Z</time>
      </trkpt>
      <trkpt lat="47.90419" lon="7.10236">
        <ele>1361.8</ele>
        <time>2013-11-11T15:01:00Z</time>
      </trkpt>
      <trkpt lat="47.90421" lon="7.10238">
        <ele>1360.9</ele>
        <time>2013-11-11T15:01:04Z</time>
      </trkpt>
      <trkpt lat="47.90425" lon="7.10237">
        <ele>1360.4</ele>
        <time>2013-11-11T15:01:06Z</time>
      </trkpt>
      <trkpt lat="47.90429" lon="7.10235">
        <ele>1359.9</ele>
        <time>2013-11-11T15:01:09Z</time>
      </trkpt>
      <trkpt lat="47.90434" lon="7.10232">
        <ele>1359.6</ele>
        <time>2013-11-11T15:01:11Z</time>
      </trkpt>
      <trkpt lat="47.90437" lon="7.10228">
        <ele>1359.6</ele>
        <time>2013-11-11T15:01:13Z</time>
      </trkpt>
      <trkpt lat="47.90439" lon="7.10226">
        <ele>1359.4</ele>
        <time>2013-11-11T15:01:16Z</time>
      </trkpt>
      <trkpt lat="47.90442" lon="7.10223">
        <ele>1359.2</ele>
        <time>2013-11-11T15:01:20Z</time>
      </trkpt>
      <trkpt lat="47.90443" lon="7.1023">
        <ele>1357.9</ele>
        <time>2013-11-11T15:01:24Z</time>
      </trkpt>
      <trkpt lat="47.90446" lon="7.10233">
        <ele>1357</ele>
        <time>2013-11-11T15:01:26Z</time>
      </trkpt>
      <trkpt lat="47.90448" lon="7.10235">
        <ele>1356.2</ele>
        <time>2013-11-11T15:01:28Z</time>
      </trkpt>
      <trkpt lat="47.90451" lon="7.10236">
        <ele>1355.4</ele>
        <time>2013-11-11T15:01:30Z</time>
      </trkpt>
      <trkpt lat="47.90454" lon="7.10237">
        <ele>1354.7</ele>
        <time>2013-11-11T15:01:32Z</time>
      </trkpt>
      <trkpt lat="47.90458" lon="7.10236">
        <ele>1354.2</ele>
        <time>2013-11-11T15:01:34Z</time>
      </trkpt>
      <trkpt lat="47.9046" lon="7.10231">
        <ele>1354.1</ele>
        <time>2013-11-11T15:01:36Z</time>
      </trkpt>
      <trkpt lat="47.90461" lon="7.10226">
        <ele>1354.3</ele>
        <time>2013-11-11T15:01:38Z</time>
      </trkpt>
      <trkpt lat="47.90462" lon="7.10222">
        <ele>1354.5</ele>
        <time>2013-11-11T15:01:40Z</time>
      </trkpt>
      <trkpt lat="47.90459" lon="7.1022">
        <ele>1355.5</ele>
        <time>2013-11-11T15:01:46Z</time>
      </trkpt>
      <trkpt lat="47.90458" lon="7.10224">
        <ele>1355.4</ele>
        <time>2013-11-11T15:01:49Z</time>
      </trkpt>
      <trkpt lat="47.90458" lon="7.10229">
        <ele>1354.9</ele>
        <time>2013-11-11T15:01:51Z</time>
      </trkpt>
      <trkpt lat="47.90455" lon="7.10233">
        <ele>1355</ele>
        <time>2013-11-11T15:01:53Z</time>
      </trkpt>
      <trkpt lat="47.90454" lon="7.10234">
        <ele>1355.2</ele>
        <time>2013-11-11T15:01:55Z</time>
      </trkpt>
      <trkpt lat="47.90454" lon="7.10234">
        <ele>1355.1</ele>
        <time>2013-11-11T15:01:59Z</time>
      </trkpt>
      <trkpt lat="47.90455" lon="7.10233">
        <ele>1355</ele>
        <time>2013-11-11T15:02:02Z</time>
      </trkpt>
      <trkpt lat="47.90456" lon="7.10233">
        <ele>1354.9</ele>
        <time>2013-11-11T15:02:04Z</time>
      </trkpt>
      <trkpt lat="47.90457" lon="7.10232">
        <ele>1354.8</ele>
        <time>2013-11-11T15:02:22Z</time>
      </trkpt>
      <trkpt lat="47.90457" lon="7.10232">
        <ele>1354.7</ele>
        <time>2013-11-11T15:03:11Z</time>
      </trkpt>
      <trkpt lat="47.90458" lon="7.10231">
        <ele>1354.6</ele>
        <time>2013-11-11T15:03:19Z</time>
      </trkpt>
      <trkpt lat="47.90459" lon="7.10231">
        <ele>1354.4</ele>
        <time>2013-11-11T15:13:40Z</time>
      </trkpt>
      <trkpt lat="47.9046" lon="7.1023">
        <ele>1354.2</ele>
        <time>2013-11-11T15:13:41Z</time>
      </trkpt>
      <trkpt lat="47.90458" lon="7.10237">
        <ele>1354</ele>
        <time>2013-11-11T15:13:42Z</time>
      </trkpt>
      <trkpt lat="47.90456" lon="7.10243">
        <ele>1353.6</ele>
        <time>2013-11-11T15:13:44Z</time>
      </trkpt>
      <trkpt lat="47.9046" lon="7.10245">
        <ele>1352.7</ele>
        <time>2013-11-11T15:13:54Z</time>
      </trkpt>
      <trkpt lat="47.90462" lon="7.1024">
        <ele>1352.6</ele>
        <time>2013-11-11T15:13:56Z</time>
      </trkpt>
      <trkpt lat="47.90464" lon="7.10236">
        <ele>1352.5</ele>
        <time>2013-11-11T15:13:58Z</time>
      </trkpt>
      <trkpt lat="47.90465" lon="7.10229">
        <ele>1352.7</ele>
        <time>2013-11-11T15:14:00Z</time>
      </trkpt>
      <trkpt lat="47.90465" lon="7.10224">
        <ele>1353.3</ele>
        <time>2013-11-11T15:14:02Z</time>
      </trkpt>
      <trkpt lat="47.9046" lon="7.10223">
        <ele>1354.8</ele>
        <time>2013-11-11T15:14:04Z</time>
      </trkpt>
      <trkpt lat="47.90457" lon="7.10223">
        <ele>1355.7</ele>
        <time>2013-11-11T15:14:06Z</time>
      </trkpt>
      <trkpt lat="47.90457" lon="7.10228">
        <ele>1355.1</ele>
        <time>2013-11-11T15:14:09Z</time>
      </trkpt>
      <trkpt lat="47.90458" lon="7.10232">
        <ele>1354.6</ele>
        <time>2013-11-11T15:14:12Z</time>
      </trkpt>
      <trkpt lat="47.90454" lon="7.10231">
        <ele>1355.4</ele>
        <time>2013-11-11T15:14:19Z</time>
      </trkpt>
      <trkpt lat="47.90452" lon="7.10227">
        <ele>1356.4</ele>
        <time>2013-11-11T15:14:22Z</time>
      </trkpt>
      <trkpt lat="47.90449" lon="7.10224">
        <ele>1357.5</ele>
        <time>2013-11-11T15:14:25Z</time>
      </trkpt>
      <trkpt lat="47.90447" lon="7.1022">
        <ele>1358.5</ele>
        <time>2013-11-11T15:14:28Z</time>
      </trkpt>
      <trkpt lat="47.90445" lon="7.10215">
        <ele>1359.5</ele>
        <time>2013-11-11T15:14:31Z</time>
      </trkpt>
      <trkpt lat="47.90444" lon="7.10211">
        <ele>1360.5</ele>
        <time>2013-11-11T15:14:34Z</time>
      </trkpt>
      <trkpt lat="47.90443" lon="7.1022">
        <ele>1359.4</ele>
        <time>2013-11-11T15:14:47Z</time>
      </trkpt>
      <trkpt lat="47.90442" lon="7.10224">
        <ele>1358.9</ele>
        <time>2013-11-11T15:14:50Z</time>
      </trkpt>
      <trkpt lat="47.90442" lon="7.1023">
        <ele>1358.1</ele>
        <time>2013-11-11T15:14:52Z</time>
      </trkpt>
      <trkpt lat="47.90442" lon="7.10236">
        <ele>1357.3</ele>
        <time>2013-11-11T15:14:53Z</time>
      </trkpt>
      <trkpt lat="47.90441" lon="7.10242">
        <ele>1356.5</ele>
        <time>2013-11-11T15:14:54Z</time>
      </trkpt>
      <trkpt lat="47.90441" lon="7.10249">
        <ele>1355.5</ele>
        <time>2013-11-11T15:14:55Z</time>
      </trkpt>
      <trkpt lat="47.9044" lon="7.10256">
        <ele>1354.6</ele>
        <time>2013-11-11T15:14:56Z</time>
      </trkpt>
      <trkpt lat="47.90439" lon="7.10263">
        <ele>1353.7</ele>
        <time>2013-11-11T15:14:57Z</time>
      </trkpt>
      <trkpt lat="47.90437" lon="7.10269">
        <ele>1352.8</ele>
        <time>2013-11-11T15:14:58Z</time>
      </trkpt>
      <trkpt lat="47.90436" lon="7.10275">
        <ele>1352.1</ele>
        <time>2013-11-11T15:14:59Z</time>
      </trkpt>
      <trkpt lat="47.90434" lon="7.1028">
        <ele>1351.4</ele>
        <time>2013-11-11T15:15:00Z</time>
      </trkpt>
      <trkpt lat="47.9043" lon="7.10285">
        <ele>1350.9</ele>
        <time>2013-11-11T15:15:01Z</time>
      </trkpt>
      <trkpt lat="47.90415" lon="7.10289">
        <ele>1351.1</ele>
        <time>2013-11-11T15:15:02Z</time>
      </trkpt>
      <trkpt lat="47.9041" lon="7.10293">
        <ele>1350.7</ele>
        <time>2013-11-11T15:15:03Z</time>
      </trkpt>
      <trkpt lat="47.90403" lon="7.10296">
        <ele>1350.6</ele>
        <time>2013-11-11T15:15:04Z</time>
      </trkpt>
      <trkpt lat="47.90398" lon="7.103">
        <ele>1350.2</ele>
        <time>2013-11-11T15:15:05Z</time>
      </trkpt>
      <trkpt lat="47.90394" lon="7.10302">
        <ele>1350</ele>
        <time>2013-11-11T15:15:06Z</time>
      </trkpt>
      <trkpt lat="47.90388" lon="7.10304">
        <ele>1350</ele>
        <time>2013-11-11T15:15:07Z</time>
      </trkpt>
      <trkpt lat="47.90384" lon="7.10307">
        <ele>1349.6</ele>
        <time>2013-11-11T15:15:08Z</time>
      </trkpt>
      <trkpt lat="47.90392" lon="7.10313">
        <ele>1348.1</ele>
        <time>2013-11-11T15:15:09Z</time>
      </trkpt>
      <trkpt lat="47.90396" lon="7.10314">
        <ele>1347.7</ele>
        <time>2013-11-11T15:15:10Z</time>
      </trkpt>
      <trkpt lat="47.90396" lon="7.10321">
        <ele>1346.5</ele>
        <time>2013-11-11T15:15:11Z</time>
      </trkpt>
      <trkpt lat="47.90397" lon="7.10325">
        <ele>1345.7</ele>
        <time>2013-11-11T15:15:12Z</time>
      </trkpt>
      <trkpt lat="47.90401" lon="7.10331">
        <ele>1344.4</ele>
        <time>2013-11-11T15:15:14Z</time>
      </trkpt>
      <trkpt lat="47.90404" lon="7.10336">
        <ele>1343.5</ele>
        <time>2013-11-11T15:15:15Z</time>
      </trkpt>
      <trkpt lat="47.90409" lon="7.10338">
        <ele>1343</ele>
        <time>2013-11-11T15:15:17Z</time>
      </trkpt>
      <trkpt lat="47.90412" lon="7.10339">
        <ele>1342.7</ele>
        <time>2013-11-11T15:15:18Z</time>
      </trkpt>
      <trkpt lat="47.90416" lon="7.10339">
        <ele>1342.5</ele>
        <time>2013-11-11T15:15:19Z</time>
      </trkpt>
      <trkpt lat="47.90418" lon="7.10341">
        <ele>1342.2</ele>
        <time>2013-11-11T15:15:20Z</time>
      </trkpt>
      <trkpt lat="47.90423" lon="7.10341">
        <ele>1342.1</ele>
        <time>2013-11-11T15:15:21Z</time>
      </trkpt>
      <trkpt lat="47.90428" lon="7.1034">
        <ele>1342.1</ele>
        <time>2013-11-11T15:15:22Z</time>
      </trkpt>
      <trkpt lat="47.90432" lon="7.1034">
        <ele>1341.9</ele>
        <time>2013-11-11T15:15:23Z</time>
      </trkpt>
      <trkpt lat="47.90436" lon="7.1034">
        <ele>1341.8</ele>
        <time>2013-11-11T15:15:24Z</time>
      </trkpt>
      <trkpt lat="47.90441" lon="7.10341">
        <ele>1341.5</ele>
        <time>2013-11-11T15:15:25Z</time>
      </trkpt>
      <trkpt lat="47.90445" lon="7.10342">
        <ele>1341.1</ele>
        <time>2013-11-11T15:15:26Z</time>
      </trkpt>
      <trkpt lat="47.9045" lon="7.10345">
        <ele>1340.6</ele>
        <time>2013-11-11T15:15:27Z</time>
      </trkpt>
      <trkpt lat="47.90454" lon="7.10348">
        <ele>1340.1</ele>
        <time>2013-11-11T15:15:28Z</time>
      </trkpt>
      <trkpt lat="47.90458" lon="7.10351">
        <ele>1339.5</ele>
        <time>2013-11-11T15:15:29Z</time>
      </trkpt>
      <trkpt lat="47.90462" lon="7.10354">
        <ele>1338.8</ele>
        <time>2013-11-11T15:15:30Z</time>
      </trkpt>
      <trkpt lat="47.90465" lon="7.10357">
        <ele>1338.2</ele>
        <time>2013-11-11T15:15:31Z</time>
      </trkpt>
      <trkpt lat="47.90467" lon="7.10362">
        <ele>1337.4</ele>
        <time>2013-11-11T15:15:32Z</time>
      </trkpt>
      <trkpt lat="47.90468" lon="7.10366">
        <ele>1336.7</ele>
        <time>2013-11-11T15:15:33Z</time>
      </trkpt>
      <trkpt lat="47.9047" lon="7.10372">
        <ele>1336</ele>
        <time>2013-11-11T15:15:34Z</time>
      </trkpt>
      <trkpt lat="47.90471" lon="7.10377">
        <ele>1335.4</ele>
        <time>2013-11-11T15:15:35Z</time>
      </trkpt>
      <trkpt lat="47.90473" lon="7.10382">
        <ele>1335</ele>
        <time>2013-11-11T15:15:36Z</time>
      </trkpt>
      <trkpt lat="47.90473" lon="7.10388">
        <ele>1334.5</ele>
        <time>2013-11-11T15:15:37Z</time>
      </trkpt>
      <trkpt lat="47.90472" lon="7.10393">
        <ele>1334.1</ele>
        <time>2013-11-11T15:15:38Z</time>
      </trkpt>
      <trkpt lat="47.90472" lon="7.10399">
        <ele>1333.7</ele>
        <time>2013-11-11T15:15:39Z</time>
      </trkpt>
      <trkpt lat="47.90471" lon="7.10404">
        <ele>1333.3</ele>
        <time>2013-11-11T15:15:40Z</time>
      </trkpt>
      <trkpt lat="47.9047" lon="7.10408">
        <ele>1332.9</ele>
        <time>2013-11-11T15:15:41Z</time>
      </trkpt>
      <trkpt lat="47.90468" lon="7.10412">
        <ele>1332.5</ele>
        <time>2013-11-11T15:15:42Z</time>
      </trkpt>
      <trkpt lat="47.90467" lon="7.10417">
        <ele>1332.1</ele>
        <time>2013-11-11T15:15:43Z</time>
      </trkpt>
      <trkpt lat="47.90465" lon="7.10421">
        <ele>1331.7</ele>
        <time>2013-11-11T15:15:44Z</time>
      </trkpt>
      <trkpt lat="47.90462" lon="7.10425">
        <ele>1331.3</ele>
        <time>2013-11-11T15:15:45Z</time>
      </trkpt>
      <trkpt lat="47.90459" lon="7.10428">
        <ele>1330.9</ele>
        <time>2013-11-11T15:15:46Z</time>
      </trkpt>
      <trkpt lat="47.90456" lon="7.10432">
        <ele>1330.4</ele>
        <time>2013-11-11T15:15:47Z</time>
      </trkpt>
      <trkpt lat="47.90453" lon="7.10434">
        <ele>1330</ele>
        <time>2013-11-11T15:15:48Z</time>
      </trkpt>
      <trkpt lat="47.90451" lon="7.10435">
        <ele>1329.8</ele>
        <time>2013-11-11T15:15:49Z</time>
      </trkpt>
      <trkpt lat="47.90447" lon="7.10434">
        <ele>1329.7</ele>
        <time>2013-11-11T15:15:50Z</time>
      </trkpt>
      <trkpt lat="47.90443" lon="7.10436">
        <ele>1329.2</ele>
        <time>2013-11-11T15:15:52Z</time>
      </trkpt>
      <trkpt lat="47.9044" lon="7.10437">
        <ele>1328.9</ele>
        <time>2013-11-11T15:15:53Z</time>
      </trkpt>
      <trkpt lat="47.90437" lon="7.10438">
        <ele>1328.6</ele>
        <time>2013-11-11T15:15:54Z</time>
      </trkpt>
      <trkpt lat="47.90434" lon="7.1044">
        <ele>1328.3</ele>
        <time>2013-11-11T15:15:55Z</time>
      </trkpt>
      <trkpt lat="47.90432" lon="7.10445">
        <ele>1327.5</ele>
        <time>2013-11-11T15:15:57Z</time>
      </trkpt>
      <trkpt lat="47.90431" lon="7.10451">
        <ele>1326.7</ele>
        <time>2013-11-11T15:15:59Z</time>
      </trkpt>
      <trkpt lat="47.90431" lon="7.10455">
        <ele>1326.1</ele>
        <time>2013-11-11T15:16:00Z</time>
      </trkpt>
      <trkpt lat="47.90432" lon="7.10463">
        <ele>1325.1</ele>
        <time>2013-11-11T15:16:01Z</time>
      </trkpt>
      <trkpt lat="47.90433" lon="7.10468">
        <ele>1324.4</ele>
        <time>2013-11-11T15:16:02Z</time>
      </trkpt>
      <trkpt lat="47.90434" lon="7.10472">
        <ele>1323.8</ele>
        <time>2013-11-11T15:16:03Z</time>
      </trkpt>
      <trkpt lat="47.90434" lon="7.10476">
        <ele>1323.2</ele>
        <time>2013-11-11T15:16:04Z</time>
      </trkpt>
      <trkpt lat="47.90436" lon="7.1048">
        <ele>1322.8</ele>
        <time>2013-11-11T15:16:05Z</time>
      </trkpt>
      <trkpt lat="47.90439" lon="7.10487">
        <ele>1322.1</ele>
        <time>2013-11-11T15:16:07Z</time>
      </trkpt>
      <trkpt lat="47.90441" lon="7.10491">
        <ele>1321.7</ele>
        <time>2013-11-11T15:16:08Z</time>
      </trkpt>
      <trkpt lat="47.90444" lon="7.10498">
        <ele>1320.9</ele>
        <time>2013-11-11T15:16:10Z</time>
      </trkpt>
      <trkpt lat="47.90446" lon="7.10503">
        <ele>1320.5</ele>
        <time>2013-11-11T15:16:12Z</time>
      </trkpt>
      <trkpt lat="47.90447" lon="7.10508">
        <ele>1319.9</ele>
        <time>2013-11-11T15:16:13Z</time>
      </trkpt>
      <trkpt lat="47.9045" lon="7.10515">
        <ele>1319.3</ele>
        <time>2013-11-11T15:16:15Z</time>
      </trkpt>
      <trkpt lat="47.90451" lon="7.10519">
        <ele>1318.9</ele>
        <time>2013-11-11T15:16:16Z</time>
      </trkpt>
      <trkpt lat="47.90453" lon="7.10523">
        <ele>1318.6</ele>
        <time>2013-11-11T15:16:17Z</time>
      </trkpt>
      <trkpt lat="47.90454" lon="7.10527">
        <ele>1318.2</ele>
        <time>2013-11-11T15:16:18Z</time>
      </trkpt>
      <trkpt lat="47.90456" lon="7.10531">
        <ele>1318</ele>
        <time>2013-11-11T15:16:19Z</time>
      </trkpt>
      <trkpt lat="47.90458" lon="7.10535">
        <ele>1317.8</ele>
        <time>2013-11-11T15:16:20Z</time>
      </trkpt>
      <trkpt lat="47.9046" lon="7.10539">
        <ele>1317.7</ele>
        <time>2013-11-11T15:16:21Z</time>
      </trkpt>
      <trkpt lat="47.90463" lon="7.10544">
        <ele>1317.6</ele>
        <time>2013-11-11T15:16:22Z</time>
      </trkpt>
      <trkpt lat="47.90466" lon="7.10548">
        <ele>1317.4</ele>
        <time>2013-11-11T15:16:23Z</time>
      </trkpt>
      <trkpt lat="47.90469" lon="7.10552">
        <ele>1317.3</ele>
        <time>2013-11-11T15:16:24Z</time>
      </trkpt>
      <trkpt lat="47.90472" lon="7.10555">
        <ele>1317.2</ele>
        <time>2013-11-11T15:16:25Z</time>
      </trkpt>
      <trkpt lat="47.90474" lon="7.10559">
        <ele>1317.1</ele>
        <time>2013-11-11T15:16:26Z</time>
      </trkpt>
      <trkpt lat="47.90477" lon="7.10563">
        <ele>1317</ele>
        <time>2013-11-11T15:16:27Z</time>
      </trkpt>
      <trkpt lat="47.9048" lon="7.10567">
        <ele>1316.9</ele>
        <time>2013-11-11T15:16:28Z</time>
      </trkpt>
      <trkpt lat="47.90484" lon="7.10572">
        <ele>1316.6</ele>
        <time>2013-11-11T15:16:29Z</time>
      </trkpt>
      <trkpt lat="47.90487" lon="7.10578">
        <ele>1316.4</ele>
        <time>2013-11-11T15:16:30Z</time>
      </trkpt>
      <trkpt lat="47.9049" lon="7.10583">
        <ele>1316</ele>
        <time>2013-11-11T15:16:31Z</time>
      </trkpt>
      <trkpt lat="47.90493" lon="7.10589">
        <ele>1315.5</ele>
        <time>2013-11-11T15:16:32Z</time>
      </trkpt>
      <trkpt lat="47.90495" lon="7.10595">
        <ele>1315</ele>
        <time>2013-11-11T15:16:33Z</time>
      </trkpt>
      <trkpt lat="47.90497" lon="7.106">
        <ele>1314.5</ele>
        <time>2013-11-11T15:16:34Z</time>
      </trkpt>
      <trkpt lat="47.90499" lon="7.10608">
        <ele>1313.6</ele>
        <time>2013-11-11T15:16:35Z</time>
      </trkpt>
      <trkpt lat="47.90499" lon="7.10612">
        <ele>1313</ele>
        <time>2013-11-11T15:16:36Z</time>
      </trkpt>
      <trkpt lat="47.90499" lon="7.10619">
        <ele>1311.9</ele>
        <time>2013-11-11T15:16:38Z</time>
      </trkpt>
      <trkpt lat="47.90497" lon="7.10625">
        <ele>1310.5</ele>
        <time>2013-11-11T15:16:40Z</time>
      </trkpt>
      <trkpt lat="47.90495" lon="7.10628">
        <ele>1309.6</ele>
        <time>2013-11-11T15:16:41Z</time>
      </trkpt>
      <trkpt lat="47.90492" lon="7.1063">
        <ele>1308.7</ele>
        <time>2013-11-11T15:16:42Z</time>
      </trkpt>
      <trkpt lat="47.9049" lon="7.10633">
        <ele>1307.8</ele>
        <time>2013-11-11T15:16:43Z</time>
      </trkpt>
      <trkpt lat="47.90487" lon="7.10636">
        <ele>1306.8</ele>
        <time>2013-11-11T15:16:44Z</time>
      </trkpt>
      <trkpt lat="47.90484" lon="7.10638">
        <ele>1306</ele>
        <time>2013-11-11T15:16:45Z</time>
      </trkpt>
      <trkpt lat="47.90481" lon="7.1064">
        <ele>1305.1</ele>
        <time>2013-11-11T15:16:46Z</time>
      </trkpt>
      <trkpt lat="47.90478" lon="7.10642">
        <ele>1304.3</ele>
        <time>2013-11-11T15:16:47Z</time>
      </trkpt>
      <trkpt lat="47.90475" lon="7.10643">
        <ele>1303.5</ele>
        <time>2013-11-11T15:16:48Z</time>
      </trkpt>
      <trkpt lat="47.90471" lon="7.10645">
        <ele>1302.5</ele>
        <time>2013-11-11T15:16:49Z</time>
      </trkpt>
      <trkpt lat="47.90467" lon="7.10646">
        <ele>1301.6</ele>
        <time>2013-11-11T15:16:50Z</time>
      </trkpt>
      <trkpt lat="47.90463" lon="7.10648">
        <ele>1300.6</ele>
        <time>2013-11-11T15:16:51Z</time>
      </trkpt>
      <trkpt lat="47.90459" lon="7.1065">
        <ele>1299.5</ele>
        <time>2013-11-11T15:16:52Z</time>
      </trkpt>
      <trkpt lat="47.90454" lon="7.10652">
        <ele>1298.3</ele>
        <time>2013-11-11T15:16:53Z</time>
      </trkpt>
      <trkpt lat="47.90449" lon="7.10654">
        <ele>1297.1</ele>
        <time>2013-11-11T15:16:54Z</time>
      </trkpt>
      <trkpt lat="47.90445" lon="7.10655">
        <ele>1295.8</ele>
        <time>2013-11-11T15:16:55Z</time>
      </trkpt>
      <trkpt lat="47.9044" lon="7.10656">
        <ele>1294.8</ele>
        <time>2013-11-11T15:16:56Z</time>
      </trkpt>
      <trkpt lat="47.90436" lon="7.10657">
        <ele>1293.8</ele>
        <time>2013-11-11T15:16:57Z</time>
      </trkpt>
      <trkpt lat="47.90432" lon="7.10658">
        <ele>1292.9</ele>
        <time>2013-11-11T15:16:58Z</time>
      </trkpt>
      <trkpt lat="47.90427" lon="7.10659">
        <ele>1291.8</ele>
        <time>2013-11-11T15:16:59Z</time>
      </trkpt>
      <trkpt lat="47.90423" lon="7.10659">
        <ele>1290.9</ele>
        <time>2013-11-11T15:17:00Z</time>
      </trkpt>
      <trkpt lat="47.90418" lon="7.10659">
        <ele>1290</ele>
        <time>2013-11-11T15:17:01Z</time>
      </trkpt>
      <trkpt lat="47.90414" lon="7.1066">
        <ele>1289.1</ele>
        <time>2013-11-11T15:17:02Z</time>
      </trkpt>
      <trkpt lat="47.90409" lon="7.1066">
        <ele>1288.2</ele>
        <time>2013-11-11T15:17:03Z</time>
      </trkpt>
      <trkpt lat="47.90405" lon="7.1066">
        <ele>1287.2</ele>
        <time>2013-11-11T15:17:04Z</time>
      </trkpt>
      <trkpt lat="47.904" lon="7.10661">
        <ele>1286.2</ele>
        <time>2013-11-11T15:17:05Z</time>
      </trkpt>
      <trkpt lat="47.90396" lon="7.10661">
        <ele>1285.4</ele>
        <time>2013-11-11T15:17:06Z</time>
      </trkpt>
      <trkpt lat="47.90391" lon="7.10661">
        <ele>1284.4</ele>
        <time>2013-11-11T15:17:07Z</time>
      </trkpt>
      <trkpt lat="47.90385" lon="7.10661">
        <ele>1283.4</ele>
        <time>2013-11-11T15:17:08Z</time>
      </trkpt>
      <trkpt lat="47.90381" lon="7.10659">
        <ele>1282.8</ele>
        <time>2013-11-11T15:17:09Z</time>
      </trkpt>
      <trkpt lat="47.90376" lon="7.10657">
        <ele>1282.2</ele>
        <time>2013-11-11T15:17:10Z</time>
      </trkpt>
      <trkpt lat="47.90371" lon="7.10654">
        <ele>1282</ele>
        <time>2013-11-11T15:17:11Z</time>
      </trkpt>
      <trkpt lat="47.90366" lon="7.10652">
        <ele>1281.7</ele>
        <time>2013-11-11T15:17:12Z</time>
      </trkpt>
      <trkpt lat="47.90361" lon="7.10651">
        <ele>1281.4</ele>
        <time>2013-11-11T15:17:13Z</time>
      </trkpt>
      <trkpt lat="47.90357" lon="7.1065">
        <ele>1280.9</ele>
        <time>2013-11-11T15:17:14Z</time>
      </trkpt>
      <trkpt lat="47.90352" lon="7.1065">
        <ele>1280.4</ele>
        <time>2013-11-11T15:17:15Z</time>
      </trkpt>
      <trkpt lat="47.90347" lon="7.1065">
        <ele>1279.8</ele>
        <time>2013-11-11T15:17:16Z</time>
      </trkpt>
      <trkpt lat="47.90343" lon="7.10651">
        <ele>1279.2</ele>
        <time>2013-11-11T15:17:17Z</time>
      </trkpt>
      <trkpt lat="47.90339" lon="7.10651">
        <ele>1278.7</ele>
        <time>2013-11-11T15:17:18Z</time>
      </trkpt>
      <trkpt lat="47.90335" lon="7.10651">
        <ele>1278.2</ele>
        <time>2013-11-11T15:17:19Z</time>
      </trkpt>
      <trkpt lat="47.90331" lon="7.10651">
        <ele>1277.6</ele>
        <time>2013-11-11T15:17:20Z</time>
      </trkpt>
      <trkpt lat="47.90327" lon="7.10652">
        <ele>1277</ele>
        <time>2013-11-11T15:17:21Z</time>
      </trkpt>
      <trkpt lat="47.90324" lon="7.10654">
        <ele>1276.3</ele>
        <time>2013-11-11T15:17:22Z</time>
      </trkpt>
      <trkpt lat="47.90321" lon="7.10655">
        <ele>1275.6</ele>
        <time>2013-11-11T15:17:23Z</time>
      </trkpt>
      <trkpt lat="47.90318" lon="7.10657">
        <ele>1274.9</ele>
        <time>2013-11-11T15:17:24Z</time>
      </trkpt>
      <trkpt lat="47.90315" lon="7.10658">
        <ele>1274.3</ele>
        <time>2013-11-11T15:17:25Z</time>
      </trkpt>
      <trkpt lat="47.90312" lon="7.10659">
        <ele>1273.7</ele>
        <time>2013-11-11T15:17:26Z</time>
      </trkpt>
      <trkpt lat="47.90308" lon="7.10661">
        <ele>1272.8</ele>
        <time>2013-11-11T15:17:28Z</time>
      </trkpt>
      <trkpt lat="47.90304" lon="7.10662">
        <ele>1272.2</ele>
        <time>2013-11-11T15:17:30Z</time>
      </trkpt>
      <trkpt lat="47.903" lon="7.10663">
        <ele>1271.4</ele>
        <time>2013-11-11T15:17:32Z</time>
      </trkpt>
      <trkpt lat="47.90295" lon="7.10665">
        <ele>1270.4</ele>
        <time>2013-11-11T15:17:34Z</time>
      </trkpt>
      <trkpt lat="47.90293" lon="7.10667">
        <ele>1269.6</ele>
        <time>2013-11-11T15:17:35Z</time>
      </trkpt>
      <trkpt lat="47.9029" lon="7.10671">
        <ele>1268.5</ele>
        <time>2013-11-11T15:17:36Z</time>
      </trkpt>
      <trkpt lat="47.90287" lon="7.10675">
        <ele>1267.4</ele>
        <time>2013-11-11T15:17:37Z</time>
      </trkpt>
      <trkpt lat="47.90284" lon="7.10678">
        <ele>1266.4</ele>
        <time>2013-11-11T15:17:38Z</time>
      </trkpt>
      <trkpt lat="47.90281" lon="7.10683">
        <ele>1265.1</ele>
        <time>2013-11-11T15:17:39Z</time>
      </trkpt>
      <trkpt lat="47.90279" lon="7.10688">
        <ele>1263.9</ele>
        <time>2013-11-11T15:17:40Z</time>
      </trkpt>
      <trkpt lat="47.90277" lon="7.10694">
        <ele>1262.5</ele>
        <time>2013-11-11T15:17:41Z</time>
      </trkpt>
      <trkpt lat="47.90275" lon="7.10699">
        <ele>1261.1</ele>
        <time>2013-11-11T15:17:42Z</time>
      </trkpt>
      <trkpt lat="47.90274" lon="7.10704">
        <ele>1259.9</ele>
        <time>2013-11-11T15:17:43Z</time>
      </trkpt>
      <trkpt lat="47.90274" lon="7.10709">
        <ele>1258.8</ele>
        <time>2013-11-11T15:17:44Z</time>
      </trkpt>
      <trkpt lat="47.90274" lon="7.10714">
        <ele>1258.1</ele>
        <time>2013-11-11T15:17:45Z</time>
      </trkpt>
      <trkpt lat="47.90275" lon="7.10718">
        <ele>1257.5</ele>
        <time>2013-11-11T15:17:46Z</time>
      </trkpt>
      <trkpt lat="47.90276" lon="7.10723">
        <ele>1256.9</ele>
        <time>2013-11-11T15:17:47Z</time>
      </trkpt>
      <trkpt lat="47.90278" lon="7.10728">
        <ele>1256.3</ele>
        <time>2013-11-11T15:17:48Z</time>
      </trkpt>
      <trkpt lat="47.90281" lon="7.10733">
        <ele>1255.6</ele>
        <time>2013-11-11T15:17:49Z</time>
      </trkpt>
      <trkpt lat="47.90284" lon="7.10738">
        <ele>1255</ele>
        <time>2013-11-11T15:17:50Z</time>
      </trkpt>
      <trkpt lat="47.90288" lon="7.10744">
        <ele>1254.3</ele>
        <time>2013-11-11T15:17:51Z</time>
      </trkpt>
      <trkpt lat="47.90292" lon="7.1075">
        <ele>1253.5</ele>
        <time>2013-11-11T15:17:52Z</time>
      </trkpt>
      <trkpt lat="47.90295" lon="7.10756">
        <ele>1253.1</ele>
        <time>2013-11-11T15:17:53Z</time>
      </trkpt>
      <trkpt lat="47.90297" lon="7.10761">
        <ele>1252.7</ele>
        <time>2013-11-11T15:17:54Z</time>
      </trkpt>
      <trkpt lat="47.903" lon="7.10766">
        <ele>1252.2</ele>
        <time>2013-11-11T15:17:55Z</time>
      </trkpt>
      <trkpt lat="47.90302" lon="7.10772">
        <ele>1251.6</ele>
        <time>2013-11-11T15:17:56Z</time>
      </trkpt>
      <trkpt lat="47.90304" lon="7.10777">
        <ele>1251.1</ele>
        <time>2013-11-11T15:17:57Z</time>
      </trkpt>
      <trkpt lat="47.90306" lon="7.10782">
        <ele>1250.5</ele>
        <time>2013-11-11T15:17:58Z</time>
      </trkpt>
      <trkpt lat="47.90308" lon="7.10788">
        <ele>1250</ele>
        <time>2013-11-11T15:17:59Z</time>
      </trkpt>
      <trkpt lat="47.90311" lon="7.10794">
        <ele>1249.5</ele>
        <time>2013-11-11T15:18:00Z</time>
      </trkpt>
      <trkpt lat="47.90314" lon="7.108">
        <ele>1249</ele>
        <time>2013-11-11T15:18:01Z</time>
      </trkpt>
      <trkpt lat="47.90317" lon="7.10806">
        <ele>1248.4</ele>
        <time>2013-11-11T15:18:02Z</time>
      </trkpt>
      <trkpt lat="47.90319" lon="7.10812">
        <ele>1247.7</ele>
        <time>2013-11-11T15:18:03Z</time>
      </trkpt>
      <trkpt lat="47.9032" lon="7.10818">
        <ele>1247</ele>
        <time>2013-11-11T15:18:04Z</time>
      </trkpt>
      <trkpt lat="47.90321" lon="7.10824">
        <ele>1246.1</ele>
        <time>2013-11-11T15:18:05Z</time>
      </trkpt>
      <trkpt lat="47.90321" lon="7.1083">
        <ele>1245.2</ele>
        <time>2013-11-11T15:18:06Z</time>
      </trkpt>
      <trkpt lat="47.90322" lon="7.10836">
        <ele>1244.4</ele>
        <time>2013-11-11T15:18:07Z</time>
      </trkpt>
      <trkpt lat="47.90322" lon="7.10841">
        <ele>1243.6</ele>
        <time>2013-11-11T15:18:08Z</time>
      </trkpt>
      <trkpt lat="47.90322" lon="7.10845">
        <ele>1242.9</ele>
        <time>2013-11-11T15:18:09Z</time>
      </trkpt>
      <trkpt lat="47.90322" lon="7.1085">
        <ele>1242.2</ele>
        <time>2013-11-11T15:18:10Z</time>
      </trkpt>
      <trkpt lat="47.90322" lon="7.10854">
        <ele>1241.5</ele>
        <time>2013-11-11T15:18:11Z</time>
      </trkpt>
      <trkpt lat="47.90323" lon="7.1086">
        <ele>1240.7</ele>
        <time>2013-11-11T15:18:12Z</time>
      </trkpt>
      <trkpt lat="47.90324" lon="7.10866">
        <ele>1239.8</ele>
        <time>2013-11-11T15:18:14Z</time>
      </trkpt>
      <trkpt lat="47.90326" lon="7.10876">
        <ele>1238.3</ele>
        <time>2013-11-11T15:18:15Z</time>
      </trkpt>
      <trkpt lat="47.90327" lon="7.10882">
        <ele>1237.4</ele>
        <time>2013-11-11T15:18:16Z</time>
      </trkpt>
      <trkpt lat="47.90329" lon="7.10888">
        <ele>1236.6</ele>
        <time>2013-11-11T15:18:17Z</time>
      </trkpt>
      <trkpt lat="47.90331" lon="7.10894">
        <ele>1235.8</ele>
        <time>2013-11-11T15:18:18Z</time>
      </trkpt>
      <trkpt lat="47.90333" lon="7.10899">
        <ele>1235.2</ele>
        <time>2013-11-11T15:18:19Z</time>
      </trkpt>
      <trkpt lat="47.90336" lon="7.10904">
        <ele>1234.6</ele>
        <time>2013-11-11T15:18:20Z</time>
      </trkpt>
      <trkpt lat="47.90339" lon="7.10909">
        <ele>1234.2</ele>
        <time>2013-11-11T15:18:21Z</time>
      </trkpt>
      <trkpt lat="47.90341" lon="7.10914">
        <ele>1233.7</ele>
        <time>2013-11-11T15:18:22Z</time>
      </trkpt>
      <trkpt lat="47.90345" lon="7.10919">
        <ele>1233.2</ele>
        <time>2013-11-11T15:18:23Z</time>
      </trkpt>
      <trkpt lat="47.90348" lon="7.10924">
        <ele>1232.7</ele>
        <time>2013-11-11T15:18:24Z</time>
      </trkpt>
      <trkpt lat="47.90351" lon="7.10929">
        <ele>1232.4</ele>
        <time>2013-11-11T15:18:25Z</time>
      </trkpt>
      <trkpt lat="47.90354" lon="7.10934">
        <ele>1232</ele>
        <time>2013-11-11T15:18:26Z</time>
      </trkpt>
      <trkpt lat="47.90356" lon="7.10939">
        <ele>1231.6</ele>
        <time>2013-11-11T15:18:27Z</time>
      </trkpt>
      <trkpt lat="47.9036" lon="7.10946">
        <ele>1231</ele>
        <time>2013-11-11T15:18:28Z</time>
      </trkpt>
      <trkpt lat="47.90363" lon="7.10951">
        <ele>1230.6</ele>
        <time>2013-11-11T15:18:29Z</time>
      </trkpt>
      <trkpt lat="47.90367" lon="7.10957">
        <ele>1230.2</ele>
        <time>2013-11-11T15:18:30Z</time>
      </trkpt>
      <trkpt lat="47.9037" lon="7.10962">
        <ele>1229.6</ele>
        <time>2013-11-11T15:18:31Z</time>
      </trkpt>
      <trkpt lat="47.90373" lon="7.10967">
        <ele>1229</ele>
        <time>2013-11-11T15:18:32Z</time>
      </trkpt>
      <trkpt lat="47.90376" lon="7.10971">
        <ele>1228.3</ele>
        <time>2013-11-11T15:18:33Z</time>
      </trkpt>
      <trkpt lat="47.90379" lon="7.10976">
        <ele>1227.6</ele>
        <time>2013-11-11T15:18:34Z</time>
      </trkpt>
      <trkpt lat="47.90384" lon="7.10981">
        <ele>1227</ele>
        <time>2013-11-11T15:18:35Z</time>
      </trkpt>
      <trkpt lat="47.90388" lon="7.10986">
        <ele>1226.5</ele>
        <time>2013-11-11T15:18:36Z</time>
      </trkpt>
      <trkpt lat="47.90392" lon="7.10989">
        <ele>1226.2</ele>
        <time>2013-11-11T15:18:37Z</time>
      </trkpt>
      <trkpt lat="47.90396" lon="7.10992">
        <ele>1226.1</ele>
        <time>2013-11-11T15:18:38Z</time>
      </trkpt>
      <trkpt lat="47.90401" lon="7.10995">
        <ele>1225.9</ele>
        <time>2013-11-11T15:18:39Z</time>
      </trkpt>
      <trkpt lat="47.90406" lon="7.10999">
        <ele>1225.7</ele>
        <time>2013-11-11T15:18:40Z</time>
      </trkpt>
      <trkpt lat="47.90412" lon="7.11003">
        <ele>1225.3</ele>
        <time>2013-11-11T15:18:41Z</time>
      </trkpt>
      <trkpt lat="47.90417" lon="7.11008">
        <ele>1224.9</ele>
        <time>2013-11-11T15:18:42Z</time>
      </trkpt>
      <trkpt lat="47.90421" lon="7.11012">
        <ele>1224.4</ele>
        <time>2013-11-11T15:18:43Z</time>
      </trkpt>
      <trkpt lat="47.90425" lon="7.11017">
        <ele>1223.8</ele>
        <time>2013-11-11T15:18:44Z</time>
      </trkpt>
      <trkpt lat="47.90428" lon="7.11022">
        <ele>1223</ele>
        <time>2013-11-11T15:18:45Z</time>
      </trkpt>
      <trkpt lat="47.90431" lon="7.11028">
        <ele>1222.1</ele>
        <time>2013-11-11T15:18:46Z</time>
      </trkpt>
      <trkpt lat="47.90433" lon="7.11033">
        <ele>1221.1</ele>
        <time>2013-11-11T15:18:47Z</time>
      </trkpt>
      <trkpt lat="47.90436" lon="7.1104">
        <ele>1220</ele>
        <time>2013-11-11T15:18:48Z</time>
      </trkpt>
      <trkpt lat="47.90438" lon="7.11046">
        <ele>1218.9</ele>
        <time>2013-11-11T15:18:49Z</time>
      </trkpt>
      <trkpt lat="47.9044" lon="7.11052">
        <ele>1217.7</ele>
        <time>2013-11-11T15:18:50Z</time>
      </trkpt>
      <trkpt lat="47.90443" lon="7.11058">
        <ele>1216.6</ele>
        <time>2013-11-11T15:18:51Z</time>
      </trkpt>
      <trkpt lat="47.90446" lon="7.11064">
        <ele>1215.5</ele>
        <time>2013-11-11T15:18:52Z</time>
      </trkpt>
      <trkpt lat="47.90449" lon="7.1107">
        <ele>1214.4</ele>
        <time>2013-11-11T15:18:53Z</time>
      </trkpt>
      <trkpt lat="47.90452" lon="7.11077">
        <ele>1213.4</ele>
        <time>2013-11-11T15:18:54Z</time>
      </trkpt>
      <trkpt lat="47.90456" lon="7.11083">
        <ele>1212.4</ele>
        <time>2013-11-11T15:18:55Z</time>
      </trkpt>
      <trkpt lat="47.90461" lon="7.1109">
        <ele>1211.3</ele>
        <time>2013-11-11T15:18:56Z</time>
      </trkpt>
      <trkpt lat="47.90469" lon="7.11105">
        <ele>1208.6</ele>
        <time>2013-11-11T15:18:57Z</time>
      </trkpt>
      <trkpt lat="47.90478" lon="7.11125">
        <ele>1205.3</ele>
        <time>2013-11-11T15:18:58Z</time>
      </trkpt>
      <trkpt lat="47.90483" lon="7.11132">
        <ele>1204.5</ele>
        <time>2013-11-11T15:18:59Z</time>
      </trkpt>
      <trkpt lat="47.90488" lon="7.11136">
        <ele>1204.1</ele>
        <time>2013-11-11T15:19:00Z</time>
      </trkpt>
      <trkpt lat="47.9049" lon="7.11142">
        <ele>1203.1</ele>
        <time>2013-11-11T15:19:01Z</time>
      </trkpt>
      <trkpt lat="47.90491" lon="7.11147">
        <ele>1202.2</ele>
        <time>2013-11-11T15:19:02Z</time>
      </trkpt>
      <trkpt lat="47.90493" lon="7.11155">
        <ele>1200.8</ele>
        <time>2013-11-11T15:19:03Z</time>
      </trkpt>
      <trkpt lat="47.90497" lon="7.1116">
        <ele>1200.1</ele>
        <time>2013-11-11T15:19:04Z</time>
      </trkpt>
      <trkpt lat="47.90502" lon="7.11167">
        <ele>1199.5</ele>
        <time>2013-11-11T15:19:05Z</time>
      </trkpt>
      <trkpt lat="47.90507" lon="7.11173">
        <ele>1198.9</ele>
        <time>2013-11-11T15:19:06Z</time>
      </trkpt>
      <trkpt lat="47.90509" lon="7.1118">
        <ele>1197.8</ele>
        <time>2013-11-11T15:19:07Z</time>
      </trkpt>
      <trkpt lat="47.90512" lon="7.11189">
        <ele>1196.6</ele>
        <time>2013-11-11T15:19:08Z</time>
      </trkpt>
      <trkpt lat="47.90515" lon="7.11198">
        <ele>1195.4</ele>
        <time>2013-11-11T15:19:09Z</time>
      </trkpt>
      <trkpt lat="47.90516" lon="7.11204">
        <ele>1194.3</ele>
        <time>2013-11-11T15:19:10Z</time>
      </trkpt>
      <trkpt lat="47.90517" lon="7.1121">
        <ele>1193.2</ele>
        <time>2013-11-11T15:19:11Z</time>
      </trkpt>
      <trkpt lat="47.90519" lon="7.11219">
        <ele>1191.5</ele>
        <time>2013-11-11T15:19:13Z</time>
      </trkpt>
      <trkpt lat="47.90523" lon="7.11227">
        <ele>1190.1</ele>
        <time>2013-11-11T15:19:15Z</time>
      </trkpt>
      <trkpt lat="47.90525" lon="7.11231">
        <ele>1189.6</ele>
        <time>2013-11-11T15:19:16Z</time>
      </trkpt>
      <trkpt lat="47.90525" lon="7.11238">
        <ele>1188.1</ele>
        <time>2013-11-11T15:19:17Z</time>
      </trkpt>
      <trkpt lat="47.90524" lon="7.11247">
        <ele>1185.8</ele>
        <time>2013-11-11T15:19:18Z</time>
      </trkpt>
      <trkpt lat="47.90524" lon="7.11252">
        <ele>1184.8</ele>
        <time>2013-11-11T15:19:19Z</time>
      </trkpt>
      <trkpt lat="47.90525" lon="7.11257">
        <ele>1183.6</ele>
        <time>2013-11-11T15:19:20Z</time>
      </trkpt>
      <trkpt lat="47.90525" lon="7.11262">
        <ele>1182.4</ele>
        <time>2013-11-11T15:19:21Z</time>
      </trkpt>
      <trkpt lat="47.90526" lon="7.11268">
        <ele>1181.4</ele>
        <time>2013-11-11T15:19:22Z</time>
      </trkpt>
      <trkpt lat="47.90529" lon="7.11275">
        <ele>1180.2</ele>
        <time>2013-11-11T15:19:23Z</time>
      </trkpt>
      <trkpt lat="47.90531" lon="7.11283">
        <ele>1179</ele>
        <time>2013-11-11T15:19:24Z</time>
      </trkpt>
      <trkpt lat="47.90533" lon="7.11292">
        <ele>1177.3</ele>
        <time>2013-11-11T15:19:25Z</time>
      </trkpt>
      <trkpt lat="47.90535" lon="7.113">
        <ele>1175.9</ele>
        <time>2013-11-11T15:19:26Z</time>
      </trkpt>
      <trkpt lat="47.90535" lon="7.11309">
        <ele>1174.2</ele>
        <time>2013-11-11T15:19:27Z</time>
      </trkpt>
      <trkpt lat="47.90535" lon="7.11319">
        <ele>1172.4</ele>
        <time>2013-11-11T15:19:28Z</time>
      </trkpt>
      <trkpt lat="47.90535" lon="7.11327">
        <ele>1170.6</ele>
        <time>2013-11-11T15:19:29Z</time>
      </trkpt>
      <trkpt lat="47.90535" lon="7.11335">
        <ele>1168.9</ele>
        <time>2013-11-11T15:19:30Z</time>
      </trkpt>
      <trkpt lat="47.90534" lon="7.11343">
        <ele>1167.2</ele>
        <time>2013-11-11T15:19:31Z</time>
      </trkpt>
      <trkpt lat="47.90533" lon="7.1135">
        <ele>1165.6</ele>
        <time>2013-11-11T15:19:32Z</time>
      </trkpt>
      <trkpt lat="47.90531" lon="7.11357">
        <ele>1163.9</ele>
        <time>2013-11-11T15:19:33Z</time>
      </trkpt>
      <trkpt lat="47.90529" lon="7.11362">
        <ele>1162.3</ele>
        <time>2013-11-11T15:19:34Z</time>
      </trkpt>
      <trkpt lat="47.90526" lon="7.11372">
        <ele>1159.5</ele>
        <time>2013-11-11T15:19:36Z</time>
      </trkpt>
      <trkpt lat="47.90525" lon="7.11377">
        <ele>1158.3</ele>
        <time>2013-11-11T15:19:37Z</time>
      </trkpt>
      <trkpt lat="47.90523" lon="7.11381">
        <ele>1157.4</ele>
        <time>2013-11-11T15:19:38Z</time>
      </trkpt>
      <trkpt lat="47.9052" lon="7.11387">
        <ele>1155.7</ele>
        <time>2013-11-11T15:19:39Z</time>
      </trkpt>
      <trkpt lat="47.90518" lon="7.11395">
        <ele>1154.1</ele>
        <time>2013-11-11T15:19:41Z</time>
      </trkpt>
      <trkpt lat="47.90515" lon="7.11403">
        <ele>1152.3</ele>
        <time>2013-11-11T15:19:42Z</time>
      </trkpt>
      <trkpt lat="47.90514" lon="7.11407">
        <ele>1151.5</ele>
        <time>2013-11-11T15:19:43Z</time>
      </trkpt>
      <trkpt lat="47.90513" lon="7.11414">
        <ele>1150.4</ele>
        <time>2013-11-11T15:19:45Z</time>
      </trkpt>
      <trkpt lat="47.90511" lon="7.1142">
        <ele>1148.9</ele>
        <time>2013-11-11T15:19:48Z</time>
      </trkpt>
      <trkpt lat="47.9051" lon="7.11426">
        <ele>1148</ele>
        <time>2013-11-11T15:19:50Z</time>
      </trkpt>
      <trkpt lat="47.9051" lon="7.11431">
        <ele>1147.1</ele>
        <time>2013-11-11T15:19:52Z</time>
      </trkpt>
      <trkpt lat="47.9051" lon="7.11437">
        <ele>1146.2</ele>
        <time>2013-11-11T15:19:54Z</time>
      </trkpt>
      <trkpt lat="47.90508" lon="7.1144">
        <ele>1145.4</ele>
        <time>2013-11-11T15:19:56Z</time>
      </trkpt>
      <trkpt lat="47.90506" lon="7.11445">
        <ele>1144.2</ele>
        <time>2013-11-11T15:19:59Z</time>
      </trkpt>
      <trkpt lat="47.90506" lon="7.11449">
        <ele>1143.5</ele>
        <time>2013-11-11T15:20:02Z</time>
      </trkpt>
      <trkpt lat="47.90507" lon="7.11453">
        <ele>1143.3</ele>
        <time>2013-11-11T15:20:04Z</time>
      </trkpt>
      <trkpt lat="47.90508" lon="7.11457">
        <ele>1143.1</ele>
        <time>2013-11-11T15:20:06Z</time>
      </trkpt>
      <trkpt lat="47.90507" lon="7.11461">
        <ele>1142.3</ele>
        <time>2013-11-11T15:20:12Z</time>
      </trkpt>
      <trkpt lat="47.90505" lon="7.11459">
        <ele>1141.8</ele>
        <time>2013-11-11T15:20:16Z</time>
      </trkpt>
      <trkpt lat="47.90503" lon="7.11456">
        <ele>1141.7</ele>
        <time>2013-11-11T15:20:19Z</time>
      </trkpt>
      <trkpt lat="47.90501" lon="7.11453">
        <ele>1141.5</ele>
        <time>2013-11-11T15:20:26Z</time>
      </trkpt>
      <trkpt lat="47.90499" lon="7.11455">
        <ele>1140.5</ele>
        <time>2013-11-11T15:20:32Z</time>
      </trkpt>
      <trkpt lat="47.90501" lon="7.11456">
        <ele>1141.2</ele>
        <time>2013-11-11T15:20:38Z</time>
      </trkpt>
      <trkpt lat="47.90504" lon="7.11457">
        <ele>1141.9</ele>
        <time>2013-11-11T15:20:41Z</time>
      </trkpt>
      <trkpt lat="47.90507" lon="7.1146">
        <ele>1142.4</ele>
        <time>2013-11-11T15:20:45Z</time>
      </trkpt>
      <trkpt lat="47.90502" lon="7.1146">
        <ele>1141</ele>
        <time>2013-11-11T15:20:59Z</time>
      </trkpt>
      <trkpt lat="47.905" lon="7.11463">
        <ele>1139.9</ele>
        <time>2013-11-11T15:21:28Z</time>
      </trkpt>
      <trkpt lat="47.90501" lon="7.11467">
        <ele>1139.6</ele>
        <time>2013-11-11T15:21:31Z</time>
      </trkpt>
      <trkpt lat="47.905" lon="7.11471">
        <ele>1139</ele>
        <time>2013-11-11T15:21:33Z</time>
      </trkpt>
      <trkpt lat="47.905" lon="7.11476">
        <ele>1138.3</ele>
        <time>2013-11-11T15:21:35Z</time>
      </trkpt>
      <trkpt lat="47.90498" lon="7.11483">
        <ele>1137</ele>
        <time>2013-11-11T15:21:37Z</time>
      </trkpt>
      <trkpt lat="47.90496" lon="7.1149">
        <ele>1135.6</ele>
        <time>2013-11-11T15:21:39Z</time>
      </trkpt>
      <trkpt lat="47.90495" lon="7.11494">
        <ele>1134.7</ele>
        <time>2013-11-11T15:21:40Z</time>
      </trkpt>
      <trkpt lat="47.90494" lon="7.11501">
        <ele>1133.6</ele>
        <time>2013-11-11T15:21:42Z</time>
      </trkpt>
      <trkpt lat="47.90493" lon="7.11505">
        <ele>1132.9</ele>
        <time>2013-11-11T15:21:43Z</time>
      </trkpt>
      <trkpt lat="47.90493" lon="7.1151">
        <ele>1132.3</ele>
        <time>2013-11-11T15:21:44Z</time>
      </trkpt>
      <trkpt lat="47.90494" lon="7.11516">
        <ele>1131.8</ele>
        <time>2013-11-11T15:21:45Z</time>
      </trkpt>
      <trkpt lat="47.90495" lon="7.11522">
        <ele>1131.3</ele>
        <time>2013-11-11T15:21:46Z</time>
      </trkpt>
      <trkpt lat="47.90496" lon="7.11529">
        <ele>1130.8</ele>
        <time>2013-11-11T15:21:47Z</time>
      </trkpt>
      <trkpt lat="47.90497" lon="7.11536">
        <ele>1130.3</ele>
        <time>2013-11-11T15:21:48Z</time>
      </trkpt>
      <trkpt lat="47.90498" lon="7.11543">
        <ele>1129.8</ele>
        <time>2013-11-11T15:21:49Z</time>
      </trkpt>
      <trkpt lat="47.90498" lon="7.1155">
        <ele>1129.3</ele>
        <time>2013-11-11T15:21:50Z</time>
      </trkpt>
      <trkpt lat="47.90498" lon="7.11557">
        <ele>1128.7</ele>
        <time>2013-11-11T15:21:51Z</time>
      </trkpt>
      <trkpt lat="47.90498" lon="7.11564">
        <ele>1127.9</ele>
        <time>2013-11-11T15:21:52Z</time>
      </trkpt>
      <trkpt lat="47.90497" lon="7.11572">
        <ele>1127.1</ele>
        <time>2013-11-11T15:21:53Z</time>
      </trkpt>
      <trkpt lat="47.90496" lon="7.1158">
        <ele>1126</ele>
        <time>2013-11-11T15:21:54Z</time>
      </trkpt>
      <trkpt lat="47.90495" lon="7.11587">
        <ele>1125</ele>
        <time>2013-11-11T15:21:55Z</time>
      </trkpt>
      <trkpt lat="47.90493" lon="7.11596">
        <ele>1123.7</ele>
        <time>2013-11-11T15:21:56Z</time>
      </trkpt>
      <trkpt lat="47.90491" lon="7.11605">
        <ele>1122.5</ele>
        <time>2013-11-11T15:21:57Z</time>
      </trkpt>
      <trkpt lat="47.90489" lon="7.11613">
        <ele>1121.4</ele>
        <time>2013-11-11T15:21:58Z</time>
      </trkpt>
      <trkpt lat="47.90489" lon="7.11622">
        <ele>1120.5</ele>
        <time>2013-11-11T15:21:59Z</time>
      </trkpt>
      <trkpt lat="47.90489" lon="7.1163">
        <ele>1119.7</ele>
        <time>2013-11-11T15:22:00Z</time>
      </trkpt>
      <trkpt lat="47.90489" lon="7.11637">
        <ele>1118.9</ele>
        <time>2013-11-11T15:22:01Z</time>
      </trkpt>
      <trkpt lat="47.90489" lon="7.11643">
        <ele>1118.1</ele>
        <time>2013-11-11T15:22:02Z</time>
      </trkpt>
      <trkpt lat="47.90488" lon="7.11648">
        <ele>1117.3</ele>
        <time>2013-11-11T15:22:03Z</time>
      </trkpt>
      <trkpt lat="47.90489" lon="7.11654">
        <ele>1116.8</ele>
        <time>2013-11-11T15:22:04Z</time>
      </trkpt>
      <trkpt lat="47.90491" lon="7.11661">
        <ele>1116.4</ele>
        <time>2013-11-11T15:22:05Z</time>
      </trkpt>
      <trkpt lat="47.90493" lon="7.11669">
        <ele>1116</ele>
        <time>2013-11-11T15:22:06Z</time>
      </trkpt>
      <trkpt lat="47.90495" lon="7.11676">
        <ele>1115.8</ele>
        <time>2013-11-11T15:22:07Z</time>
      </trkpt>
      <trkpt lat="47.90498" lon="7.11683">
        <ele>1115.7</ele>
        <time>2013-11-11T15:22:08Z</time>
      </trkpt>
      <trkpt lat="47.90501" lon="7.1169">
        <ele>1115.9</ele>
        <time>2013-11-11T15:22:09Z</time>
      </trkpt>
      <trkpt lat="47.90504" lon="7.11697">
        <ele>1116.1</ele>
        <time>2013-11-11T15:22:10Z</time>
      </trkpt>
      <trkpt lat="47.90507" lon="7.11703">
        <ele>1116.2</ele>
        <time>2013-11-11T15:22:11Z</time>
      </trkpt>
      <trkpt lat="47.9051" lon="7.11709">
        <ele>1116.3</ele>
        <time>2013-11-11T15:22:12Z</time>
      </trkpt>
      <trkpt lat="47.90512" lon="7.11714">
        <ele>1116.3</ele>
        <time>2013-11-11T15:22:13Z</time>
      </trkpt>
      <trkpt lat="47.90515" lon="7.11719">
        <ele>1116.5</ele>
        <time>2013-11-11T15:22:14Z</time>
      </trkpt>
      <trkpt lat="47.90518" lon="7.11724">
        <ele>1116.7</ele>
        <time>2013-11-11T15:22:15Z</time>
      </trkpt>
      <trkpt lat="47.90521" lon="7.1173">
        <ele>1116.9</ele>
        <time>2013-11-11T15:22:16Z</time>
      </trkpt>
      <trkpt lat="47.90524" lon="7.11735">
        <ele>1116.9</ele>
        <time>2013-11-11T15:22:17Z</time>
      </trkpt>
      <trkpt lat="47.90527" lon="7.11741">
        <ele>1116.9</ele>
        <time>2013-11-11T15:22:18Z</time>
      </trkpt>
      <trkpt lat="47.90529" lon="7.11746">
        <ele>1116.9</ele>
        <time>2013-11-11T15:22:19Z</time>
      </trkpt>
      <trkpt lat="47.90531" lon="7.11752">
        <ele>1117</ele>
        <time>2013-11-11T15:22:20Z</time>
      </trkpt>
      <trkpt lat="47.90534" lon="7.11756">
        <ele>1117.4</ele>
        <time>2013-11-11T15:22:21Z</time>
      </trkpt>
      <trkpt lat="47.90537" lon="7.1176">
        <ele>1117.8</ele>
        <time>2013-11-11T15:22:22Z</time>
      </trkpt>
      <trkpt lat="47.90541" lon="7.11764">
        <ele>1118.4</ele>
        <time>2013-11-11T15:22:23Z</time>
      </trkpt>
      <trkpt lat="47.90544" lon="7.11768">
        <ele>1119</ele>
        <time>2013-11-11T15:22:24Z</time>
      </trkpt>
      <trkpt lat="47.90548" lon="7.11788">
        <ele>1117.4</ele>
        <time>2013-11-11T15:22:25Z</time>
      </trkpt>
      <trkpt lat="47.90554" lon="7.11815">
        <ele>1113.6</ele>
        <time>2013-11-11T15:22:26Z</time>
      </trkpt>
      <trkpt lat="47.90557" lon="7.11825">
        <ele>1112.5</ele>
        <time>2013-11-11T15:22:27Z</time>
      </trkpt>
      <trkpt lat="47.90561" lon="7.1183">
        <ele>1112.7</ele>
        <time>2013-11-11T15:22:28Z</time>
      </trkpt>
      <trkpt lat="47.90563" lon="7.11835">
        <ele>1112.2</ele>
        <time>2013-11-11T15:22:29Z</time>
      </trkpt>
      <trkpt lat="47.90565" lon="7.11843">
        <ele>1111.2</ele>
        <time>2013-11-11T15:22:31Z</time>
      </trkpt>
      <trkpt lat="47.90566" lon="7.11848">
        <ele>1110.4</ele>
        <time>2013-11-11T15:22:32Z</time>
      </trkpt>
      <trkpt lat="47.90567" lon="7.11855">
        <ele>1109.3</ele>
        <time>2013-11-11T15:22:34Z</time>
      </trkpt>
      <trkpt lat="47.90567" lon="7.11862">
        <ele>1107.5</ele>
        <time>2013-11-11T15:22:35Z</time>
      </trkpt>
      <trkpt lat="47.9057" lon="7.11872">
        <ele>1106.5</ele>
        <time>2013-11-11T15:22:36Z</time>
      </trkpt>
      <trkpt lat="47.90571" lon="7.11879">
        <ele>1105.5</ele>
        <time>2013-11-11T15:22:37Z</time>
      </trkpt>
      <trkpt lat="47.90571" lon="7.11885">
        <ele>1104.2</ele>
        <time>2013-11-11T15:22:38Z</time>
      </trkpt>
      <trkpt lat="47.90571" lon="7.11889">
        <ele>1103.6</ele>
        <time>2013-11-11T15:22:39Z</time>
      </trkpt>
      <trkpt lat="47.90572" lon="7.11893">
        <ele>1102.9</ele>
        <time>2013-11-11T15:22:40Z</time>
      </trkpt>
      <trkpt lat="47.90571" lon="7.11897">
        <ele>1102.1</ele>
        <time>2013-11-11T15:22:41Z</time>
      </trkpt>
      <trkpt lat="47.90571" lon="7.11902">
        <ele>1101.2</ele>
        <time>2013-11-11T15:22:42Z</time>
      </trkpt>
      <trkpt lat="47.90571" lon="7.11907">
        <ele>1100.2</ele>
        <time>2013-11-11T15:22:43Z</time>
      </trkpt>
      <trkpt lat="47.90571" lon="7.11911">
        <ele>1099.4</ele>
        <time>2013-11-11T15:22:44Z</time>
      </trkpt>
      <trkpt lat="47.90571" lon="7.11916">
        <ele>1098.6</ele>
        <time>2013-11-11T15:22:45Z</time>
      </trkpt>
      <trkpt lat="47.90571" lon="7.1192">
        <ele>1097.9</ele>
        <time>2013-11-11T15:22:46Z</time>
      </trkpt>
      <trkpt lat="47.90571" lon="7.11928">
        <ele>1096.5</ele>
        <time>2013-11-11T15:22:48Z</time>
      </trkpt>
      <trkpt lat="47.90571" lon="7.11932">
        <ele>1095.8</ele>
        <time>2013-11-11T15:22:49Z</time>
      </trkpt>
      <trkpt lat="47.90572" lon="7.11936">
        <ele>1095.1</ele>
        <time>2013-11-11T15:22:50Z</time>
      </trkpt>
      <trkpt lat="47.90573" lon="7.11941">
        <ele>1094.4</ele>
        <time>2013-11-11T15:22:51Z</time>
      </trkpt>
      <trkpt lat="47.90573" lon="7.11946">
        <ele>1093.7</ele>
        <time>2013-11-11T15:22:52Z</time>
      </trkpt>
      <trkpt lat="47.90575" lon="7.1195">
        <ele>1093.3</ele>
        <time>2013-11-11T15:22:53Z</time>
      </trkpt>
      <trkpt lat="47.90576" lon="7.11954">
        <ele>1092.9</ele>
        <time>2013-11-11T15:22:54Z</time>
      </trkpt>
      <trkpt lat="47.90578" lon="7.11961">
        <ele>1092</ele>
        <time>2013-11-11T15:22:56Z</time>
      </trkpt>
      <trkpt lat="47.90578" lon="7.11966">
        <ele>1090.6</ele>
        <time>2013-11-11T15:22:58Z</time>
      </trkpt>
      <trkpt lat="47.90575" lon="7.11969">
        <ele>1089</ele>
        <time>2013-11-11T15:23:01Z</time>
      </trkpt>
      <trkpt lat="47.90571" lon="7.1197">
        <ele>1087.7</ele>
        <time>2013-11-11T15:23:03Z</time>
      </trkpt>
      <trkpt lat="47.90568" lon="7.11971">
        <ele>1086.5</ele>
        <time>2013-11-11T15:23:05Z</time>
      </trkpt>
      <trkpt lat="47.90564" lon="7.11973">
        <ele>1084.9</ele>
        <time>2013-11-11T15:23:07Z</time>
      </trkpt>
      <trkpt lat="47.90561" lon="7.11975">
        <ele>1083.6</ele>
        <time>2013-11-11T15:23:09Z</time>
      </trkpt>
      <trkpt lat="47.90563" lon="7.11982">
        <ele>1082.2</ele>
        <time>2013-11-11T15:23:11Z</time>
      </trkpt>
      <trkpt lat="47.90565" lon="7.11987">
        <ele>1081.7</ele>
        <time>2013-11-11T15:23:12Z</time>
      </trkpt>
      <trkpt lat="47.90567" lon="7.11991">
        <ele>1081.2</ele>
        <time>2013-11-11T15:23:13Z</time>
      </trkpt>
      <trkpt lat="47.9057" lon="7.11995">
        <ele>1080.7</ele>
        <time>2013-11-11T15:23:14Z</time>
      </trkpt>
      <trkpt lat="47.90573" lon="7.12004">
        <ele>1079.4</ele>
        <time>2013-11-11T15:23:16Z</time>
      </trkpt>
      <trkpt lat="47.90574" lon="7.12009">
        <ele>1078.4</ele>
        <time>2013-11-11T15:23:17Z</time>
      </trkpt>
      <trkpt lat="47.90575" lon="7.12013">
        <ele>1077.6</ele>
        <time>2013-11-11T15:23:18Z</time>
      </trkpt>
      <trkpt lat="47.90576" lon="7.12018">
        <ele>1076.8</ele>
        <time>2013-11-11T15:23:19Z</time>
      </trkpt>
      <trkpt lat="47.90577" lon="7.12022">
        <ele>1076</ele>
        <time>2013-11-11T15:23:20Z</time>
      </trkpt>
      <trkpt lat="47.90578" lon="7.12026">
        <ele>1075.2</ele>
        <time>2013-11-11T15:23:21Z</time>
      </trkpt>
      <trkpt lat="47.90578" lon="7.12031">
        <ele>1074.2</ele>
        <time>2013-11-11T15:23:22Z</time>
      </trkpt>
      <trkpt lat="47.90579" lon="7.12036">
        <ele>1073.2</ele>
        <time>2013-11-11T15:23:23Z</time>
      </trkpt>
      <trkpt lat="47.9058" lon="7.12045">
        <ele>1071.2</ele>
        <time>2013-11-11T15:23:25Z</time>
      </trkpt>
      <trkpt lat="47.90581" lon="7.1205">
        <ele>1070.3</ele>
        <time>2013-11-11T15:23:26Z</time>
      </trkpt>
      <trkpt lat="47.90582" lon="7.12057">
        <ele>1069.2</ele>
        <time>2013-11-11T15:23:27Z</time>
      </trkpt>
      <trkpt lat="47.90583" lon="7.12064">
        <ele>1068</ele>
        <time>2013-11-11T15:23:28Z</time>
      </trkpt>
      <trkpt lat="47.90585" lon="7.12077">
        <ele>1065.4</ele>
        <time>2013-11-11T15:23:29Z</time>
      </trkpt>
      <trkpt lat="47.90588" lon="7.12111">
        <ele>1058.5</ele>
        <time>2013-11-11T15:23:31Z</time>
      </trkpt>
      <trkpt lat="47.9059" lon="7.12116">
        <ele>1057.8</ele>
        <time>2013-11-11T15:23:32Z</time>
      </trkpt>
      <trkpt lat="47.90594" lon="7.1212">
        <ele>1058</ele>
        <time>2013-11-11T15:23:34Z</time>
      </trkpt>
      <trkpt lat="47.90595" lon="7.12124">
        <ele>1057.2</ele>
        <time>2013-11-11T15:23:35Z</time>
      </trkpt>
      <trkpt lat="47.90598" lon="7.12122">
        <ele>1058.6</ele>
        <time>2013-11-11T15:23:36Z</time>
      </trkpt>
      <trkpt lat="47.90601" lon="7.12125">
        <ele>1058.5</ele>
        <time>2013-11-11T15:23:37Z</time>
      </trkpt>
      <trkpt lat="47.90602" lon="7.12129">
        <ele>1058.2</ele>
        <time>2013-11-11T15:23:38Z</time>
      </trkpt>
      <trkpt lat="47.90604" lon="7.12134">
        <ele>1057.4</ele>
        <time>2013-11-11T15:23:41Z</time>
      </trkpt>
      <trkpt lat="47.90606" lon="7.1214">
        <ele>1056.7</ele>
        <time>2013-11-11T15:23:43Z</time>
      </trkpt>
      <trkpt lat="47.90608" lon="7.12144">
        <ele>1056.3</ele>
        <time>2013-11-11T15:23:44Z</time>
      </trkpt>
      <trkpt lat="47.9061" lon="7.12147">
        <ele>1056.1</ele>
        <time>2013-11-11T15:23:45Z</time>
      </trkpt>
      <trkpt lat="47.90613" lon="7.1215">
        <ele>1056</ele>
        <time>2013-11-11T15:23:46Z</time>
      </trkpt>
      <trkpt lat="47.90616" lon="7.12153">
        <ele>1056</ele>
        <time>2013-11-11T15:23:47Z</time>
      </trkpt>
      <trkpt lat="47.90619" lon="7.12157">
        <ele>1056.2</ele>
        <time>2013-11-11T15:23:48Z</time>
      </trkpt>
      <trkpt lat="47.90622" lon="7.1216">
        <ele>1056.4</ele>
        <time>2013-11-11T15:23:49Z</time>
      </trkpt>
      <trkpt lat="47.90626" lon="7.12163">
        <ele>1056.7</ele>
        <time>2013-11-11T15:23:50Z</time>
      </trkpt>
      <trkpt lat="47.90629" lon="7.12166">
        <ele>1057</ele>
        <time>2013-11-11T15:23:51Z</time>
      </trkpt>
      <trkpt lat="47.90633" lon="7.12168">
        <ele>1057.2</ele>
        <time>2013-11-11T15:23:52Z</time>
      </trkpt>
      <trkpt lat="47.90635" lon="7.12171">
        <ele>1057.3</ele>
        <time>2013-11-11T15:23:53Z</time>
      </trkpt>
      <trkpt lat="47.90638" lon="7.12177">
        <ele>1056.7</ele>
        <time>2013-11-11T15:23:55Z</time>
      </trkpt>
      <trkpt lat="47.9064" lon="7.12183">
        <ele>1056</ele>
        <time>2013-11-11T15:23:57Z</time>
      </trkpt>
      <trkpt lat="47.90642" lon="7.12187">
        <ele>1055.5</ele>
        <time>2013-11-11T15:23:58Z</time>
      </trkpt>
      <trkpt lat="47.90644" lon="7.12191">
        <ele>1055.1</ele>
        <time>2013-11-11T15:23:59Z</time>
      </trkpt>
      <trkpt lat="47.90647" lon="7.12197">
        <ele>1054.6</ele>
        <time>2013-11-11T15:24:00Z</time>
      </trkpt>
      <trkpt lat="47.90649" lon="7.122">
        <ele>1054.5</ele>
        <time>2013-11-11T15:24:01Z</time>
      </trkpt>
      <trkpt lat="47.90653" lon="7.12206">
        <ele>1054.2</ele>
        <time>2013-11-11T15:24:03Z</time>
      </trkpt>
      <trkpt lat="47.90655" lon="7.12209">
        <ele>1054.1</ele>
        <time>2013-11-11T15:24:04Z</time>
      </trkpt>
      <trkpt lat="47.90658" lon="7.12212">
        <ele>1054.2</ele>
        <time>2013-11-11T15:24:05Z</time>
      </trkpt>
      <trkpt lat="47.90661" lon="7.12216">
        <ele>1054.3</ele>
        <time>2013-11-11T15:24:06Z</time>
      </trkpt>
      <trkpt lat="47.90666" lon="7.12221">
        <ele>1054.5</ele>
        <time>2013-11-11T15:24:07Z</time>
      </trkpt>
      <trkpt lat="47.90671" lon="7.12225">
        <ele>1054.9</ele>
        <time>2013-11-11T15:24:08Z</time>
      </trkpt>
      <trkpt lat="47.90676" lon="7.12228">
        <ele>1055.3</ele>
        <time>2013-11-11T15:24:09Z</time>
      </trkpt>
      <trkpt lat="47.90681" lon="7.12232">
        <ele>1055.7</ele>
        <time>2013-11-11T15:24:10Z</time>
      </trkpt>
      <trkpt lat="47.90686" lon="7.12237">
        <ele>1055.9</ele>
        <time>2013-11-11T15:24:11Z</time>
      </trkpt>
      <trkpt lat="47.90691" lon="7.12242">
        <ele>1055.8</ele>
        <time>2013-11-11T15:24:12Z</time>
      </trkpt>
      <trkpt lat="47.90695" lon="7.12248">
        <ele>1055.4</ele>
        <time>2013-11-11T15:24:13Z</time>
      </trkpt>
      <trkpt lat="47.907" lon="7.12254">
        <ele>1054.9</ele>
        <time>2013-11-11T15:24:14Z</time>
      </trkpt>
      <trkpt lat="47.90704" lon="7.12259">
        <ele>1054.5</ele>
        <time>2013-11-11T15:24:15Z</time>
      </trkpt>
      <trkpt lat="47.90708" lon="7.12263">
        <ele>1054.3</ele>
        <time>2013-11-11T15:24:16Z</time>
      </trkpt>
      <trkpt lat="47.90712" lon="7.12268">
        <ele>1054.1</ele>
        <time>2013-11-11T15:24:17Z</time>
      </trkpt>
      <trkpt lat="47.90716" lon="7.12272">
        <ele>1054</ele>
        <time>2013-11-11T15:24:18Z</time>
      </trkpt>
      <trkpt lat="47.90721" lon="7.12276">
        <ele>1053.8</ele>
        <time>2013-11-11T15:24:19Z</time>
      </trkpt>
      <trkpt lat="47.90726" lon="7.12281">
        <ele>1053.5</ele>
        <time>2013-11-11T15:24:20Z</time>
      </trkpt>
      <trkpt lat="47.9073" lon="7.12296">
        <ele>1050.6</ele>
        <time>2013-11-11T15:24:21Z</time>
      </trkpt>
      <trkpt lat="47.90735" lon="7.12316">
        <ele>1047.2</ele>
        <time>2013-11-11T15:24:22Z</time>
      </trkpt>
      <trkpt lat="47.90734" lon="7.1232">
        <ele>1046</ele>
        <time>2013-11-11T15:24:23Z</time>
      </trkpt>
      <trkpt lat="47.90736" lon="7.12326">
        <ele>1045.2</ele>
        <time>2013-11-11T15:24:24Z</time>
      </trkpt>
      <trkpt lat="47.90739" lon="7.12339">
        <ele>1042.9</ele>
        <time>2013-11-11T15:24:25Z</time>
      </trkpt>
      <trkpt lat="47.90743" lon="7.12348">
        <ele>1041.5</ele>
        <time>2013-11-11T15:24:26Z</time>
      </trkpt>
      <trkpt lat="47.90743" lon="7.12355">
        <ele>1040</ele>
        <time>2013-11-11T15:24:27Z</time>
      </trkpt>
      <trkpt lat="47.90745" lon="7.1236">
        <ele>1039.3</ele>
        <time>2013-11-11T15:24:28Z</time>
      </trkpt>
      <trkpt lat="47.90746" lon="7.12367">
        <ele>1037.9</ele>
        <time>2013-11-11T15:24:29Z</time>
      </trkpt>
      <trkpt lat="47.90746" lon="7.12374">
        <ele>1036.5</ele>
        <time>2013-11-11T15:24:30Z</time>
      </trkpt>
      <trkpt lat="47.90747" lon="7.12381">
        <ele>1035.1</ele>
        <time>2013-11-11T15:24:31Z</time>
      </trkpt>
      <trkpt lat="47.90748" lon="7.12387">
        <ele>1034.2</ele>
        <time>2013-11-11T15:24:32Z</time>
      </trkpt>
      <trkpt lat="47.90749" lon="7.12392">
        <ele>1033.2</ele>
        <time>2013-11-11T15:24:33Z</time>
      </trkpt>
      <trkpt lat="47.90749" lon="7.12398">
        <ele>1032.2</ele>
        <time>2013-11-11T15:24:34Z</time>
      </trkpt>
      <trkpt lat="47.9075" lon="7.12404">
        <ele>1031.3</ele>
        <time>2013-11-11T15:24:35Z</time>
      </trkpt>
      <trkpt lat="47.90751" lon="7.1241">
        <ele>1030.3</ele>
        <time>2013-11-11T15:24:36Z</time>
      </trkpt>
      <trkpt lat="47.90752" lon="7.12416">
        <ele>1029.3</ele>
        <time>2013-11-11T15:24:37Z</time>
      </trkpt>
      <trkpt lat="47.90752" lon="7.12422">
        <ele>1028.2</ele>
        <time>2013-11-11T15:24:38Z</time>
      </trkpt>
      <trkpt lat="47.90754" lon="7.1243">
        <ele>1027</ele>
        <time>2013-11-11T15:24:39Z</time>
      </trkpt>
      <trkpt lat="47.90755" lon="7.12446">
        <ele>1024.2</ele>
        <time>2013-11-11T15:24:40Z</time>
      </trkpt>
      <trkpt lat="47.90756" lon="7.12468">
        <ele>1020.8</ele>
        <time>2013-11-11T15:24:41Z</time>
      </trkpt>
      <trkpt lat="47.90757" lon="7.12474">
        <ele>1020.3</ele>
        <time>2013-11-11T15:24:42Z</time>
      </trkpt>
      <trkpt lat="47.90759" lon="7.12479">
        <ele>1020</ele>
        <time>2013-11-11T15:24:43Z</time>
      </trkpt>
      <trkpt lat="47.90761" lon="7.12484">
        <ele>1019.9</ele>
        <time>2013-11-11T15:24:44Z</time>
      </trkpt>
      <trkpt lat="47.90763" lon="7.12489">
        <ele>1019.6</ele>
        <time>2013-11-11T15:24:45Z</time>
      </trkpt>
      <trkpt lat="47.90764" lon="7.12495">
        <ele>1019.2</ele>
        <time>2013-11-11T15:24:46Z</time>
      </trkpt>
      <trkpt lat="47.90765" lon="7.125">
        <ele>1018.8</ele>
        <time>2013-11-11T15:24:47Z</time>
      </trkpt>
      <trkpt lat="47.90766" lon="7.12506">
        <ele>1018.2</ele>
        <time>2013-11-11T15:24:48Z</time>
      </trkpt>
      <trkpt lat="47.90767" lon="7.12514">
        <ele>1017.4</ele>
        <time>2013-11-11T15:24:49Z</time>
      </trkpt>
      <trkpt lat="47.90766" lon="7.12529">
        <ele>1015.1</ele>
        <time>2013-11-11T15:24:50Z</time>
      </trkpt>
      <trkpt lat="47.90764" lon="7.12551">
        <ele>1011.8</ele>
        <time>2013-11-11T15:24:51Z</time>
      </trkpt>
      <trkpt lat="47.90765" lon="7.12557">
        <ele>1011.3</ele>
        <time>2013-11-11T15:24:52Z</time>
      </trkpt>
      <trkpt lat="47.90766" lon="7.12563">
        <ele>1010.8</ele>
        <time>2013-11-11T15:24:53Z</time>
      </trkpt>
      <trkpt lat="47.90767" lon="7.12568">
        <ele>1010.3</ele>
        <time>2013-11-11T15:24:54Z</time>
      </trkpt>
      <trkpt lat="47.90769" lon="7.12575">
        <ele>1009.8</ele>
        <time>2013-11-11T15:24:55Z</time>
      </trkpt>
      <trkpt lat="47.90771" lon="7.12581">
        <ele>1009.4</ele>
        <time>2013-11-11T15:24:56Z</time>
      </trkpt>
      <trkpt lat="47.90773" lon="7.12589">
        <ele>1009</ele>
        <time>2013-11-11T15:24:57Z</time>
      </trkpt>
      <trkpt lat="47.90775" lon="7.12599">
        <ele>1008.3</ele>
        <time>2013-11-11T15:24:58Z</time>
      </trkpt>
      <trkpt lat="47.90778" lon="7.12616">
        <ele>1006.6</ele>
        <time>2013-11-11T15:24:59Z</time>
      </trkpt>
      <trkpt lat="47.90781" lon="7.12641">
        <ele>1004.2</ele>
        <time>2013-11-11T15:25:00Z</time>
      </trkpt>
      <trkpt lat="47.90783" lon="7.12647">
        <ele>1003.7</ele>
        <time>2013-11-11T15:25:01Z</time>
      </trkpt>
      <trkpt lat="47.90786" lon="7.12653">
        <ele>1003.5</ele>
        <time>2013-11-11T15:25:02Z</time>
      </trkpt>
      <trkpt lat="47.90788" lon="7.12659">
        <ele>1003</ele>
        <time>2013-11-11T15:25:03Z</time>
      </trkpt>
      <trkpt lat="47.90789" lon="7.12665">
        <ele>1002.6</ele>
        <time>2013-11-11T15:25:04Z</time>
      </trkpt>
      <trkpt lat="47.90791" lon="7.12671">
        <ele>1002.2</ele>
        <time>2013-11-11T15:25:05Z</time>
      </trkpt>
      <trkpt lat="47.90792" lon="7.12676">
        <ele>1001.8</ele>
        <time>2013-11-11T15:25:06Z</time>
      </trkpt>
      <trkpt lat="47.90794" lon="7.12682">
        <ele>1001.1</ele>
        <time>2013-11-11T15:25:07Z</time>
      </trkpt>
      <trkpt lat="47.90796" lon="7.1269">
        <ele>1000.4</ele>
        <time>2013-11-11T15:25:08Z</time>
      </trkpt>
      <trkpt lat="47.90798" lon="7.12697">
        <ele>999.7</ele>
        <time>2013-11-11T15:25:09Z</time>
      </trkpt>
      <trkpt lat="47.908" lon="7.12711">
        <ele>997.9</ele>
        <time>2013-11-11T15:25:10Z</time>
      </trkpt>
      <trkpt lat="47.90803" lon="7.1273">
        <ele>995.2</ele>
        <time>2013-11-11T15:25:11Z</time>
      </trkpt>
      <trkpt lat="47.90807" lon="7.12738">
        <ele>994.4</ele>
        <time>2013-11-11T15:25:12Z</time>
      </trkpt>
      <trkpt lat="47.90814" lon="7.1275">
        <ele>993.3</ele>
        <time>2013-11-11T15:25:13Z</time>
      </trkpt>
      <trkpt lat="47.90819" lon="7.12763">
        <ele>991.8</ele>
        <time>2013-11-11T15:25:14Z</time>
      </trkpt>
      <trkpt lat="47.90823" lon="7.12778">
        <ele>989.9</ele>
        <time>2013-11-11T15:25:15Z</time>
      </trkpt>
      <trkpt lat="47.90822" lon="7.12802">
        <ele>985.2</ele>
        <time>2013-11-11T15:25:16Z</time>
      </trkpt>
      <trkpt lat="47.90822" lon="7.12824">
        <ele>981</ele>
        <time>2013-11-11T15:25:17Z</time>
      </trkpt>
      <trkpt lat="47.90821" lon="7.12842">
        <ele>977.3</ele>
        <time>2013-11-11T15:25:18Z</time>
      </trkpt>
      <trkpt lat="47.9082" lon="7.12853">
        <ele>975</ele>
        <time>2013-11-11T15:25:19Z</time>
      </trkpt>
      <trkpt lat="47.9082" lon="7.12863">
        <ele>973.1</ele>
        <time>2013-11-11T15:25:20Z</time>
      </trkpt>
      <trkpt lat="47.90818" lon="7.12874">
        <ele>970.6</ele>
        <time>2013-11-11T15:25:21Z</time>
      </trkpt>
      <trkpt lat="47.90821" lon="7.12884">
        <ele>970.4</ele>
        <time>2013-11-11T15:25:22Z</time>
      </trkpt>
      <trkpt lat="47.90821" lon="7.12892">
        <ele>970.1</ele>
        <time>2013-11-11T15:25:23Z</time>
      </trkpt>
      <trkpt lat="47.9082" lon="7.12903">
        <ele>969.4</ele>
        <time>2013-11-11T15:25:24Z</time>
      </trkpt>
      <trkpt lat="47.90817" lon="7.12914">
        <ele>968.5</ele>
        <time>2013-11-11T15:25:25Z</time>
      </trkpt>
      <trkpt lat="47.90814" lon="7.12924">
        <ele>967.8</ele>
        <time>2013-11-11T15:25:26Z</time>
      </trkpt>
      <trkpt lat="47.90813" lon="7.12933">
        <ele>967.2</ele>
        <time>2013-11-11T15:25:27Z</time>
      </trkpt>
      <trkpt lat="47.9081" lon="7.12943">
        <ele>966.5</ele>
        <time>2013-11-11T15:25:28Z</time>
      </trkpt>
      <trkpt lat="47.90809" lon="7.12951">
        <ele>965.9</ele>
        <time>2013-11-11T15:25:29Z</time>
      </trkpt>
      <trkpt lat="47.90809" lon="7.12956">
        <ele>965.8</ele>
        <time>2013-11-11T15:25:30Z</time>
      </trkpt>
      <trkpt lat="47.90806" lon="7.12965">
        <ele>965.6</ele>
        <time>2013-11-11T15:25:31Z</time>
      </trkpt>
      <trkpt lat="47.90804" lon="7.12979">
        <ele>966.1</ele>
        <time>2013-11-11T15:25:32Z</time>
      </trkpt>
      <trkpt lat="47.908" lon="7.12993">
        <ele>966.5</ele>
        <time>2013-11-11T15:25:33Z</time>
      </trkpt>
      <trkpt lat="47.90797" lon="7.13006">
        <ele>967</ele>
        <time>2013-11-11T15:25:34Z</time>
      </trkpt>
      <trkpt lat="47.90795" lon="7.13019">
        <ele>967.7</ele>
        <time>2013-11-11T15:25:35Z</time>
      </trkpt>
      <trkpt lat="47.90793" lon="7.1303">
        <ele>968.3</ele>
        <time>2013-11-11T15:25:36Z</time>
      </trkpt>
      <trkpt lat="47.90788" lon="7.13043">
        <ele>968.4</ele>
        <time>2013-11-11T15:25:37Z</time>
      </trkpt>
      <trkpt lat="47.90786" lon="7.13058">
        <ele>967.3</ele>
        <time>2013-11-11T15:25:38Z</time>
      </trkpt>
      <trkpt lat="47.90783" lon="7.13069">
        <ele>966.3</ele>
        <time>2013-11-11T15:25:39Z</time>
      </trkpt>
      <trkpt lat="47.9078" lon="7.13082">
        <ele>965.4</ele>
        <time>2013-11-11T15:25:40Z</time>
      </trkpt>
      <trkpt lat="47.90779" lon="7.13091">
        <ele>964.9</ele>
        <time>2013-11-11T15:25:41Z</time>
      </trkpt>
      <trkpt lat="47.90779" lon="7.13097">
        <ele>964.6</ele>
        <time>2013-11-11T15:25:42Z</time>
      </trkpt>
      <trkpt lat="47.90778" lon="7.13102">
        <ele>964.3</ele>
        <time>2013-11-11T15:25:43Z</time>
      </trkpt>
      <trkpt lat="47.9078" lon="7.13108">
        <ele>964.2</ele>
        <time>2013-11-11T15:25:44Z</time>
      </trkpt>
      <trkpt lat="47.9078" lon="7.13113">
        <ele>964</ele>
        <time>2013-11-11T15:25:45Z</time>
      </trkpt>
      <trkpt lat="47.90781" lon="7.13118">
        <ele>963.8</ele>
        <time>2013-11-11T15:25:46Z</time>
      </trkpt>
      <trkpt lat="47.90781" lon="7.13128">
        <ele>963.4</ele>
        <time>2013-11-11T15:25:47Z</time>
      </trkpt>
      <trkpt lat="47.90782" lon="7.13137">
        <ele>963.1</ele>
        <time>2013-11-11T15:25:48Z</time>
      </trkpt>
      <trkpt lat="47.90781" lon="7.13146">
        <ele>962.8</ele>
        <time>2013-11-11T15:25:49Z</time>
      </trkpt>
      <trkpt lat="47.90782" lon="7.13152">
        <ele>962.6</ele>
        <time>2013-11-11T15:25:50Z</time>
      </trkpt>
      <trkpt lat="47.90781" lon="7.13158">
        <ele>962.4</ele>
        <time>2013-11-11T15:25:51Z</time>
      </trkpt>
      <trkpt lat="47.90781" lon="7.13163">
        <ele>962.3</ele>
        <time>2013-11-11T15:25:52Z</time>
      </trkpt>
      <trkpt lat="47.9078" lon="7.1317">
        <ele>962</ele>
        <time>2013-11-11T15:25:54Z</time>
      </trkpt>
      <trkpt lat="47.90778" lon="7.13176">
        <ele>961.9</ele>
        <time>2013-11-11T15:25:56Z</time>
      </trkpt>
      <trkpt lat="47.90777" lon="7.13179">
        <ele>961.9</ele>
        <time>2013-11-11T15:25:57Z</time>
      </trkpt>
      <trkpt lat="47.90774" lon="7.13182">
        <ele>961.9</ele>
        <time>2013-11-11T15:25:58Z</time>
      </trkpt>
      <trkpt lat="47.90771" lon="7.13185">
        <ele>961.9</ele>
        <time>2013-11-11T15:25:59Z</time>
      </trkpt>
      <trkpt lat="47.90768" lon="7.13188">
        <ele>962</ele>
        <time>2013-11-11T15:26:00Z</time>
      </trkpt>
      <trkpt lat="47.90766" lon="7.1319">
        <ele>962.1</ele>
        <time>2013-11-11T15:26:01Z</time>
      </trkpt>
      <trkpt lat="47.90763" lon="7.13193">
        <ele>962.2</ele>
        <time>2013-11-11T15:26:02Z</time>
      </trkpt>
      <trkpt lat="47.9076" lon="7.13198">
        <ele>962.3</ele>
        <time>2013-11-11T15:26:04Z</time>
      </trkpt>
      <trkpt lat="47.90756" lon="7.13204">
        <ele>962.5</ele>
        <time>2013-11-11T15:26:06Z</time>
      </trkpt>
      <trkpt lat="47.90755" lon="7.13207">
        <ele>962.6</ele>
        <time>2013-11-11T15:26:07Z</time>
      </trkpt>
      <trkpt lat="47.90752" lon="7.13214">
        <ele>962.8</ele>
        <time>2013-11-11T15:26:09Z</time>
      </trkpt>
      <trkpt lat="47.9075" lon="7.13221">
        <ele>963</ele>
        <time>2013-11-11T15:26:11Z</time>
      </trkpt>
      <trkpt lat="47.90749" lon="7.13225">
        <ele>963.1</ele>
        <time>2013-11-11T15:26:12Z</time>
      </trkpt>
      <trkpt lat="47.90748" lon="7.13229">
        <ele>963.2</ele>
        <time>2013-11-11T15:26:13Z</time>
      </trkpt>
      <trkpt lat="47.90747" lon="7.13233">
        <ele>963.4</ele>
        <time>2013-11-11T15:26:14Z</time>
      </trkpt>
      <trkpt lat="47.90745" lon="7.1324">
        <ele>963.6</ele>
        <time>2013-11-11T15:26:16Z</time>
      </trkpt>
      <trkpt lat="47.90744" lon="7.13246">
        <ele>963.8</ele>
        <time>2013-11-11T15:26:18Z</time>
      </trkpt>
      <trkpt lat="47.90741" lon="7.13253">
        <ele>964.2</ele>
        <time>2013-11-11T15:26:20Z</time>
      </trkpt>
      <trkpt lat="47.9074" lon="7.13257">
        <ele>964.4</ele>
        <time>2013-11-11T15:26:21Z</time>
      </trkpt>
      <trkpt lat="47.90738" lon="7.13263">
        <ele>964.8</ele>
        <time>2013-11-11T15:26:23Z</time>
      </trkpt>
      <trkpt lat="47.90737" lon="7.13269">
        <ele>965.1</ele>
        <time>2013-11-11T15:26:25Z</time>
      </trkpt>
      <trkpt lat="47.90735" lon="7.13275">
        <ele>965.5</ele>
        <time>2013-11-11T15:26:27Z</time>
      </trkpt>
      <trkpt lat="47.90734" lon="7.13281">
        <ele>965.9</ele>
        <time>2013-11-11T15:26:29Z</time>
      </trkpt>
      <trkpt lat="47.90733" lon="7.13285">
        <ele>966.1</ele>
        <time>2013-11-11T15:26:30Z</time>
      </trkpt>
      <trkpt lat="47.90732" lon="7.13292">
        <ele>966.4</ele>
        <time>2013-11-11T15:26:32Z</time>
      </trkpt>
      <trkpt lat="47.90731" lon="7.13299">
        <ele>966.3</ele>
        <time>2013-11-11T15:26:34Z</time>
      </trkpt>
      <trkpt lat="47.9073" lon="7.13304">
        <ele>966.3</ele>
        <time>2013-11-11T15:26:36Z</time>
      </trkpt>
      <trkpt lat="47.90728" lon="7.13309">
        <ele>966.5</ele>
        <time>2013-11-11T15:26:38Z</time>
      </trkpt>
      <trkpt lat="47.90727" lon="7.13314">
        <ele>966.6</ele>
        <time>2013-11-11T15:26:40Z</time>
      </trkpt>
      <trkpt lat="47.90725" lon="7.13319">
        <ele>966.7</ele>
        <time>2013-11-11T15:26:42Z</time>
      </trkpt>
      <trkpt lat="47.90723" lon="7.13324">
        <ele>966.8</ele>
        <time>2013-11-11T15:26:44Z</time>
      </trkpt>
      <trkpt lat="47.90722" lon="7.1333">
        <ele>966.9</ele>
        <time>2013-11-11T15:26:46Z</time>
      </trkpt>
      <trkpt lat="47.90721" lon="7.13335">
        <ele>966.9</ele>
        <time>2013-11-11T15:26:48Z</time>
      </trkpt>
      <trkpt lat="47.90719" lon="7.13341">
        <ele>967.1</ele>
        <time>2013-11-11T15:26:50Z</time>
      </trkpt>
      <trkpt lat="47.90717" lon="7.13347">
        <ele>967.3</ele>
        <time>2013-11-11T15:26:52Z</time>
      </trkpt>
      <trkpt lat="47.90715" lon="7.13352">
        <ele>967.4</ele>
        <time>2013-11-11T15:26:54Z</time>
      </trkpt>
      <trkpt lat="47.90715" lon="7.13356">
        <ele>967.3</ele>
        <time>2013-11-11T15:26:55Z</time>
      </trkpt>
      <trkpt lat="47.90714" lon="7.13361">
        <ele>967.3</ele>
        <time>2013-11-11T15:26:56Z</time>
      </trkpt>
      <trkpt lat="47.90712" lon="7.13367">
        <ele>967.4</ele>
        <time>2013-11-11T15:26:57Z</time>
      </trkpt>
      <trkpt lat="47.90711" lon="7.13373">
        <ele>967.6</ele>
        <time>2013-11-11T15:26:58Z</time>
      </trkpt>
      <trkpt lat="47.90709" lon="7.13378">
        <ele>967.5</ele>
        <time>2013-11-11T15:26:59Z</time>
      </trkpt>
      <trkpt lat="47.90708" lon="7.13384">
        <ele>966.9</ele>
        <time>2013-11-11T15:27:00Z</time>
      </trkpt>
      <trkpt lat="47.90707" lon="7.1339">
        <ele>966.1</ele>
        <time>2013-11-11T15:27:01Z</time>
      </trkpt>
      <trkpt lat="47.90707" lon="7.13397">
        <ele>965.3</ele>
        <time>2013-11-11T15:27:02Z</time>
      </trkpt>
      <trkpt lat="47.90707" lon="7.13404">
        <ele>964.5</ele>
        <time>2013-11-11T15:27:03Z</time>
      </trkpt>
      <trkpt lat="47.90707" lon="7.1341">
        <ele>963.7</ele>
        <time>2013-11-11T15:27:04Z</time>
      </trkpt>
      <trkpt lat="47.90707" lon="7.13417">
        <ele>962.8</ele>
        <time>2013-11-11T15:27:05Z</time>
      </trkpt>
      <trkpt lat="47.90707" lon="7.13421">
        <ele>962.3</ele>
        <time>2013-11-11T15:27:06Z</time>
      </trkpt>
      <trkpt lat="47.90707" lon="7.13429">
        <ele>961.4</ele>
        <time>2013-11-11T15:27:08Z</time>
      </trkpt>
      <trkpt lat="47.90707" lon="7.13435">
        <ele>960.7</ele>
        <time>2013-11-11T15:27:10Z</time>
      </trkpt>
      <trkpt lat="47.90706" lon="7.1344">
        <ele>960</ele>
        <time>2013-11-11T15:27:12Z</time>
      </trkpt>
      <trkpt lat="47.90704" lon="7.13444">
        <ele>959.2</ele>
        <time>2013-11-11T15:27:13Z</time>
      </trkpt>
      <trkpt lat="47.90702" lon="7.13448">
        <ele>958.6</ele>
        <time>2013-11-11T15:27:14Z</time>
      </trkpt>
      <trkpt lat="47.907" lon="7.13451">
        <ele>958</ele>
        <time>2013-11-11T15:27:15Z</time>
      </trkpt>
      <trkpt lat="47.90699" lon="7.13455">
        <ele>957.4</ele>
        <time>2013-11-11T15:27:16Z</time>
      </trkpt>
      <trkpt lat="47.90696" lon="7.1346">
        <ele>956.3</ele>
        <time>2013-11-11T15:27:17Z</time>
      </trkpt>
      <trkpt lat="47.90695" lon="7.13464">
        <ele>955.3</ele>
        <time>2013-11-11T15:27:18Z</time>
      </trkpt>
      <trkpt lat="47.90694" lon="7.13468">
        <ele>954.3</ele>
        <time>2013-11-11T15:27:19Z</time>
      </trkpt>
      <trkpt lat="47.90692" lon="7.13475">
        <ele>952.4</ele>
        <time>2013-11-11T15:27:21Z</time>
      </trkpt>
      <trkpt lat="47.90691" lon="7.13482">
        <ele>950.6</ele>
        <time>2013-11-11T15:27:23Z</time>
      </trkpt>
      <trkpt lat="47.9069" lon="7.13489">
        <ele>948.8</ele>
        <time>2013-11-11T15:27:25Z</time>
      </trkpt>
      <trkpt lat="47.90689" lon="7.13494">
        <ele>947.6</ele>
        <time>2013-11-11T15:27:26Z</time>
      </trkpt>
      <trkpt lat="47.90688" lon="7.135">
        <ele>945.9</ele>
        <time>2013-11-11T15:27:28Z</time>
      </trkpt>
      <trkpt lat="47.90685" lon="7.13507">
        <ele>944</ele>
        <time>2013-11-11T15:27:30Z</time>
      </trkpt>
      <trkpt lat="47.90683" lon="7.13511">
        <ele>942.9</ele>
        <time>2013-11-11T15:27:31Z</time>
      </trkpt>
      <trkpt lat="47.90682" lon="7.13517">
        <ele>941.3</ele>
        <time>2013-11-11T15:27:32Z</time>
      </trkpt>
      <trkpt lat="47.9068" lon="7.13525">
        <ele>939.1</ele>
        <time>2013-11-11T15:27:33Z</time>
      </trkpt>
      <trkpt lat="47.90676" lon="7.13545">
        <ele>934.2</ele>
        <time>2013-11-11T15:27:34Z</time>
      </trkpt>
      <trkpt lat="47.9067" lon="7.13571">
        <ele>928.7</ele>
        <time>2013-11-11T15:27:35Z</time>
      </trkpt>
      <trkpt lat="47.90666" lon="7.13583">
        <ele>926</ele>
        <time>2013-11-11T15:27:36Z</time>
      </trkpt>
      <trkpt lat="47.90663" lon="7.13595">
        <ele>923.5</ele>
        <time>2013-11-11T15:27:37Z</time>
      </trkpt>
      <trkpt lat="47.90663" lon="7.13606">
        <ele>921.5</ele>
        <time>2013-11-11T15:27:38Z</time>
      </trkpt>
      <trkpt lat="47.90664" lon="7.13612">
        <ele>920.7</ele>
        <time>2013-11-11T15:27:39Z</time>
      </trkpt>
      <trkpt lat="47.90664" lon="7.13619">
        <ele>919.4</ele>
        <time>2013-11-11T15:27:40Z</time>
      </trkpt>
      <trkpt lat="47.90666" lon="7.13624">
        <ele>918.6</ele>
        <time>2013-11-11T15:27:41Z</time>
      </trkpt>
      <trkpt lat="47.90667" lon="7.13628">
        <ele>918.5</ele>
        <time>2013-11-11T15:27:42Z</time>
      </trkpt>
      <trkpt lat="47.90667" lon="7.13633">
        <ele>918.6</ele>
        <time>2013-11-11T15:27:43Z</time>
      </trkpt>
      <trkpt lat="47.90669" lon="7.13641">
        <ele>918.9</ele>
        <time>2013-11-11T15:27:44Z</time>
      </trkpt>
      <trkpt lat="47.9067" lon="7.13649">
        <ele>919</ele>
        <time>2013-11-11T15:27:45Z</time>
      </trkpt>
      <trkpt lat="47.90673" lon="7.13658">
        <ele>919.3</ele>
        <time>2013-11-11T15:27:46Z</time>
      </trkpt>
      <trkpt lat="47.90676" lon="7.13667">
        <ele>919.5</ele>
        <time>2013-11-11T15:27:47Z</time>
      </trkpt>
      <trkpt lat="47.90677" lon="7.1367">
        <ele>919.7</ele>
        <time>2013-11-11T15:27:48Z</time>
      </trkpt>
      <trkpt lat="47.9068" lon="7.13676">
        <ele>919.8</ele>
        <time>2013-11-11T15:27:50Z</time>
      </trkpt>
      <trkpt lat="47.90683" lon="7.13683">
        <ele>920</ele>
        <time>2013-11-11T15:27:52Z</time>
      </trkpt>
      <trkpt lat="47.90684" lon="7.13686">
        <ele>920.1</ele>
        <time>2013-11-11T15:27:53Z</time>
      </trkpt>
      <trkpt lat="47.90687" lon="7.13696">
        <ele>920.2</ele>
        <time>2013-11-11T15:27:55Z</time>
      </trkpt>
      <trkpt lat="47.9069" lon="7.13702">
        <ele>920.3</ele>
        <time>2013-11-11T15:27:56Z</time>
      </trkpt>
      <trkpt lat="47.90692" lon="7.13708">
        <ele>920.4</ele>
        <time>2013-11-11T15:27:57Z</time>
      </trkpt>
      <trkpt lat="47.90694" lon="7.13714">
        <ele>921.2</ele>
        <time>2013-11-11T15:27:58Z</time>
      </trkpt>
      <trkpt lat="47.90696" lon="7.1372">
        <ele>921.9</ele>
        <time>2013-11-11T15:27:59Z</time>
      </trkpt>
      <trkpt lat="47.90698" lon="7.13726">
        <ele>922.7</ele>
        <time>2013-11-11T15:28:00Z</time>
      </trkpt>
      <trkpt lat="47.907" lon="7.13732">
        <ele>923.5</ele>
        <time>2013-11-11T15:28:01Z</time>
      </trkpt>
      <trkpt lat="47.90702" lon="7.13738">
        <ele>924.3</ele>
        <time>2013-11-11T15:28:02Z</time>
      </trkpt>
      <trkpt lat="47.90704" lon="7.13743">
        <ele>925</ele>
        <time>2013-11-11T15:28:03Z</time>
      </trkpt>
      <trkpt lat="47.90707" lon="7.13749">
        <ele>925.8</ele>
        <time>2013-11-11T15:28:04Z</time>
      </trkpt>
      <trkpt lat="47.9071" lon="7.13753">
        <ele>925.9</ele>
        <time>2013-11-11T15:28:05Z</time>
      </trkpt>
      <trkpt lat="47.90712" lon="7.13758">
        <ele>925.4</ele>
        <time>2013-11-11T15:28:06Z</time>
      </trkpt>
      <trkpt lat="47.90715" lon="7.13763">
        <ele>925.1</ele>
        <time>2013-11-11T15:28:07Z</time>
      </trkpt>
      <trkpt lat="47.90717" lon="7.13768">
        <ele>924.9</ele>
        <time>2013-11-11T15:28:08Z</time>
      </trkpt>
      <trkpt lat="47.90718" lon="7.13774">
        <ele>925</ele>
        <time>2013-11-11T15:28:09Z</time>
      </trkpt>
      <trkpt lat="47.90718" lon="7.13779">
        <ele>925.5</ele>
        <time>2013-11-11T15:28:10Z</time>
      </trkpt>
      <trkpt lat="47.90719" lon="7.13784">
        <ele>926</ele>
        <time>2013-11-11T15:28:11Z</time>
      </trkpt>
      <trkpt lat="47.90719" lon="7.1379">
        <ele>926.5</ele>
        <time>2013-11-11T15:28:12Z</time>
      </trkpt>
      <trkpt lat="47.90719" lon="7.13795">
        <ele>926.7</ele>
        <time>2013-11-11T15:28:13Z</time>
      </trkpt>
      <trkpt lat="47.9072" lon="7.13801">
        <ele>926.8</ele>
        <time>2013-11-11T15:28:14Z</time>
      </trkpt>
      <trkpt lat="47.90721" lon="7.13807">
        <ele>926.9</ele>
        <time>2013-11-11T15:28:15Z</time>
      </trkpt>
      <trkpt lat="47.90721" lon="7.13816">
        <ele>927.3</ele>
        <time>2013-11-11T15:28:16Z</time>
      </trkpt>
      <trkpt lat="47.90722" lon="7.13825">
        <ele>927.9</ele>
        <time>2013-11-11T15:28:17Z</time>
      </trkpt>
      <trkpt lat="47.90721" lon="7.13834">
        <ele>928.6</ele>
        <time>2013-11-11T15:28:18Z</time>
      </trkpt>
      <trkpt lat="47.90721" lon="7.13843">
        <ele>929.4</ele>
        <time>2013-11-11T15:28:19Z</time>
      </trkpt>
      <trkpt lat="47.90721" lon="7.13851">
        <ele>929.9</ele>
        <time>2013-11-11T15:28:20Z</time>
      </trkpt>
      <trkpt lat="47.90722" lon="7.13859">
        <ele>930.1</ele>
        <time>2013-11-11T15:28:21Z</time>
      </trkpt>
      <trkpt lat="47.90723" lon="7.13866">
        <ele>929.9</ele>
        <time>2013-11-11T15:28:22Z</time>
      </trkpt>
      <trkpt lat="47.90725" lon="7.13873">
        <ele>929.6</ele>
        <time>2013-11-11T15:28:23Z</time>
      </trkpt>
      <trkpt lat="47.90727" lon="7.13881">
        <ele>929</ele>
        <time>2013-11-11T15:28:24Z</time>
      </trkpt>
      <trkpt lat="47.90729" lon="7.13887">
        <ele>928.2</ele>
        <time>2013-11-11T15:28:25Z</time>
      </trkpt>
      <trkpt lat="47.9073" lon="7.13893">
        <ele>927.6</ele>
        <time>2013-11-11T15:28:26Z</time>
      </trkpt>
      <trkpt lat="47.90731" lon="7.139">
        <ele>927.3</ele>
        <time>2013-11-11T15:28:27Z</time>
      </trkpt>
      <trkpt lat="47.90731" lon="7.13906">
        <ele>927.1</ele>
        <time>2013-11-11T15:28:28Z</time>
      </trkpt>
      <trkpt lat="47.90731" lon="7.13914">
        <ele>927.3</ele>
        <time>2013-11-11T15:28:29Z</time>
      </trkpt>
      <trkpt lat="47.90731" lon="7.1392">
        <ele>927.2</ele>
        <time>2013-11-11T15:28:30Z</time>
      </trkpt>
      <trkpt lat="47.9073" lon="7.13925">
        <ele>927.3</ele>
        <time>2013-11-11T15:28:31Z</time>
      </trkpt>
      <trkpt lat="47.9073" lon="7.1393">
        <ele>927.3</ele>
        <time>2013-11-11T15:28:32Z</time>
      </trkpt>
      <trkpt lat="47.9073" lon="7.13934">
        <ele>927.3</ele>
        <time>2013-11-11T15:28:33Z</time>
      </trkpt>
      <trkpt lat="47.90731" lon="7.13938">
        <ele>927</ele>
        <time>2013-11-11T15:28:34Z</time>
      </trkpt>
      <trkpt lat="47.90732" lon="7.13942">
        <ele>926.6</ele>
        <time>2013-11-11T15:28:35Z</time>
      </trkpt>
      <trkpt lat="47.90732" lon="7.13947">
        <ele>926.5</ele>
        <time>2013-11-11T15:28:36Z</time>
      </trkpt>
      <trkpt lat="47.90733" lon="7.13952">
        <ele>926.4</ele>
        <time>2013-11-11T15:28:37Z</time>
      </trkpt>
      <trkpt lat="47.90733" lon="7.13964">
        <ele>926.3</ele>
        <time>2013-11-11T15:28:39Z</time>
      </trkpt>
      <trkpt lat="47.90733" lon="7.13969">
        <ele>926.2</ele>
        <time>2013-11-11T15:28:40Z</time>
      </trkpt>
      <trkpt lat="47.90733" lon="7.13973">
        <ele>926</ele>
        <time>2013-11-11T15:28:41Z</time>
      </trkpt>
      <trkpt lat="47.90734" lon="7.13978">
        <ele>925.6</ele>
        <time>2013-11-11T15:28:42Z</time>
      </trkpt>
      <trkpt lat="47.90734" lon="7.13982">
        <ele>925.4</ele>
        <time>2013-11-11T15:28:43Z</time>
      </trkpt>
      <trkpt lat="47.90734" lon="7.13989">
        <ele>925.3</ele>
        <time>2013-11-11T15:28:45Z</time>
      </trkpt>
      <trkpt lat="47.90734" lon="7.13993">
        <ele>925.2</ele>
        <time>2013-11-11T15:28:46Z</time>
      </trkpt>
      <trkpt lat="47.90735" lon="7.13998">
        <ele>925</ele>
        <time>2013-11-11T15:28:47Z</time>
      </trkpt>
      <trkpt lat="47.90735" lon="7.14002">
        <ele>924.7</ele>
        <time>2013-11-11T15:28:48Z</time>
      </trkpt>
      <trkpt lat="47.90736" lon="7.14007">
        <ele>924.5</ele>
        <time>2013-11-11T15:28:49Z</time>
      </trkpt>
      <trkpt lat="47.90736" lon="7.14013">
        <ele>924.2</ele>
        <time>2013-11-11T15:28:50Z</time>
      </trkpt>
      <trkpt lat="47.90737" lon="7.1402">
        <ele>923.9</ele>
        <time>2013-11-11T15:28:52Z</time>
      </trkpt>
      <trkpt lat="47.90737" lon="7.14026">
        <ele>923.7</ele>
        <time>2013-11-11T15:28:54Z</time>
      </trkpt>
      <trkpt lat="47.90739" lon="7.14031">
        <ele>923.3</ele>
        <time>2013-11-11T15:28:56Z</time>
      </trkpt>
      <trkpt lat="47.90741" lon="7.14036">
        <ele>922.7</ele>
        <time>2013-11-11T15:28:58Z</time>
      </trkpt>
      <trkpt lat="47.90746" lon="7.14038">
        <ele>921.5</ele>
        <time>2013-11-11T15:29:00Z</time>
      </trkpt>
      <trkpt lat="47.90751" lon="7.14037">
        <ele>920.2</ele>
        <time>2013-11-11T15:29:02Z</time>
      </trkpt>
      <trkpt lat="47.90755" lon="7.14035">
        <ele>919.3</ele>
        <time>2013-11-11T15:29:03Z</time>
      </trkpt>
      <trkpt lat="47.90758" lon="7.14034">
        <ele>918.7</ele>
        <time>2013-11-11T15:29:04Z</time>
      </trkpt>
      <trkpt lat="47.90762" lon="7.14031">
        <ele>917.8</ele>
        <time>2013-11-11T15:29:05Z</time>
      </trkpt>
      <trkpt lat="47.90765" lon="7.14029">
        <ele>917</ele>
        <time>2013-11-11T15:29:06Z</time>
      </trkpt>
      <trkpt lat="47.90769" lon="7.14034">
        <ele>916.2</ele>
        <time>2013-11-11T15:29:08Z</time>
      </trkpt>
      <trkpt lat="47.9077" lon="7.14038">
        <ele>915.8</ele>
        <time>2013-11-11T15:29:09Z</time>
      </trkpt>
      <trkpt lat="47.90772" lon="7.14041">
        <ele>915.5</ele>
        <time>2013-11-11T15:29:10Z</time>
      </trkpt>
      <trkpt lat="47.90774" lon="7.14044">
        <ele>915</ele>
        <time>2013-11-11T15:29:11Z</time>
      </trkpt>
      <trkpt lat="47.90775" lon="7.14048">
        <ele>914.4</ele>
        <time>2013-11-11T15:29:12Z</time>
      </trkpt>
      <trkpt lat="47.90777" lon="7.14054">
        <ele>913.8</ele>
        <time>2013-11-11T15:29:13Z</time>
      </trkpt>
      <trkpt lat="47.90779" lon="7.14057">
        <ele>913.3</ele>
        <time>2013-11-11T15:29:14Z</time>
      </trkpt>
      <trkpt lat="47.90782" lon="7.14062">
        <ele>912.3</ele>
        <time>2013-11-11T15:29:16Z</time>
      </trkpt>
      <trkpt lat="47.90784" lon="7.14067">
        <ele>911.8</ele>
        <time>2013-11-11T15:29:17Z</time>
      </trkpt>
      <trkpt lat="47.90786" lon="7.1407">
        <ele>911.1</ele>
        <time>2013-11-11T15:29:19Z</time>
      </trkpt>
      <trkpt lat="47.90788" lon="7.14075">
        <ele>910.7</ele>
        <time>2013-11-11T15:29:21Z</time>
      </trkpt>
      <trkpt lat="47.9079" lon="7.14078">
        <ele>910.1</ele>
        <time>2013-11-11T15:29:24Z</time>
      </trkpt>
      <trkpt lat="47.90793" lon="7.14078">
        <ele>909.5</ele>
        <time>2013-11-11T15:29:26Z</time>
      </trkpt>
      <trkpt lat="47.90797" lon="7.14079">
        <ele>908.7</ele>
        <time>2013-11-11T15:29:28Z</time>
      </trkpt>
      <trkpt lat="47.90804" lon="7.14081">
        <ele>907.5</ele>
        <time>2013-11-11T15:29:30Z</time>
      </trkpt>
      <trkpt lat="47.90808" lon="7.14083">
        <ele>906.9</ele>
        <time>2013-11-11T15:29:31Z</time>
      </trkpt>
      <trkpt lat="47.90813" lon="7.14084">
        <ele>906.1</ele>
        <time>2013-11-11T15:29:32Z</time>
      </trkpt>
      <trkpt lat="47.90817" lon="7.14086">
        <ele>905.5</ele>
        <time>2013-11-11T15:29:33Z</time>
      </trkpt>
      <trkpt lat="47.9082" lon="7.14087">
        <ele>905</ele>
        <time>2013-11-11T15:29:34Z</time>
      </trkpt>
      <trkpt lat="47.90823" lon="7.14089">
        <ele>904.6</ele>
        <time>2013-11-11T15:29:35Z</time>
      </trkpt>
      <trkpt lat="47.90827" lon="7.14092">
        <ele>904.2</ele>
        <time>2013-11-11T15:29:36Z</time>
      </trkpt>
      <trkpt lat="47.9083" lon="7.14093">
        <ele>903.8</ele>
        <time>2013-11-11T15:29:37Z</time>
      </trkpt>
      <trkpt lat="47.90834" lon="7.14095">
        <ele>903.4</ele>
        <time>2013-11-11T15:29:38Z</time>
      </trkpt>
      <trkpt lat="47.90839" lon="7.14098">
        <ele>903</ele>
        <time>2013-11-11T15:29:39Z</time>
      </trkpt>
      <trkpt lat="47.90844" lon="7.14101">
        <ele>902.7</ele>
        <time>2013-11-11T15:29:40Z</time>
      </trkpt>
      <trkpt lat="47.90849" lon="7.14105">
        <ele>902.5</ele>
        <time>2013-11-11T15:29:41Z</time>
      </trkpt>
      <trkpt lat="47.90853" lon="7.14109">
        <ele>902.5</ele>
        <time>2013-11-11T15:29:42Z</time>
      </trkpt>
      <trkpt lat="47.90856" lon="7.14113">
        <ele>902.7</ele>
        <time>2013-11-11T15:29:43Z</time>
      </trkpt>
      <trkpt lat="47.90859" lon="7.14118">
        <ele>903.1</ele>
        <time>2013-11-11T15:29:44Z</time>
      </trkpt>
      <trkpt lat="47.90861" lon="7.14123">
        <ele>903.6</ele>
        <time>2013-11-11T15:29:45Z</time>
      </trkpt>
      <trkpt lat="47.90862" lon="7.14128">
        <ele>903.6</ele>
        <time>2013-11-11T15:29:46Z</time>
      </trkpt>
      <trkpt lat="47.90863" lon="7.14132">
        <ele>903.1</ele>
        <time>2013-11-11T15:29:47Z</time>
      </trkpt>
      <trkpt lat="47.90863" lon="7.14137">
        <ele>902.8</ele>
        <time>2013-11-11T15:29:48Z</time>
      </trkpt>
      <trkpt lat="47.90862" lon="7.14141">
        <ele>902.5</ele>
        <time>2013-11-11T15:29:49Z</time>
      </trkpt>
      <trkpt lat="47.90861" lon="7.14146">
        <ele>902.2</ele>
        <time>2013-11-11T15:29:50Z</time>
      </trkpt>
      <trkpt lat="47.9086" lon="7.1415">
        <ele>901.9</ele>
        <time>2013-11-11T15:29:51Z</time>
      </trkpt>
      <trkpt lat="47.9086" lon="7.14154">
        <ele>901.6</ele>
        <time>2013-11-11T15:29:52Z</time>
      </trkpt>
      <trkpt lat="47.90858" lon="7.14157">
        <ele>901.3</ele>
        <time>2013-11-11T15:29:53Z</time>
      </trkpt>
      <trkpt lat="47.90857" lon="7.14163">
        <ele>900.9</ele>
        <time>2013-11-11T15:29:55Z</time>
      </trkpt>
      <trkpt lat="47.90856" lon="7.14169">
        <ele>900.3</ele>
        <time>2013-11-11T15:29:57Z</time>
      </trkpt>
      <trkpt lat="47.90854" lon="7.14174">
        <ele>900</ele>
        <time>2013-11-11T15:29:58Z</time>
      </trkpt>
      <trkpt lat="47.90853" lon="7.1418">
        <ele>899.5</ele>
        <time>2013-11-11T15:29:59Z</time>
      </trkpt>
      <trkpt lat="47.9085" lon="7.14186">
        <ele>899</ele>
        <time>2013-11-11T15:30:00Z</time>
      </trkpt>
      <trkpt lat="47.90849" lon="7.14192">
        <ele>898.5</ele>
        <time>2013-11-11T15:30:01Z</time>
      </trkpt>
      <trkpt lat="47.90847" lon="7.14197">
        <ele>898</ele>
        <time>2013-11-11T15:30:02Z</time>
      </trkpt>
      <trkpt lat="47.90847" lon="7.14203">
        <ele>897.5</ele>
        <time>2013-11-11T15:30:03Z</time>
      </trkpt>
      <trkpt lat="47.90846" lon="7.1421">
        <ele>896.6</ele>
        <time>2013-11-11T15:30:05Z</time>
      </trkpt>
      <trkpt lat="47.90845" lon="7.14214">
        <ele>895.8</ele>
        <time>2013-11-11T15:30:07Z</time>
      </trkpt>
      <trkpt lat="47.90843" lon="7.14218">
        <ele>895.1</ele>
        <time>2013-11-11T15:30:10Z</time>
      </trkpt>
      <trkpt lat="47.9084" lon="7.1422">
        <ele>894.6</ele>
        <time>2013-11-11T15:30:13Z</time>
      </trkpt>
      <trkpt lat="47.90838" lon="7.14223">
        <ele>893.8</ele>
        <time>2013-11-11T15:30:15Z</time>
      </trkpt>
      <trkpt lat="47.90836" lon="7.14229">
        <ele>892.6</ele>
        <time>2013-11-11T15:30:16Z</time>
      </trkpt>
      <trkpt lat="47.90834" lon="7.14234">
        <ele>891.6</ele>
        <time>2013-11-11T15:30:17Z</time>
      </trkpt>
      <trkpt lat="47.90832" lon="7.14239">
        <ele>890.4</ele>
        <time>2013-11-11T15:30:18Z</time>
      </trkpt>
      <trkpt lat="47.9083" lon="7.14244">
        <ele>889.2</ele>
        <time>2013-11-11T15:30:19Z</time>
      </trkpt>
      <trkpt lat="47.90828" lon="7.14248">
        <ele>888.3</ele>
        <time>2013-11-11T15:30:20Z</time>
      </trkpt>
      <trkpt lat="47.90827" lon="7.14255">
        <ele>886.6</ele>
        <time>2013-11-11T15:30:21Z</time>
      </trkpt>
      <trkpt lat="47.90826" lon="7.14261">
        <ele>885.4</ele>
        <time>2013-11-11T15:30:22Z</time>
      </trkpt>
      <trkpt lat="47.90825" lon="7.14266">
        <ele>884.2</ele>
        <time>2013-11-11T15:30:23Z</time>
      </trkpt>
      <trkpt lat="47.90825" lon="7.14271">
        <ele>883</ele>
        <time>2013-11-11T15:30:24Z</time>
      </trkpt>
      <trkpt lat="47.90824" lon="7.14275">
        <ele>882.1</ele>
        <time>2013-11-11T15:30:25Z</time>
      </trkpt>
      <trkpt lat="47.90826" lon="7.1428">
        <ele>881.1</ele>
        <time>2013-11-11T15:30:26Z</time>
      </trkpt>
      <trkpt lat="47.90828" lon="7.14283">
        <ele>880.5</ele>
        <time>2013-11-11T15:30:27Z</time>
      </trkpt>
      <trkpt lat="47.90831" lon="7.14287">
        <ele>880</ele>
        <time>2013-11-11T15:30:28Z</time>
      </trkpt>
      <trkpt lat="47.90834" lon="7.1429">
        <ele>879.4</ele>
        <time>2013-11-11T15:30:29Z</time>
      </trkpt>
      <trkpt lat="47.90836" lon="7.14294">
        <ele>878.6</ele>
        <time>2013-11-11T15:30:30Z</time>
      </trkpt>
      <trkpt lat="47.90838" lon="7.14299">
        <ele>877.6</ele>
        <time>2013-11-11T15:30:31Z</time>
      </trkpt>
      <trkpt lat="47.90841" lon="7.14303">
        <ele>876.7</ele>
        <time>2013-11-11T15:30:32Z</time>
      </trkpt>
      <trkpt lat="47.90842" lon="7.14308">
        <ele>875.6</ele>
        <time>2013-11-11T15:30:33Z</time>
      </trkpt>
      <trkpt lat="47.90846" lon="7.14318">
        <ele>873.7</ele>
        <time>2013-11-11T15:30:35Z</time>
      </trkpt>
      <trkpt lat="47.90848" lon="7.14324">
        <ele>872.2</ele>
        <time>2013-11-11T15:30:36Z</time>
      </trkpt>
      <trkpt lat="47.9085" lon="7.14331">
        <ele>870.8</ele>
        <time>2013-11-11T15:30:37Z</time>
      </trkpt>
      <trkpt lat="47.90851" lon="7.14338">
        <ele>869.3</ele>
        <time>2013-11-11T15:30:38Z</time>
      </trkpt>
      <trkpt lat="47.90852" lon="7.14343">
        <ele>868.1</ele>
        <time>2013-11-11T15:30:39Z</time>
      </trkpt>
      <trkpt lat="47.90851" lon="7.14349">
        <ele>866.8</ele>
        <time>2013-11-11T15:30:41Z</time>
      </trkpt>
      <trkpt lat="47.90848" lon="7.14353">
        <ele>865.5</ele>
        <time>2013-11-11T15:30:44Z</time>
      </trkpt>
      <trkpt lat="47.90846" lon="7.14356">
        <ele>864.3</ele>
        <time>2013-11-11T15:30:46Z</time>
      </trkpt>
      <trkpt lat="47.90846" lon="7.14362">
        <ele>862.9</ele>
        <time>2013-11-11T15:30:49Z</time>
      </trkpt>
      <trkpt lat="47.90847" lon="7.14367">
        <ele>861.9</ele>
        <time>2013-11-11T15:30:54Z</time>
      </trkpt>
      <trkpt lat="47.90848" lon="7.14371">
        <ele>861.1</ele>
        <time>2013-11-11T15:30:55Z</time>
      </trkpt>
      <trkpt lat="47.90851" lon="7.14379">
        <ele>859.6</ele>
        <time>2013-11-11T15:30:57Z</time>
      </trkpt>
      <trkpt lat="47.90854" lon="7.14384">
        <ele>858.7</ele>
        <time>2013-11-11T15:30:58Z</time>
      </trkpt>
      <trkpt lat="47.90857" lon="7.14389">
        <ele>857.8</ele>
        <time>2013-11-11T15:30:59Z</time>
      </trkpt>
      <trkpt lat="47.90861" lon="7.14395">
        <ele>856.9</ele>
        <time>2013-11-11T15:31:00Z</time>
      </trkpt>
      <trkpt lat="47.90865" lon="7.14401">
        <ele>856</ele>
        <time>2013-11-11T15:31:01Z</time>
      </trkpt>
      <trkpt lat="47.90874" lon="7.14414">
        <ele>853.7</ele>
        <time>2013-11-11T15:31:02Z</time>
      </trkpt>
      <trkpt lat="47.90879" lon="7.14424">
        <ele>852.1</ele>
        <time>2013-11-11T15:31:03Z</time>
      </trkpt>
      <trkpt lat="47.90884" lon="7.14434">
        <ele>850.5</ele>
        <time>2013-11-11T15:31:04Z</time>
      </trkpt>
      <trkpt lat="47.90888" lon="7.14443">
        <ele>849.4</ele>
        <time>2013-11-11T15:31:05Z</time>
      </trkpt>
      <trkpt lat="47.90892" lon="7.14446">
        <ele>849.8</ele>
        <time>2013-11-11T15:31:06Z</time>
      </trkpt>
      <trkpt lat="47.90896" lon="7.14449">
        <ele>850</ele>
        <time>2013-11-11T15:31:07Z</time>
      </trkpt>
      <trkpt lat="47.90896" lon="7.14465">
        <ele>846.9</ele>
        <time>2013-11-11T15:31:08Z</time>
      </trkpt>
      <trkpt lat="47.90897" lon="7.14478">
        <ele>845.3</ele>
        <time>2013-11-11T15:31:09Z</time>
      </trkpt>
      <trkpt lat="47.90897" lon="7.1449">
        <ele>843.8</ele>
        <time>2013-11-11T15:31:10Z</time>
      </trkpt>
      <trkpt lat="47.90899" lon="7.14498">
        <ele>843.1</ele>
        <time>2013-11-11T15:31:11Z</time>
      </trkpt>
      <trkpt lat="47.90898" lon="7.1451">
        <ele>841.3</ele>
        <time>2013-11-11T15:31:12Z</time>
      </trkpt>
      <trkpt lat="47.90898" lon="7.14522">
        <ele>839.8</ele>
        <time>2013-11-11T15:31:14Z</time>
      </trkpt>
      <trkpt lat="47.90897" lon="7.14532">
        <ele>838.2</ele>
        <time>2013-11-11T15:31:15Z</time>
      </trkpt>
      <trkpt lat="47.90898" lon="7.14539">
        <ele>837.4</ele>
        <time>2013-11-11T15:31:16Z</time>
      </trkpt>
      <trkpt lat="47.90898" lon="7.1455">
        <ele>835.6</ele>
        <time>2013-11-11T15:31:17Z</time>
      </trkpt>
      <trkpt lat="47.90899" lon="7.14557">
        <ele>834.6</ele>
        <time>2013-11-11T15:31:18Z</time>
      </trkpt>
      <trkpt lat="47.90902" lon="7.14566">
        <ele>833.7</ele>
        <time>2013-11-11T15:31:19Z</time>
      </trkpt>
      <trkpt lat="47.90896" lon="7.14587">
        <ele>828.9</ele>
        <time>2013-11-11T15:31:20Z</time>
      </trkpt>
      <trkpt lat="47.90895" lon="7.14595">
        <ele>827.3</ele>
        <time>2013-11-11T15:31:21Z</time>
      </trkpt>
      <trkpt lat="47.90895" lon="7.14605">
        <ele>825.7</ele>
        <time>2013-11-11T15:31:22Z</time>
      </trkpt>
      <trkpt lat="47.90898" lon="7.14611">
        <ele>825.3</ele>
        <time>2013-11-11T15:31:23Z</time>
      </trkpt>
      <trkpt lat="47.90899" lon="7.14622">
        <ele>823.8</ele>
        <time>2013-11-11T15:31:24Z</time>
      </trkpt>
      <trkpt lat="47.90897" lon="7.14632">
        <ele>822.2</ele>
        <time>2013-11-11T15:31:25Z</time>
      </trkpt>
      <trkpt lat="47.90897" lon="7.14638">
        <ele>821.6</ele>
        <time>2013-11-11T15:31:26Z</time>
      </trkpt>
      <trkpt lat="47.90896" lon="7.14646">
        <ele>820.7</ele>
        <time>2013-11-11T15:31:27Z</time>
      </trkpt>
      <trkpt lat="47.90897" lon="7.14652">
        <ele>820.3</ele>
        <time>2013-11-11T15:31:28Z</time>
      </trkpt>
      <trkpt lat="47.90899" lon="7.14657">
        <ele>820.2</ele>
        <time>2013-11-11T15:31:29Z</time>
      </trkpt>
      <trkpt lat="47.90899" lon="7.14661">
        <ele>819.7</ele>
        <time>2013-11-11T15:31:30Z</time>
      </trkpt>
      <trkpt lat="47.90898" lon="7.14666">
        <ele>819.1</ele>
        <time>2013-11-11T15:31:31Z</time>
      </trkpt>
      <trkpt lat="47.909" lon="7.14672">
        <ele>818.9</ele>
        <time>2013-11-11T15:31:32Z</time>
      </trkpt>
      <trkpt lat="47.90899" lon="7.14676">
        <ele>818.5</ele>
        <time>2013-11-11T15:31:33Z</time>
      </trkpt>
      <trkpt lat="47.90899" lon="7.14683">
        <ele>817.8</ele>
        <time>2013-11-11T15:31:35Z</time>
      </trkpt>
      <trkpt lat="47.90898" lon="7.14689">
        <ele>816.9</ele>
        <time>2013-11-11T15:31:37Z</time>
      </trkpt>
      <trkpt lat="47.90896" lon="7.14693">
        <ele>816.1</ele>
        <time>2013-11-11T15:31:38Z</time>
      </trkpt>
      <trkpt lat="47.90891" lon="7.14696">
        <ele>815.1</ele>
        <time>2013-11-11T15:31:39Z</time>
      </trkpt>
      <trkpt lat="47.90888" lon="7.14698">
        <ele>814.3</ele>
        <time>2013-11-11T15:31:40Z</time>
      </trkpt>
      <trkpt lat="47.90885" lon="7.147">
        <ele>813.6</ele>
        <time>2013-11-11T15:31:41Z</time>
      </trkpt>
      <trkpt lat="47.90882" lon="7.14702">
        <ele>812.7</ele>
        <time>2013-11-11T15:31:43Z</time>
      </trkpt>
      <trkpt lat="47.90879" lon="7.14704">
        <ele>812</ele>
        <time>2013-11-11T15:31:45Z</time>
      </trkpt>
      <trkpt lat="47.90876" lon="7.14706">
        <ele>811.4</ele>
        <time>2013-11-11T15:31:47Z</time>
      </trkpt>
      <trkpt lat="47.90871" lon="7.14709">
        <ele>810.6</ele>
        <time>2013-11-11T15:31:49Z</time>
      </trkpt>
      <trkpt lat="47.90866" lon="7.1471">
        <ele>810</ele>
        <time>2013-11-11T15:31:50Z</time>
      </trkpt>
      <trkpt lat="47.90861" lon="7.14713">
        <ele>809.2</ele>
        <time>2013-11-11T15:31:52Z</time>
      </trkpt>
      <trkpt lat="47.90857" lon="7.14715">
        <ele>808.6</ele>
        <time>2013-11-11T15:31:54Z</time>
      </trkpt>
      <trkpt lat="47.90854" lon="7.14718">
        <ele>808</ele>
        <time>2013-11-11T15:31:55Z</time>
      </trkpt>
      <trkpt lat="47.90851" lon="7.14724">
        <ele>807</ele>
        <time>2013-11-11T15:31:56Z</time>
      </trkpt>
      <trkpt lat="47.90848" lon="7.14728">
        <ele>806.3</ele>
        <time>2013-11-11T15:31:57Z</time>
      </trkpt>
      <trkpt lat="47.90846" lon="7.14731">
        <ele>805.6</ele>
        <time>2013-11-11T15:31:58Z</time>
      </trkpt>
      <trkpt lat="47.90843" lon="7.14735">
        <ele>804.9</ele>
        <time>2013-11-11T15:31:59Z</time>
      </trkpt>
      <trkpt lat="47.9084" lon="7.14738">
        <ele>804</ele>
        <time>2013-11-11T15:32:00Z</time>
      </trkpt>
      <trkpt lat="47.90837" lon="7.14742">
        <ele>803.1</ele>
        <time>2013-11-11T15:32:01Z</time>
      </trkpt>
      <trkpt lat="47.90834" lon="7.14745">
        <ele>802.2</ele>
        <time>2013-11-11T15:32:02Z</time>
      </trkpt>
      <trkpt lat="47.90831" lon="7.14748">
        <ele>801.4</ele>
        <time>2013-11-11T15:32:03Z</time>
      </trkpt>
      <trkpt lat="47.90829" lon="7.1475">
        <ele>800.7</ele>
        <time>2013-11-11T15:32:04Z</time>
      </trkpt>
      <trkpt lat="47.90825" lon="7.14755">
        <ele>799.5</ele>
        <time>2013-11-11T15:32:06Z</time>
      </trkpt>
      <trkpt lat="47.90824" lon="7.14763">
        <ele>798.1</ele>
        <time>2013-11-11T15:32:08Z</time>
      </trkpt>
      <trkpt lat="47.90823" lon="7.14769">
        <ele>797.1</ele>
        <time>2013-11-11T15:32:09Z</time>
      </trkpt>
      <trkpt lat="47.90823" lon="7.14775">
        <ele>796.2</ele>
        <time>2013-11-11T15:32:10Z</time>
      </trkpt>
      <trkpt lat="47.90822" lon="7.14783">
        <ele>794.9</ele>
        <time>2013-11-11T15:32:11Z</time>
      </trkpt>
      <trkpt lat="47.90822" lon="7.14788">
        <ele>794.1</ele>
        <time>2013-11-11T15:32:12Z</time>
      </trkpt>
      <trkpt lat="47.90822" lon="7.14793">
        <ele>793.4</ele>
        <time>2013-11-11T15:32:13Z</time>
      </trkpt>
      <trkpt lat="47.90822" lon="7.14798">
        <ele>793.1</ele>
        <time>2013-11-11T15:32:14Z</time>
      </trkpt>
      <trkpt lat="47.90822" lon="7.14803">
        <ele>792.8</ele>
        <time>2013-11-11T15:32:15Z</time>
      </trkpt>
      <trkpt lat="47.90822" lon="7.14807">
        <ele>792.4</ele>
        <time>2013-11-11T15:32:16Z</time>
      </trkpt>
      <trkpt lat="47.90821" lon="7.14812">
        <ele>792.1</ele>
        <time>2013-11-11T15:32:17Z</time>
      </trkpt>
      <trkpt lat="47.90821" lon="7.14816">
        <ele>791.8</ele>
        <time>2013-11-11T15:32:18Z</time>
      </trkpt>
      <trkpt lat="47.90821" lon="7.14821">
        <ele>791.5</ele>
        <time>2013-11-11T15:32:19Z</time>
      </trkpt>
      <trkpt lat="47.90822" lon="7.14828">
        <ele>791.2</ele>
        <time>2013-11-11T15:32:20Z</time>
      </trkpt>
      <trkpt lat="47.90822" lon="7.14835">
        <ele>790.9</ele>
        <time>2013-11-11T15:32:21Z</time>
      </trkpt>
      <trkpt lat="47.90823" lon="7.14841">
        <ele>790.7</ele>
        <time>2013-11-11T15:32:22Z</time>
      </trkpt>
      <trkpt lat="47.90823" lon="7.14848">
        <ele>790.5</ele>
        <time>2013-11-11T15:32:23Z</time>
      </trkpt>
      <trkpt lat="47.90824" lon="7.14855">
        <ele>790.2</ele>
        <time>2013-11-11T15:32:24Z</time>
      </trkpt>
      <trkpt lat="47.90824" lon="7.14861">
        <ele>789.8</ele>
        <time>2013-11-11T15:32:25Z</time>
      </trkpt>
      <trkpt lat="47.90824" lon="7.14868">
        <ele>789.3</ele>
        <time>2013-11-11T15:32:26Z</time>
      </trkpt>
      <trkpt lat="47.90824" lon="7.14875">
        <ele>789.1</ele>
        <time>2013-11-11T15:32:27Z</time>
      </trkpt>
      <trkpt lat="47.90825" lon="7.14882">
        <ele>789.3</ele>
        <time>2013-11-11T15:32:28Z</time>
      </trkpt>
      <trkpt lat="47.90825" lon="7.1489">
        <ele>789.5</ele>
        <time>2013-11-11T15:32:29Z</time>
      </trkpt>
      <trkpt lat="47.90826" lon="7.14898">
        <ele>789.7</ele>
        <time>2013-11-11T15:32:30Z</time>
      </trkpt>
      <trkpt lat="47.90826" lon="7.14907">
        <ele>789.7</ele>
        <time>2013-11-11T15:32:31Z</time>
      </trkpt>
      <trkpt lat="47.90826" lon="7.14916">
        <ele>790</ele>
        <time>2013-11-11T15:32:32Z</time>
      </trkpt>
      <trkpt lat="47.90825" lon="7.14938">
        <ele>789.5</ele>
        <time>2013-11-11T15:32:33Z</time>
      </trkpt>
      <trkpt lat="47.90824" lon="7.14967">
        <ele>788.4</ele>
        <time>2013-11-11T15:32:34Z</time>
      </trkpt>
      <trkpt lat="47.90822" lon="7.14994">
        <ele>786.1</ele>
        <time>2013-11-11T15:32:35Z</time>
      </trkpt>
      <trkpt lat="47.90822" lon="7.15013">
        <ele>785</ele>
        <time>2013-11-11T15:32:36Z</time>
      </trkpt>
      <trkpt lat="47.90818" lon="7.15029">
        <ele>782.8</ele>
        <time>2013-11-11T15:32:37Z</time>
      </trkpt>
      <trkpt lat="47.90813" lon="7.15052">
        <ele>779.5</ele>
        <time>2013-11-11T15:32:38Z</time>
      </trkpt>
      <trkpt lat="47.90809" lon="7.15072">
        <ele>776.7</ele>
        <time>2013-11-11T15:32:39Z</time>
      </trkpt>
      <trkpt lat="47.90807" lon="7.15095">
        <ele>774.7</ele>
        <time>2013-11-11T15:32:40Z</time>
      </trkpt>
      <trkpt lat="47.90806" lon="7.15111">
        <ele>773.1</ele>
        <time>2013-11-11T15:32:41Z</time>
      </trkpt>
      <trkpt lat="47.90805" lon="7.15128">
        <ele>772.1</ele>
        <time>2013-11-11T15:32:42Z</time>
      </trkpt>
      <trkpt lat="47.90806" lon="7.15137">
        <ele>772.2</ele>
        <time>2013-11-11T15:32:43Z</time>
      </trkpt>
      <trkpt lat="47.90809" lon="7.15145">
        <ele>772.8</ele>
        <time>2013-11-11T15:32:44Z</time>
      </trkpt>
      <trkpt lat="47.90812" lon="7.1515">
        <ele>773.6</ele>
        <time>2013-11-11T15:32:45Z</time>
      </trkpt>
      <trkpt lat="47.90815" lon="7.15155">
        <ele>774.4</ele>
        <time>2013-11-11T15:32:46Z</time>
      </trkpt>
      <trkpt lat="47.90819" lon="7.15161">
        <ele>775.7</ele>
        <time>2013-11-11T15:32:47Z</time>
      </trkpt>
      <trkpt lat="47.90822" lon="7.15167">
        <ele>776.2</ele>
        <time>2013-11-11T15:32:48Z</time>
      </trkpt>
      <trkpt lat="47.90824" lon="7.15174">
        <ele>776.6</ele>
        <time>2013-11-11T15:32:49Z</time>
      </trkpt>
      <trkpt lat="47.90827" lon="7.15179">
        <ele>777.4</ele>
        <time>2013-11-11T15:32:50Z</time>
      </trkpt>
      <trkpt lat="47.9083" lon="7.15183">
        <ele>778.1</ele>
        <time>2013-11-11T15:32:51Z</time>
      </trkpt>
      <trkpt lat="47.90833" lon="7.15187">
        <ele>778.8</ele>
        <time>2013-11-11T15:32:52Z</time>
      </trkpt>
      <trkpt lat="47.90836" lon="7.1519">
        <ele>779.5</ele>
        <time>2013-11-11T15:32:53Z</time>
      </trkpt>
      <trkpt lat="47.90839" lon="7.15194">
        <ele>780.4</ele>
        <time>2013-11-11T15:32:54Z</time>
      </trkpt>
      <trkpt lat="47.90843" lon="7.15197">
        <ele>781.3</ele>
        <time>2013-11-11T15:32:55Z</time>
      </trkpt>
      <trkpt lat="47.90847" lon="7.152">
        <ele>782.3</ele>
        <time>2013-11-11T15:32:56Z</time>
      </trkpt>
      <trkpt lat="47.90851" lon="7.15202">
        <ele>783.3</ele>
        <time>2013-11-11T15:32:57Z</time>
      </trkpt>
      <trkpt lat="47.90855" lon="7.15204">
        <ele>784.4</ele>
        <time>2013-11-11T15:32:58Z</time>
      </trkpt>
      <trkpt lat="47.90859" lon="7.15206">
        <ele>785.4</ele>
        <time>2013-11-11T15:32:59Z</time>
      </trkpt>
      <trkpt lat="47.90862" lon="7.15208">
        <ele>786.3</ele>
        <time>2013-11-11T15:33:00Z</time>
      </trkpt>
      <trkpt lat="47.90866" lon="7.15209">
        <ele>787</ele>
        <time>2013-11-11T15:33:01Z</time>
      </trkpt>
      <trkpt lat="47.90869" lon="7.15211">
        <ele>787.6</ele>
        <time>2013-11-11T15:33:02Z</time>
      </trkpt>
      <trkpt lat="47.90873" lon="7.15214">
        <ele>788.3</ele>
        <time>2013-11-11T15:33:04Z</time>
      </trkpt>
      <trkpt lat="47.90877" lon="7.15219">
        <ele>788.2</ele>
        <time>2013-11-11T15:33:06Z</time>
      </trkpt>
      <trkpt lat="47.9088" lon="7.15222">
        <ele>788</ele>
        <time>2013-11-11T15:33:07Z</time>
      </trkpt>
      <trkpt lat="47.90882" lon="7.15225">
        <ele>787.8</ele>
        <time>2013-11-11T15:33:08Z</time>
      </trkpt>
      <trkpt lat="47.90885" lon="7.15228">
        <ele>787.4</ele>
        <time>2013-11-11T15:33:09Z</time>
      </trkpt>
      <trkpt lat="47.90888" lon="7.15231">
        <ele>787.2</ele>
        <time>2013-11-11T15:33:10Z</time>
      </trkpt>
      <trkpt lat="47.90892" lon="7.15234">
        <ele>787.1</ele>
        <time>2013-11-11T15:33:11Z</time>
      </trkpt>
      <trkpt lat="47.90896" lon="7.15237">
        <ele>786.9</ele>
        <time>2013-11-11T15:33:12Z</time>
      </trkpt>
      <trkpt lat="47.90901" lon="7.1524">
        <ele>786.8</ele>
        <time>2013-11-11T15:33:13Z</time>
      </trkpt>
      <trkpt lat="47.90907" lon="7.15243">
        <ele>786.7</ele>
        <time>2013-11-11T15:33:14Z</time>
      </trkpt>
      <trkpt lat="47.90912" lon="7.15247">
        <ele>786.4</ele>
        <time>2013-11-11T15:33:15Z</time>
      </trkpt>
      <trkpt lat="47.90918" lon="7.15251">
        <ele>786.2</ele>
        <time>2013-11-11T15:33:16Z</time>
      </trkpt>
      <trkpt lat="47.90924" lon="7.15255">
        <ele>785.8</ele>
        <time>2013-11-11T15:33:17Z</time>
      </trkpt>
      <trkpt lat="47.9093" lon="7.1526">
        <ele>785.2</ele>
        <time>2013-11-11T15:33:18Z</time>
      </trkpt>
      <trkpt lat="47.90935" lon="7.15266">
        <ele>784.4</ele>
        <time>2013-11-11T15:33:19Z</time>
      </trkpt>
      <trkpt lat="47.90941" lon="7.15273">
        <ele>783.2</ele>
        <time>2013-11-11T15:33:20Z</time>
      </trkpt>
      <trkpt lat="47.90947" lon="7.1529">
        <ele>779.5</ele>
        <time>2013-11-11T15:33:21Z</time>
      </trkpt>
      <trkpt lat="47.90955" lon="7.15313">
        <ele>773.5</ele>
        <time>2013-11-11T15:33:22Z</time>
      </trkpt>
      <trkpt lat="47.90957" lon="7.1532">
        <ele>771.5</ele>
        <time>2013-11-11T15:33:23Z</time>
      </trkpt>
      <trkpt lat="47.90957" lon="7.15326">
        <ele>769.6</ele>
        <time>2013-11-11T15:33:24Z</time>
      </trkpt>
      <trkpt lat="47.90959" lon="7.15333">
        <ele>767.7</ele>
        <time>2013-11-11T15:33:25Z</time>
      </trkpt>
      <trkpt lat="47.90958" lon="7.15348">
        <ele>763.2</ele>
        <time>2013-11-11T15:33:26Z</time>
      </trkpt>
      <trkpt lat="47.90958" lon="7.15369">
        <ele>756.8</ele>
        <time>2013-11-11T15:33:27Z</time>
      </trkpt>
      <trkpt lat="47.90959" lon="7.15377">
        <ele>754.6</ele>
        <time>2013-11-11T15:33:28Z</time>
      </trkpt>
      <trkpt lat="47.90961" lon="7.15384">
        <ele>753</ele>
        <time>2013-11-11T15:33:29Z</time>
      </trkpt>
      <trkpt lat="47.90962" lon="7.1539">
        <ele>751.6</ele>
        <time>2013-11-11T15:33:30Z</time>
      </trkpt>
      <trkpt lat="47.90964" lon="7.15397">
        <ele>750.1</ele>
        <time>2013-11-11T15:33:31Z</time>
      </trkpt>
      <trkpt lat="47.90965" lon="7.15404">
        <ele>748.4</ele>
        <time>2013-11-11T15:33:32Z</time>
      </trkpt>
      <trkpt lat="47.90966" lon="7.15411">
        <ele>746.5</ele>
        <time>2013-11-11T15:33:33Z</time>
      </trkpt>
      <trkpt lat="47.90963" lon="7.15428">
        <ele>741</ele>
        <time>2013-11-11T15:33:34Z</time>
      </trkpt>
      <trkpt lat="47.9096" lon="7.15451">
        <ele>733.6</ele>
        <time>2013-11-11T15:33:35Z</time>
      </trkpt>
      <trkpt lat="47.9096" lon="7.15457">
        <ele>731.8</ele>
        <time>2013-11-11T15:33:36Z</time>
      </trkpt>
      <trkpt lat="47.90959" lon="7.15462">
        <ele>730.4</ele>
        <time>2013-11-11T15:33:37Z</time>
      </trkpt>
      <trkpt lat="47.9096" lon="7.15468">
        <ele>729</ele>
        <time>2013-11-11T15:33:38Z</time>
      </trkpt>
      <trkpt lat="47.9096" lon="7.15474">
        <ele>727.5</ele>
        <time>2013-11-11T15:33:39Z</time>
      </trkpt>
      <trkpt lat="47.9096" lon="7.15489">
        <ele>724.1</ele>
        <time>2013-11-11T15:33:40Z</time>
      </trkpt>
      <trkpt lat="47.9096" lon="7.15509">
        <ele>719.2</ele>
        <time>2013-11-11T15:33:41Z</time>
      </trkpt>
      <trkpt lat="47.90962" lon="7.15516">
        <ele>718</ele>
        <time>2013-11-11T15:33:42Z</time>
      </trkpt>
      <trkpt lat="47.90965" lon="7.15523">
        <ele>717</ele>
        <time>2013-11-11T15:33:43Z</time>
      </trkpt>
      <trkpt lat="47.90968" lon="7.15529">
        <ele>716.2</ele>
        <time>2013-11-11T15:33:44Z</time>
      </trkpt>
      <trkpt lat="47.90971" lon="7.15536">
        <ele>715.3</ele>
        <time>2013-11-11T15:33:45Z</time>
      </trkpt>
      <trkpt lat="47.90981" lon="7.15551">
        <ele>713.6</ele>
        <time>2013-11-11T15:33:46Z</time>
      </trkpt>
      <trkpt lat="47.90986" lon="7.15559">
        <ele>712.8</ele>
        <time>2013-11-11T15:33:47Z</time>
      </trkpt>
      <trkpt lat="47.90988" lon="7.15568">
        <ele>711.1</ele>
        <time>2013-11-11T15:33:48Z</time>
      </trkpt>
      <trkpt lat="47.90989" lon="7.15574">
        <ele>709.9</ele>
        <time>2013-11-11T15:33:49Z</time>
      </trkpt>
      <trkpt lat="47.90992" lon="7.15585">
        <ele>707.6</ele>
        <time>2013-11-11T15:33:50Z</time>
      </trkpt>
      <trkpt lat="47.90992" lon="7.15591">
        <ele>706.2</ele>
        <time>2013-11-11T15:33:51Z</time>
      </trkpt>
      <trkpt lat="47.90992" lon="7.15598">
        <ele>704.6</ele>
        <time>2013-11-11T15:33:52Z</time>
      </trkpt>
      <trkpt lat="47.90993" lon="7.15606">
        <ele>702.7</ele>
        <time>2013-11-11T15:33:53Z</time>
      </trkpt>
      <trkpt lat="47.90993" lon="7.15615">
        <ele>700.6</ele>
        <time>2013-11-11T15:33:54Z</time>
      </trkpt>
      <trkpt lat="47.90995" lon="7.15626">
        <ele>698.2</ele>
        <time>2013-11-11T15:33:55Z</time>
      </trkpt>
      <trkpt lat="47.90996" lon="7.15635">
        <ele>696</ele>
        <time>2013-11-11T15:33:56Z</time>
      </trkpt>
      <trkpt lat="47.90997" lon="7.15639">
        <ele>695.3</ele>
        <time>2013-11-11T15:33:57Z</time>
      </trkpt>
      <trkpt lat="47.90999" lon="7.15645">
        <ele>694.3</ele>
        <time>2013-11-11T15:33:58Z</time>
      </trkpt>
      <trkpt lat="47.91002" lon="7.15651">
        <ele>693.6</ele>
        <time>2013-11-11T15:33:59Z</time>
      </trkpt>
      <trkpt lat="47.91004" lon="7.15658">
        <ele>692.5</ele>
        <time>2013-11-11T15:34:00Z</time>
      </trkpt>
      <trkpt lat="47.91007" lon="7.15666">
        <ele>691.2</ele>
        <time>2013-11-11T15:34:01Z</time>
      </trkpt>
      <trkpt lat="47.91009" lon="7.15674">
        <ele>689.8</ele>
        <time>2013-11-11T15:34:02Z</time>
      </trkpt>
      <trkpt lat="47.91011" lon="7.15682">
        <ele>688.4</ele>
        <time>2013-11-11T15:34:03Z</time>
      </trkpt>
      <trkpt lat="47.91014" lon="7.1569">
        <ele>687.3</ele>
        <time>2013-11-11T15:34:04Z</time>
      </trkpt>
      <trkpt lat="47.91016" lon="7.15697">
        <ele>686.4</ele>
        <time>2013-11-11T15:34:05Z</time>
      </trkpt>
      <trkpt lat="47.91019" lon="7.15704">
        <ele>685.6</ele>
        <time>2013-11-11T15:34:06Z</time>
      </trkpt>
      <trkpt lat="47.91021" lon="7.1571">
        <ele>684.9</ele>
        <time>2013-11-11T15:34:07Z</time>
      </trkpt>
      <trkpt lat="47.91024" lon="7.15716">
        <ele>684.4</ele>
        <time>2013-11-11T15:34:08Z</time>
      </trkpt>
      <trkpt lat="47.91026" lon="7.15721">
        <ele>684.1</ele>
        <time>2013-11-11T15:34:09Z</time>
      </trkpt>
      <trkpt lat="47.91029" lon="7.15726">
        <ele>683.8</ele>
        <time>2013-11-11T15:34:10Z</time>
      </trkpt>
      <trkpt lat="47.91032" lon="7.15733">
        <ele>683.2</ele>
        <time>2013-11-11T15:34:11Z</time>
      </trkpt>
      <trkpt lat="47.91035" lon="7.15739">
        <ele>682.7</ele>
        <time>2013-11-11T15:34:12Z</time>
      </trkpt>
      <trkpt lat="47.91037" lon="7.15745">
        <ele>681.9</ele>
        <time>2013-11-11T15:34:13Z</time>
      </trkpt>
      <trkpt lat="47.91039" lon="7.15752">
        <ele>680.8</ele>
        <time>2013-11-11T15:34:14Z</time>
      </trkpt>
      <trkpt lat="47.9104" lon="7.1576">
        <ele>679.4</ele>
        <time>2013-11-11T15:34:15Z</time>
      </trkpt>
      <trkpt lat="47.9104" lon="7.15768">
        <ele>677.5</ele>
        <time>2013-11-11T15:34:16Z</time>
      </trkpt>
      <trkpt lat="47.91039" lon="7.15785">
        <ele>672.7</ele>
        <time>2013-11-11T15:34:17Z</time>
      </trkpt>
      <trkpt lat="47.91038" lon="7.1581">
        <ele>667.8</ele>
        <time>2013-11-11T15:34:18Z</time>
      </trkpt>
      <trkpt lat="47.91037" lon="7.15826">
        <ele>664.9</ele>
        <time>2013-11-11T15:34:19Z</time>
      </trkpt>
      <trkpt lat="47.91035" lon="7.15837">
        <ele>662.5</ele>
        <time>2013-11-11T15:34:20Z</time>
      </trkpt>
      <trkpt lat="47.91031" lon="7.15847">
        <ele>659.6</ele>
        <time>2013-11-11T15:34:21Z</time>
      </trkpt>
      <trkpt lat="47.9103" lon="7.15855">
        <ele>658</ele>
        <time>2013-11-11T15:34:22Z</time>
      </trkpt>
      <trkpt lat="47.91026" lon="7.15865">
        <ele>655.2</ele>
        <time>2013-11-11T15:34:23Z</time>
      </trkpt>
      <trkpt lat="47.91025" lon="7.15877">
        <ele>653.1</ele>
        <time>2013-11-11T15:34:24Z</time>
      </trkpt>
      <trkpt lat="47.91023" lon="7.15889">
        <ele>651.3</ele>
        <time>2013-11-11T15:34:25Z</time>
      </trkpt>
      <trkpt lat="47.91022" lon="7.159">
        <ele>650</ele>
        <time>2013-11-11T15:34:26Z</time>
      </trkpt>
      <trkpt lat="47.91022" lon="7.15914">
        <ele>648.8</ele>
        <time>2013-11-11T15:34:27Z</time>
      </trkpt>
      <trkpt lat="47.91021" lon="7.15924">
        <ele>647.7</ele>
        <time>2013-11-11T15:34:28Z</time>
      </trkpt>
      <trkpt lat="47.91024" lon="7.15937">
        <ele>647.8</ele>
        <time>2013-11-11T15:34:29Z</time>
      </trkpt>
      <trkpt lat="47.91025" lon="7.15949">
        <ele>647</ele>
        <time>2013-11-11T15:34:30Z</time>
      </trkpt>
      <trkpt lat="47.9103" lon="7.15959">
        <ele>647.7</ele>
        <time>2013-11-11T15:34:31Z</time>
      </trkpt>
      <trkpt lat="47.9103" lon="7.15969">
        <ele>647.6</ele>
        <time>2013-11-11T15:34:32Z</time>
      </trkpt>
      <trkpt lat="47.91032" lon="7.15975">
        <ele>647.8</ele>
        <time>2013-11-11T15:34:33Z</time>
      </trkpt>
      <trkpt lat="47.91037" lon="7.1598">
        <ele>649.3</ele>
        <time>2013-11-11T15:34:34Z</time>
      </trkpt>
      <trkpt lat="47.91041" lon="7.15984">
        <ele>650.7</ele>
        <time>2013-11-11T15:34:35Z</time>
      </trkpt>
      <trkpt lat="47.91044" lon="7.15988">
        <ele>650.5</ele>
        <time>2013-11-11T15:34:36Z</time>
      </trkpt>
      <trkpt lat="47.91046" lon="7.15992">
        <ele>650.2</ele>
        <time>2013-11-11T15:34:37Z</time>
      </trkpt>
      <trkpt lat="47.91044" lon="7.16003">
        <ele>649.8</ele>
        <time>2013-11-11T15:34:38Z</time>
      </trkpt>
      <trkpt lat="47.91046" lon="7.16008">
        <ele>649.5</ele>
        <time>2013-11-11T15:34:39Z</time>
      </trkpt>
      <trkpt lat="47.91043" lon="7.16018">
        <ele>649.1</ele>
        <time>2013-11-11T15:34:40Z</time>
      </trkpt>
      <trkpt lat="47.9104" lon="7.16022">
        <ele>648.4</ele>
        <time>2013-11-11T15:34:41Z</time>
      </trkpt>
      <trkpt lat="47.91035" lon="7.16029">
        <ele>646.2</ele>
        <time>2013-11-11T15:34:42Z</time>
      </trkpt>
      <trkpt lat="47.9103" lon="7.16034">
        <ele>644.5</ele>
        <time>2013-11-11T15:34:43Z</time>
      </trkpt>
      <trkpt lat="47.91027" lon="7.16041">
        <ele>643</ele>
        <time>2013-11-11T15:34:44Z</time>
      </trkpt>
      <trkpt lat="47.91023" lon="7.16046">
        <ele>641.9</ele>
        <time>2013-11-11T15:34:45Z</time>
      </trkpt>
      <trkpt lat="47.91018" lon="7.16052">
        <ele>640.9</ele>
        <time>2013-11-11T15:34:46Z</time>
      </trkpt>
      <trkpt lat="47.91014" lon="7.16057">
        <ele>639.9</ele>
        <time>2013-11-11T15:34:47Z</time>
      </trkpt>
      <trkpt lat="47.91009" lon="7.16062">
        <ele>639</ele>
        <time>2013-11-11T15:34:48Z</time>
      </trkpt>
      <trkpt lat="47.91004" lon="7.16067">
        <ele>638.1</ele>
        <time>2013-11-11T15:34:49Z</time>
      </trkpt>
      <trkpt lat="47.91" lon="7.16071">
        <ele>637.3</ele>
        <time>2013-11-11T15:34:50Z</time>
      </trkpt>
      <trkpt lat="47.90995" lon="7.16075">
        <ele>636.4</ele>
        <time>2013-11-11T15:34:51Z</time>
      </trkpt>
      <trkpt lat="47.9099" lon="7.16079">
        <ele>635.6</ele>
        <time>2013-11-11T15:34:52Z</time>
      </trkpt>
      <trkpt lat="47.90985" lon="7.16084">
        <ele>634.9</ele>
        <time>2013-11-11T15:34:53Z</time>
      </trkpt>
      <trkpt lat="47.9098" lon="7.16088">
        <ele>634.2</ele>
        <time>2013-11-11T15:34:54Z</time>
      </trkpt>
      <trkpt lat="47.90974" lon="7.16093">
        <ele>633.7</ele>
        <time>2013-11-11T15:34:55Z</time>
      </trkpt>
      <trkpt lat="47.90962" lon="7.16102">
        <ele>632.5</ele>
        <time>2013-11-11T15:34:56Z</time>
      </trkpt>
      <trkpt lat="47.90949" lon="7.16112">
        <ele>633</ele>
        <time>2013-11-11T15:34:57Z</time>
      </trkpt>
      <trkpt lat="47.90944" lon="7.16115">
        <ele>633.1</ele>
        <time>2013-11-11T15:34:58Z</time>
      </trkpt>
      <trkpt lat="47.90939" lon="7.16117">
        <ele>633.3</ele>
        <time>2013-11-11T15:34:59Z</time>
      </trkpt>
      <trkpt lat="47.90933" lon="7.16121">
        <ele>633.7</ele>
        <time>2013-11-11T15:35:00Z</time>
      </trkpt>
      <trkpt lat="47.90926" lon="7.16127">
        <ele>634.3</ele>
        <time>2013-11-11T15:35:01Z</time>
      </trkpt>
      <trkpt lat="47.90921" lon="7.16139">
        <ele>635</ele>
        <time>2013-11-11T15:35:02Z</time>
      </trkpt>
      <trkpt lat="47.90917" lon="7.16147">
        <ele>635.3</ele>
        <time>2013-11-11T15:35:03Z</time>
      </trkpt>
      <trkpt lat="47.90915" lon="7.16156">
        <ele>635.7</ele>
        <time>2013-11-11T15:35:04Z</time>
      </trkpt>
      <trkpt lat="47.90912" lon="7.16164">
        <ele>635.8</ele>
        <time>2013-11-11T15:35:05Z</time>
      </trkpt>
      <trkpt lat="47.90907" lon="7.16171">
        <ele>635.5</ele>
        <time>2013-11-11T15:35:06Z</time>
      </trkpt>
      <trkpt lat="47.90904" lon="7.16179">
        <ele>635.2</ele>
        <time>2013-11-11T15:35:07Z</time>
      </trkpt>
      <trkpt lat="47.90901" lon="7.16188">
        <ele>634.9</ele>
        <time>2013-11-11T15:35:08Z</time>
      </trkpt>
      <trkpt lat="47.90897" lon="7.1618">
        <ele>633.9</ele>
        <time>2013-11-11T15:35:09Z</time>
      </trkpt>
      <trkpt lat="47.9091" lon="7.16182">
        <ele>636.6</ele>
        <time>2013-11-11T15:35:10Z</time>
      </trkpt>
      <trkpt lat="47.90913" lon="7.1619">
        <ele>637.7</ele>
        <time>2013-11-11T15:35:11Z</time>
      </trkpt>
      <trkpt lat="47.90915" lon="7.16197">
        <ele>638.8</ele>
        <time>2013-11-11T15:35:12Z</time>
      </trkpt>
      <trkpt lat="47.90916" lon="7.16209">
        <ele>639.7</ele>
        <time>2013-11-11T15:35:13Z</time>
      </trkpt>
      <trkpt lat="47.90916" lon="7.16215">
        <ele>639.8</ele>
        <time>2013-11-11T15:35:14Z</time>
      </trkpt>
      <trkpt lat="47.90918" lon="7.16221">
        <ele>640.1</ele>
        <time>2013-11-11T15:35:15Z</time>
      </trkpt>
      <trkpt lat="47.90919" lon="7.16227">
        <ele>640.4</ele>
        <time>2013-11-11T15:35:16Z</time>
      </trkpt>
      <trkpt lat="47.90922" lon="7.16233">
        <ele>641.1</ele>
        <time>2013-11-11T15:35:17Z</time>
      </trkpt>
      <trkpt lat="47.90922" lon="7.16239">
        <ele>641.2</ele>
        <time>2013-11-11T15:35:18Z</time>
      </trkpt>
      <trkpt lat="47.90923" lon="7.16245">
        <ele>641.6</ele>
        <time>2013-11-11T15:35:19Z</time>
      </trkpt>
      <trkpt lat="47.90925" lon="7.16251">
        <ele>642</ele>
        <time>2013-11-11T15:35:20Z</time>
      </trkpt>
      <trkpt lat="47.90925" lon="7.16258">
        <ele>642.3</ele>
        <time>2013-11-11T15:35:21Z</time>
      </trkpt>
      <trkpt lat="47.90925" lon="7.16265">
        <ele>642.2</ele>
        <time>2013-11-11T15:35:22Z</time>
      </trkpt>
      <trkpt lat="47.90924" lon="7.16274">
        <ele>641.9</ele>
        <time>2013-11-11T15:35:23Z</time>
      </trkpt>
      <trkpt lat="47.90923" lon="7.16283">
        <ele>641.3</ele>
        <time>2013-11-11T15:35:24Z</time>
      </trkpt>
      <trkpt lat="47.90922" lon="7.16292">
        <ele>640.4</ele>
        <time>2013-11-11T15:35:25Z</time>
      </trkpt>
      <trkpt lat="47.9092" lon="7.16301">
        <ele>639.5</ele>
        <time>2013-11-11T15:35:26Z</time>
      </trkpt>
      <trkpt lat="47.9092" lon="7.1631">
        <ele>638.8</ele>
        <time>2013-11-11T15:35:27Z</time>
      </trkpt>
      <trkpt lat="47.90919" lon="7.16318">
        <ele>638.3</ele>
        <time>2013-11-11T15:35:28Z</time>
      </trkpt>
      <trkpt lat="47.9092" lon="7.16325">
        <ele>638.1</ele>
        <time>2013-11-11T15:35:29Z</time>
      </trkpt>
      <trkpt lat="47.9092" lon="7.16332">
        <ele>638</ele>
        <time>2013-11-11T15:35:30Z</time>
      </trkpt>
      <trkpt lat="47.9092" lon="7.16338">
        <ele>638</ele>
        <time>2013-11-11T15:35:31Z</time>
      </trkpt>
      <trkpt lat="47.90921" lon="7.16343">
        <ele>638.2</ele>
        <time>2013-11-11T15:35:32Z</time>
      </trkpt>
      <trkpt lat="47.90922" lon="7.16349">
        <ele>638.6</ele>
        <time>2013-11-11T15:35:33Z</time>
      </trkpt>
      <trkpt lat="47.90923" lon="7.16356">
        <ele>638.9</ele>
        <time>2013-11-11T15:35:34Z</time>
      </trkpt>
      <trkpt lat="47.90924" lon="7.16363">
        <ele>639.3</ele>
        <time>2013-11-11T15:35:35Z</time>
      </trkpt>
      <trkpt lat="47.90926" lon="7.16372">
        <ele>639.8</ele>
        <time>2013-11-11T15:35:36Z</time>
      </trkpt>
      <trkpt lat="47.90927" lon="7.1639">
        <ele>640.5</ele>
        <time>2013-11-11T15:35:37Z</time>
      </trkpt>
      <trkpt lat="47.90929" lon="7.16415">
        <ele>641.5</ele>
        <time>2013-11-11T15:35:38Z</time>
      </trkpt>
      <trkpt lat="47.9093" lon="7.16425">
        <ele>641.6</ele>
        <time>2013-11-11T15:35:39Z</time>
      </trkpt>
      <trkpt lat="47.90932" lon="7.16431">
        <ele>642.8</ele>
        <time>2013-11-11T15:35:40Z</time>
      </trkpt>
      <trkpt lat="47.90935" lon="7.16438">
        <ele>644.7</ele>
        <time>2013-11-11T15:35:41Z</time>
      </trkpt>
      <trkpt lat="47.90938" lon="7.16446">
        <ele>645.9</ele>
        <time>2013-11-11T15:35:42Z</time>
      </trkpt>
      <trkpt lat="47.9094" lon="7.16454">
        <ele>646.9</ele>
        <time>2013-11-11T15:35:43Z</time>
      </trkpt>
      <trkpt lat="47.90941" lon="7.16465">
        <ele>646.9</ele>
        <time>2013-11-11T15:35:44Z</time>
      </trkpt>
      <trkpt lat="47.90939" lon="7.16474">
        <ele>645</ele>
        <time>2013-11-11T15:35:45Z</time>
      </trkpt>
      <trkpt lat="47.90937" lon="7.16484">
        <ele>643.2</ele>
        <time>2013-11-11T15:35:46Z</time>
      </trkpt>
      <trkpt lat="47.90935" lon="7.16498">
        <ele>640.7</ele>
        <time>2013-11-11T15:35:47Z</time>
      </trkpt>
      <trkpt lat="47.90933" lon="7.16508">
        <ele>639</ele>
        <time>2013-11-11T15:35:48Z</time>
      </trkpt>
      <trkpt lat="47.90928" lon="7.16529">
        <ele>633.8</ele>
        <time>2013-11-11T15:35:49Z</time>
      </trkpt>
      <trkpt lat="47.90928" lon="7.1654">
        <ele>633.2</ele>
        <time>2013-11-11T15:35:50Z</time>
      </trkpt>
      <trkpt lat="47.90928" lon="7.16549">
        <ele>632.5</ele>
        <time>2013-11-11T15:35:51Z</time>
      </trkpt>
      <trkpt lat="47.90929" lon="7.16557">
        <ele>631.9</ele>
        <time>2013-11-11T15:35:52Z</time>
      </trkpt>
      <trkpt lat="47.90929" lon="7.16565">
        <ele>631.5</ele>
        <time>2013-11-11T15:35:53Z</time>
      </trkpt>
      <trkpt lat="47.90933" lon="7.16573">
        <ele>633.5</ele>
        <time>2013-11-11T15:35:54Z</time>
      </trkpt>
      <trkpt lat="47.90938" lon="7.16582">
        <ele>635.5</ele>
        <time>2013-11-11T15:35:55Z</time>
      </trkpt>
      <trkpt lat="47.90944" lon="7.16595">
        <ele>637.9</ele>
        <time>2013-11-11T15:35:56Z</time>
      </trkpt>
      <trkpt lat="47.90951" lon="7.16604">
        <ele>641.7</ele>
        <time>2013-11-11T15:35:57Z</time>
      </trkpt>
      <trkpt lat="47.90955" lon="7.16619">
        <ele>643</ele>
        <time>2013-11-11T15:35:58Z</time>
      </trkpt>
      <trkpt lat="47.9096" lon="7.16626">
        <ele>645.8</ele>
        <time>2013-11-11T15:35:59Z</time>
      </trkpt>
      <trkpt lat="47.90963" lon="7.16637">
        <ele>644.4</ele>
        <time>2013-11-11T15:36:00Z</time>
      </trkpt>
      <trkpt lat="47.90963" lon="7.16648">
        <ele>642</ele>
        <time>2013-11-11T15:36:01Z</time>
      </trkpt>
      <trkpt lat="47.90964" lon="7.16661">
        <ele>639.5</ele>
        <time>2013-11-11T15:36:02Z</time>
      </trkpt>
      <trkpt lat="47.9096" lon="7.1667">
        <ele>635.2</ele>
        <time>2013-11-11T15:36:03Z</time>
      </trkpt>
      <trkpt lat="47.90956" lon="7.16687">
        <ele>629.9</ele>
        <time>2013-11-11T15:36:04Z</time>
      </trkpt>
      <trkpt lat="47.90952" lon="7.16697">
        <ele>625.5</ele>
        <time>2013-11-11T15:36:05Z</time>
      </trkpt>
      <trkpt lat="47.90946" lon="7.16714">
        <ele>619.2</ele>
        <time>2013-11-11T15:36:06Z</time>
      </trkpt>
      <trkpt lat="47.90938" lon="7.16729">
        <ele>612.9</ele>
        <time>2013-11-11T15:36:07Z</time>
      </trkpt>
      <trkpt lat="47.90932" lon="7.16744">
        <ele>607.4</ele>
        <time>2013-11-11T15:36:08Z</time>
      </trkpt>
      <trkpt lat="47.90928" lon="7.16757">
        <ele>604</ele>
        <time>2013-11-11T15:36:09Z</time>
      </trkpt>
      <trkpt lat="47.90926" lon="7.16765">
        <ele>601.5</ele>
        <time>2013-11-11T15:36:10Z</time>
      </trkpt>
      <trkpt lat="47.90922" lon="7.16774">
        <ele>598</ele>
        <time>2013-11-11T15:36:11Z</time>
      </trkpt>
      <trkpt lat="47.9092" lon="7.16784">
        <ele>595.6</ele>
        <time>2013-11-11T15:36:12Z</time>
      </trkpt>
      <trkpt lat="47.90914" lon="7.16801">
        <ele>592.3</ele>
        <time>2013-11-11T15:36:13Z</time>
      </trkpt>
      <trkpt lat="47.9091" lon="7.16812">
        <ele>591.4</ele>
        <time>2013-11-11T15:36:14Z</time>
      </trkpt>
      <trkpt lat="47.90907" lon="7.16824">
        <ele>590.6</ele>
        <time>2013-11-11T15:36:15Z</time>
      </trkpt>
      <trkpt lat="47.90906" lon="7.16831">
        <ele>590.3</ele>
        <time>2013-11-11T15:36:16Z</time>
      </trkpt>
      <trkpt lat="47.90904" lon="7.16834">
        <ele>589.8</ele>
        <time>2013-11-11T15:36:17Z</time>
      </trkpt>
      <trkpt lat="47.90902" lon="7.16842">
        <ele>589</ele>
        <time>2013-11-11T15:36:18Z</time>
      </trkpt>
      <trkpt lat="47.90899" lon="7.16855">
        <ele>588.1</ele>
        <time>2013-11-11T15:36:19Z</time>
      </trkpt>
      <trkpt lat="47.90896" lon="7.16863">
        <ele>587.4</ele>
        <time>2013-11-11T15:36:20Z</time>
      </trkpt>
      <trkpt lat="47.90897" lon="7.1687">
        <ele>588.1</ele>
        <time>2013-11-11T15:36:21Z</time>
      </trkpt>
      <trkpt lat="47.90898" lon="7.16878">
        <ele>589</ele>
        <time>2013-11-11T15:36:22Z</time>
      </trkpt>
      <trkpt lat="47.90901" lon="7.16883">
        <ele>590.7</ele>
        <time>2013-11-11T15:36:23Z</time>
      </trkpt>
      <trkpt lat="47.90903" lon="7.1689">
        <ele>592.1</ele>
        <time>2013-11-11T15:36:24Z</time>
      </trkpt>
      <trkpt lat="47.90906" lon="7.16893">
        <ele>593.5</ele>
        <time>2013-11-11T15:36:25Z</time>
      </trkpt>
      <trkpt lat="47.90908" lon="7.16898">
        <ele>595.1</ele>
        <time>2013-11-11T15:36:26Z</time>
      </trkpt>
      <trkpt lat="47.90915" lon="7.16907">
        <ele>598.8</ele>
        <time>2013-11-11T15:36:27Z</time>
      </trkpt>
      <trkpt lat="47.90918" lon="7.16914">
        <ele>600.5</ele>
        <time>2013-11-11T15:36:28Z</time>
      </trkpt>
      <trkpt lat="47.9092" lon="7.16923">
        <ele>602.2</ele>
        <time>2013-11-11T15:36:29Z</time>
      </trkpt>
      <trkpt lat="47.90926" lon="7.16929">
        <ele>605.1</ele>
        <time>2013-11-11T15:36:30Z</time>
      </trkpt>
      <trkpt lat="47.90927" lon="7.16942">
        <ele>606</ele>
        <time>2013-11-11T15:36:31Z</time>
      </trkpt>
      <trkpt lat="47.90929" lon="7.16949">
        <ele>607.4</ele>
        <time>2013-11-11T15:36:32Z</time>
      </trkpt>
      <trkpt lat="47.9093" lon="7.16959">
        <ele>608.3</ele>
        <time>2013-11-11T15:36:33Z</time>
      </trkpt>
      <trkpt lat="47.90933" lon="7.1697">
        <ele>609</ele>
        <time>2013-11-11T15:36:34Z</time>
      </trkpt>
      <trkpt lat="47.90932" lon="7.16985">
        <ele>607.7</ele>
        <time>2013-11-11T15:36:35Z</time>
      </trkpt>
      <trkpt lat="47.90931" lon="7.17003">
        <ele>606</ele>
        <time>2013-11-11T15:36:36Z</time>
      </trkpt>
      <trkpt lat="47.90932" lon="7.17022">
        <ele>605.1</ele>
        <time>2013-11-11T15:36:37Z</time>
      </trkpt>
      <trkpt lat="47.9093" lon="7.1704">
        <ele>603</ele>
        <time>2013-11-11T15:36:38Z</time>
      </trkpt>
      <trkpt lat="47.9093" lon="7.17055">
        <ele>601</ele>
        <time>2013-11-11T15:36:39Z</time>
      </trkpt>
      <trkpt lat="47.90926" lon="7.17078">
        <ele>596.4</ele>
        <time>2013-11-11T15:36:40Z</time>
      </trkpt>
      <trkpt lat="47.90921" lon="7.17097">
        <ele>591.4</ele>
        <time>2013-11-11T15:36:41Z</time>
      </trkpt>
      <trkpt lat="47.90915" lon="7.17117">
        <ele>586.2</ele>
        <time>2013-11-11T15:36:42Z</time>
      </trkpt>
      <trkpt lat="47.90912" lon="7.17138">
        <ele>583.1</ele>
        <time>2013-11-11T15:36:43Z</time>
      </trkpt>
      <trkpt lat="47.90911" lon="7.17154">
        <ele>581.7</ele>
        <time>2013-11-11T15:36:44Z</time>
      </trkpt>
      <trkpt lat="47.90907" lon="7.17174">
        <ele>578.6</ele>
        <time>2013-11-11T15:36:45Z</time>
      </trkpt>
      <trkpt lat="47.90903" lon="7.17195">
        <ele>575.2</ele>
        <time>2013-11-11T15:36:46Z</time>
      </trkpt>
      <trkpt lat="47.909" lon="7.17213">
        <ele>573</ele>
        <time>2013-11-11T15:36:47Z</time>
      </trkpt>
      <trkpt lat="47.90897" lon="7.17229">
        <ele>572.1</ele>
        <time>2013-11-11T15:36:48Z</time>
      </trkpt>
      <trkpt lat="47.90895" lon="7.17244">
        <ele>571.3</ele>
        <time>2013-11-11T15:36:49Z</time>
      </trkpt>
      <trkpt lat="47.90895" lon="7.17258">
        <ele>571.9</ele>
        <time>2013-11-11T15:36:50Z</time>
      </trkpt>
      <trkpt lat="47.90893" lon="7.17271">
        <ele>571.2</ele>
        <time>2013-11-11T15:36:51Z</time>
      </trkpt>
      <trkpt lat="47.9089" lon="7.17286">
        <ele>570.4</ele>
        <time>2013-11-11T15:36:52Z</time>
      </trkpt>
      <trkpt lat="47.90889" lon="7.17302">
        <ele>570.3</ele>
        <time>2013-11-11T15:36:53Z</time>
      </trkpt>
      <trkpt lat="47.90891" lon="7.17312">
        <ele>571.8</ele>
        <time>2013-11-11T15:36:54Z</time>
      </trkpt>
      <trkpt lat="47.90896" lon="7.17323">
        <ele>574</ele>
        <time>2013-11-11T15:36:55Z</time>
      </trkpt>
      <trkpt lat="47.909" lon="7.17324">
        <ele>575.5</ele>
        <time>2013-11-11T15:36:56Z</time>
      </trkpt>
      <trkpt lat="47.90905" lon="7.17327">
        <ele>577.3</ele>
        <time>2013-11-11T15:36:57Z</time>
      </trkpt>
      <trkpt lat="47.90911" lon="7.1733">
        <ele>579.9</ele>
        <time>2013-11-11T15:36:58Z</time>
      </trkpt>
      <trkpt lat="47.90918" lon="7.17332">
        <ele>582.3</ele>
        <time>2013-11-11T15:36:59Z</time>
      </trkpt>
      <trkpt lat="47.90929" lon="7.17333">
        <ele>586.3</ele>
        <time>2013-11-11T15:37:00Z</time>
      </trkpt>
      <trkpt lat="47.90939" lon="7.17337">
        <ele>589.4</ele>
        <time>2013-11-11T15:37:01Z</time>
      </trkpt>
      <trkpt lat="47.90948" lon="7.17341">
        <ele>592.2</ele>
        <time>2013-11-11T15:37:02Z</time>
      </trkpt>
      <trkpt lat="47.9095" lon="7.17353">
        <ele>592.3</ele>
        <time>2013-11-11T15:37:03Z</time>
      </trkpt>
      <trkpt lat="47.90953" lon="7.17366">
        <ele>592.1</ele>
        <time>2013-11-11T15:37:04Z</time>
      </trkpt>
      <trkpt lat="47.9094" lon="7.17381">
        <ele>587.2</ele>
        <time>2013-11-11T15:37:05Z</time>
      </trkpt>
      <trkpt lat="47.90926" lon="7.17402">
        <ele>581.7</ele>
        <time>2013-11-11T15:37:06Z</time>
      </trkpt>
      <trkpt lat="47.90919" lon="7.1742">
        <ele>579</ele>
        <time>2013-11-11T15:37:07Z</time>
      </trkpt>
      <trkpt lat="47.90916" lon="7.17434">
        <ele>577.4</ele>
        <time>2013-11-11T15:37:08Z</time>
      </trkpt>
      <trkpt lat="47.90913" lon="7.17453">
        <ele>575.9</ele>
        <time>2013-11-11T15:37:09Z</time>
      </trkpt>
      <trkpt lat="47.90909" lon="7.17471">
        <ele>575.1</ele>
        <time>2013-11-11T15:37:10Z</time>
      </trkpt>
      <trkpt lat="47.90905" lon="7.17484">
        <ele>574.6</ele>
        <time>2013-11-11T15:37:11Z</time>
      </trkpt>
      <trkpt lat="47.90907" lon="7.17497">
        <ele>574.6</ele>
        <time>2013-11-11T15:37:12Z</time>
      </trkpt>
      <trkpt lat="47.90908" lon="7.17509">
        <ele>574.6</ele>
        <time>2013-11-11T15:37:13Z</time>
      </trkpt>
      <trkpt lat="47.90913" lon="7.17523">
        <ele>574.6</ele>
        <time>2013-11-11T15:37:14Z</time>
      </trkpt>
      <trkpt lat="47.90916" lon="7.17533">
        <ele>574.6</ele>
        <time>2013-11-11T15:37:15Z</time>
      </trkpt>
      <trkpt lat="47.90918" lon="7.17546">
        <ele>574.4</ele>
        <time>2013-11-11T15:37:16Z</time>
      </trkpt>
      <trkpt lat="47.90923" lon="7.17558">
        <ele>574.3</ele>
        <time>2013-11-11T15:37:17Z</time>
      </trkpt>
      <trkpt lat="47.90928" lon="7.17567">
        <ele>574.3</ele>
        <time>2013-11-11T15:37:18Z</time>
      </trkpt>
      <trkpt lat="47.90931" lon="7.17579">
        <ele>574.1</ele>
        <time>2013-11-11T15:37:19Z</time>
      </trkpt>
      <trkpt lat="47.90933" lon="7.17588">
        <ele>574</ele>
        <time>2013-11-11T15:37:20Z</time>
      </trkpt>
      <trkpt lat="47.90935" lon="7.17591">
        <ele>574.2</ele>
        <time>2013-11-11T15:37:21Z</time>
      </trkpt>
      <trkpt lat="47.90937" lon="7.176">
        <ele>574.1</ele>
        <time>2013-11-11T15:37:22Z</time>
      </trkpt>
      <trkpt lat="47.90939" lon="7.17606">
        <ele>574.2</ele>
        <time>2013-11-11T15:37:23Z</time>
      </trkpt>
      <trkpt lat="47.90943" lon="7.1762">
        <ele>574.4</ele>
        <time>2013-11-11T15:37:24Z</time>
      </trkpt>
      <trkpt lat="47.90947" lon="7.17632">
        <ele>574.1</ele>
        <time>2013-11-11T15:37:25Z</time>
      </trkpt>
      <trkpt lat="47.90949" lon="7.17638">
        <ele>573.6</ele>
        <time>2013-11-11T15:37:26Z</time>
      </trkpt>
      <trkpt lat="47.9095" lon="7.17643">
        <ele>573.2</ele>
        <time>2013-11-11T15:37:27Z</time>
      </trkpt>
      <trkpt lat="47.90953" lon="7.17647">
        <ele>573</ele>
        <time>2013-11-11T15:37:28Z</time>
      </trkpt>
      <trkpt lat="47.90953" lon="7.17653">
        <ele>572.4</ele>
        <time>2013-11-11T15:37:29Z</time>
      </trkpt>
      <trkpt lat="47.90953" lon="7.17658">
        <ele>571.8</ele>
        <time>2013-11-11T15:37:31Z</time>
      </trkpt>
      <trkpt lat="47.90953" lon="7.17654">
        <ele>572.2</ele>
        <time>2013-11-11T15:37:37Z</time>
      </trkpt>
      <trkpt lat="47.90955" lon="7.17649">
        <ele>573</ele>
        <time>2013-11-11T15:37:39Z</time>
      </trkpt>
      <trkpt lat="47.90957" lon="7.17646">
        <ele>573.6</ele>
        <time>2013-11-11T15:37:40Z</time>
      </trkpt>
      <trkpt lat="47.90958" lon="7.17642">
        <ele>574.1</ele>
        <time>2013-11-11T15:37:41Z</time>
      </trkpt>
      <trkpt lat="47.90959" lon="7.17638">
        <ele>574.6</ele>
        <time>2013-11-11T15:37:42Z</time>
      </trkpt>
      <trkpt lat="47.9096" lon="7.17634">
        <ele>574.9</ele>
        <time>2013-11-11T15:37:43Z</time>
      </trkpt>
      <trkpt lat="47.90961" lon="7.1763">
        <ele>575.2</ele>
        <time>2013-11-11T15:37:44Z</time>
      </trkpt>
      <trkpt lat="47.90963" lon="7.17622">
        <ele>575.5</ele>
        <time>2013-11-11T15:37:46Z</time>
      </trkpt>
      <trkpt lat="47.90963" lon="7.17618">
        <ele>575.5</ele>
        <time>2013-11-11T15:37:47Z</time>
      </trkpt>
      <trkpt lat="47.90963" lon="7.17613">
        <ele>575.5</ele>
        <time>2013-11-11T15:37:48Z</time>
      </trkpt>
      <trkpt lat="47.90964" lon="7.17607">
        <ele>575.5</ele>
        <time>2013-11-11T15:37:49Z</time>
      </trkpt>
      <trkpt lat="47.90964" lon="7.176">
        <ele>575.4</ele>
        <time>2013-11-11T15:37:50Z</time>
      </trkpt>
      <trkpt lat="47.90966" lon="7.17592">
        <ele>575.4</ele>
        <time>2013-11-11T15:37:51Z</time>
      </trkpt>
      <trkpt lat="47.90968" lon="7.17583">
        <ele>575.3</ele>
        <time>2013-11-11T15:37:52Z</time>
      </trkpt>
      <trkpt lat="47.9097" lon="7.17574">
        <ele>575.3</ele>
        <time>2013-11-11T15:37:53Z</time>
      </trkpt>
      <trkpt lat="47.90972" lon="7.17566">
        <ele>575.3</ele>
        <time>2013-11-11T15:37:54Z</time>
      </trkpt>
      <trkpt lat="47.90973" lon="7.17559">
        <ele>575.4</ele>
        <time>2013-11-11T15:37:55Z</time>
      </trkpt>
      <trkpt lat="47.90975" lon="7.17552">
        <ele>575.4</ele>
        <time>2013-11-11T15:37:56Z</time>
      </trkpt>
      <trkpt lat="47.90976" lon="7.17546">
        <ele>575.5</ele>
        <time>2013-11-11T15:37:57Z</time>
      </trkpt>
      <trkpt lat="47.90979" lon="7.17542">
        <ele>575.5</ele>
        <time>2013-11-11T15:37:58Z</time>
      </trkpt>
      <trkpt lat="47.90981" lon="7.1754">
        <ele>575.6</ele>
        <time>2013-11-11T15:37:59Z</time>
      </trkpt>
      <trkpt lat="47.90984" lon="7.17539">
        <ele>575.6</ele>
        <time>2013-11-11T15:38:00Z</time>
      </trkpt>
      <trkpt lat="47.90989" lon="7.17538">
        <ele>575.6</ele>
        <time>2013-11-11T15:38:02Z</time>
      </trkpt>
      <trkpt lat="47.90993" lon="7.17538">
        <ele>575.5</ele>
        <time>2013-11-11T15:38:04Z</time>
      </trkpt>
      <trkpt lat="47.90998" lon="7.17538">
        <ele>575.3</ele>
        <time>2013-11-11T15:38:06Z</time>
      </trkpt>
      <trkpt lat="47.91001" lon="7.17538">
        <ele>575.2</ele>
        <time>2013-11-11T15:38:07Z</time>
      </trkpt>
      <trkpt lat="47.91004" lon="7.17539">
        <ele>575.1</ele>
        <time>2013-11-11T15:38:08Z</time>
      </trkpt>
      <trkpt lat="47.91008" lon="7.17541">
        <ele>574.9</ele>
        <time>2013-11-11T15:38:09Z</time>
      </trkpt>
      <trkpt lat="47.91011" lon="7.17542">
        <ele>574.7</ele>
        <time>2013-11-11T15:38:10Z</time>
      </trkpt>
      <trkpt lat="47.91016" lon="7.17544">
        <ele>574.5</ele>
        <time>2013-11-11T15:38:11Z</time>
      </trkpt>
      <trkpt lat="47.91021" lon="7.17545">
        <ele>574.3</ele>
        <time>2013-11-11T15:38:12Z</time>
      </trkpt>
      <trkpt lat="47.91025" lon="7.17546">
        <ele>574.1</ele>
        <time>2013-11-11T15:38:13Z</time>
      </trkpt>
      <trkpt lat="47.91029" lon="7.17545">
        <ele>574.1</ele>
        <time>2013-11-11T15:38:14Z</time>
      </trkpt>
      <trkpt lat="47.91032" lon="7.17544">
        <ele>574.1</ele>
        <time>2013-11-11T15:38:15Z</time>
      </trkpt>
      <trkpt lat="47.91037" lon="7.17542">
        <ele>574.1</ele>
        <time>2013-11-11T15:38:16Z</time>
      </trkpt>
      <trkpt lat="47.91041" lon="7.17541">
        <ele>574.1</ele>
        <time>2013-11-11T15:38:17Z</time>
      </trkpt>
      <trkpt lat="47.91046" lon="7.1754">
        <ele>574.2</ele>
        <time>2013-11-11T15:38:18Z</time>
      </trkpt>
      <trkpt lat="47.9105" lon="7.17539">
        <ele>574.3</ele>
        <time>2013-11-11T15:38:19Z</time>
      </trkpt>
      <trkpt lat="47.91055" lon="7.17538">
        <ele>574.4</ele>
        <time>2013-11-11T15:38:20Z</time>
      </trkpt>
      <trkpt lat="47.9106" lon="7.17538">
        <ele>574.3</ele>
        <time>2013-11-11T15:38:21Z</time>
      </trkpt>
      <trkpt lat="47.91065" lon="7.17539">
        <ele>574.1</ele>
        <time>2013-11-11T15:38:22Z</time>
      </trkpt>
      <trkpt lat="47.9107" lon="7.1754">
        <ele>573.9</ele>
        <time>2013-11-11T15:38:23Z</time>
      </trkpt>
      <trkpt lat="47.91075" lon="7.17541">
        <ele>573.7</ele>
        <time>2013-11-11T15:38:24Z</time>
      </trkpt>
      <trkpt lat="47.91079" lon="7.17542">
        <ele>573.6</ele>
        <time>2013-11-11T15:38:25Z</time>
      </trkpt>
      <trkpt lat="47.91082" lon="7.17541">
        <ele>573.6</ele>
        <time>2013-11-11T15:38:26Z</time>
      </trkpt>
      <trkpt lat="47.91085" lon="7.17541">
        <ele>573.6</ele>
        <time>2013-11-11T15:38:27Z</time>
      </trkpt>
      <trkpt lat="47.91089" lon="7.1754">
        <ele>573.7</ele>
        <time>2013-11-11T15:38:29Z</time>
      </trkpt>
      <trkpt lat="47.91094" lon="7.1754">
        <ele>573.7</ele>
        <time>2013-11-11T15:38:31Z</time>
      </trkpt>
      <trkpt lat="47.911" lon="7.17541">
        <ele>573.4</ele>
        <time>2013-11-11T15:38:33Z</time>
      </trkpt>
      <trkpt lat="47.91103" lon="7.17541">
        <ele>573.4</ele>
        <time>2013-11-11T15:38:34Z</time>
      </trkpt>
      <trkpt lat="47.91106" lon="7.17541">
        <ele>573.5</ele>
        <time>2013-11-11T15:38:35Z</time>
      </trkpt>
      <trkpt lat="47.91109" lon="7.17541">
        <ele>573.4</ele>
        <time>2013-11-11T15:38:36Z</time>
      </trkpt>
      <trkpt lat="47.91112" lon="7.17541">
        <ele>573.4</ele>
        <time>2013-11-11T15:38:37Z</time>
      </trkpt>
      <trkpt lat="47.91115" lon="7.17541">
        <ele>573.3</ele>
        <time>2013-11-11T15:38:38Z</time>
      </trkpt>
      <trkpt lat="47.91118" lon="7.17541">
        <ele>573.2</ele>
        <time>2013-11-11T15:38:39Z</time>
      </trkpt>
      <trkpt lat="47.91121" lon="7.17542">
        <ele>573</ele>
        <time>2013-11-11T15:38:40Z</time>
      </trkpt>
      <trkpt lat="47.91125" lon="7.17542">
        <ele>572.9</ele>
        <time>2013-11-11T15:38:41Z</time>
      </trkpt>
      <trkpt lat="47.91128" lon="7.17542">
        <ele>572.8</ele>
        <time>2013-11-11T15:38:42Z</time>
      </trkpt>
      <trkpt lat="47.91132" lon="7.17542">
        <ele>572.8</ele>
        <time>2013-11-11T15:38:43Z</time>
      </trkpt>
      <trkpt lat="47.91136" lon="7.17541">
        <ele>572.9</ele>
        <time>2013-11-11T15:38:44Z</time>
      </trkpt>
      <trkpt lat="47.91139" lon="7.1754">
        <ele>573.1</ele>
        <time>2013-11-11T15:38:45Z</time>
      </trkpt>
      <trkpt lat="47.91143" lon="7.17539">
        <ele>573.3</ele>
        <time>2013-11-11T15:38:46Z</time>
      </trkpt>
      <trkpt lat="47.91148" lon="7.17538">
        <ele>573.5</ele>
        <time>2013-11-11T15:38:47Z</time>
      </trkpt>
      <trkpt lat="47.91152" lon="7.17537">
        <ele>573.8</ele>
        <time>2013-11-11T15:38:48Z</time>
      </trkpt>
      <trkpt lat="47.91157" lon="7.17535">
        <ele>574</ele>
        <time>2013-11-11T15:38:49Z</time>
      </trkpt>
      <trkpt lat="47.91161" lon="7.17534">
        <ele>574.3</ele>
        <time>2013-11-11T15:38:50Z</time>
      </trkpt>
      <trkpt lat="47.91166" lon="7.17533">
        <ele>574.7</ele>
        <time>2013-11-11T15:38:51Z</time>
      </trkpt>
      <trkpt lat="47.91174" lon="7.17531">
        <ele>575.1</ele>
        <time>2013-11-11T15:38:52Z</time>
      </trkpt>
      <trkpt lat="47.91191" lon="7.17528">
        <ele>575.8</ele>
        <time>2013-11-11T15:38:54Z</time>
      </trkpt>
      <trkpt lat="47.91196" lon="7.17527">
        <ele>576</ele>
        <time>2013-11-11T15:38:55Z</time>
      </trkpt>
      <trkpt lat="47.912" lon="7.17526">
        <ele>576.4</ele>
        <time>2013-11-11T15:38:56Z</time>
      </trkpt>
      <trkpt lat="47.91205" lon="7.17524">
        <ele>577.1</ele>
        <time>2013-11-11T15:38:57Z</time>
      </trkpt>
      <trkpt lat="47.9121" lon="7.1752">
        <ele>578.2</ele>
        <time>2013-11-11T15:38:58Z</time>
      </trkpt>
      <trkpt lat="47.91229" lon="7.17507">
        <ele>580.2</ele>
        <time>2013-11-11T15:38:59Z</time>
      </trkpt>
      <trkpt lat="47.91249" lon="7.17493">
        <ele>581.7</ele>
        <time>2013-11-11T15:39:00Z</time>
      </trkpt>
      <trkpt lat="47.91253" lon="7.1749">
        <ele>582</ele>
        <time>2013-11-11T15:39:01Z</time>
      </trkpt>
      <trkpt lat="47.91256" lon="7.17488">
        <ele>582.3</ele>
        <time>2013-11-11T15:39:02Z</time>
      </trkpt>
      <trkpt lat="47.91259" lon="7.17485">
        <ele>582.5</ele>
        <time>2013-11-11T15:39:03Z</time>
      </trkpt>
      <trkpt lat="47.91262" lon="7.17481">
        <ele>583</ele>
        <time>2013-11-11T15:39:04Z</time>
      </trkpt>
      <trkpt lat="47.91266" lon="7.17477">
        <ele>583.5</ele>
        <time>2013-11-11T15:39:05Z</time>
      </trkpt>
      <trkpt lat="47.91271" lon="7.17472">
        <ele>584.1</ele>
        <time>2013-11-11T15:39:06Z</time>
      </trkpt>
      <trkpt lat="47.91276" lon="7.17467">
        <ele>584.6</ele>
        <time>2013-11-11T15:39:07Z</time>
      </trkpt>
      <trkpt lat="47.9128" lon="7.17463">
        <ele>585.1</ele>
        <time>2013-11-11T15:39:08Z</time>
      </trkpt>
      <trkpt lat="47.91284" lon="7.17458">
        <ele>585.4</ele>
        <time>2013-11-11T15:39:09Z</time>
      </trkpt>
      <trkpt lat="47.91287" lon="7.17454">
        <ele>585</ele>
        <time>2013-11-11T15:39:10Z</time>
      </trkpt>
      <trkpt lat="47.91291" lon="7.17449">
        <ele>584.7</ele>
        <time>2013-11-11T15:39:11Z</time>
      </trkpt>
      <trkpt lat="47.91294" lon="7.17444">
        <ele>584</ele>
        <time>2013-11-11T15:39:12Z</time>
      </trkpt>
      <trkpt lat="47.91297" lon="7.17439">
        <ele>583.2</ele>
        <time>2013-11-11T15:39:13Z</time>
      </trkpt>
      <trkpt lat="47.91299" lon="7.17434">
        <ele>582.4</ele>
        <time>2013-11-11T15:39:14Z</time>
      </trkpt>
      <trkpt lat="47.91301" lon="7.1743">
        <ele>581.9</ele>
        <time>2013-11-11T15:39:15Z</time>
      </trkpt>
      <trkpt lat="47.91303" lon="7.17426">
        <ele>581.6</ele>
        <time>2013-11-11T15:39:16Z</time>
      </trkpt>
      <trkpt lat="47.91304" lon="7.17422">
        <ele>581.3</ele>
        <time>2013-11-11T15:39:17Z</time>
      </trkpt>
      <trkpt lat="47.91305" lon="7.17417">
        <ele>581.2</ele>
        <time>2013-11-11T15:39:18Z</time>
      </trkpt>
      <trkpt lat="47.91306" lon="7.1741">
        <ele>581</ele>
        <time>2013-11-11T15:39:20Z</time>
      </trkpt>
      <trkpt lat="47.91307" lon="7.17405">
        <ele>580.8</ele>
        <time>2013-11-11T15:39:21Z</time>
      </trkpt>
      <trkpt lat="47.91309" lon="7.17399">
        <ele>580.7</ele>
        <time>2013-11-11T15:39:22Z</time>
      </trkpt>
      <trkpt lat="47.9131" lon="7.17393">
        <ele>580.4</ele>
        <time>2013-11-11T15:39:23Z</time>
      </trkpt>
      <trkpt lat="47.91312" lon="7.17387">
        <ele>580.1</ele>
        <time>2013-11-11T15:39:24Z</time>
      </trkpt>
      <trkpt lat="47.91314" lon="7.17381">
        <ele>579.7</ele>
        <time>2013-11-11T15:39:25Z</time>
      </trkpt>
      <trkpt lat="47.91316" lon="7.17376">
        <ele>579.2</ele>
        <time>2013-11-11T15:39:26Z</time>
      </trkpt>
      <trkpt lat="47.91319" lon="7.1737">
        <ele>578.8</ele>
        <time>2013-11-11T15:39:27Z</time>
      </trkpt>
      <trkpt lat="47.91322" lon="7.17364">
        <ele>578.2</ele>
        <time>2013-11-11T15:39:28Z</time>
      </trkpt>
      <trkpt lat="47.91325" lon="7.17358">
        <ele>577.8</ele>
        <time>2013-11-11T15:39:29Z</time>
      </trkpt>
      <trkpt lat="47.91327" lon="7.1735">
        <ele>577.5</ele>
        <time>2013-11-11T15:39:30Z</time>
      </trkpt>
      <trkpt lat="47.9133" lon="7.17343">
        <ele>577.3</ele>
        <time>2013-11-11T15:39:31Z</time>
      </trkpt>
      <trkpt lat="47.91333" lon="7.17336">
        <ele>576.9</ele>
        <time>2013-11-11T15:39:32Z</time>
      </trkpt>
      <trkpt lat="47.91335" lon="7.17329">
        <ele>576.9</ele>
        <time>2013-11-11T15:39:33Z</time>
      </trkpt>
      <trkpt lat="47.91337" lon="7.17321">
        <ele>576.9</ele>
        <time>2013-11-11T15:39:34Z</time>
      </trkpt>
      <trkpt lat="47.91339" lon="7.17313">
        <ele>577.1</ele>
        <time>2013-11-11T15:39:35Z</time>
      </trkpt>
      <trkpt lat="47.9134" lon="7.17306">
        <ele>577.4</ele>
        <time>2013-11-11T15:39:36Z</time>
      </trkpt>
      <trkpt lat="47.91341" lon="7.17299">
        <ele>577.6</ele>
        <time>2013-11-11T15:39:37Z</time>
      </trkpt>
      <trkpt lat="47.91343" lon="7.17293">
        <ele>577.8</ele>
        <time>2013-11-11T15:39:38Z</time>
      </trkpt>
      <trkpt lat="47.91344" lon="7.17288">
        <ele>578</ele>
        <time>2013-11-11T15:39:39Z</time>
      </trkpt>
      <trkpt lat="47.91346" lon="7.17284">
        <ele>578.4</ele>
        <time>2013-11-11T15:39:40Z</time>
      </trkpt>
      <trkpt lat="47.91348" lon="7.17278">
        <ele>578.7</ele>
        <time>2013-11-11T15:39:42Z</time>
      </trkpt>
      <trkpt lat="47.91351" lon="7.17273">
        <ele>578.8</ele>
        <time>2013-11-11T15:39:44Z</time>
      </trkpt>
      <trkpt lat="47.91355" lon="7.17269">
        <ele>578.4</ele>
        <time>2013-11-11T15:39:46Z</time>
      </trkpt>
      <trkpt lat="47.91357" lon="7.17267">
        <ele>577.9</ele>
        <time>2013-11-11T15:39:47Z</time>
      </trkpt>
      <trkpt lat="47.91361" lon="7.17266">
        <ele>577.2</ele>
        <time>2013-11-11T15:39:48Z</time>
      </trkpt>
      <trkpt lat="47.91364" lon="7.17264">
        <ele>576.4</ele>
        <time>2013-11-11T15:39:49Z</time>
      </trkpt>
      <trkpt lat="47.91368" lon="7.17264">
        <ele>575.3</ele>
        <time>2013-11-11T15:39:50Z</time>
      </trkpt>
      <trkpt lat="47.91371" lon="7.17264">
        <ele>574.2</ele>
        <time>2013-11-11T15:39:51Z</time>
      </trkpt>
      <trkpt lat="47.91375" lon="7.17264">
        <ele>572.9</ele>
        <time>2013-11-11T15:39:52Z</time>
      </trkpt>
      <trkpt lat="47.91379" lon="7.17265">
        <ele>572</ele>
        <time>2013-11-11T15:39:53Z</time>
      </trkpt>
      <trkpt lat="47.91383" lon="7.17265">
        <ele>571</ele>
        <time>2013-11-11T15:39:54Z</time>
      </trkpt>
      <trkpt lat="47.91388" lon="7.17266">
        <ele>569.9</ele>
        <time>2013-11-11T15:39:55Z</time>
      </trkpt>
      <trkpt lat="47.91392" lon="7.17268">
        <ele>568.8</ele>
        <time>2013-11-11T15:39:56Z</time>
      </trkpt>
      <trkpt lat="47.91396" lon="7.17269">
        <ele>567.9</ele>
        <time>2013-11-11T15:39:57Z</time>
      </trkpt>
      <trkpt lat="47.914" lon="7.17269">
        <ele>567</ele>
        <time>2013-11-11T15:39:58Z</time>
      </trkpt>
      <trkpt lat="47.91403" lon="7.17269">
        <ele>566.2</ele>
        <time>2013-11-11T15:39:59Z</time>
      </trkpt>
      <trkpt lat="47.91408" lon="7.17269">
        <ele>565.5</ele>
        <time>2013-11-11T15:40:00Z</time>
      </trkpt>
      <trkpt lat="47.91413" lon="7.17269">
        <ele>564.4</ele>
        <time>2013-11-11T15:40:02Z</time>
      </trkpt>
      <trkpt lat="47.91416" lon="7.17269">
        <ele>563.8</ele>
        <time>2013-11-11T15:40:03Z</time>
      </trkpt>
      <trkpt lat="47.91419" lon="7.1727">
        <ele>563.1</ele>
        <time>2013-11-11T15:40:04Z</time>
      </trkpt>
      <trkpt lat="47.91422" lon="7.1727">
        <ele>562.4</ele>
        <time>2013-11-11T15:40:05Z</time>
      </trkpt>
      <trkpt lat="47.91425" lon="7.17271">
        <ele>561.6</ele>
        <time>2013-11-11T15:40:06Z</time>
      </trkpt>
      <trkpt lat="47.91432" lon="7.17274">
        <ele>559.5</ele>
        <time>2013-11-11T15:40:08Z</time>
      </trkpt>
      <trkpt lat="47.91436" lon="7.17276">
        <ele>558.3</ele>
        <time>2013-11-11T15:40:10Z</time>
      </trkpt>
      <trkpt lat="47.91441" lon="7.17274">
        <ele>557.6</ele>
        <time>2013-11-11T15:40:12Z</time>
      </trkpt>
      <trkpt lat="47.91444" lon="7.17272">
        <ele>557.4</ele>
        <time>2013-11-11T15:40:13Z</time>
      </trkpt>
      <trkpt lat="47.91447" lon="7.1727">
        <ele>557.4</ele>
        <time>2013-11-11T15:40:14Z</time>
      </trkpt>
      <trkpt lat="47.91451" lon="7.17268">
        <ele>557.2</ele>
        <time>2013-11-11T15:40:15Z</time>
      </trkpt>
      <trkpt lat="47.91455" lon="7.17265">
        <ele>557</ele>
        <time>2013-11-11T15:40:16Z</time>
      </trkpt>
      <trkpt lat="47.91459" lon="7.17263">
        <ele>556.7</ele>
        <time>2013-11-11T15:40:17Z</time>
      </trkpt>
      <trkpt lat="47.91463" lon="7.17262">
        <ele>556.9</ele>
        <time>2013-11-11T15:40:18Z</time>
      </trkpt>
      <trkpt lat="47.91466" lon="7.1726">
        <ele>557.1</ele>
        <time>2013-11-11T15:40:19Z</time>
      </trkpt>
      <trkpt lat="47.91469" lon="7.1726">
        <ele>557.1</ele>
        <time>2013-11-11T15:40:20Z</time>
      </trkpt>
      <trkpt lat="47.91473" lon="7.1726">
        <ele>556.9</ele>
        <time>2013-11-11T15:40:22Z</time>
      </trkpt>
      <trkpt lat="47.91477" lon="7.17261">
        <ele>556.5</ele>
        <time>2013-11-11T15:40:24Z</time>
      </trkpt>
      <trkpt lat="47.9148" lon="7.17262">
        <ele>556</ele>
        <time>2013-11-11T15:40:26Z</time>
      </trkpt>
      <trkpt lat="47.91483" lon="7.17263">
        <ele>555.7</ele>
        <time>2013-11-11T15:40:29Z</time>
      </trkpt>
      <trkpt lat="47.91486" lon="7.17261">
        <ele>556</ele>
        <time>2013-11-11T15:40:32Z</time>
      </trkpt>
      <trkpt lat="47.9149" lon="7.1726">
        <ele>555.9</ele>
        <time>2013-11-11T15:40:34Z</time>
      </trkpt>
      <trkpt lat="47.91493" lon="7.17263">
        <ele>555.2</ele>
        <time>2013-11-11T15:40:36Z</time>
      </trkpt>
      <trkpt lat="47.91497" lon="7.17264">
        <ele>554.6</ele>
        <time>2013-11-11T15:40:38Z</time>
      </trkpt>
      <trkpt lat="47.915" lon="7.17264">
        <ele>554.6</ele>
        <time>2013-11-11T15:40:39Z</time>
      </trkpt>
      <trkpt lat="47.91503" lon="7.17263">
        <ele>554.7</ele>
        <time>2013-11-11T15:40:40Z</time>
      </trkpt>
      <trkpt lat="47.91507" lon="7.1726">
        <ele>555</ele>
        <time>2013-11-11T15:40:41Z</time>
      </trkpt>
      <trkpt lat="47.91519" lon="7.17254">
        <ele>555.9</ele>
        <time>2013-11-11T15:40:42Z</time>
      </trkpt>
      <trkpt lat="47.9153" lon="7.17247">
        <ele>556.9</ele>
        <time>2013-11-11T15:40:43Z</time>
      </trkpt>
      <trkpt lat="47.91535" lon="7.17243">
        <ele>557.5</ele>
        <time>2013-11-11T15:40:44Z</time>
      </trkpt>
      <trkpt lat="47.9154" lon="7.17239">
        <ele>558</ele>
        <time>2013-11-11T15:40:45Z</time>
      </trkpt>
      <trkpt lat="47.91553" lon="7.17234">
        <ele>557.1</ele>
        <time>2013-11-11T15:40:46Z</time>
      </trkpt>
      <trkpt lat="47.91566" lon="7.17229">
        <ele>555.9</ele>
        <time>2013-11-11T15:40:47Z</time>
      </trkpt>
      <trkpt lat="47.91572" lon="7.17224">
        <ele>555.6</ele>
        <time>2013-11-11T15:40:48Z</time>
      </trkpt>
      <trkpt lat="47.91579" lon="7.1722">
        <ele>555.3</ele>
        <time>2013-11-11T15:40:49Z</time>
      </trkpt>
      <trkpt lat="47.91584" lon="7.17215">
        <ele>555.1</ele>
        <time>2013-11-11T15:40:50Z</time>
      </trkpt>
      <trkpt lat="47.91589" lon="7.17209">
        <ele>555.2</ele>
        <time>2013-11-11T15:40:51Z</time>
      </trkpt>
      <trkpt lat="47.91593" lon="7.17203">
        <ele>555.2</ele>
        <time>2013-11-11T15:40:52Z</time>
      </trkpt>
      <trkpt lat="47.91598" lon="7.17195">
        <ele>555.3</ele>
        <time>2013-11-11T15:40:53Z</time>
      </trkpt>
      <trkpt lat="47.91602" lon="7.17187">
        <ele>555.3</ele>
        <time>2013-11-11T15:40:54Z</time>
      </trkpt>
      <trkpt lat="47.91605" lon="7.1718">
        <ele>555.3</ele>
        <time>2013-11-11T15:40:55Z</time>
      </trkpt>
      <trkpt lat="47.91609" lon="7.17172">
        <ele>555.3</ele>
        <time>2013-11-11T15:40:56Z</time>
      </trkpt>
      <trkpt lat="47.91612" lon="7.17166">
        <ele>555.1</ele>
        <time>2013-11-11T15:40:57Z</time>
      </trkpt>
      <trkpt lat="47.91615" lon="7.1716">
        <ele>555</ele>
        <time>2013-11-11T15:40:58Z</time>
      </trkpt>
      <trkpt lat="47.91617" lon="7.17155">
        <ele>554.8</ele>
        <time>2013-11-11T15:40:59Z</time>
      </trkpt>
      <trkpt lat="47.9162" lon="7.1715">
        <ele>554.5</ele>
        <time>2013-11-11T15:41:00Z</time>
      </trkpt>
      <trkpt lat="47.91623" lon="7.17144">
        <ele>554.1</ele>
        <time>2013-11-11T15:41:01Z</time>
      </trkpt>
      <trkpt lat="47.91626" lon="7.17138">
        <ele>553.6</ele>
        <time>2013-11-11T15:41:02Z</time>
      </trkpt>
      <trkpt lat="47.9163" lon="7.17131">
        <ele>552.9</ele>
        <time>2013-11-11T15:41:03Z</time>
      </trkpt>
      <trkpt lat="47.91633" lon="7.17125">
        <ele>552.1</ele>
        <time>2013-11-11T15:41:04Z</time>
      </trkpt>
      <trkpt lat="47.91638" lon="7.17118">
        <ele>551.6</ele>
        <time>2013-11-11T15:41:05Z</time>
      </trkpt>
      <trkpt lat="47.91642" lon="7.17112">
        <ele>551.2</ele>
        <time>2013-11-11T15:41:06Z</time>
      </trkpt>
      <trkpt lat="47.91645" lon="7.17106">
        <ele>550.9</ele>
        <time>2013-11-11T15:41:07Z</time>
      </trkpt>
      <trkpt lat="47.91649" lon="7.17101">
        <ele>550.4</ele>
        <time>2013-11-11T15:41:08Z</time>
      </trkpt>
      <trkpt lat="47.91651" lon="7.17098">
        <ele>550</ele>
        <time>2013-11-11T15:41:09Z</time>
      </trkpt>
      <trkpt lat="47.91655" lon="7.17095">
        <ele>549.2</ele>
        <time>2013-11-11T15:41:10Z</time>
      </trkpt>
      <trkpt lat="47.91658" lon="7.17092">
        <ele>548.3</ele>
        <time>2013-11-11T15:41:11Z</time>
      </trkpt>
      <trkpt lat="47.91662" lon="7.17088">
        <ele>547.4</ele>
        <time>2013-11-11T15:41:12Z</time>
      </trkpt>
      <trkpt lat="47.91666" lon="7.17084">
        <ele>546.6</ele>
        <time>2013-11-11T15:41:13Z</time>
      </trkpt>
      <trkpt lat="47.9167" lon="7.17079">
        <ele>545.9</ele>
        <time>2013-11-11T15:41:14Z</time>
      </trkpt>
      <trkpt lat="47.91673" lon="7.17075">
        <ele>545.3</ele>
        <time>2013-11-11T15:41:15Z</time>
      </trkpt>
      <trkpt lat="47.91676" lon="7.17071">
        <ele>544.6</ele>
        <time>2013-11-11T15:41:16Z</time>
      </trkpt>
      <trkpt lat="47.9168" lon="7.17069">
        <ele>543.5</ele>
        <time>2013-11-11T15:41:17Z</time>
      </trkpt>
      <trkpt lat="47.91684" lon="7.17067">
        <ele>542.2</ele>
        <time>2013-11-11T15:41:18Z</time>
      </trkpt>
      <trkpt lat="47.91689" lon="7.17065">
        <ele>540.7</ele>
        <time>2013-11-11T15:41:19Z</time>
      </trkpt>
      <trkpt lat="47.91694" lon="7.17063">
        <ele>539.1</ele>
        <time>2013-11-11T15:41:20Z</time>
      </trkpt>
      <trkpt lat="47.91699" lon="7.1706">
        <ele>537.5</ele>
        <time>2013-11-11T15:41:21Z</time>
      </trkpt>
      <trkpt lat="47.91712" lon="7.17053">
        <ele>533.3</ele>
        <time>2013-11-11T15:41:22Z</time>
      </trkpt>
      <trkpt lat="47.91725" lon="7.17047">
        <ele>528.9</ele>
        <time>2013-11-11T15:41:23Z</time>
      </trkpt>
      <trkpt lat="47.9173" lon="7.17042">
        <ele>527.4</ele>
        <time>2013-11-11T15:41:24Z</time>
      </trkpt>
      <trkpt lat="47.91734" lon="7.17037">
        <ele>526.2</ele>
        <time>2013-11-11T15:41:25Z</time>
      </trkpt>
      <trkpt lat="47.91739" lon="7.17032">
        <ele>524.8</ele>
        <time>2013-11-11T15:41:26Z</time>
      </trkpt>
      <trkpt lat="47.91744" lon="7.17027">
        <ele>523.1</ele>
        <time>2013-11-11T15:41:27Z</time>
      </trkpt>
      <trkpt lat="47.91754" lon="7.1702">
        <ele>519.1</ele>
        <time>2013-11-11T15:41:28Z</time>
      </trkpt>
      <trkpt lat="47.91766" lon="7.17013">
        <ele>514.8</ele>
        <time>2013-11-11T15:41:29Z</time>
      </trkpt>
      <trkpt lat="47.91769" lon="7.17009">
        <ele>513.7</ele>
        <time>2013-11-11T15:41:30Z</time>
      </trkpt>
      <trkpt lat="47.91771" lon="7.17006">
        <ele>512.8</ele>
        <time>2013-11-11T15:41:31Z</time>
      </trkpt>
      <trkpt lat="47.91774" lon="7.17003">
        <ele>511.7</ele>
        <time>2013-11-11T15:41:32Z</time>
      </trkpt>
      <trkpt lat="47.91777" lon="7.17">
        <ele>510.6</ele>
        <time>2013-11-11T15:41:33Z</time>
      </trkpt>
      <trkpt lat="47.9178" lon="7.16998">
        <ele>509.2</ele>
        <time>2013-11-11T15:41:34Z</time>
      </trkpt>
      <trkpt lat="47.91784" lon="7.16996">
        <ele>507.6</ele>
        <time>2013-11-11T15:41:35Z</time>
      </trkpt>
      <trkpt lat="47.91788" lon="7.16995">
        <ele>505.9</ele>
        <time>2013-11-11T15:41:36Z</time>
      </trkpt>
      <trkpt lat="47.91792" lon="7.16993">
        <ele>504.2</ele>
        <time>2013-11-11T15:41:37Z</time>
      </trkpt>
      <trkpt lat="47.91795" lon="7.16992">
        <ele>503.1</ele>
        <time>2013-11-11T15:41:38Z</time>
      </trkpt>
      <trkpt lat="47.91799" lon="7.16991">
        <ele>502.1</ele>
        <time>2013-11-11T15:41:39Z</time>
      </trkpt>
      <trkpt lat="47.91802" lon="7.1699">
        <ele>501.1</ele>
        <time>2013-11-11T15:41:40Z</time>
      </trkpt>
      <trkpt lat="47.91805" lon="7.16989">
        <ele>500.1</ele>
        <time>2013-11-11T15:41:41Z</time>
      </trkpt>
      <trkpt lat="47.91808" lon="7.16988">
        <ele>499.1</ele>
        <time>2013-11-11T15:41:42Z</time>
      </trkpt>
      <trkpt lat="47.91812" lon="7.16988">
        <ele>498.1</ele>
        <time>2013-11-11T15:41:43Z</time>
      </trkpt>
      <trkpt lat="47.91815" lon="7.16988">
        <ele>497.1</ele>
        <time>2013-11-11T15:41:44Z</time>
      </trkpt>
      <trkpt lat="47.91818" lon="7.16989">
        <ele>496</ele>
        <time>2013-11-11T15:41:45Z</time>
      </trkpt>
      <trkpt lat="47.91822" lon="7.1699">
        <ele>494.7</ele>
        <time>2013-11-11T15:41:46Z</time>
      </trkpt>
      <trkpt lat="47.91827" lon="7.16992">
        <ele>493.3</ele>
        <time>2013-11-11T15:41:47Z</time>
      </trkpt>
      <trkpt lat="47.91831" lon="7.16995">
        <ele>491.9</ele>
        <time>2013-11-11T15:41:48Z</time>
      </trkpt>
      <trkpt lat="47.91836" lon="7.16998">
        <ele>490.5</ele>
        <time>2013-11-11T15:41:49Z</time>
      </trkpt>
      <trkpt lat="47.9184" lon="7.17001">
        <ele>489.1</ele>
        <time>2013-11-11T15:41:50Z</time>
      </trkpt>
      <trkpt lat="47.91845" lon="7.17005">
        <ele>487.7</ele>
        <time>2013-11-11T15:41:51Z</time>
      </trkpt>
      <trkpt lat="47.9185" lon="7.17009">
        <ele>486.3</ele>
        <time>2013-11-11T15:41:52Z</time>
      </trkpt>
      <trkpt lat="47.91854" lon="7.17012">
        <ele>485.1</ele>
        <time>2013-11-11T15:41:53Z</time>
      </trkpt>
      <trkpt lat="47.91859" lon="7.17016">
        <ele>483.4</ele>
        <time>2013-11-11T15:41:54Z</time>
      </trkpt>
      <trkpt lat="47.91863" lon="7.17019">
        <ele>482.2</ele>
        <time>2013-11-11T15:41:55Z</time>
      </trkpt>
      <trkpt lat="47.91868" lon="7.17022">
        <ele>481</ele>
        <time>2013-11-11T15:41:56Z</time>
      </trkpt>
      <trkpt lat="47.91872" lon="7.17025">
        <ele>479.7</ele>
        <time>2013-11-11T15:41:57Z</time>
      </trkpt>
      <trkpt lat="47.91876" lon="7.17028">
        <ele>478.5</ele>
        <time>2013-11-11T15:41:58Z</time>
      </trkpt>
      <trkpt lat="47.9188" lon="7.17031">
        <ele>477.2</ele>
        <time>2013-11-11T15:41:59Z</time>
      </trkpt>
      <trkpt lat="47.91883" lon="7.17034">
        <ele>476.2</ele>
        <time>2013-11-11T15:42:00Z</time>
      </trkpt>
      <trkpt lat="47.91886" lon="7.17037">
        <ele>475.2</ele>
        <time>2013-11-11T15:42:01Z</time>
      </trkpt>
      <trkpt lat="47.91891" lon="7.17041">
        <ele>473.9</ele>
        <time>2013-11-11T15:42:02Z</time>
      </trkpt>
      <trkpt lat="47.91894" lon="7.17045">
        <ele>472.9</ele>
        <time>2013-11-11T15:42:03Z</time>
      </trkpt>
      <trkpt lat="47.91896" lon="7.17049">
        <ele>472.1</ele>
        <time>2013-11-11T15:42:04Z</time>
      </trkpt>
      <trkpt lat="47.91899" lon="7.17054">
        <ele>471.3</ele>
        <time>2013-11-11T15:42:05Z</time>
      </trkpt>
      <trkpt lat="47.91901" lon="7.17059">
        <ele>470.7</ele>
        <time>2013-11-11T15:42:06Z</time>
      </trkpt>
      <trkpt lat="47.91904" lon="7.17065">
        <ele>469.8</ele>
        <time>2013-11-11T15:42:07Z</time>
      </trkpt>
      <trkpt lat="47.91907" lon="7.17069">
        <ele>468.7</ele>
        <time>2013-11-11T15:42:09Z</time>
      </trkpt>
      <trkpt lat="47.91912" lon="7.17066">
        <ele>467.5</ele>
        <time>2013-11-11T15:42:11Z</time>
      </trkpt>
      <trkpt lat="47.91915" lon="7.17062">
        <ele>466.4</ele>
        <time>2013-11-11T15:42:13Z</time>
      </trkpt>
      <trkpt lat="47.91918" lon="7.17055">
        <ele>465.3</ele>
        <time>2013-11-11T15:42:15Z</time>
      </trkpt>
      <trkpt lat="47.9192" lon="7.17051">
        <ele>464.7</ele>
        <time>2013-11-11T15:42:16Z</time>
      </trkpt>
      <trkpt lat="47.91921" lon="7.17047">
        <ele>464.2</ele>
        <time>2013-11-11T15:42:17Z</time>
      </trkpt>
      <trkpt lat="47.91923" lon="7.17042">
        <ele>463.5</ele>
        <time>2013-11-11T15:42:18Z</time>
      </trkpt>
      <trkpt lat="47.91924" lon="7.17037">
        <ele>462.9</ele>
        <time>2013-11-11T15:42:20Z</time>
      </trkpt>
      <trkpt lat="47.91928" lon="7.1704">
        <ele>461.8</ele>
        <time>2013-11-11T15:42:23Z</time>
      </trkpt>
      <trkpt lat="47.9193" lon="7.17043">
        <ele>461.1</ele>
        <time>2013-11-11T15:42:24Z</time>
      </trkpt>
      <trkpt lat="47.91933" lon="7.17047">
        <ele>460.3</ele>
        <time>2013-11-11T15:42:25Z</time>
      </trkpt>
      <trkpt lat="47.91937" lon="7.1705">
        <ele>459.4</ele>
        <time>2013-11-11T15:42:26Z</time>
      </trkpt>
      <trkpt lat="47.9194" lon="7.17054">
        <ele>458.5</ele>
        <time>2013-11-11T15:42:27Z</time>
      </trkpt>
      <trkpt lat="47.91943" lon="7.17057">
        <ele>457.7</ele>
        <time>2013-11-11T15:42:28Z</time>
      </trkpt>
      <trkpt lat="47.91946" lon="7.1706">
        <ele>457</ele>
        <time>2013-11-11T15:42:29Z</time>
      </trkpt>
      <trkpt lat="47.91947" lon="7.17064">
        <ele>456.6</ele>
        <time>2013-11-11T15:42:30Z</time>
      </trkpt>
      <trkpt lat="47.9195" lon="7.17067">
        <ele>456.2</ele>
        <time>2013-11-11T15:42:31Z</time>
      </trkpt>
      <trkpt lat="47.91952" lon="7.17071">
        <ele>455.6</ele>
        <time>2013-11-11T15:42:32Z</time>
      </trkpt>
      <trkpt lat="47.91955" lon="7.17076">
        <ele>454.9</ele>
        <time>2013-11-11T15:42:33Z</time>
      </trkpt>
      <trkpt lat="47.91959" lon="7.17081">
        <ele>454.3</ele>
        <time>2013-11-11T15:42:34Z</time>
      </trkpt>
      <trkpt lat="47.91962" lon="7.17086">
        <ele>453.5</ele>
        <time>2013-11-11T15:42:35Z</time>
      </trkpt>
      <trkpt lat="47.91965" lon="7.1709">
        <ele>452.7</ele>
        <time>2013-11-11T15:42:36Z</time>
      </trkpt>
      <trkpt lat="47.91967" lon="7.17094">
        <ele>452.2</ele>
        <time>2013-11-11T15:42:37Z</time>
      </trkpt>
      <trkpt lat="47.91969" lon="7.171">
        <ele>451.6</ele>
        <time>2013-11-11T15:42:39Z</time>
      </trkpt>
      <trkpt lat="47.91968" lon="7.17104">
        <ele>452.1</ele>
        <time>2013-11-11T15:42:41Z</time>
      </trkpt>
      <trkpt lat="47.91966" lon="7.17106">
        <ele>453.2</ele>
        <time>2013-11-11T15:42:45Z</time>
      </trkpt>
      <trkpt lat="47.91965" lon="7.1711">
        <ele>453.6</ele>
        <time>2013-11-11T15:42:48Z</time>
      </trkpt>
      <trkpt lat="47.91966" lon="7.17117">
        <ele>453.7</ele>
        <time>2013-11-11T15:42:50Z</time>
      </trkpt>
      <trkpt lat="47.91967" lon="7.17124">
        <ele>453.8</ele>
        <time>2013-11-11T15:42:52Z</time>
      </trkpt>
      <trkpt lat="47.91968" lon="7.17129">
        <ele>453.1</ele>
        <time>2013-11-11T15:42:53Z</time>
      </trkpt>
      <trkpt lat="47.9197" lon="7.17134">
        <ele>452.1</ele>
        <time>2013-11-11T15:42:54Z</time>
      </trkpt>
      <trkpt lat="47.91972" lon="7.17139">
        <ele>451.1</ele>
        <time>2013-11-11T15:42:55Z</time>
      </trkpt>
      <trkpt lat="47.91975" lon="7.17144">
        <ele>449.9</ele>
        <time>2013-11-11T15:42:56Z</time>
      </trkpt>
      <trkpt lat="47.91979" lon="7.17151">
        <ele>448.1</ele>
        <time>2013-11-11T15:42:58Z</time>
      </trkpt>
      <trkpt lat="47.91982" lon="7.17152">
        <ele>447.1</ele>
        <time>2013-11-11T15:42:59Z</time>
      </trkpt>
      <trkpt lat="47.91985" lon="7.17152">
        <ele>446.2</ele>
        <time>2013-11-11T15:43:00Z</time>
      </trkpt>
      <trkpt lat="47.91987" lon="7.1715">
        <ele>445.5</ele>
        <time>2013-11-11T15:43:01Z</time>
      </trkpt>
      <trkpt lat="47.91989" lon="7.17146">
        <ele>445</ele>
        <time>2013-11-11T15:43:02Z</time>
      </trkpt>
      <trkpt lat="47.91992" lon="7.17139">
        <ele>444.3</ele>
        <time>2013-11-11T15:43:04Z</time>
      </trkpt>
      <trkpt lat="47.91994" lon="7.17134">
        <ele>444</ele>
        <time>2013-11-11T15:43:05Z</time>
      </trkpt>
      <trkpt lat="47.91996" lon="7.17128">
        <ele>443.5</ele>
        <time>2013-11-11T15:43:06Z</time>
      </trkpt>
      <trkpt lat="47.91996" lon="7.17122">
        <ele>443.2</ele>
        <time>2013-11-11T15:43:07Z</time>
      </trkpt>
      <trkpt lat="47.91997" lon="7.17113">
        <ele>442.5</ele>
        <time>2013-11-11T15:43:09Z</time>
      </trkpt>
      <trkpt lat="47.91996" lon="7.17107">
        <ele>442.3</ele>
        <time>2013-11-11T15:43:10Z</time>
      </trkpt>
      <trkpt lat="47.91996" lon="7.17102">
        <ele>441.9</ele>
        <time>2013-11-11T15:43:11Z</time>
      </trkpt>
      <trkpt lat="47.91997" lon="7.17097">
        <ele>441.5</ele>
        <time>2013-11-11T15:43:12Z</time>
      </trkpt>
      <trkpt lat="47.91998" lon="7.17093">
        <ele>440.9</ele>
        <time>2013-11-11T15:43:13Z</time>
      </trkpt>
      <trkpt lat="47.92001" lon="7.17089">
        <ele>439.5</ele>
        <time>2013-11-11T15:43:15Z</time>
      </trkpt>
      <trkpt lat="47.92004" lon="7.17093">
        <ele>438.5</ele>
        <time>2013-11-11T15:43:18Z</time>
      </trkpt>
      <trkpt lat="47.92007" lon="7.17096">
        <ele>437.9</ele>
        <time>2013-11-11T15:43:19Z</time>
      </trkpt>
      <trkpt lat="47.9201" lon="7.171">
        <ele>436.8</ele>
        <time>2013-11-11T15:43:21Z</time>
      </trkpt>
      <trkpt lat="47.92014" lon="7.17103">
        <ele>435.7</ele>
        <time>2013-11-11T15:43:23Z</time>
      </trkpt>
      <trkpt lat="47.92018" lon="7.17107">
        <ele>434.5</ele>
        <time>2013-11-11T15:43:25Z</time>
      </trkpt>
      <trkpt lat="47.92022" lon="7.1711">
        <ele>433</ele>
        <time>2013-11-11T15:43:27Z</time>
      </trkpt>
      <trkpt lat="47.92029" lon="7.17108">
        <ele>430.7</ele>
        <time>2013-11-11T15:43:29Z</time>
      </trkpt>
      <trkpt lat="47.92032" lon="7.17104">
        <ele>429.1</ele>
        <time>2013-11-11T15:43:31Z</time>
      </trkpt>
      <trkpt lat="47.92035" lon="7.17103">
        <ele>428.1</ele>
        <time>2013-11-11T15:43:34Z</time>
      </trkpt>
      <trkpt lat="47.92038" lon="7.17105">
        <ele>427.2</ele>
        <time>2013-11-11T15:43:36Z</time>
      </trkpt>
      <trkpt lat="47.92041" lon="7.17105">
        <ele>426</ele>
        <time>2013-11-11T15:43:38Z</time>
      </trkpt>
      <trkpt lat="47.92045" lon="7.17103">
        <ele>424.4</ele>
        <time>2013-11-11T15:43:40Z</time>
      </trkpt>
      <trkpt lat="47.92047" lon="7.17098">
        <ele>423</ele>
        <time>2013-11-11T15:43:42Z</time>
      </trkpt>
      <trkpt lat="47.9205" lon="7.17093">
        <ele>421.5</ele>
        <time>2013-11-11T15:43:44Z</time>
      </trkpt>
      <trkpt lat="47.92053" lon="7.17087">
        <ele>420</ele>
        <time>2013-11-11T15:43:46Z</time>
      </trkpt>
      <trkpt lat="47.92055" lon="7.17082">
        <ele>418.9</ele>
        <time>2013-11-11T15:43:48Z</time>
      </trkpt>
      <trkpt lat="47.92058" lon="7.17082">
        <ele>417.3</ele>
        <time>2013-11-11T15:43:50Z</time>
      </trkpt>
      <trkpt lat="47.92061" lon="7.17084">
        <ele>416.4</ele>
        <time>2013-11-11T15:43:51Z</time>
      </trkpt>
      <trkpt lat="47.92064" lon="7.17088">
        <ele>415.2</ele>
        <time>2013-11-11T15:43:52Z</time>
      </trkpt>
      <trkpt lat="47.92067" lon="7.17091">
        <ele>414</ele>
        <time>2013-11-11T15:43:53Z</time>
      </trkpt>
      <trkpt lat="47.9207" lon="7.17094">
        <ele>412.7</ele>
        <time>2013-11-11T15:43:54Z</time>
      </trkpt>
      <trkpt lat="47.92073" lon="7.17097">
        <ele>411.4</ele>
        <time>2013-11-11T15:43:55Z</time>
      </trkpt>
      <trkpt lat="47.92076" lon="7.171">
        <ele>410.1</ele>
        <time>2013-11-11T15:43:56Z</time>
      </trkpt>
      <trkpt lat="47.92079" lon="7.17103">
        <ele>408.8</ele>
        <time>2013-11-11T15:43:57Z</time>
      </trkpt>
      <trkpt lat="47.92082" lon="7.17106">
        <ele>407.7</ele>
        <time>2013-11-11T15:43:58Z</time>
      </trkpt>
      <trkpt lat="47.92085" lon="7.1711">
        <ele>406.3</ele>
        <time>2013-11-11T15:43:59Z</time>
      </trkpt>
      <trkpt lat="47.92088" lon="7.17115">
        <ele>405.2</ele>
        <time>2013-11-11T15:44:00Z</time>
      </trkpt>
      <trkpt lat="47.9209" lon="7.17119">
        <ele>404.2</ele>
        <time>2013-11-11T15:44:01Z</time>
      </trkpt>
      <trkpt lat="47.92094" lon="7.17123">
        <ele>402.6</ele>
        <time>2013-11-11T15:44:03Z</time>
      </trkpt>
      <trkpt lat="47.92096" lon="7.17125">
        <ele>401.5</ele>
        <time>2013-11-11T15:44:05Z</time>
      </trkpt>
      <trkpt lat="47.92093" lon="7.17126">
        <ele>402.9</ele>
        <time>2013-11-11T15:44:11Z</time>
      </trkpt>
    </trkseg>
  </trk>
</gpx>